<?xml version="1.0" encoding="UTF-8" standalone="no" ?>
<gpx xmlns="http://www.topografix.com/GPX/1/1" xmlns:xsi="http://www.w3.org/2001/XMLSchema-instance" xsi:schemaLocation="http://www.topografix.com/GPX/1/1 http://www.topografix.com/GPX/1/1/gpx.xsd" version="1.1" creator="VisuGPX - https://www.visugpx.com">
  <metadata>
    <name>VTT du mercredi 22 mai 2019</name>
    <desc><![CDATA[Avec les Ports]]></desc>
  </metadata>
  <wpt lat="47.68619" lon="6.04549">
    <ele>256.26</ele>
    <name><![CDATA[0000152]]></name>
    <type><![CDATA[Point de départ]]></type>
  </wpt>
  <wpt lat="47.68623" lon="6.04549">
    <ele>230.72</ele>
    <name><![CDATA[0000153]]></name>
    <desc><![CDATA[<p><br /><h3>Nom: Segment: 1</h3><br />Heure de départ: 05/22/2019 09:40<br/>Heure d'arrivée: 05/22/2019 11:31<br/>Distance: 20,7km (01:50)<br/>Temps déplacement: 01:37<br/>Vitesse moyenne: 11,18 km/h<br/>Vitesse moyenne mouv.: 12,7 km/h<br/>Vitesse Max.: 32,23 km/h<br/>Altitude minimale: 216 m<br/>Altitude maximale: 291 m<br/>Vitesse de montée: 95,9 m/h<br/>Vitesse de descente: -216,3 m/h<br/>Gain d'altitude: 95 m<br/>Perte d'altitude: -122 m<br/>Temps de montée: 00:59<br/>Temps de descente: 00:33<br/></p>]]></desc>
    <type><![CDATA[Point d'arrivée]]></type>
  </wpt>
  <trk>
    <name><![CDATA[2019-05-22 09:40]]></name>
    <desc><![CDATA[<p>Heure de départ: 05/22/2019 09:40<br/>Heure d'arrivée: 05/22/2019 11:31<br/>Distance: 20,7 km (01:50)<br/>Temps déplacement: 01:37<br/>Vitesse moyenne: 11,18 km/h<br/>Vitesse moyenne mouv.: 12,73 km/h<br/>Vitesse Max.: 32,23 km/h<br/>Altitude minimale: 216 m<br/>Altitude maximale: 291 m<br/>Vitesse de montée: 90,8 m/h<br/>Vitesse de descente: -194 m/h<br/>Gain d'altitude: 93 m<br/>Perte d'altitude: -108 m<br/>Temps de montée: 01:01<br/>Temps de descente: 00:33<br/></p><hr align="center" width="480" style="height: 2px; width: 517px"/>]]></desc>
    <trkseg>
      <trkpt lat="47.68619" lon="6.04549">
        <ele>256.26</ele>
        <time>2019-05-22T07:40:11Z</time>
      </trkpt>
      <trkpt lat="47.68623" lon="6.04547">
        <ele>244.4</ele>
        <time>2019-05-22T07:41:17Z</time>
      </trkpt>
      <trkpt lat="47.68628" lon="6.04545">
        <ele>244.1</ele>
        <time>2019-05-22T07:41:20Z</time>
      </trkpt>
      <trkpt lat="47.68633" lon="6.04547">
        <ele>243.58</ele>
        <time>2019-05-22T07:41:25Z</time>
      </trkpt>
      <trkpt lat="47.68638" lon="6.04551">
        <ele>243.24</ele>
        <time>2019-05-22T07:41:29Z</time>
      </trkpt>
      <trkpt lat="47.68644" lon="6.04555">
        <ele>243.06</ele>
        <time>2019-05-22T07:41:32Z</time>
      </trkpt>
      <trkpt lat="47.68649" lon="6.0456">
        <ele>242.93</ele>
        <time>2019-05-22T07:41:35Z</time>
      </trkpt>
      <trkpt lat="47.68653" lon="6.04564">
        <ele>242.86</ele>
        <time>2019-05-22T07:41:37Z</time>
      </trkpt>
      <trkpt lat="47.68657" lon="6.04571">
        <ele>242.74</ele>
        <time>2019-05-22T07:41:40Z</time>
      </trkpt>
      <trkpt lat="47.68661" lon="6.04576">
        <ele>242.68</ele>
        <time>2019-05-22T07:41:42Z</time>
      </trkpt>
      <trkpt lat="47.68664" lon="6.04582">
        <ele>242.63</ele>
        <time>2019-05-22T07:41:44Z</time>
      </trkpt>
      <trkpt lat="47.68668" lon="6.04588">
        <ele>242.6</ele>
        <time>2019-05-22T07:41:46Z</time>
      </trkpt>
      <trkpt lat="47.68672" lon="6.04597">
        <ele>242.58</ele>
        <time>2019-05-22T07:41:48Z</time>
      </trkpt>
      <trkpt lat="47.68676" lon="6.04604">
        <ele>242.57</ele>
        <time>2019-05-22T07:41:50Z</time>
      </trkpt>
      <trkpt lat="47.68679" lon="6.04612">
        <ele>242.56</ele>
        <time>2019-05-22T07:41:53Z</time>
      </trkpt>
      <trkpt lat="47.68683" lon="6.0462">
        <ele>242.55</ele>
        <time>2019-05-22T07:41:55Z</time>
      </trkpt>
      <trkpt lat="47.68685" lon="6.04627">
        <ele>242.56</ele>
        <time>2019-05-22T07:41:58Z</time>
      </trkpt>
      <trkpt lat="47.68688" lon="6.04634">
        <ele>242.59</ele>
        <time>2019-05-22T07:42:00Z</time>
      </trkpt>
      <trkpt lat="47.68692" lon="6.0464">
        <ele>242.62</ele>
        <time>2019-05-22T07:42:02Z</time>
      </trkpt>
      <trkpt lat="47.68696" lon="6.04648">
        <ele>242.66</ele>
        <time>2019-05-22T07:42:04Z</time>
      </trkpt>
      <trkpt lat="47.68699" lon="6.04655">
        <ele>242.69</ele>
        <time>2019-05-22T07:42:06Z</time>
      </trkpt>
      <trkpt lat="47.68703" lon="6.04662">
        <ele>242.72</ele>
        <time>2019-05-22T07:42:08Z</time>
      </trkpt>
      <trkpt lat="47.68707" lon="6.0467">
        <ele>242.76</ele>
        <time>2019-05-22T07:42:10Z</time>
      </trkpt>
      <trkpt lat="47.68711" lon="6.04678">
        <ele>242.8</ele>
        <time>2019-05-22T07:42:12Z</time>
      </trkpt>
      <trkpt lat="47.68715" lon="6.04686">
        <ele>242.84</ele>
        <time>2019-05-22T07:42:14Z</time>
      </trkpt>
      <trkpt lat="47.6872" lon="6.04696">
        <ele>242.88</ele>
        <time>2019-05-22T07:42:16Z</time>
      </trkpt>
      <trkpt lat="47.68724" lon="6.04705">
        <ele>242.92</ele>
        <time>2019-05-22T07:42:18Z</time>
      </trkpt>
      <trkpt lat="47.68729" lon="6.04714">
        <ele>242.97</ele>
        <time>2019-05-22T07:42:20Z</time>
      </trkpt>
      <trkpt lat="47.68733" lon="6.04723">
        <ele>243.14</ele>
        <time>2019-05-22T07:42:22Z</time>
      </trkpt>
      <trkpt lat="47.68737" lon="6.04733">
        <ele>243.36</ele>
        <time>2019-05-22T07:42:24Z</time>
      </trkpt>
      <trkpt lat="47.6874" lon="6.04742">
        <ele>243.41</ele>
        <time>2019-05-22T07:42:26Z</time>
      </trkpt>
      <trkpt lat="47.68743" lon="6.04752">
        <ele>243.52</ele>
        <time>2019-05-22T07:42:28Z</time>
      </trkpt>
      <trkpt lat="47.68746" lon="6.04762">
        <ele>243.71</ele>
        <time>2019-05-22T07:42:30Z</time>
      </trkpt>
      <trkpt lat="47.6875" lon="6.04772">
        <ele>243.81</ele>
        <time>2019-05-22T07:42:32Z</time>
      </trkpt>
      <trkpt lat="47.68753" lon="6.04783">
        <ele>243.86</ele>
        <time>2019-05-22T07:42:34Z</time>
      </trkpt>
      <trkpt lat="47.68756" lon="6.04794">
        <ele>243.84</ele>
        <time>2019-05-22T07:42:36Z</time>
      </trkpt>
      <trkpt lat="47.68758" lon="6.048">
        <ele>243.83</ele>
        <time>2019-05-22T07:42:37Z</time>
      </trkpt>
      <trkpt lat="47.6876" lon="6.04807">
        <ele>243.82</ele>
        <time>2019-05-22T07:42:38Z</time>
      </trkpt>
      <trkpt lat="47.68762" lon="6.04813">
        <ele>243.8</ele>
        <time>2019-05-22T07:42:39Z</time>
      </trkpt>
      <trkpt lat="47.68766" lon="6.04825">
        <ele>243.77</ele>
        <time>2019-05-22T07:42:41Z</time>
      </trkpt>
      <trkpt lat="47.6877" lon="6.04835">
        <ele>243.71</ele>
        <time>2019-05-22T07:42:43Z</time>
      </trkpt>
      <trkpt lat="47.68773" lon="6.04847">
        <ele>243.61</ele>
        <time>2019-05-22T07:42:45Z</time>
      </trkpt>
      <trkpt lat="47.68776" lon="6.04859">
        <ele>243.45</ele>
        <time>2019-05-22T07:42:47Z</time>
      </trkpt>
      <trkpt lat="47.68778" lon="6.04866">
        <ele>243.37</ele>
        <time>2019-05-22T07:42:48Z</time>
      </trkpt>
      <trkpt lat="47.6878" lon="6.04872">
        <ele>243.3</ele>
        <time>2019-05-22T07:42:49Z</time>
      </trkpt>
      <trkpt lat="47.68781" lon="6.04878">
        <ele>243.21</ele>
        <time>2019-05-22T07:42:50Z</time>
      </trkpt>
      <trkpt lat="47.68784" lon="6.04889">
        <ele>243.04</ele>
        <time>2019-05-22T07:42:52Z</time>
      </trkpt>
      <trkpt lat="47.68787" lon="6.04898">
        <ele>243</ele>
        <time>2019-05-22T07:42:54Z</time>
      </trkpt>
      <trkpt lat="47.68789" lon="6.04906">
        <ele>242.97</ele>
        <time>2019-05-22T07:42:56Z</time>
      </trkpt>
      <trkpt lat="47.68791" lon="6.04913">
        <ele>242.94</ele>
        <time>2019-05-22T07:42:58Z</time>
      </trkpt>
      <trkpt lat="47.68794" lon="6.04921">
        <ele>242.9</ele>
        <time>2019-05-22T07:43:00Z</time>
      </trkpt>
      <trkpt lat="47.68796" lon="6.04929">
        <ele>242.86</ele>
        <time>2019-05-22T07:43:02Z</time>
      </trkpt>
      <trkpt lat="47.68797" lon="6.04937">
        <ele>242.83</ele>
        <time>2019-05-22T07:43:04Z</time>
      </trkpt>
      <trkpt lat="47.68798" lon="6.04946">
        <ele>242.77</ele>
        <time>2019-05-22T07:43:07Z</time>
      </trkpt>
      <trkpt lat="47.688" lon="6.04955">
        <ele>242.71</ele>
        <time>2019-05-22T07:43:10Z</time>
      </trkpt>
      <trkpt lat="47.688" lon="6.04963">
        <ele>242.66</ele>
        <time>2019-05-22T07:43:12Z</time>
      </trkpt>
      <trkpt lat="47.688" lon="6.0497">
        <ele>242.63</ele>
        <time>2019-05-22T07:43:14Z</time>
      </trkpt>
      <trkpt lat="47.68799" lon="6.04979">
        <ele>242.6</ele>
        <time>2019-05-22T07:43:16Z</time>
      </trkpt>
      <trkpt lat="47.68798" lon="6.04988">
        <ele>242.56</ele>
        <time>2019-05-22T07:43:18Z</time>
      </trkpt>
      <trkpt lat="47.68797" lon="6.04996">
        <ele>242.54</ele>
        <time>2019-05-22T07:43:20Z</time>
      </trkpt>
      <trkpt lat="47.68796" lon="6.05005">
        <ele>242.52</ele>
        <time>2019-05-22T07:43:22Z</time>
      </trkpt>
      <trkpt lat="47.68795" lon="6.05014">
        <ele>242.5</ele>
        <time>2019-05-22T07:43:24Z</time>
      </trkpt>
      <trkpt lat="47.68795" lon="6.05022">
        <ele>242.48</ele>
        <time>2019-05-22T07:43:26Z</time>
      </trkpt>
      <trkpt lat="47.68794" lon="6.05031">
        <ele>242.46</ele>
        <time>2019-05-22T07:43:28Z</time>
      </trkpt>
      <trkpt lat="47.68793" lon="6.0504">
        <ele>242.44</ele>
        <time>2019-05-22T07:43:30Z</time>
      </trkpt>
      <trkpt lat="47.68793" lon="6.05048">
        <ele>242.42</ele>
        <time>2019-05-22T07:43:32Z</time>
      </trkpt>
      <trkpt lat="47.68792" lon="6.05056">
        <ele>242.41</ele>
        <time>2019-05-22T07:43:34Z</time>
      </trkpt>
      <trkpt lat="47.6879" lon="6.05065">
        <ele>242.39</ele>
        <time>2019-05-22T07:43:36Z</time>
      </trkpt>
      <trkpt lat="47.68789" lon="6.05073">
        <ele>242.38</ele>
        <time>2019-05-22T07:43:38Z</time>
      </trkpt>
      <trkpt lat="47.68788" lon="6.05082">
        <ele>242.36</ele>
        <time>2019-05-22T07:43:40Z</time>
      </trkpt>
      <trkpt lat="47.68788" lon="6.05091">
        <ele>242.35</ele>
        <time>2019-05-22T07:43:42Z</time>
      </trkpt>
      <trkpt lat="47.68787" lon="6.051">
        <ele>242.34</ele>
        <time>2019-05-22T07:43:44Z</time>
      </trkpt>
      <trkpt lat="47.68787" lon="6.05108">
        <ele>242.32</ele>
        <time>2019-05-22T07:43:46Z</time>
      </trkpt>
      <trkpt lat="47.68787" lon="6.05116">
        <ele>242.31</ele>
        <time>2019-05-22T07:43:48Z</time>
      </trkpt>
      <trkpt lat="47.68786" lon="6.05123">
        <ele>242.31</ele>
        <time>2019-05-22T07:43:50Z</time>
      </trkpt>
      <trkpt lat="47.68785" lon="6.05131">
        <ele>242.29</ele>
        <time>2019-05-22T07:43:53Z</time>
      </trkpt>
      <trkpt lat="47.68783" lon="6.05141">
        <ele>242.28</ele>
        <time>2019-05-22T07:43:56Z</time>
      </trkpt>
      <trkpt lat="47.68782" lon="6.05148">
        <ele>242.27</ele>
        <time>2019-05-22T07:43:58Z</time>
      </trkpt>
      <trkpt lat="47.68781" lon="6.05155">
        <ele>242.26</ele>
        <time>2019-05-22T07:44:00Z</time>
      </trkpt>
      <trkpt lat="47.68781" lon="6.05163">
        <ele>242.25</ele>
        <time>2019-05-22T07:44:02Z</time>
      </trkpt>
      <trkpt lat="47.6878" lon="6.0517">
        <ele>242.24</ele>
        <time>2019-05-22T07:44:04Z</time>
      </trkpt>
      <trkpt lat="47.6878" lon="6.05177">
        <ele>242.23</ele>
        <time>2019-05-22T07:44:06Z</time>
      </trkpt>
      <trkpt lat="47.6878" lon="6.05184">
        <ele>242.22</ele>
        <time>2019-05-22T07:44:08Z</time>
      </trkpt>
      <trkpt lat="47.68779" lon="6.05193">
        <ele>242.21</ele>
        <time>2019-05-22T07:44:10Z</time>
      </trkpt>
      <trkpt lat="47.68778" lon="6.05204">
        <ele>242.2</ele>
        <time>2019-05-22T07:44:12Z</time>
      </trkpt>
      <trkpt lat="47.68777" lon="6.05214">
        <ele>242.19</ele>
        <time>2019-05-22T07:44:14Z</time>
      </trkpt>
      <trkpt lat="47.68776" lon="6.05223">
        <ele>242.18</ele>
        <time>2019-05-22T07:44:16Z</time>
      </trkpt>
      <trkpt lat="47.68775" lon="6.05231">
        <ele>242.17</ele>
        <time>2019-05-22T07:44:18Z</time>
      </trkpt>
      <trkpt lat="47.68775" lon="6.05239">
        <ele>242.17</ele>
        <time>2019-05-22T07:44:20Z</time>
      </trkpt>
      <trkpt lat="47.68774" lon="6.05247">
        <ele>242.17</ele>
        <time>2019-05-22T07:44:22Z</time>
      </trkpt>
      <trkpt lat="47.68773" lon="6.05254">
        <ele>242.16</ele>
        <time>2019-05-22T07:44:24Z</time>
      </trkpt>
      <trkpt lat="47.68772" lon="6.05261">
        <ele>242.16</ele>
        <time>2019-05-22T07:44:26Z</time>
      </trkpt>
      <trkpt lat="47.68771" lon="6.05268">
        <ele>242.16</ele>
        <time>2019-05-22T07:44:28Z</time>
      </trkpt>
      <trkpt lat="47.68771" lon="6.05275">
        <ele>242.17</ele>
        <time>2019-05-22T07:44:30Z</time>
      </trkpt>
      <trkpt lat="47.6877" lon="6.05282">
        <ele>242.18</ele>
        <time>2019-05-22T07:44:32Z</time>
      </trkpt>
      <trkpt lat="47.68769" lon="6.05289">
        <ele>242.19</ele>
        <time>2019-05-22T07:44:34Z</time>
      </trkpt>
      <trkpt lat="47.68768" lon="6.05296">
        <ele>242.2</ele>
        <time>2019-05-22T07:44:36Z</time>
      </trkpt>
      <trkpt lat="47.68767" lon="6.05303">
        <ele>242.22</ele>
        <time>2019-05-22T07:44:38Z</time>
      </trkpt>
      <trkpt lat="47.68766" lon="6.0531">
        <ele>242.24</ele>
        <time>2019-05-22T07:44:40Z</time>
      </trkpt>
      <trkpt lat="47.68765" lon="6.05317">
        <ele>242.27</ele>
        <time>2019-05-22T07:44:42Z</time>
      </trkpt>
      <trkpt lat="47.68764" lon="6.05324">
        <ele>242.29</ele>
        <time>2019-05-22T07:44:44Z</time>
      </trkpt>
      <trkpt lat="47.68763" lon="6.05331">
        <ele>242.32</ele>
        <time>2019-05-22T07:44:46Z</time>
      </trkpt>
      <trkpt lat="47.68762" lon="6.05338">
        <ele>242.35</ele>
        <time>2019-05-22T07:44:48Z</time>
      </trkpt>
      <trkpt lat="47.68762" lon="6.05345">
        <ele>242.38</ele>
        <time>2019-05-22T07:44:50Z</time>
      </trkpt>
      <trkpt lat="47.68761" lon="6.05352">
        <ele>242.42</ele>
        <time>2019-05-22T07:44:52Z</time>
      </trkpt>
      <trkpt lat="47.6876" lon="6.05359">
        <ele>242.45</ele>
        <time>2019-05-22T07:44:54Z</time>
      </trkpt>
      <trkpt lat="47.68759" lon="6.05365">
        <ele>242.49</ele>
        <time>2019-05-22T07:44:56Z</time>
      </trkpt>
      <trkpt lat="47.68759" lon="6.05375">
        <ele>242.56</ele>
        <time>2019-05-22T07:44:59Z</time>
      </trkpt>
      <trkpt lat="47.68759" lon="6.05384">
        <ele>242.63</ele>
        <time>2019-05-22T07:45:02Z</time>
      </trkpt>
      <trkpt lat="47.68758" lon="6.05393">
        <ele>242.69</ele>
        <time>2019-05-22T07:45:05Z</time>
      </trkpt>
      <trkpt lat="47.68758" lon="6.05403">
        <ele>242.77</ele>
        <time>2019-05-22T07:45:08Z</time>
      </trkpt>
      <trkpt lat="47.68757" lon="6.05412">
        <ele>242.84</ele>
        <time>2019-05-22T07:45:11Z</time>
      </trkpt>
      <trkpt lat="47.68756" lon="6.0542">
        <ele>242.92</ele>
        <time>2019-05-22T07:45:14Z</time>
      </trkpt>
      <trkpt lat="47.68754" lon="6.05429">
        <ele>243</ele>
        <time>2019-05-22T07:45:17Z</time>
      </trkpt>
      <trkpt lat="47.68752" lon="6.05437">
        <ele>243.09</ele>
        <time>2019-05-22T07:45:20Z</time>
      </trkpt>
      <trkpt lat="47.68751" lon="6.05444">
        <ele>243.17</ele>
        <time>2019-05-22T07:45:23Z</time>
      </trkpt>
      <trkpt lat="47.6875" lon="6.05452">
        <ele>243.26</ele>
        <time>2019-05-22T07:45:26Z</time>
      </trkpt>
      <trkpt lat="47.68748" lon="6.05461">
        <ele>243.35</ele>
        <time>2019-05-22T07:45:29Z</time>
      </trkpt>
      <trkpt lat="47.68747" lon="6.05468">
        <ele>243.44</ele>
        <time>2019-05-22T07:45:32Z</time>
      </trkpt>
      <trkpt lat="47.68745" lon="6.05476">
        <ele>243.53</ele>
        <time>2019-05-22T07:45:35Z</time>
      </trkpt>
      <trkpt lat="47.68744" lon="6.05485">
        <ele>243.63</ele>
        <time>2019-05-22T07:45:38Z</time>
      </trkpt>
      <trkpt lat="47.68742" lon="6.05492">
        <ele>243.72</ele>
        <time>2019-05-22T07:45:41Z</time>
      </trkpt>
      <trkpt lat="47.6874" lon="6.055">
        <ele>243.82</ele>
        <time>2019-05-22T07:45:44Z</time>
      </trkpt>
      <trkpt lat="47.68739" lon="6.05509">
        <ele>243.92</ele>
        <time>2019-05-22T07:45:47Z</time>
      </trkpt>
      <trkpt lat="47.68736" lon="6.05517">
        <ele>244.03</ele>
        <time>2019-05-22T07:45:50Z</time>
      </trkpt>
      <trkpt lat="47.68735" lon="6.05528">
        <ele>244.14</ele>
        <time>2019-05-22T07:45:53Z</time>
      </trkpt>
      <trkpt lat="47.68735" lon="6.05537">
        <ele>244.26</ele>
        <time>2019-05-22T07:45:56Z</time>
      </trkpt>
      <trkpt lat="47.68734" lon="6.05546">
        <ele>244.34</ele>
        <time>2019-05-22T07:45:58Z</time>
      </trkpt>
      <trkpt lat="47.68734" lon="6.05554">
        <ele>244.42</ele>
        <time>2019-05-22T07:46:00Z</time>
      </trkpt>
      <trkpt lat="47.68735" lon="6.05562">
        <ele>244.51</ele>
        <time>2019-05-22T07:46:02Z</time>
      </trkpt>
      <trkpt lat="47.68735" lon="6.0557">
        <ele>244.6</ele>
        <time>2019-05-22T07:46:04Z</time>
      </trkpt>
      <trkpt lat="47.68735" lon="6.05578">
        <ele>244.7</ele>
        <time>2019-05-22T07:46:06Z</time>
      </trkpt>
      <trkpt lat="47.68735" lon="6.05587">
        <ele>244.84</ele>
        <time>2019-05-22T07:46:09Z</time>
      </trkpt>
      <trkpt lat="47.68731" lon="6.05594">
        <ele>245</ele>
        <time>2019-05-22T07:46:12Z</time>
      </trkpt>
      <trkpt lat="47.68727" lon="6.056">
        <ele>245.15</ele>
        <time>2019-05-22T07:46:15Z</time>
      </trkpt>
      <trkpt lat="47.68723" lon="6.05603">
        <ele>245.26</ele>
        <time>2019-05-22T07:46:17Z</time>
      </trkpt>
      <trkpt lat="47.68717" lon="6.05607">
        <ele>245.36</ele>
        <time>2019-05-22T07:46:19Z</time>
      </trkpt>
      <trkpt lat="47.68712" lon="6.05611">
        <ele>245.47</ele>
        <time>2019-05-22T07:46:21Z</time>
      </trkpt>
      <trkpt lat="47.68708" lon="6.05616">
        <ele>245.58</ele>
        <time>2019-05-22T07:46:23Z</time>
      </trkpt>
      <trkpt lat="47.68704" lon="6.05622">
        <ele>245.69</ele>
        <time>2019-05-22T07:46:25Z</time>
      </trkpt>
      <trkpt lat="47.68701" lon="6.05629">
        <ele>245.8</ele>
        <time>2019-05-22T07:46:27Z</time>
      </trkpt>
      <trkpt lat="47.68696" lon="6.05636">
        <ele>245.96</ele>
        <time>2019-05-22T07:46:30Z</time>
      </trkpt>
      <trkpt lat="47.68692" lon="6.05642">
        <ele>246.07</ele>
        <time>2019-05-22T07:46:32Z</time>
      </trkpt>
      <trkpt lat="47.68688" lon="6.05651">
        <ele>246.53</ele>
        <time>2019-05-22T07:46:34Z</time>
      </trkpt>
      <trkpt lat="47.68683" lon="6.05662">
        <ele>247.37</ele>
        <time>2019-05-22T07:46:36Z</time>
      </trkpt>
      <trkpt lat="47.68678" lon="6.05672">
        <ele>247.97</ele>
        <time>2019-05-22T07:46:38Z</time>
      </trkpt>
      <trkpt lat="47.68674" lon="6.05678">
        <ele>248.2</ele>
        <time>2019-05-22T07:46:39Z</time>
      </trkpt>
      <trkpt lat="47.68671" lon="6.05684">
        <ele>248.39</ele>
        <time>2019-05-22T07:46:40Z</time>
      </trkpt>
      <trkpt lat="47.68665" lon="6.05696">
        <ele>248.55</ele>
        <time>2019-05-22T07:46:41Z</time>
      </trkpt>
      <trkpt lat="47.68662" lon="6.05702">
        <ele>248.69</ele>
        <time>2019-05-22T07:46:42Z</time>
      </trkpt>
      <trkpt lat="47.68659" lon="6.05708">
        <ele>248.8</ele>
        <time>2019-05-22T07:46:43Z</time>
      </trkpt>
      <trkpt lat="47.68656" lon="6.05715">
        <ele>248.9</ele>
        <time>2019-05-22T07:46:44Z</time>
      </trkpt>
      <trkpt lat="47.68653" lon="6.05721">
        <ele>248.99</ele>
        <time>2019-05-22T07:46:45Z</time>
      </trkpt>
      <trkpt lat="47.68649" lon="6.05728">
        <ele>249.07</ele>
        <time>2019-05-22T07:46:46Z</time>
      </trkpt>
      <trkpt lat="47.68644" lon="6.05735">
        <ele>249.13</ele>
        <time>2019-05-22T07:46:47Z</time>
      </trkpt>
      <trkpt lat="47.6864" lon="6.05742">
        <ele>249.18</ele>
        <time>2019-05-22T07:46:48Z</time>
      </trkpt>
      <trkpt lat="47.68635" lon="6.05749">
        <ele>249.23</ele>
        <time>2019-05-22T07:46:49Z</time>
      </trkpt>
      <trkpt lat="47.6863" lon="6.05756">
        <ele>249.26</ele>
        <time>2019-05-22T07:46:50Z</time>
      </trkpt>
      <trkpt lat="47.68624" lon="6.05764">
        <ele>249.29</ele>
        <time>2019-05-22T07:46:51Z</time>
      </trkpt>
      <trkpt lat="47.68619" lon="6.05772">
        <ele>249.31</ele>
        <time>2019-05-22T07:46:52Z</time>
      </trkpt>
      <trkpt lat="47.68614" lon="6.0578">
        <ele>249.33</ele>
        <time>2019-05-22T07:46:53Z</time>
      </trkpt>
      <trkpt lat="47.68609" lon="6.05788">
        <ele>249.33</ele>
        <time>2019-05-22T07:46:54Z</time>
      </trkpt>
      <trkpt lat="47.68606" lon="6.05798">
        <ele>249.31</ele>
        <time>2019-05-22T07:46:55Z</time>
      </trkpt>
      <trkpt lat="47.68602" lon="6.05807">
        <ele>249.28</ele>
        <time>2019-05-22T07:46:56Z</time>
      </trkpt>
      <trkpt lat="47.68598" lon="6.05816">
        <ele>249.22</ele>
        <time>2019-05-22T07:46:57Z</time>
      </trkpt>
      <trkpt lat="47.68595" lon="6.05825">
        <ele>249.16</ele>
        <time>2019-05-22T07:46:58Z</time>
      </trkpt>
      <trkpt lat="47.68592" lon="6.05834">
        <ele>249.11</ele>
        <time>2019-05-22T07:46:59Z</time>
      </trkpt>
      <trkpt lat="47.68588" lon="6.05842">
        <ele>249.08</ele>
        <time>2019-05-22T07:47:00Z</time>
      </trkpt>
      <trkpt lat="47.68585" lon="6.05852">
        <ele>249.08</ele>
        <time>2019-05-22T07:47:01Z</time>
      </trkpt>
      <trkpt lat="47.68582" lon="6.05861">
        <ele>249.1</ele>
        <time>2019-05-22T07:47:02Z</time>
      </trkpt>
      <trkpt lat="47.68579" lon="6.05869">
        <ele>249.15</ele>
        <time>2019-05-22T07:47:03Z</time>
      </trkpt>
      <trkpt lat="47.68575" lon="6.05877">
        <ele>249.2</ele>
        <time>2019-05-22T07:47:04Z</time>
      </trkpt>
      <trkpt lat="47.68571" lon="6.05884">
        <ele>249.26</ele>
        <time>2019-05-22T07:47:05Z</time>
      </trkpt>
      <trkpt lat="47.68568" lon="6.05892">
        <ele>249.33</ele>
        <time>2019-05-22T07:47:06Z</time>
      </trkpt>
      <trkpt lat="47.68565" lon="6.059">
        <ele>249.39</ele>
        <time>2019-05-22T07:47:07Z</time>
      </trkpt>
      <trkpt lat="47.68562" lon="6.05908">
        <ele>249.43</ele>
        <time>2019-05-22T07:47:08Z</time>
      </trkpt>
      <trkpt lat="47.68558" lon="6.05915">
        <ele>249.47</ele>
        <time>2019-05-22T07:47:09Z</time>
      </trkpt>
      <trkpt lat="47.68556" lon="6.05923">
        <ele>249.5</ele>
        <time>2019-05-22T07:47:10Z</time>
      </trkpt>
      <trkpt lat="47.68553" lon="6.0593">
        <ele>249.52</ele>
        <time>2019-05-22T07:47:11Z</time>
      </trkpt>
      <trkpt lat="47.6855" lon="6.05938">
        <ele>249.57</ele>
        <time>2019-05-22T07:47:12Z</time>
      </trkpt>
      <trkpt lat="47.68547" lon="6.05944">
        <ele>249.62</ele>
        <time>2019-05-22T07:47:13Z</time>
      </trkpt>
      <trkpt lat="47.68544" lon="6.0595">
        <ele>249.64</ele>
        <time>2019-05-22T07:47:14Z</time>
      </trkpt>
      <trkpt lat="47.68541" lon="6.05956">
        <ele>249.62</ele>
        <time>2019-05-22T07:47:15Z</time>
      </trkpt>
      <trkpt lat="47.68539" lon="6.05962">
        <ele>249.58</ele>
        <time>2019-05-22T07:47:16Z</time>
      </trkpt>
      <trkpt lat="47.68534" lon="6.05972">
        <ele>249.54</ele>
        <time>2019-05-22T07:47:18Z</time>
      </trkpt>
      <trkpt lat="47.68529" lon="6.0598">
        <ele>249.53</ele>
        <time>2019-05-22T07:47:20Z</time>
      </trkpt>
      <trkpt lat="47.68526" lon="6.05987">
        <ele>249.51</ele>
        <time>2019-05-22T07:47:23Z</time>
      </trkpt>
      <trkpt lat="47.68523" lon="6.05995">
        <ele>249.49</ele>
        <time>2019-05-22T07:47:25Z</time>
      </trkpt>
      <trkpt lat="47.6852" lon="6.06004">
        <ele>249.46</ele>
        <time>2019-05-22T07:47:27Z</time>
      </trkpt>
      <trkpt lat="47.68517" lon="6.06011">
        <ele>249.44</ele>
        <time>2019-05-22T07:47:29Z</time>
      </trkpt>
      <trkpt lat="47.68513" lon="6.0602">
        <ele>249.4</ele>
        <time>2019-05-22T07:47:31Z</time>
      </trkpt>
      <trkpt lat="47.6851" lon="6.06028">
        <ele>249.37</ele>
        <time>2019-05-22T07:47:33Z</time>
      </trkpt>
      <trkpt lat="47.68508" lon="6.06034">
        <ele>249.35</ele>
        <time>2019-05-22T07:47:34Z</time>
      </trkpt>
      <trkpt lat="47.68505" lon="6.06041">
        <ele>249.31</ele>
        <time>2019-05-22T07:47:36Z</time>
      </trkpt>
      <trkpt lat="47.68501" lon="6.0605">
        <ele>249.28</ele>
        <time>2019-05-22T07:47:38Z</time>
      </trkpt>
      <trkpt lat="47.68498" lon="6.06057">
        <ele>249.25</ele>
        <time>2019-05-22T07:47:40Z</time>
      </trkpt>
      <trkpt lat="47.68495" lon="6.06065">
        <ele>249.22</ele>
        <time>2019-05-22T07:47:42Z</time>
      </trkpt>
      <trkpt lat="47.68491" lon="6.06072">
        <ele>249.2</ele>
        <time>2019-05-22T07:47:44Z</time>
      </trkpt>
      <trkpt lat="47.68488" lon="6.06081">
        <ele>249.18</ele>
        <time>2019-05-22T07:47:46Z</time>
      </trkpt>
      <trkpt lat="47.68484" lon="6.0609">
        <ele>249.13</ele>
        <time>2019-05-22T07:47:48Z</time>
      </trkpt>
      <trkpt lat="47.68481" lon="6.061">
        <ele>249.06</ele>
        <time>2019-05-22T07:47:50Z</time>
      </trkpt>
      <trkpt lat="47.68477" lon="6.0611">
        <ele>249.03</ele>
        <time>2019-05-22T07:47:52Z</time>
      </trkpt>
      <trkpt lat="47.68474" lon="6.06119">
        <ele>249.02</ele>
        <time>2019-05-22T07:47:54Z</time>
      </trkpt>
      <trkpt lat="47.68471" lon="6.06128">
        <ele>249.01</ele>
        <time>2019-05-22T07:47:56Z</time>
      </trkpt>
      <trkpt lat="47.68469" lon="6.06136">
        <ele>249.01</ele>
        <time>2019-05-22T07:47:58Z</time>
      </trkpt>
      <trkpt lat="47.68466" lon="6.06145">
        <ele>249</ele>
        <time>2019-05-22T07:48:00Z</time>
      </trkpt>
      <trkpt lat="47.68463" lon="6.06153">
        <ele>249</ele>
        <time>2019-05-22T07:48:02Z</time>
      </trkpt>
      <trkpt lat="47.6846" lon="6.06162">
        <ele>249</ele>
        <time>2019-05-22T07:48:04Z</time>
      </trkpt>
      <trkpt lat="47.68456" lon="6.06172">
        <ele>249</ele>
        <time>2019-05-22T07:48:06Z</time>
      </trkpt>
      <trkpt lat="47.68453" lon="6.06181">
        <ele>249</ele>
        <time>2019-05-22T07:48:08Z</time>
      </trkpt>
      <trkpt lat="47.6845" lon="6.0619">
        <ele>249</ele>
        <time>2019-05-22T07:48:10Z</time>
      </trkpt>
      <trkpt lat="47.68447" lon="6.062">
        <ele>249</ele>
        <time>2019-05-22T07:48:12Z</time>
      </trkpt>
      <trkpt lat="47.68445" lon="6.06208">
        <ele>249.01</ele>
        <time>2019-05-22T07:48:14Z</time>
      </trkpt>
      <trkpt lat="47.68442" lon="6.06217">
        <ele>249.02</ele>
        <time>2019-05-22T07:48:16Z</time>
      </trkpt>
      <trkpt lat="47.6844" lon="6.06226">
        <ele>249.02</ele>
        <time>2019-05-22T07:48:18Z</time>
      </trkpt>
      <trkpt lat="47.68436" lon="6.06234">
        <ele>249.03</ele>
        <time>2019-05-22T07:48:20Z</time>
      </trkpt>
      <trkpt lat="47.68433" lon="6.06243">
        <ele>249.04</ele>
        <time>2019-05-22T07:48:22Z</time>
      </trkpt>
      <trkpt lat="47.68431" lon="6.06251">
        <ele>249.04</ele>
        <time>2019-05-22T07:48:24Z</time>
      </trkpt>
      <trkpt lat="47.68428" lon="6.06259">
        <ele>249.04</ele>
        <time>2019-05-22T07:48:26Z</time>
      </trkpt>
      <trkpt lat="47.68426" lon="6.06268">
        <ele>249.04</ele>
        <time>2019-05-22T07:48:28Z</time>
      </trkpt>
      <trkpt lat="47.68423" lon="6.06277">
        <ele>249.04</ele>
        <time>2019-05-22T07:48:30Z</time>
      </trkpt>
      <trkpt lat="47.68421" lon="6.06285">
        <ele>249.05</ele>
        <time>2019-05-22T07:48:32Z</time>
      </trkpt>
      <trkpt lat="47.68418" lon="6.06294">
        <ele>249.05</ele>
        <time>2019-05-22T07:48:34Z</time>
      </trkpt>
      <trkpt lat="47.68415" lon="6.06302">
        <ele>249.05</ele>
        <time>2019-05-22T07:48:36Z</time>
      </trkpt>
      <trkpt lat="47.68412" lon="6.0631">
        <ele>249.06</ele>
        <time>2019-05-22T07:48:38Z</time>
      </trkpt>
      <trkpt lat="47.6841" lon="6.06319">
        <ele>249.06</ele>
        <time>2019-05-22T07:48:40Z</time>
      </trkpt>
      <trkpt lat="47.68407" lon="6.06329">
        <ele>249.06</ele>
        <time>2019-05-22T07:48:42Z</time>
      </trkpt>
      <trkpt lat="47.68404" lon="6.06338">
        <ele>249.07</ele>
        <time>2019-05-22T07:48:44Z</time>
      </trkpt>
      <trkpt lat="47.68401" lon="6.06346">
        <ele>249.07</ele>
        <time>2019-05-22T07:48:46Z</time>
      </trkpt>
      <trkpt lat="47.68399" lon="6.06356">
        <ele>249.07</ele>
        <time>2019-05-22T07:48:48Z</time>
      </trkpt>
      <trkpt lat="47.68396" lon="6.06364">
        <ele>249.07</ele>
        <time>2019-05-22T07:48:50Z</time>
      </trkpt>
      <trkpt lat="47.68394" lon="6.06372">
        <ele>249.07</ele>
        <time>2019-05-22T07:48:52Z</time>
      </trkpt>
      <trkpt lat="47.68391" lon="6.0638">
        <ele>249.07</ele>
        <time>2019-05-22T07:48:54Z</time>
      </trkpt>
      <trkpt lat="47.68389" lon="6.06388">
        <ele>249.07</ele>
        <time>2019-05-22T07:48:56Z</time>
      </trkpt>
      <trkpt lat="47.68386" lon="6.06397">
        <ele>249.07</ele>
        <time>2019-05-22T07:48:58Z</time>
      </trkpt>
      <trkpt lat="47.68383" lon="6.06405">
        <ele>249.07</ele>
        <time>2019-05-22T07:49:00Z</time>
      </trkpt>
      <trkpt lat="47.6838" lon="6.06415">
        <ele>249.07</ele>
        <time>2019-05-22T07:49:02Z</time>
      </trkpt>
      <trkpt lat="47.68378" lon="6.06423">
        <ele>249.07</ele>
        <time>2019-05-22T07:49:04Z</time>
      </trkpt>
      <trkpt lat="47.68375" lon="6.06431">
        <ele>249.07</ele>
        <time>2019-05-22T07:49:06Z</time>
      </trkpt>
      <trkpt lat="47.68372" lon="6.0644">
        <ele>249.07</ele>
        <time>2019-05-22T07:49:08Z</time>
      </trkpt>
      <trkpt lat="47.68369" lon="6.06448">
        <ele>249.06</ele>
        <time>2019-05-22T07:49:10Z</time>
      </trkpt>
      <trkpt lat="47.68366" lon="6.06457">
        <ele>249.06</ele>
        <time>2019-05-22T07:49:12Z</time>
      </trkpt>
      <trkpt lat="47.68364" lon="6.06466">
        <ele>249.06</ele>
        <time>2019-05-22T07:49:14Z</time>
      </trkpt>
      <trkpt lat="47.68361" lon="6.06474">
        <ele>249.06</ele>
        <time>2019-05-22T07:49:16Z</time>
      </trkpt>
      <trkpt lat="47.68358" lon="6.06483">
        <ele>249.06</ele>
        <time>2019-05-22T07:49:18Z</time>
      </trkpt>
      <trkpt lat="47.68355" lon="6.06493">
        <ele>249.06</ele>
        <time>2019-05-22T07:49:20Z</time>
      </trkpt>
      <trkpt lat="47.68353" lon="6.06501">
        <ele>249.07</ele>
        <time>2019-05-22T07:49:22Z</time>
      </trkpt>
      <trkpt lat="47.6835" lon="6.0651">
        <ele>249.08</ele>
        <time>2019-05-22T07:49:24Z</time>
      </trkpt>
      <trkpt lat="47.68349" lon="6.06519">
        <ele>249.09</ele>
        <time>2019-05-22T07:49:26Z</time>
      </trkpt>
      <trkpt lat="47.68346" lon="6.06528">
        <ele>249.11</ele>
        <time>2019-05-22T07:49:28Z</time>
      </trkpt>
      <trkpt lat="47.68343" lon="6.06536">
        <ele>249.13</ele>
        <time>2019-05-22T07:49:30Z</time>
      </trkpt>
      <trkpt lat="47.6834" lon="6.06545">
        <ele>249.16</ele>
        <time>2019-05-22T07:49:32Z</time>
      </trkpt>
      <trkpt lat="47.68338" lon="6.06553">
        <ele>249.18</ele>
        <time>2019-05-22T07:49:34Z</time>
      </trkpt>
      <trkpt lat="47.68336" lon="6.06561">
        <ele>249.21</ele>
        <time>2019-05-22T07:49:36Z</time>
      </trkpt>
      <trkpt lat="47.68333" lon="6.06569">
        <ele>249.24</ele>
        <time>2019-05-22T07:49:38Z</time>
      </trkpt>
      <trkpt lat="47.68331" lon="6.06577">
        <ele>249.26</ele>
        <time>2019-05-22T07:49:40Z</time>
      </trkpt>
      <trkpt lat="47.68328" lon="6.06585">
        <ele>249.29</ele>
        <time>2019-05-22T07:49:42Z</time>
      </trkpt>
      <trkpt lat="47.68325" lon="6.06594">
        <ele>249.32</ele>
        <time>2019-05-22T07:49:44Z</time>
      </trkpt>
      <trkpt lat="47.68322" lon="6.06603">
        <ele>249.36</ele>
        <time>2019-05-22T07:49:46Z</time>
      </trkpt>
      <trkpt lat="47.68319" lon="6.06612">
        <ele>249.39</ele>
        <time>2019-05-22T07:49:48Z</time>
      </trkpt>
      <trkpt lat="47.68316" lon="6.06619">
        <ele>249.43</ele>
        <time>2019-05-22T07:49:50Z</time>
      </trkpt>
      <trkpt lat="47.68314" lon="6.06626">
        <ele>249.46</ele>
        <time>2019-05-22T07:49:52Z</time>
      </trkpt>
      <trkpt lat="47.68311" lon="6.06633">
        <ele>249.5</ele>
        <time>2019-05-22T07:49:54Z</time>
      </trkpt>
      <trkpt lat="47.68307" lon="6.06641">
        <ele>249.54</ele>
        <time>2019-05-22T07:49:56Z</time>
      </trkpt>
      <trkpt lat="47.68304" lon="6.06649">
        <ele>249.57</ele>
        <time>2019-05-22T07:49:58Z</time>
      </trkpt>
      <trkpt lat="47.683" lon="6.06657">
        <ele>249.61</ele>
        <time>2019-05-22T07:50:00Z</time>
      </trkpt>
      <trkpt lat="47.68295" lon="6.06667">
        <ele>249.65</ele>
        <time>2019-05-22T07:50:02Z</time>
      </trkpt>
      <trkpt lat="47.68291" lon="6.06676">
        <ele>249.7</ele>
        <time>2019-05-22T07:50:04Z</time>
      </trkpt>
      <trkpt lat="47.68288" lon="6.06685">
        <ele>249.76</ele>
        <time>2019-05-22T07:50:06Z</time>
      </trkpt>
      <trkpt lat="47.68285" lon="6.06693">
        <ele>249.82</ele>
        <time>2019-05-22T07:50:08Z</time>
      </trkpt>
      <trkpt lat="47.68282" lon="6.06699">
        <ele>249.88</ele>
        <time>2019-05-22T07:50:10Z</time>
      </trkpt>
      <trkpt lat="47.68278" lon="6.06707">
        <ele>249.98</ele>
        <time>2019-05-22T07:50:13Z</time>
      </trkpt>
      <trkpt lat="47.68275" lon="6.06714">
        <ele>250.09</ele>
        <time>2019-05-22T07:50:16Z</time>
      </trkpt>
      <trkpt lat="47.68271" lon="6.06722">
        <ele>250.21</ele>
        <time>2019-05-22T07:50:19Z</time>
      </trkpt>
      <trkpt lat="47.68268" lon="6.06729">
        <ele>250.34</ele>
        <time>2019-05-22T07:50:22Z</time>
      </trkpt>
      <trkpt lat="47.68266" lon="6.06736">
        <ele>250.48</ele>
        <time>2019-05-22T07:50:25Z</time>
      </trkpt>
      <trkpt lat="47.68263" lon="6.06742">
        <ele>250.62</ele>
        <time>2019-05-22T07:50:28Z</time>
      </trkpt>
      <trkpt lat="47.6826" lon="6.06747">
        <ele>250.87</ele>
        <time>2019-05-22T07:50:33Z</time>
      </trkpt>
      <trkpt lat="47.68257" lon="6.06753">
        <ele>251.07</ele>
        <time>2019-05-22T07:50:37Z</time>
      </trkpt>
      <trkpt lat="47.68254" lon="6.06759">
        <ele>251.27</ele>
        <time>2019-05-22T07:50:41Z</time>
      </trkpt>
      <trkpt lat="47.68251" lon="6.06767">
        <ele>251.42</ele>
        <time>2019-05-22T07:50:44Z</time>
      </trkpt>
      <trkpt lat="47.68247" lon="6.06773">
        <ele>251.53</ele>
        <time>2019-05-22T07:50:46Z</time>
      </trkpt>
      <trkpt lat="47.68244" lon="6.06779">
        <ele>251.63</ele>
        <time>2019-05-22T07:50:48Z</time>
      </trkpt>
      <trkpt lat="47.6824" lon="6.06784">
        <ele>251.78</ele>
        <time>2019-05-22T07:50:51Z</time>
      </trkpt>
      <trkpt lat="47.68236" lon="6.0679">
        <ele>251.99</ele>
        <time>2019-05-22T07:50:55Z</time>
      </trkpt>
      <trkpt lat="47.68233" lon="6.06796">
        <ele>252.2</ele>
        <time>2019-05-22T07:50:59Z</time>
      </trkpt>
      <trkpt lat="47.6823" lon="6.06802">
        <ele>252.4</ele>
        <time>2019-05-22T07:51:03Z</time>
      </trkpt>
      <trkpt lat="47.68227" lon="6.06807">
        <ele>252.55</ele>
        <time>2019-05-22T07:51:06Z</time>
      </trkpt>
      <trkpt lat="47.68221" lon="6.06812">
        <ele>252.71</ele>
        <time>2019-05-22T07:51:09Z</time>
      </trkpt>
      <trkpt lat="47.68216" lon="6.06813">
        <ele>252.87</ele>
        <time>2019-05-22T07:51:12Z</time>
      </trkpt>
      <trkpt lat="47.68211" lon="6.0681">
        <ele>253.08</ele>
        <time>2019-05-22T07:51:16Z</time>
      </trkpt>
      <trkpt lat="47.68206" lon="6.06805">
        <ele>253.29</ele>
        <time>2019-05-22T07:51:20Z</time>
      </trkpt>
      <trkpt lat="47.68203" lon="6.06801">
        <ele>253.5</ele>
        <time>2019-05-22T07:51:24Z</time>
      </trkpt>
      <trkpt lat="47.68201" lon="6.06794">
        <ele>253.68</ele>
        <time>2019-05-22T07:51:30Z</time>
      </trkpt>
      <trkpt lat="47.68198" lon="6.06789">
        <ele>253.88</ele>
        <time>2019-05-22T07:51:40Z</time>
      </trkpt>
      <trkpt lat="47.68195" lon="6.06784">
        <ele>254.09</ele>
        <time>2019-05-22T07:51:46Z</time>
      </trkpt>
      <trkpt lat="47.68193" lon="6.06777">
        <ele>254.3</ele>
        <time>2019-05-22T07:51:51Z</time>
      </trkpt>
      <trkpt lat="47.68191" lon="6.06771">
        <ele>254.59</ele>
        <time>2019-05-22T07:51:59Z</time>
      </trkpt>
      <trkpt lat="47.68188" lon="6.06766">
        <ele>254.84</ele>
        <time>2019-05-22T07:52:05Z</time>
      </trkpt>
      <trkpt lat="47.68183" lon="6.06763">
        <ele>255.11</ele>
        <time>2019-05-22T07:52:17Z</time>
      </trkpt>
      <trkpt lat="47.68179" lon="6.06761">
        <ele>255.55</ele>
        <time>2019-05-22T07:52:26Z</time>
      </trkpt>
      <trkpt lat="47.68174" lon="6.0676">
        <ele>256.01</ele>
        <time>2019-05-22T07:52:35Z</time>
      </trkpt>
      <trkpt lat="47.68169" lon="6.0676">
        <ele>256.37</ele>
        <time>2019-05-22T07:52:45Z</time>
      </trkpt>
      <trkpt lat="47.68165" lon="6.06757">
        <ele>256.54</ele>
        <time>2019-05-22T07:52:52Z</time>
      </trkpt>
      <trkpt lat="47.68161" lon="6.06753">
        <ele>256.84</ele>
        <time>2019-05-22T07:53:01Z</time>
      </trkpt>
      <trkpt lat="47.68157" lon="6.0675">
        <ele>257.11</ele>
        <time>2019-05-22T07:53:15Z</time>
      </trkpt>
      <trkpt lat="47.68154" lon="6.06743">
        <ele>257.39</ele>
        <time>2019-05-22T07:53:19Z</time>
      </trkpt>
      <trkpt lat="47.68154" lon="6.06735">
        <ele>257.66</ele>
        <time>2019-05-22T07:53:23Z</time>
      </trkpt>
      <trkpt lat="47.68152" lon="6.06727">
        <ele>257.91</ele>
        <time>2019-05-22T07:53:27Z</time>
      </trkpt>
      <trkpt lat="47.6815" lon="6.0672">
        <ele>258.09</ele>
        <time>2019-05-22T07:53:30Z</time>
      </trkpt>
      <trkpt lat="47.68147" lon="6.06713">
        <ele>258.31</ele>
        <time>2019-05-22T07:53:34Z</time>
      </trkpt>
      <trkpt lat="47.68144" lon="6.06705">
        <ele>258.47</ele>
        <time>2019-05-22T07:53:37Z</time>
      </trkpt>
      <trkpt lat="47.68142" lon="6.06698">
        <ele>258.62</ele>
        <time>2019-05-22T07:53:40Z</time>
      </trkpt>
      <trkpt lat="47.68139" lon="6.06691">
        <ele>258.76</ele>
        <time>2019-05-22T07:53:43Z</time>
      </trkpt>
      <trkpt lat="47.68136" lon="6.06684">
        <ele>258.9</ele>
        <time>2019-05-22T07:53:46Z</time>
      </trkpt>
      <trkpt lat="47.68133" lon="6.06677">
        <ele>259.03</ele>
        <time>2019-05-22T07:53:49Z</time>
      </trkpt>
      <trkpt lat="47.68129" lon="6.06668">
        <ele>259.16</ele>
        <time>2019-05-22T07:53:52Z</time>
      </trkpt>
      <trkpt lat="47.68126" lon="6.06659">
        <ele>259.25</ele>
        <time>2019-05-22T07:53:54Z</time>
      </trkpt>
      <trkpt lat="47.68123" lon="6.06652">
        <ele>259.34</ele>
        <time>2019-05-22T07:53:56Z</time>
      </trkpt>
      <trkpt lat="47.68121" lon="6.06646">
        <ele>259.43</ele>
        <time>2019-05-22T07:53:58Z</time>
      </trkpt>
      <trkpt lat="47.68117" lon="6.0664">
        <ele>259.52</ele>
        <time>2019-05-22T07:54:00Z</time>
      </trkpt>
      <trkpt lat="47.68115" lon="6.06633">
        <ele>259.6</ele>
        <time>2019-05-22T07:54:02Z</time>
      </trkpt>
      <trkpt lat="47.68111" lon="6.06625">
        <ele>259.68</ele>
        <time>2019-05-22T07:54:04Z</time>
      </trkpt>
      <trkpt lat="47.68107" lon="6.06616">
        <ele>259.76</ele>
        <time>2019-05-22T07:54:06Z</time>
      </trkpt>
      <trkpt lat="47.68102" lon="6.06607">
        <ele>259.84</ele>
        <time>2019-05-22T07:54:08Z</time>
      </trkpt>
      <trkpt lat="47.68096" lon="6.06599">
        <ele>259.91</ele>
        <time>2019-05-22T07:54:10Z</time>
      </trkpt>
      <trkpt lat="47.68092" lon="6.06594">
        <ele>259.99</ele>
        <time>2019-05-22T07:54:12Z</time>
      </trkpt>
      <trkpt lat="47.68089" lon="6.06588">
        <ele>260.07</ele>
        <time>2019-05-22T07:54:14Z</time>
      </trkpt>
      <trkpt lat="47.68084" lon="6.06579">
        <ele>260.19</ele>
        <time>2019-05-22T07:54:17Z</time>
      </trkpt>
      <trkpt lat="47.68081" lon="6.06572">
        <ele>260.28</ele>
        <time>2019-05-22T07:54:19Z</time>
      </trkpt>
      <trkpt lat="47.68079" lon="6.06567">
        <ele>260.42</ele>
        <time>2019-05-22T07:54:22Z</time>
      </trkpt>
      <trkpt lat="47.68075" lon="6.06561">
        <ele>260.56</ele>
        <time>2019-05-22T07:54:25Z</time>
      </trkpt>
      <trkpt lat="47.68072" lon="6.06556">
        <ele>260.72</ele>
        <time>2019-05-22T07:54:28Z</time>
      </trkpt>
      <trkpt lat="47.68069" lon="6.06549">
        <ele>260.93</ele>
        <time>2019-05-22T07:54:32Z</time>
      </trkpt>
      <trkpt lat="47.68066" lon="6.06542">
        <ele>261.1</ele>
        <time>2019-05-22T07:54:35Z</time>
      </trkpt>
      <trkpt lat="47.68062" lon="6.06534">
        <ele>261.26</ele>
        <time>2019-05-22T07:54:38Z</time>
      </trkpt>
      <trkpt lat="47.68058" lon="6.06527">
        <ele>261.37</ele>
        <time>2019-05-22T07:54:40Z</time>
      </trkpt>
      <trkpt lat="47.68053" lon="6.0652">
        <ele>261.49</ele>
        <time>2019-05-22T07:54:42Z</time>
      </trkpt>
      <trkpt lat="47.68049" lon="6.06515">
        <ele>261.61</ele>
        <time>2019-05-22T07:54:44Z</time>
      </trkpt>
      <trkpt lat="47.68045" lon="6.06511">
        <ele>261.8</ele>
        <time>2019-05-22T07:54:47Z</time>
      </trkpt>
      <trkpt lat="47.68042" lon="6.06504">
        <ele>262.07</ele>
        <time>2019-05-22T07:54:51Z</time>
      </trkpt>
      <trkpt lat="47.68039" lon="6.06497">
        <ele>262.48</ele>
        <time>2019-05-22T07:54:57Z</time>
      </trkpt>
      <trkpt lat="47.68037" lon="6.06491">
        <ele>262.77</ele>
        <time>2019-05-22T07:55:01Z</time>
      </trkpt>
      <trkpt lat="47.68035" lon="6.06485">
        <ele>263.04</ele>
        <time>2019-05-22T07:55:07Z</time>
      </trkpt>
      <trkpt lat="47.68033" lon="6.06478">
        <ele>263.2</ele>
        <time>2019-05-22T07:55:17Z</time>
      </trkpt>
      <trkpt lat="47.68032" lon="6.06472">
        <ele>263.44</ele>
        <time>2019-05-22T07:55:32Z</time>
      </trkpt>
      <trkpt lat="47.68027" lon="6.06467">
        <ele>263.87</ele>
        <time>2019-05-22T07:55:48Z</time>
      </trkpt>
      <trkpt lat="47.68024" lon="6.06462">
        <ele>264.12</ele>
        <time>2019-05-22T07:55:54Z</time>
      </trkpt>
      <trkpt lat="47.68021" lon="6.06457">
        <ele>264.4</ele>
        <time>2019-05-22T07:55:57Z</time>
      </trkpt>
      <trkpt lat="47.68018" lon="6.0645">
        <ele>264.6</ele>
        <time>2019-05-22T07:55:59Z</time>
      </trkpt>
      <trkpt lat="47.68016" lon="6.06443">
        <ele>264.79</ele>
        <time>2019-05-22T07:56:01Z</time>
      </trkpt>
      <trkpt lat="47.68014" lon="6.06437">
        <ele>265.07</ele>
        <time>2019-05-22T07:56:04Z</time>
      </trkpt>
      <trkpt lat="47.68011" lon="6.0643">
        <ele>265.52</ele>
        <time>2019-05-22T07:56:09Z</time>
      </trkpt>
      <trkpt lat="47.68009" lon="6.06423">
        <ele>265.78</ele>
        <time>2019-05-22T07:56:12Z</time>
      </trkpt>
      <trkpt lat="47.68005" lon="6.06418">
        <ele>266.11</ele>
        <time>2019-05-22T07:56:16Z</time>
      </trkpt>
      <trkpt lat="47.68001" lon="6.06414">
        <ele>266.35</ele>
        <time>2019-05-22T07:56:19Z</time>
      </trkpt>
      <trkpt lat="47.67998" lon="6.0641">
        <ele>266.58</ele>
        <time>2019-05-22T07:56:22Z</time>
      </trkpt>
      <trkpt lat="47.67993" lon="6.06405">
        <ele>266.8</ele>
        <time>2019-05-22T07:56:25Z</time>
      </trkpt>
      <trkpt lat="47.67989" lon="6.06401">
        <ele>267.01</ele>
        <time>2019-05-22T07:56:28Z</time>
      </trkpt>
      <trkpt lat="47.67986" lon="6.06395">
        <ele>267.22</ele>
        <time>2019-05-22T07:56:31Z</time>
      </trkpt>
      <trkpt lat="47.67983" lon="6.06389">
        <ele>267.41</ele>
        <time>2019-05-22T07:56:34Z</time>
      </trkpt>
      <trkpt lat="47.67978" lon="6.06383">
        <ele>267.6</ele>
        <time>2019-05-22T07:56:37Z</time>
      </trkpt>
      <trkpt lat="47.67974" lon="6.06378">
        <ele>267.72</ele>
        <time>2019-05-22T07:56:39Z</time>
      </trkpt>
      <trkpt lat="47.6797" lon="6.06372">
        <ele>267.84</ele>
        <time>2019-05-22T07:56:41Z</time>
      </trkpt>
      <trkpt lat="47.67966" lon="6.06366">
        <ele>267.96</ele>
        <time>2019-05-22T07:56:43Z</time>
      </trkpt>
      <trkpt lat="47.67962" lon="6.06359">
        <ele>268.08</ele>
        <time>2019-05-22T07:56:45Z</time>
      </trkpt>
      <trkpt lat="47.67957" lon="6.06352">
        <ele>268.19</ele>
        <time>2019-05-22T07:56:47Z</time>
      </trkpt>
      <trkpt lat="47.67951" lon="6.06345">
        <ele>268.3</ele>
        <time>2019-05-22T07:56:49Z</time>
      </trkpt>
      <trkpt lat="47.67945" lon="6.06338">
        <ele>268.41</ele>
        <time>2019-05-22T07:56:51Z</time>
      </trkpt>
      <trkpt lat="47.67938" lon="6.06335">
        <ele>268.51</ele>
        <time>2019-05-22T07:56:53Z</time>
      </trkpt>
      <trkpt lat="47.6793" lon="6.06329">
        <ele>268.62</ele>
        <time>2019-05-22T07:56:55Z</time>
      </trkpt>
      <trkpt lat="47.67923" lon="6.06323">
        <ele>268.72</ele>
        <time>2019-05-22T07:56:57Z</time>
      </trkpt>
      <trkpt lat="47.67917" lon="6.06319">
        <ele>268.82</ele>
        <time>2019-05-22T07:56:59Z</time>
      </trkpt>
      <trkpt lat="47.67911" lon="6.06315">
        <ele>268.92</ele>
        <time>2019-05-22T07:57:01Z</time>
      </trkpt>
      <trkpt lat="47.67907" lon="6.06313">
        <ele>269.02</ele>
        <time>2019-05-22T07:57:03Z</time>
      </trkpt>
      <trkpt lat="47.67902" lon="6.0631">
        <ele>269.12</ele>
        <time>2019-05-22T07:57:05Z</time>
      </trkpt>
      <trkpt lat="47.67897" lon="6.06308">
        <ele>269.22</ele>
        <time>2019-05-22T07:57:07Z</time>
      </trkpt>
      <trkpt lat="47.67892" lon="6.06305">
        <ele>269.36</ele>
        <time>2019-05-22T07:57:10Z</time>
      </trkpt>
      <trkpt lat="47.67887" lon="6.06302">
        <ele>269.5</ele>
        <time>2019-05-22T07:57:13Z</time>
      </trkpt>
      <trkpt lat="47.67883" lon="6.06297">
        <ele>269.59</ele>
        <time>2019-05-22T07:57:15Z</time>
      </trkpt>
      <trkpt lat="47.67877" lon="6.06293">
        <ele>269.68</ele>
        <time>2019-05-22T07:57:17Z</time>
      </trkpt>
      <trkpt lat="47.67874" lon="6.06287">
        <ele>269.73</ele>
        <time>2019-05-22T07:57:18Z</time>
      </trkpt>
      <trkpt lat="47.67871" lon="6.06281">
        <ele>269.77</ele>
        <time>2019-05-22T07:57:19Z</time>
      </trkpt>
      <trkpt lat="47.67865" lon="6.06274">
        <ele>269.86</ele>
        <time>2019-05-22T07:57:21Z</time>
      </trkpt>
      <trkpt lat="47.67859" lon="6.06268">
        <ele>269.94</ele>
        <time>2019-05-22T07:57:23Z</time>
      </trkpt>
      <trkpt lat="47.67857" lon="6.06262">
        <ele>269.99</ele>
        <time>2019-05-22T07:57:24Z</time>
      </trkpt>
      <trkpt lat="47.67852" lon="6.06252">
        <ele>270.07</ele>
        <time>2019-05-22T07:57:26Z</time>
      </trkpt>
      <trkpt lat="47.67849" lon="6.06246">
        <ele>270.15</ele>
        <time>2019-05-22T07:57:28Z</time>
      </trkpt>
      <trkpt lat="47.67846" lon="6.0624">
        <ele>270.24</ele>
        <time>2019-05-22T07:57:30Z</time>
      </trkpt>
      <trkpt lat="47.67842" lon="6.06232">
        <ele>270.37</ele>
        <time>2019-05-22T07:57:33Z</time>
      </trkpt>
      <trkpt lat="47.67839" lon="6.06226">
        <ele>270.49</ele>
        <time>2019-05-22T07:57:36Z</time>
      </trkpt>
      <trkpt lat="47.67836" lon="6.0622">
        <ele>270.61</ele>
        <time>2019-05-22T07:57:39Z</time>
      </trkpt>
      <trkpt lat="47.67833" lon="6.06214">
        <ele>270.68</ele>
        <time>2019-05-22T07:57:43Z</time>
      </trkpt>
      <trkpt lat="47.67831" lon="6.06206">
        <ele>270.8</ele>
        <time>2019-05-22T07:57:53Z</time>
      </trkpt>
      <trkpt lat="47.67829" lon="6.06199">
        <ele>270.87</ele>
        <time>2019-05-22T07:57:55Z</time>
      </trkpt>
      <trkpt lat="47.67826" lon="6.06191">
        <ele>270.95</ele>
        <time>2019-05-22T07:57:57Z</time>
      </trkpt>
      <trkpt lat="47.67824" lon="6.06182">
        <ele>271.04</ele>
        <time>2019-05-22T07:57:59Z</time>
      </trkpt>
      <trkpt lat="47.67821" lon="6.06174">
        <ele>271.11</ele>
        <time>2019-05-22T07:58:01Z</time>
      </trkpt>
      <trkpt lat="47.67818" lon="6.06167">
        <ele>271.2</ele>
        <time>2019-05-22T07:58:03Z</time>
      </trkpt>
      <trkpt lat="47.67816" lon="6.06159">
        <ele>271.33</ele>
        <time>2019-05-22T07:58:06Z</time>
      </trkpt>
      <trkpt lat="47.67814" lon="6.0615">
        <ele>271.45</ele>
        <time>2019-05-22T07:58:09Z</time>
      </trkpt>
      <trkpt lat="47.67812" lon="6.06142">
        <ele>271.57</ele>
        <time>2019-05-22T07:58:12Z</time>
      </trkpt>
      <trkpt lat="47.6781" lon="6.06136">
        <ele>271.69</ele>
        <time>2019-05-22T07:58:15Z</time>
      </trkpt>
      <trkpt lat="47.67809" lon="6.06129">
        <ele>271.85</ele>
        <time>2019-05-22T07:58:19Z</time>
      </trkpt>
      <trkpt lat="47.67806" lon="6.0612">
        <ele>271.92</ele>
        <time>2019-05-22T07:58:21Z</time>
      </trkpt>
      <trkpt lat="47.67803" lon="6.06112">
        <ele>272.04</ele>
        <time>2019-05-22T07:58:24Z</time>
      </trkpt>
      <trkpt lat="47.67801" lon="6.06104">
        <ele>272.15</ele>
        <time>2019-05-22T07:58:27Z</time>
      </trkpt>
      <trkpt lat="47.67798" lon="6.06098">
        <ele>272.25</ele>
        <time>2019-05-22T07:58:30Z</time>
      </trkpt>
      <trkpt lat="47.67795" lon="6.06094">
        <ele>272.36</ele>
        <time>2019-05-22T07:58:33Z</time>
      </trkpt>
      <trkpt lat="47.6779" lon="6.06092">
        <ele>272.75</ele>
        <time>2019-05-22T07:58:43Z</time>
      </trkpt>
      <trkpt lat="47.67787" lon="6.06097">
        <ele>272.91</ele>
        <time>2019-05-22T07:58:47Z</time>
      </trkpt>
      <trkpt lat="47.67784" lon="6.06104">
        <ele>273.16</ele>
        <time>2019-05-22T07:58:53Z</time>
      </trkpt>
      <trkpt lat="47.67782" lon="6.06112">
        <ele>273.34</ele>
        <time>2019-05-22T07:58:57Z</time>
      </trkpt>
      <trkpt lat="47.67782" lon="6.06119">
        <ele>273.42</ele>
        <time>2019-05-22T07:59:01Z</time>
      </trkpt>
      <trkpt lat="47.6778" lon="6.06128">
        <ele>273.67</ele>
        <time>2019-05-22T07:59:06Z</time>
      </trkpt>
      <trkpt lat="47.67778" lon="6.06134">
        <ele>273.86</ele>
        <time>2019-05-22T07:59:11Z</time>
      </trkpt>
      <trkpt lat="47.67777" lon="6.06141">
        <ele>273.96</ele>
        <time>2019-05-22T07:59:18Z</time>
      </trkpt>
      <trkpt lat="47.67774" lon="6.06147">
        <ele>274.05</ele>
        <time>2019-05-22T07:59:24Z</time>
      </trkpt>
      <trkpt lat="47.67772" lon="6.06153">
        <ele>274.09</ele>
        <time>2019-05-22T07:59:30Z</time>
      </trkpt>
      <trkpt lat="47.67769" lon="6.0616">
        <ele>274.18</ele>
        <time>2019-05-22T07:59:34Z</time>
      </trkpt>
      <trkpt lat="47.67765" lon="6.06171">
        <ele>274.31</ele>
        <time>2019-05-22T07:59:36Z</time>
      </trkpt>
      <trkpt lat="47.67759" lon="6.06181">
        <ele>274.38</ele>
        <time>2019-05-22T07:59:37Z</time>
      </trkpt>
      <trkpt lat="47.67753" lon="6.06193">
        <ele>274.45</ele>
        <time>2019-05-22T07:59:38Z</time>
      </trkpt>
      <trkpt lat="47.67749" lon="6.06198">
        <ele>274.53</ele>
        <time>2019-05-22T07:59:39Z</time>
      </trkpt>
      <trkpt lat="47.67747" lon="6.06205">
        <ele>274.68</ele>
        <time>2019-05-22T07:59:41Z</time>
      </trkpt>
      <trkpt lat="47.67746" lon="6.06212">
        <ele>274.92</ele>
        <time>2019-05-22T07:59:44Z</time>
      </trkpt>
      <trkpt lat="47.67749" lon="6.06218">
        <ele>275.48</ele>
        <time>2019-05-22T07:59:51Z</time>
      </trkpt>
      <trkpt lat="47.67747" lon="6.06225">
        <ele>275.79</ele>
        <time>2019-05-22T07:59:55Z</time>
      </trkpt>
      <trkpt lat="47.67743" lon="6.06232">
        <ele>276.02</ele>
        <time>2019-05-22T07:59:58Z</time>
      </trkpt>
      <trkpt lat="47.6774" lon="6.06237">
        <ele>276.25</ele>
        <time>2019-05-22T08:00:01Z</time>
      </trkpt>
      <trkpt lat="47.67737" lon="6.06243">
        <ele>276.56</ele>
        <time>2019-05-22T08:00:05Z</time>
      </trkpt>
      <trkpt lat="47.67734" lon="6.06249">
        <ele>276.78</ele>
        <time>2019-05-22T08:00:08Z</time>
      </trkpt>
      <trkpt lat="47.67732" lon="6.06255">
        <ele>277</ele>
        <time>2019-05-22T08:00:11Z</time>
      </trkpt>
      <trkpt lat="47.67728" lon="6.06263">
        <ele>277.23</ele>
        <time>2019-05-22T08:00:14Z</time>
      </trkpt>
      <trkpt lat="47.67725" lon="6.0627">
        <ele>277.45</ele>
        <time>2019-05-22T08:00:17Z</time>
      </trkpt>
      <trkpt lat="47.67722" lon="6.06276">
        <ele>277.59</ele>
        <time>2019-05-22T08:00:19Z</time>
      </trkpt>
      <trkpt lat="47.67718" lon="6.06283">
        <ele>277.81</ele>
        <time>2019-05-22T08:00:22Z</time>
      </trkpt>
      <trkpt lat="47.67715" lon="6.06289">
        <ele>277.95</ele>
        <time>2019-05-22T08:00:24Z</time>
      </trkpt>
      <trkpt lat="47.67712" lon="6.06295">
        <ele>278.09</ele>
        <time>2019-05-22T08:00:26Z</time>
      </trkpt>
      <trkpt lat="47.67708" lon="6.063">
        <ele>278.22</ele>
        <time>2019-05-22T08:00:28Z</time>
      </trkpt>
      <trkpt lat="47.67704" lon="6.06305">
        <ele>278.36</ele>
        <time>2019-05-22T08:00:30Z</time>
      </trkpt>
      <trkpt lat="47.677" lon="6.0631">
        <ele>278.5</ele>
        <time>2019-05-22T08:00:32Z</time>
      </trkpt>
      <trkpt lat="47.67695" lon="6.06318">
        <ele>278.7</ele>
        <time>2019-05-22T08:00:35Z</time>
      </trkpt>
      <trkpt lat="47.67689" lon="6.06325">
        <ele>278.83</ele>
        <time>2019-05-22T08:00:37Z</time>
      </trkpt>
      <trkpt lat="47.67683" lon="6.06331">
        <ele>278.96</ele>
        <time>2019-05-22T08:00:39Z</time>
      </trkpt>
      <trkpt lat="47.67678" lon="6.06339">
        <ele>279.08</ele>
        <time>2019-05-22T08:00:41Z</time>
      </trkpt>
      <trkpt lat="47.67674" lon="6.0635">
        <ele>279.22</ele>
        <time>2019-05-22T08:00:43Z</time>
      </trkpt>
      <trkpt lat="47.67669" lon="6.06361">
        <ele>279.35</ele>
        <time>2019-05-22T08:00:45Z</time>
      </trkpt>
      <trkpt lat="47.67667" lon="6.06368">
        <ele>279.48</ele>
        <time>2019-05-22T08:00:47Z</time>
      </trkpt>
      <trkpt lat="47.67663" lon="6.06377">
        <ele>279.68</ele>
        <time>2019-05-22T08:00:50Z</time>
      </trkpt>
      <trkpt lat="47.6766" lon="6.06382">
        <ele>279.82</ele>
        <time>2019-05-22T08:00:52Z</time>
      </trkpt>
      <trkpt lat="47.67656" lon="6.06388">
        <ele>280.02</ele>
        <time>2019-05-22T08:00:55Z</time>
      </trkpt>
      <trkpt lat="47.67652" lon="6.06395">
        <ele>280.23</ele>
        <time>2019-05-22T08:00:58Z</time>
      </trkpt>
      <trkpt lat="47.67648" lon="6.06404">
        <ele>280.36</ele>
        <time>2019-05-22T08:01:00Z</time>
      </trkpt>
      <trkpt lat="47.67644" lon="6.06411">
        <ele>280.5</ele>
        <time>2019-05-22T08:01:02Z</time>
      </trkpt>
      <trkpt lat="47.67641" lon="6.06418">
        <ele>280.69</ele>
        <time>2019-05-22T08:01:05Z</time>
      </trkpt>
      <trkpt lat="47.67637" lon="6.06422">
        <ele>280.89</ele>
        <time>2019-05-22T08:01:08Z</time>
      </trkpt>
      <trkpt lat="47.67633" lon="6.06429">
        <ele>281.07</ele>
        <time>2019-05-22T08:01:11Z</time>
      </trkpt>
      <trkpt lat="47.6763" lon="6.06436">
        <ele>281.19</ele>
        <time>2019-05-22T08:01:13Z</time>
      </trkpt>
      <trkpt lat="47.67627" lon="6.06443">
        <ele>281.36</ele>
        <time>2019-05-22T08:01:16Z</time>
      </trkpt>
      <trkpt lat="47.67625" lon="6.0645">
        <ele>281.58</ele>
        <time>2019-05-22T08:01:20Z</time>
      </trkpt>
      <trkpt lat="47.67623" lon="6.06459">
        <ele>281.78</ele>
        <time>2019-05-22T08:01:24Z</time>
      </trkpt>
      <trkpt lat="47.6762" lon="6.06467">
        <ele>281.92</ele>
        <time>2019-05-22T08:01:27Z</time>
      </trkpt>
      <trkpt lat="47.67618" lon="6.06477">
        <ele>282.05</ele>
        <time>2019-05-22T08:01:30Z</time>
      </trkpt>
      <trkpt lat="47.67617" lon="6.06486">
        <ele>282.14</ele>
        <time>2019-05-22T08:01:32Z</time>
      </trkpt>
      <trkpt lat="47.67615" lon="6.06495">
        <ele>282.23</ele>
        <time>2019-05-22T08:01:34Z</time>
      </trkpt>
      <trkpt lat="47.67612" lon="6.06504">
        <ele>282.31</ele>
        <time>2019-05-22T08:01:36Z</time>
      </trkpt>
      <trkpt lat="47.67609" lon="6.0651">
        <ele>282.47</ele>
        <time>2019-05-22T08:01:40Z</time>
      </trkpt>
      <trkpt lat="47.67606" lon="6.06516">
        <ele>282.61</ele>
        <time>2019-05-22T08:01:44Z</time>
      </trkpt>
      <trkpt lat="47.67604" lon="6.06522">
        <ele>282.71</ele>
        <time>2019-05-22T08:01:47Z</time>
      </trkpt>
      <trkpt lat="47.67602" lon="6.0653">
        <ele>282.84</ele>
        <time>2019-05-22T08:01:51Z</time>
      </trkpt>
      <trkpt lat="47.676" lon="6.06538">
        <ele>282.95</ele>
        <time>2019-05-22T08:01:55Z</time>
      </trkpt>
      <trkpt lat="47.67598" lon="6.06545">
        <ele>283.01</ele>
        <time>2019-05-22T08:01:57Z</time>
      </trkpt>
      <trkpt lat="47.67596" lon="6.06551">
        <ele>283.11</ele>
        <time>2019-05-22T08:02:01Z</time>
      </trkpt>
      <trkpt lat="47.67593" lon="6.0656">
        <ele>283.19</ele>
        <time>2019-05-22T08:02:04Z</time>
      </trkpt>
      <trkpt lat="47.67591" lon="6.06567">
        <ele>283.25</ele>
        <time>2019-05-22T08:02:06Z</time>
      </trkpt>
      <trkpt lat="47.67589" lon="6.06575">
        <ele>283.3</ele>
        <time>2019-05-22T08:02:08Z</time>
      </trkpt>
      <trkpt lat="47.67587" lon="6.06582">
        <ele>283.36</ele>
        <time>2019-05-22T08:02:10Z</time>
      </trkpt>
      <trkpt lat="47.67583" lon="6.06589">
        <ele>283.45</ele>
        <time>2019-05-22T08:02:13Z</time>
      </trkpt>
      <trkpt lat="47.67579" lon="6.06596">
        <ele>283.51</ele>
        <time>2019-05-22T08:02:15Z</time>
      </trkpt>
      <trkpt lat="47.67576" lon="6.06602">
        <ele>283.56</ele>
        <time>2019-05-22T08:02:17Z</time>
      </trkpt>
      <trkpt lat="47.67573" lon="6.06608">
        <ele>283.65</ele>
        <time>2019-05-22T08:02:20Z</time>
      </trkpt>
      <trkpt lat="47.67573" lon="6.06617">
        <ele>283.79</ele>
        <time>2019-05-22T08:02:25Z</time>
      </trkpt>
      <trkpt lat="47.67573" lon="6.06626">
        <ele>283.92</ele>
        <time>2019-05-22T08:02:29Z</time>
      </trkpt>
      <trkpt lat="47.67571" lon="6.06634">
        <ele>284.03</ele>
        <time>2019-05-22T08:02:33Z</time>
      </trkpt>
      <trkpt lat="47.67571" lon="6.06641">
        <ele>284.12</ele>
        <time>2019-05-22T08:02:36Z</time>
      </trkpt>
      <trkpt lat="47.67569" lon="6.06648">
        <ele>284.27</ele>
        <time>2019-05-22T08:02:41Z</time>
      </trkpt>
      <trkpt lat="47.67568" lon="6.06656">
        <ele>284.34</ele>
        <time>2019-05-22T08:02:45Z</time>
      </trkpt>
      <trkpt lat="47.67566" lon="6.06664">
        <ele>284.41</ele>
        <time>2019-05-22T08:02:48Z</time>
      </trkpt>
      <trkpt lat="47.67564" lon="6.0667">
        <ele>284.49</ele>
        <time>2019-05-22T08:02:54Z</time>
      </trkpt>
      <trkpt lat="47.67564" lon="6.06679">
        <ele>284.56</ele>
        <time>2019-05-22T08:02:57Z</time>
      </trkpt>
      <trkpt lat="47.67565" lon="6.06689">
        <ele>284.72</ele>
        <time>2019-05-22T08:03:01Z</time>
      </trkpt>
      <trkpt lat="47.67565" lon="6.06697">
        <ele>284.88</ele>
        <time>2019-05-22T08:03:05Z</time>
      </trkpt>
      <trkpt lat="47.67563" lon="6.06706">
        <ele>284.99</ele>
        <time>2019-05-22T08:03:08Z</time>
      </trkpt>
      <trkpt lat="47.67562" lon="6.06713">
        <ele>285.12</ele>
        <time>2019-05-22T08:03:11Z</time>
      </trkpt>
      <trkpt lat="47.67561" lon="6.0672">
        <ele>285.29</ele>
        <time>2019-05-22T08:03:16Z</time>
      </trkpt>
      <trkpt lat="47.6756" lon="6.06728">
        <ele>285.51</ele>
        <time>2019-05-22T08:03:21Z</time>
      </trkpt>
      <trkpt lat="47.67558" lon="6.06736">
        <ele>285.69</ele>
        <time>2019-05-22T08:03:25Z</time>
      </trkpt>
      <trkpt lat="47.67556" lon="6.06742">
        <ele>285.87</ele>
        <time>2019-05-22T08:03:29Z</time>
      </trkpt>
      <trkpt lat="47.67555" lon="6.06751">
        <ele>285.96</ele>
        <time>2019-05-22T08:03:31Z</time>
      </trkpt>
      <trkpt lat="47.67553" lon="6.06758">
        <ele>286.05</ele>
        <time>2019-05-22T08:03:33Z</time>
      </trkpt>
      <trkpt lat="47.67552" lon="6.06765">
        <ele>286.19</ele>
        <time>2019-05-22T08:03:36Z</time>
      </trkpt>
      <trkpt lat="47.6755" lon="6.06773">
        <ele>286.38</ele>
        <time>2019-05-22T08:03:40Z</time>
      </trkpt>
      <trkpt lat="47.67548" lon="6.06782">
        <ele>286.52</ele>
        <time>2019-05-22T08:03:43Z</time>
      </trkpt>
      <trkpt lat="47.67546" lon="6.0679">
        <ele>286.66</ele>
        <time>2019-05-22T08:03:46Z</time>
      </trkpt>
      <trkpt lat="47.67545" lon="6.06799">
        <ele>286.8</ele>
        <time>2019-05-22T08:03:49Z</time>
      </trkpt>
      <trkpt lat="47.67545" lon="6.06806">
        <ele>286.95</ele>
        <time>2019-05-22T08:03:52Z</time>
      </trkpt>
      <trkpt lat="47.67544" lon="6.06813">
        <ele>287.09</ele>
        <time>2019-05-22T08:03:55Z</time>
      </trkpt>
      <trkpt lat="47.67543" lon="6.06822">
        <ele>287.29</ele>
        <time>2019-05-22T08:03:59Z</time>
      </trkpt>
      <trkpt lat="47.67542" lon="6.0683">
        <ele>287.44</ele>
        <time>2019-05-22T08:04:02Z</time>
      </trkpt>
      <trkpt lat="47.67541" lon="6.06839">
        <ele>287.58</ele>
        <time>2019-05-22T08:04:05Z</time>
      </trkpt>
      <trkpt lat="47.67539" lon="6.06847">
        <ele>287.73</ele>
        <time>2019-05-22T08:04:08Z</time>
      </trkpt>
      <trkpt lat="47.67538" lon="6.06854">
        <ele>287.87</ele>
        <time>2019-05-22T08:04:11Z</time>
      </trkpt>
      <trkpt lat="47.67536" lon="6.06862">
        <ele>288.06</ele>
        <time>2019-05-22T08:04:15Z</time>
      </trkpt>
      <trkpt lat="47.67534" lon="6.06868">
        <ele>288.2</ele>
        <time>2019-05-22T08:04:18Z</time>
      </trkpt>
      <trkpt lat="47.67533" lon="6.06877">
        <ele>288.39</ele>
        <time>2019-05-22T08:04:22Z</time>
      </trkpt>
      <trkpt lat="47.67531" lon="6.06885">
        <ele>288.57</ele>
        <time>2019-05-22T08:04:26Z</time>
      </trkpt>
      <trkpt lat="47.6753" lon="6.06892">
        <ele>288.75</ele>
        <time>2019-05-22T08:04:36Z</time>
      </trkpt>
      <trkpt lat="47.67526" lon="6.06897">
        <ele>288.89</ele>
        <time>2019-05-22T08:04:53Z</time>
      </trkpt>
      <trkpt lat="47.67523" lon="6.06903">
        <ele>288.97</ele>
        <time>2019-05-22T08:04:57Z</time>
      </trkpt>
      <trkpt lat="47.67523" lon="6.0691">
        <ele>289.1</ele>
        <time>2019-05-22T08:05:04Z</time>
      </trkpt>
      <trkpt lat="47.67526" lon="6.06917">
        <ele>289.24</ele>
        <time>2019-05-22T08:05:08Z</time>
      </trkpt>
      <trkpt lat="47.67529" lon="6.06923">
        <ele>289.39</ele>
        <time>2019-05-22T08:05:12Z</time>
      </trkpt>
      <trkpt lat="47.67527" lon="6.06931">
        <ele>289.51</ele>
        <time>2019-05-22T08:05:23Z</time>
      </trkpt>
      <trkpt lat="47.67526" lon="6.06937">
        <ele>289.57</ele>
        <time>2019-05-22T08:05:25Z</time>
      </trkpt>
      <trkpt lat="47.67524" lon="6.06945">
        <ele>289.63</ele>
        <time>2019-05-22T08:05:27Z</time>
      </trkpt>
      <trkpt lat="47.67522" lon="6.06954">
        <ele>289.69</ele>
        <time>2019-05-22T08:05:29Z</time>
      </trkpt>
      <trkpt lat="47.67519" lon="6.06965">
        <ele>289.74</ele>
        <time>2019-05-22T08:05:31Z</time>
      </trkpt>
      <trkpt lat="47.67514" lon="6.06978">
        <ele>289.79</ele>
        <time>2019-05-22T08:05:33Z</time>
      </trkpt>
      <trkpt lat="47.67512" lon="6.06984">
        <ele>289.82</ele>
        <time>2019-05-22T08:05:34Z</time>
      </trkpt>
      <trkpt lat="47.67509" lon="6.06996">
        <ele>289.88</ele>
        <time>2019-05-22T08:05:36Z</time>
      </trkpt>
      <trkpt lat="47.67506" lon="6.07008">
        <ele>289.93</ele>
        <time>2019-05-22T08:05:38Z</time>
      </trkpt>
      <trkpt lat="47.67504" lon="6.07015">
        <ele>289.98</ele>
        <time>2019-05-22T08:05:40Z</time>
      </trkpt>
      <trkpt lat="47.67502" lon="6.07022">
        <ele>290.01</ele>
        <time>2019-05-22T08:05:41Z</time>
      </trkpt>
      <trkpt lat="47.67499" lon="6.07032">
        <ele>290.06</ele>
        <time>2019-05-22T08:05:43Z</time>
      </trkpt>
      <trkpt lat="47.67494" lon="6.07043">
        <ele>290.12</ele>
        <time>2019-05-22T08:05:45Z</time>
      </trkpt>
      <trkpt lat="47.67493" lon="6.07052">
        <ele>290.17</ele>
        <time>2019-05-22T08:05:47Z</time>
      </trkpt>
      <trkpt lat="47.67494" lon="6.07061">
        <ele>290.22</ele>
        <time>2019-05-22T08:05:49Z</time>
      </trkpt>
      <trkpt lat="47.67494" lon="6.07072">
        <ele>290.28</ele>
        <time>2019-05-22T08:05:51Z</time>
      </trkpt>
      <trkpt lat="47.67493" lon="6.0708">
        <ele>290.34</ele>
        <time>2019-05-22T08:05:53Z</time>
      </trkpt>
      <trkpt lat="47.67491" lon="6.07091">
        <ele>290.4</ele>
        <time>2019-05-22T08:05:55Z</time>
      </trkpt>
      <trkpt lat="47.6749" lon="6.07098">
        <ele>290.42</ele>
        <time>2019-05-22T08:05:56Z</time>
      </trkpt>
      <trkpt lat="47.67488" lon="6.07106">
        <ele>290.48</ele>
        <time>2019-05-22T08:05:58Z</time>
      </trkpt>
      <trkpt lat="47.67487" lon="6.07115">
        <ele>290.54</ele>
        <time>2019-05-22T08:06:00Z</time>
      </trkpt>
      <trkpt lat="47.67484" lon="6.07125">
        <ele>290.6</ele>
        <time>2019-05-22T08:06:02Z</time>
      </trkpt>
      <trkpt lat="47.67482" lon="6.07137">
        <ele>290.65</ele>
        <time>2019-05-22T08:06:04Z</time>
      </trkpt>
      <trkpt lat="47.67479" lon="6.07147">
        <ele>290.71</ele>
        <time>2019-05-22T08:06:06Z</time>
      </trkpt>
      <trkpt lat="47.67477" lon="6.07157">
        <ele>290.76</ele>
        <time>2019-05-22T08:06:08Z</time>
      </trkpt>
      <trkpt lat="47.67474" lon="6.07168">
        <ele>290.81</ele>
        <time>2019-05-22T08:06:10Z</time>
      </trkpt>
      <trkpt lat="47.67472" lon="6.07177">
        <ele>290.86</ele>
        <time>2019-05-22T08:06:12Z</time>
      </trkpt>
      <trkpt lat="47.67469" lon="6.07186">
        <ele>290.91</ele>
        <time>2019-05-22T08:06:14Z</time>
      </trkpt>
      <trkpt lat="47.67468" lon="6.07194">
        <ele>290.99</ele>
        <time>2019-05-22T08:06:17Z</time>
      </trkpt>
      <trkpt lat="47.67469" lon="6.07203">
        <ele>291.05</ele>
        <time>2019-05-22T08:06:20Z</time>
      </trkpt>
      <trkpt lat="47.6747" lon="6.07213">
        <ele>291.11</ele>
        <time>2019-05-22T08:06:23Z</time>
      </trkpt>
      <trkpt lat="47.67468" lon="6.07221">
        <ele>291.16</ele>
        <time>2019-05-22T08:06:26Z</time>
      </trkpt>
      <trkpt lat="47.67465" lon="6.07231">
        <ele>291.21</ele>
        <time>2019-05-22T08:06:29Z</time>
      </trkpt>
      <trkpt lat="47.6746" lon="6.0724">
        <ele>291.24</ele>
        <time>2019-05-22T08:06:31Z</time>
      </trkpt>
      <trkpt lat="47.67456" lon="6.0725">
        <ele>291.27</ele>
        <time>2019-05-22T08:06:33Z</time>
      </trkpt>
      <trkpt lat="47.67454" lon="6.07256">
        <ele>291.28</ele>
        <time>2019-05-22T08:06:34Z</time>
      </trkpt>
      <trkpt lat="47.67449" lon="6.07265">
        <ele>291.39</ele>
        <time>2019-05-22T08:06:36Z</time>
      </trkpt>
      <trkpt lat="47.67447" lon="6.07272">
        <ele>291.49</ele>
        <time>2019-05-22T08:06:37Z</time>
      </trkpt>
      <trkpt lat="47.67445" lon="6.07284">
        <ele>291.64</ele>
        <time>2019-05-22T08:06:39Z</time>
      </trkpt>
      <trkpt lat="47.67442" lon="6.07295">
        <ele>291.69</ele>
        <time>2019-05-22T08:06:40Z</time>
      </trkpt>
      <trkpt lat="47.6744" lon="6.07304">
        <ele>291.73</ele>
        <time>2019-05-22T08:06:41Z</time>
      </trkpt>
      <trkpt lat="47.67438" lon="6.07313">
        <ele>291.77</ele>
        <time>2019-05-22T08:06:42Z</time>
      </trkpt>
      <trkpt lat="47.67431" lon="6.07335">
        <ele>291.8</ele>
        <time>2019-05-22T08:06:43Z</time>
      </trkpt>
      <trkpt lat="47.67428" lon="6.07343">
        <ele>291.82</ele>
        <time>2019-05-22T08:06:44Z</time>
      </trkpt>
      <trkpt lat="47.67425" lon="6.07353">
        <ele>291.83</ele>
        <time>2019-05-22T08:06:45Z</time>
      </trkpt>
      <trkpt lat="47.67423" lon="6.07364">
        <ele>291.84</ele>
        <time>2019-05-22T08:06:46Z</time>
      </trkpt>
      <trkpt lat="47.6742" lon="6.07372">
        <ele>291.84</ele>
        <time>2019-05-22T08:06:47Z</time>
      </trkpt>
      <trkpt lat="47.67417" lon="6.07381">
        <ele>291.84</ele>
        <time>2019-05-22T08:06:48Z</time>
      </trkpt>
      <trkpt lat="47.67415" lon="6.07392">
        <ele>291.85</ele>
        <time>2019-05-22T08:06:49Z</time>
      </trkpt>
      <trkpt lat="47.67412" lon="6.07402">
        <ele>291.84</ele>
        <time>2019-05-22T08:06:50Z</time>
      </trkpt>
      <trkpt lat="47.67409" lon="6.0741">
        <ele>291.84</ele>
        <time>2019-05-22T08:06:51Z</time>
      </trkpt>
      <trkpt lat="47.67407" lon="6.07418">
        <ele>291.83</ele>
        <time>2019-05-22T08:06:52Z</time>
      </trkpt>
      <trkpt lat="47.67404" lon="6.07427">
        <ele>291.82</ele>
        <time>2019-05-22T08:06:53Z</time>
      </trkpt>
      <trkpt lat="47.674" lon="6.07435">
        <ele>291.81</ele>
        <time>2019-05-22T08:06:54Z</time>
      </trkpt>
      <trkpt lat="47.67397" lon="6.07441">
        <ele>291.8</ele>
        <time>2019-05-22T08:06:55Z</time>
      </trkpt>
      <trkpt lat="47.67391" lon="6.07452">
        <ele>291.77</ele>
        <time>2019-05-22T08:06:57Z</time>
      </trkpt>
      <trkpt lat="47.67388" lon="6.07457">
        <ele>291.76</ele>
        <time>2019-05-22T08:06:58Z</time>
      </trkpt>
      <trkpt lat="47.67384" lon="6.07463">
        <ele>291.75</ele>
        <time>2019-05-22T08:06:59Z</time>
      </trkpt>
      <trkpt lat="47.67383" lon="6.07472">
        <ele>291.73</ele>
        <time>2019-05-22T08:07:00Z</time>
      </trkpt>
      <trkpt lat="47.67379" lon="6.07477">
        <ele>291.72</ele>
        <time>2019-05-22T08:07:01Z</time>
      </trkpt>
      <trkpt lat="47.67376" lon="6.07487">
        <ele>291.71</ele>
        <time>2019-05-22T08:07:02Z</time>
      </trkpt>
      <trkpt lat="47.67372" lon="6.07496">
        <ele>291.71</ele>
        <time>2019-05-22T08:07:03Z</time>
      </trkpt>
      <trkpt lat="47.67367" lon="6.07502">
        <ele>291.71</ele>
        <time>2019-05-22T08:07:04Z</time>
      </trkpt>
      <trkpt lat="47.67363" lon="6.07508">
        <ele>291.71</ele>
        <time>2019-05-22T08:07:05Z</time>
      </trkpt>
      <trkpt lat="47.6736" lon="6.07513">
        <ele>291.72</ele>
        <time>2019-05-22T08:07:06Z</time>
      </trkpt>
      <trkpt lat="47.67356" lon="6.07522">
        <ele>291.73</ele>
        <time>2019-05-22T08:07:07Z</time>
      </trkpt>
      <trkpt lat="47.67352" lon="6.07529">
        <ele>291.74</ele>
        <time>2019-05-22T08:07:08Z</time>
      </trkpt>
      <trkpt lat="47.67346" lon="6.07539">
        <ele>291.74</ele>
        <time>2019-05-22T08:07:09Z</time>
      </trkpt>
      <trkpt lat="47.67342" lon="6.0755">
        <ele>291.74</ele>
        <time>2019-05-22T08:07:10Z</time>
      </trkpt>
      <trkpt lat="47.67339" lon="6.07559">
        <ele>291.75</ele>
        <time>2019-05-22T08:07:11Z</time>
      </trkpt>
      <trkpt lat="47.67336" lon="6.07568">
        <ele>291.75</ele>
        <time>2019-05-22T08:07:12Z</time>
      </trkpt>
      <trkpt lat="47.67332" lon="6.07577">
        <ele>291.75</ele>
        <time>2019-05-22T08:07:13Z</time>
      </trkpt>
      <trkpt lat="47.67327" lon="6.07586">
        <ele>291.76</ele>
        <time>2019-05-22T08:07:14Z</time>
      </trkpt>
      <trkpt lat="47.67323" lon="6.07595">
        <ele>291.75</ele>
        <time>2019-05-22T08:07:15Z</time>
      </trkpt>
      <trkpt lat="47.67318" lon="6.07604">
        <ele>291.75</ele>
        <time>2019-05-22T08:07:16Z</time>
      </trkpt>
      <trkpt lat="47.67314" lon="6.07611">
        <ele>291.75</ele>
        <time>2019-05-22T08:07:17Z</time>
      </trkpt>
      <trkpt lat="47.67309" lon="6.07626">
        <ele>291.74</ele>
        <time>2019-05-22T08:07:18Z</time>
      </trkpt>
      <trkpt lat="47.67306" lon="6.07632">
        <ele>291.74</ele>
        <time>2019-05-22T08:07:19Z</time>
      </trkpt>
      <trkpt lat="47.67302" lon="6.07638">
        <ele>291.73</ele>
        <time>2019-05-22T08:07:22Z</time>
      </trkpt>
      <trkpt lat="47.67297" lon="6.07642">
        <ele>291.73</ele>
        <time>2019-05-22T08:07:26Z</time>
      </trkpt>
      <trkpt lat="47.67293" lon="6.07644">
        <ele>291.71</ele>
        <time>2019-05-22T08:07:33Z</time>
      </trkpt>
      <trkpt lat="47.67289" lon="6.07647">
        <ele>291.63</ele>
        <time>2019-05-22T08:07:36Z</time>
      </trkpt>
      <trkpt lat="47.67283" lon="6.07652">
        <ele>291.47</ele>
        <time>2019-05-22T08:07:40Z</time>
      </trkpt>
      <trkpt lat="47.67277" lon="6.07653">
        <ele>291.16</ele>
        <time>2019-05-22T08:07:46Z</time>
      </trkpt>
      <trkpt lat="47.6727" lon="6.07644">
        <ele>290.97</ele>
        <time>2019-05-22T08:07:48Z</time>
      </trkpt>
      <trkpt lat="47.67266" lon="6.0764">
        <ele>290.87</ele>
        <time>2019-05-22T08:07:49Z</time>
      </trkpt>
      <trkpt lat="47.67258" lon="6.07637">
        <ele>290.77</ele>
        <time>2019-05-22T08:07:50Z</time>
      </trkpt>
      <trkpt lat="47.67253" lon="6.07636">
        <ele>290.67</ele>
        <time>2019-05-22T08:07:51Z</time>
      </trkpt>
      <trkpt lat="47.67246" lon="6.07634">
        <ele>290.47</ele>
        <time>2019-05-22T08:07:53Z</time>
      </trkpt>
      <trkpt lat="47.67241" lon="6.07632">
        <ele>290.28</ele>
        <time>2019-05-22T08:07:55Z</time>
      </trkpt>
      <trkpt lat="47.67237" lon="6.07628">
        <ele>290</ele>
        <time>2019-05-22T08:07:58Z</time>
      </trkpt>
      <trkpt lat="47.67234" lon="6.07624">
        <ele>289.62</ele>
        <time>2019-05-22T08:08:02Z</time>
      </trkpt>
      <trkpt lat="47.6723" lon="6.07621">
        <ele>289.34</ele>
        <time>2019-05-22T08:08:05Z</time>
      </trkpt>
      <trkpt lat="47.67224" lon="6.0762">
        <ele>289.07</ele>
        <time>2019-05-22T08:08:08Z</time>
      </trkpt>
      <trkpt lat="47.67219" lon="6.07618">
        <ele>288.8</ele>
        <time>2019-05-22T08:08:11Z</time>
      </trkpt>
      <trkpt lat="47.67214" lon="6.07615">
        <ele>288.52</ele>
        <time>2019-05-22T08:08:14Z</time>
      </trkpt>
      <trkpt lat="47.6721" lon="6.07612">
        <ele>288.24</ele>
        <time>2019-05-22T08:08:17Z</time>
      </trkpt>
      <trkpt lat="47.67205" lon="6.0761">
        <ele>287.95</ele>
        <time>2019-05-22T08:08:20Z</time>
      </trkpt>
      <trkpt lat="47.672" lon="6.07607">
        <ele>287.59</ele>
        <time>2019-05-22T08:08:24Z</time>
      </trkpt>
      <trkpt lat="47.67194" lon="6.07605">
        <ele>287.24</ele>
        <time>2019-05-22T08:08:28Z</time>
      </trkpt>
      <trkpt lat="47.67189" lon="6.07601">
        <ele>286.9</ele>
        <time>2019-05-22T08:08:32Z</time>
      </trkpt>
      <trkpt lat="47.67184" lon="6.07596">
        <ele>286.57</ele>
        <time>2019-05-22T08:08:36Z</time>
      </trkpt>
      <trkpt lat="47.67181" lon="6.0759">
        <ele>286.33</ele>
        <time>2019-05-22T08:08:39Z</time>
      </trkpt>
      <trkpt lat="47.67179" lon="6.07583">
        <ele>286.02</ele>
        <time>2019-05-22T08:08:43Z</time>
      </trkpt>
      <trkpt lat="47.67175" lon="6.07578">
        <ele>285.72</ele>
        <time>2019-05-22T08:08:47Z</time>
      </trkpt>
      <trkpt lat="47.67171" lon="6.07572">
        <ele>285.51</ele>
        <time>2019-05-22T08:08:50Z</time>
      </trkpt>
      <trkpt lat="47.67166" lon="6.07567">
        <ele>285.31</ele>
        <time>2019-05-22T08:08:53Z</time>
      </trkpt>
      <trkpt lat="47.67162" lon="6.07563">
        <ele>285.11</ele>
        <time>2019-05-22T08:08:56Z</time>
      </trkpt>
      <trkpt lat="47.67157" lon="6.07559">
        <ele>284.92</ele>
        <time>2019-05-22T08:08:59Z</time>
      </trkpt>
      <trkpt lat="47.67152" lon="6.07555">
        <ele>284.74</ele>
        <time>2019-05-22T08:09:02Z</time>
      </trkpt>
      <trkpt lat="47.67146" lon="6.07552">
        <ele>284.57</ele>
        <time>2019-05-22T08:09:05Z</time>
      </trkpt>
      <trkpt lat="47.6714" lon="6.07547">
        <ele>284.42</ele>
        <time>2019-05-22T08:09:08Z</time>
      </trkpt>
      <trkpt lat="47.67135" lon="6.07542">
        <ele>284.27</ele>
        <time>2019-05-22T08:09:11Z</time>
      </trkpt>
      <trkpt lat="47.67131" lon="6.07538">
        <ele>284.17</ele>
        <time>2019-05-22T08:09:13Z</time>
      </trkpt>
      <trkpt lat="47.67125" lon="6.07533">
        <ele>284.02</ele>
        <time>2019-05-22T08:09:16Z</time>
      </trkpt>
      <trkpt lat="47.6712" lon="6.0753">
        <ele>283.92</ele>
        <time>2019-05-22T08:09:18Z</time>
      </trkpt>
      <trkpt lat="47.67115" lon="6.07528">
        <ele>283.82</ele>
        <time>2019-05-22T08:09:20Z</time>
      </trkpt>
      <trkpt lat="47.6711" lon="6.07524">
        <ele>283.72</ele>
        <time>2019-05-22T08:09:22Z</time>
      </trkpt>
      <trkpt lat="47.67105" lon="6.0752">
        <ele>283.62</ele>
        <time>2019-05-22T08:09:24Z</time>
      </trkpt>
      <trkpt lat="47.67101" lon="6.07517">
        <ele>283.52</ele>
        <time>2019-05-22T08:09:26Z</time>
      </trkpt>
      <trkpt lat="47.67095" lon="6.07514">
        <ele>283.38</ele>
        <time>2019-05-22T08:09:29Z</time>
      </trkpt>
      <trkpt lat="47.6709" lon="6.0751">
        <ele>283.28</ele>
        <time>2019-05-22T08:09:31Z</time>
      </trkpt>
      <trkpt lat="47.67086" lon="6.07506">
        <ele>283.18</ele>
        <time>2019-05-22T08:09:33Z</time>
      </trkpt>
      <trkpt lat="47.67083" lon="6.075">
        <ele>283.09</ele>
        <time>2019-05-22T08:09:35Z</time>
      </trkpt>
      <trkpt lat="47.67079" lon="6.07494">
        <ele>282.99</ele>
        <time>2019-05-22T08:09:37Z</time>
      </trkpt>
      <trkpt lat="47.67075" lon="6.0749">
        <ele>282.9</ele>
        <time>2019-05-22T08:09:39Z</time>
      </trkpt>
      <trkpt lat="47.67069" lon="6.07489">
        <ele>282.76</ele>
        <time>2019-05-22T08:09:42Z</time>
      </trkpt>
      <trkpt lat="47.67064" lon="6.07494">
        <ele>282.62</ele>
        <time>2019-05-22T08:09:45Z</time>
      </trkpt>
      <trkpt lat="47.67061" lon="6.07499">
        <ele>282.53</ele>
        <time>2019-05-22T08:09:47Z</time>
      </trkpt>
      <trkpt lat="47.67057" lon="6.07505">
        <ele>282.44</ele>
        <time>2019-05-22T08:09:49Z</time>
      </trkpt>
      <trkpt lat="47.67053" lon="6.07513">
        <ele>282.08</ele>
        <time>2019-05-22T08:09:51Z</time>
      </trkpt>
      <trkpt lat="47.67047" lon="6.07522">
        <ele>281.43</ele>
        <time>2019-05-22T08:09:53Z</time>
      </trkpt>
      <trkpt lat="47.67041" lon="6.07532">
        <ele>280.97</ele>
        <time>2019-05-22T08:09:55Z</time>
      </trkpt>
      <trkpt lat="47.67038" lon="6.07538">
        <ele>280.79</ele>
        <time>2019-05-22T08:09:56Z</time>
      </trkpt>
      <trkpt lat="47.67034" lon="6.07544">
        <ele>280.64</ele>
        <time>2019-05-22T08:09:57Z</time>
      </trkpt>
      <trkpt lat="47.6703" lon="6.07551">
        <ele>280.5</ele>
        <time>2019-05-22T08:09:58Z</time>
      </trkpt>
      <trkpt lat="47.67022" lon="6.07565">
        <ele>280.38</ele>
        <time>2019-05-22T08:09:59Z</time>
      </trkpt>
      <trkpt lat="47.67019" lon="6.07571">
        <ele>280.26</ele>
        <time>2019-05-22T08:10:00Z</time>
      </trkpt>
      <trkpt lat="47.67015" lon="6.07578">
        <ele>280.15</ele>
        <time>2019-05-22T08:10:01Z</time>
      </trkpt>
      <trkpt lat="47.67011" lon="6.07584">
        <ele>280.05</ele>
        <time>2019-05-22T08:10:02Z</time>
      </trkpt>
      <trkpt lat="47.67007" lon="6.07591">
        <ele>279.96</ele>
        <time>2019-05-22T08:10:03Z</time>
      </trkpt>
      <trkpt lat="47.67001" lon="6.076">
        <ele>279.85</ele>
        <time>2019-05-22T08:10:04Z</time>
      </trkpt>
      <trkpt lat="47.66996" lon="6.07607">
        <ele>279.73</ele>
        <time>2019-05-22T08:10:05Z</time>
      </trkpt>
      <trkpt lat="47.66991" lon="6.07614">
        <ele>279.59</ele>
        <time>2019-05-22T08:10:06Z</time>
      </trkpt>
      <trkpt lat="47.66986" lon="6.07621">
        <ele>279.44</ele>
        <time>2019-05-22T08:10:07Z</time>
      </trkpt>
      <trkpt lat="47.66981" lon="6.07629">
        <ele>279.29</ele>
        <time>2019-05-22T08:10:08Z</time>
      </trkpt>
      <trkpt lat="47.66977" lon="6.07637">
        <ele>279.14</ele>
        <time>2019-05-22T08:10:09Z</time>
      </trkpt>
      <trkpt lat="47.66972" lon="6.07646">
        <ele>278.98</ele>
        <time>2019-05-22T08:10:10Z</time>
      </trkpt>
      <trkpt lat="47.66966" lon="6.07655">
        <ele>278.81</ele>
        <time>2019-05-22T08:10:11Z</time>
      </trkpt>
      <trkpt lat="47.6696" lon="6.07662">
        <ele>278.63</ele>
        <time>2019-05-22T08:10:12Z</time>
      </trkpt>
      <trkpt lat="47.66954" lon="6.0767">
        <ele>278.44</ele>
        <time>2019-05-22T08:10:13Z</time>
      </trkpt>
      <trkpt lat="47.66949" lon="6.07678">
        <ele>278.27</ele>
        <time>2019-05-22T08:10:14Z</time>
      </trkpt>
      <trkpt lat="47.66944" lon="6.07686">
        <ele>278.14</ele>
        <time>2019-05-22T08:10:15Z</time>
      </trkpt>
      <trkpt lat="47.66941" lon="6.07695">
        <ele>278.08</ele>
        <time>2019-05-22T08:10:16Z</time>
      </trkpt>
      <trkpt lat="47.66939" lon="6.07705">
        <ele>278.12</ele>
        <time>2019-05-22T08:10:17Z</time>
      </trkpt>
      <trkpt lat="47.66935" lon="6.07715">
        <ele>278.11</ele>
        <time>2019-05-22T08:10:18Z</time>
      </trkpt>
      <trkpt lat="47.66935" lon="6.07727">
        <ele>278.03</ele>
        <time>2019-05-22T08:10:19Z</time>
      </trkpt>
      <trkpt lat="47.66934" lon="6.07737">
        <ele>277.82</ele>
        <time>2019-05-22T08:10:20Z</time>
      </trkpt>
      <trkpt lat="47.66936" lon="6.07745">
        <ele>277.54</ele>
        <time>2019-05-22T08:10:21Z</time>
      </trkpt>
      <trkpt lat="47.66938" lon="6.07754">
        <ele>277.15</ele>
        <time>2019-05-22T08:10:22Z</time>
      </trkpt>
      <trkpt lat="47.6694" lon="6.07763">
        <ele>276.76</ele>
        <time>2019-05-22T08:10:23Z</time>
      </trkpt>
      <trkpt lat="47.66943" lon="6.07771">
        <ele>276.44</ele>
        <time>2019-05-22T08:10:24Z</time>
      </trkpt>
      <trkpt lat="47.66945" lon="6.0778">
        <ele>276.21</ele>
        <time>2019-05-22T08:10:25Z</time>
      </trkpt>
      <trkpt lat="47.66948" lon="6.07789">
        <ele>276.04</ele>
        <time>2019-05-22T08:10:26Z</time>
      </trkpt>
      <trkpt lat="47.6695" lon="6.07797">
        <ele>275.88</ele>
        <time>2019-05-22T08:10:27Z</time>
      </trkpt>
      <trkpt lat="47.66952" lon="6.07805">
        <ele>275.75</ele>
        <time>2019-05-22T08:10:28Z</time>
      </trkpt>
      <trkpt lat="47.66954" lon="6.07813">
        <ele>275.58</ele>
        <time>2019-05-22T08:10:29Z</time>
      </trkpt>
      <trkpt lat="47.66956" lon="6.0782">
        <ele>275.39</ele>
        <time>2019-05-22T08:10:30Z</time>
      </trkpt>
      <trkpt lat="47.66959" lon="6.07828">
        <ele>275.2</ele>
        <time>2019-05-22T08:10:31Z</time>
      </trkpt>
      <trkpt lat="47.66961" lon="6.07836">
        <ele>274.96</ele>
        <time>2019-05-22T08:10:32Z</time>
      </trkpt>
      <trkpt lat="47.66964" lon="6.07844">
        <ele>274.74</ele>
        <time>2019-05-22T08:10:33Z</time>
      </trkpt>
      <trkpt lat="47.66967" lon="6.07851">
        <ele>274.52</ele>
        <time>2019-05-22T08:10:34Z</time>
      </trkpt>
      <trkpt lat="47.66969" lon="6.07859">
        <ele>274.34</ele>
        <time>2019-05-22T08:10:35Z</time>
      </trkpt>
      <trkpt lat="47.66969" lon="6.07867">
        <ele>274</ele>
        <time>2019-05-22T08:10:36Z</time>
      </trkpt>
      <trkpt lat="47.66968" lon="6.07874">
        <ele>273.58</ele>
        <time>2019-05-22T08:10:37Z</time>
      </trkpt>
      <trkpt lat="47.6697" lon="6.07881">
        <ele>272.97</ele>
        <time>2019-05-22T08:10:38Z</time>
      </trkpt>
      <trkpt lat="47.66972" lon="6.07888">
        <ele>272.4</ele>
        <time>2019-05-22T08:10:39Z</time>
      </trkpt>
      <trkpt lat="47.66974" lon="6.07894">
        <ele>271.98</ele>
        <time>2019-05-22T08:10:40Z</time>
      </trkpt>
      <trkpt lat="47.66975" lon="6.07906">
        <ele>271.52</ele>
        <time>2019-05-22T08:10:42Z</time>
      </trkpt>
      <trkpt lat="47.66974" lon="6.07916">
        <ele>271.42</ele>
        <time>2019-05-22T08:10:45Z</time>
      </trkpt>
      <trkpt lat="47.66972" lon="6.07922">
        <ele>271.43</ele>
        <time>2019-05-22T08:10:47Z</time>
      </trkpt>
      <trkpt lat="47.6697" lon="6.07929">
        <ele>271.46</ele>
        <time>2019-05-22T08:10:49Z</time>
      </trkpt>
      <trkpt lat="47.66966" lon="6.07936">
        <ele>271.5</ele>
        <time>2019-05-22T08:10:51Z</time>
      </trkpt>
      <trkpt lat="47.66959" lon="6.07945">
        <ele>271.7</ele>
        <time>2019-05-22T08:10:53Z</time>
      </trkpt>
      <trkpt lat="47.66956" lon="6.07952">
        <ele>271.87</ele>
        <time>2019-05-22T08:10:54Z</time>
      </trkpt>
      <trkpt lat="47.66953" lon="6.07957">
        <ele>271.92</ele>
        <time>2019-05-22T08:10:55Z</time>
      </trkpt>
      <trkpt lat="47.66949" lon="6.07962">
        <ele>271.93</ele>
        <time>2019-05-22T08:10:57Z</time>
      </trkpt>
      <trkpt lat="47.66944" lon="6.07964">
        <ele>271.93</ele>
        <time>2019-05-22T08:11:00Z</time>
      </trkpt>
      <trkpt lat="47.66939" lon="6.07967">
        <ele>271.96</ele>
        <time>2019-05-22T08:11:04Z</time>
      </trkpt>
      <trkpt lat="47.66937" lon="6.07974">
        <ele>272.01</ele>
        <time>2019-05-22T08:11:08Z</time>
      </trkpt>
      <trkpt lat="47.66935" lon="6.07982">
        <ele>272.06</ele>
        <time>2019-05-22T08:11:12Z</time>
      </trkpt>
      <trkpt lat="47.66932" lon="6.07988">
        <ele>272.1</ele>
        <time>2019-05-22T08:11:15Z</time>
      </trkpt>
      <trkpt lat="47.66929" lon="6.07993">
        <ele>272.13</ele>
        <time>2019-05-22T08:11:18Z</time>
      </trkpt>
      <trkpt lat="47.66925" lon="6.08">
        <ele>272.14</ele>
        <time>2019-05-22T08:11:22Z</time>
      </trkpt>
      <trkpt lat="47.66922" lon="6.08005">
        <ele>272.13</ele>
        <time>2019-05-22T08:11:26Z</time>
      </trkpt>
      <trkpt lat="47.66918" lon="6.08009">
        <ele>272.11</ele>
        <time>2019-05-22T08:11:29Z</time>
      </trkpt>
      <trkpt lat="47.66913" lon="6.08006">
        <ele>272.05</ele>
        <time>2019-05-22T08:11:31Z</time>
      </trkpt>
      <trkpt lat="47.66907" lon="6.08001">
        <ele>271.89</ele>
        <time>2019-05-22T08:11:33Z</time>
      </trkpt>
      <trkpt lat="47.66903" lon="6.07996">
        <ele>271.69</ele>
        <time>2019-05-22T08:11:35Z</time>
      </trkpt>
      <trkpt lat="47.66899" lon="6.0799">
        <ele>271.5</ele>
        <time>2019-05-22T08:11:37Z</time>
      </trkpt>
      <trkpt lat="47.66894" lon="6.07984">
        <ele>271.31</ele>
        <time>2019-05-22T08:11:39Z</time>
      </trkpt>
      <trkpt lat="47.66891" lon="6.07978">
        <ele>271.13</ele>
        <time>2019-05-22T08:11:41Z</time>
      </trkpt>
      <trkpt lat="47.66887" lon="6.07973">
        <ele>270.95</ele>
        <time>2019-05-22T08:11:43Z</time>
      </trkpt>
      <trkpt lat="47.66883" lon="6.07967">
        <ele>270.77</ele>
        <time>2019-05-22T08:11:45Z</time>
      </trkpt>
      <trkpt lat="47.66879" lon="6.07962">
        <ele>270.6</ele>
        <time>2019-05-22T08:11:47Z</time>
      </trkpt>
      <trkpt lat="47.66874" lon="6.07957">
        <ele>270.4</ele>
        <time>2019-05-22T08:11:49Z</time>
      </trkpt>
      <trkpt lat="47.6687" lon="6.07952">
        <ele>270.2</ele>
        <time>2019-05-22T08:11:51Z</time>
      </trkpt>
      <trkpt lat="47.66865" lon="6.07949">
        <ele>270</ele>
        <time>2019-05-22T08:11:53Z</time>
      </trkpt>
      <trkpt lat="47.6686" lon="6.07948">
        <ele>269.79</ele>
        <time>2019-05-22T08:11:55Z</time>
      </trkpt>
      <trkpt lat="47.66854" lon="6.07948">
        <ele>269.59</ele>
        <time>2019-05-22T08:11:57Z</time>
      </trkpt>
      <trkpt lat="47.6685" lon="6.07952">
        <ele>269.38</ele>
        <time>2019-05-22T08:11:59Z</time>
      </trkpt>
      <trkpt lat="47.66845" lon="6.07956">
        <ele>269.15</ele>
        <time>2019-05-22T08:12:01Z</time>
      </trkpt>
      <trkpt lat="47.66841" lon="6.0796">
        <ele>268.9</ele>
        <time>2019-05-22T08:12:03Z</time>
      </trkpt>
      <trkpt lat="47.66836" lon="6.07965">
        <ele>268.47</ele>
        <time>2019-05-22T08:12:06Z</time>
      </trkpt>
      <trkpt lat="47.6683" lon="6.07966">
        <ele>268.03</ele>
        <time>2019-05-22T08:12:09Z</time>
      </trkpt>
      <trkpt lat="47.66825" lon="6.07966">
        <ele>267.71</ele>
        <time>2019-05-22T08:12:11Z</time>
      </trkpt>
      <trkpt lat="47.66819" lon="6.07963">
        <ele>267.16</ele>
        <time>2019-05-22T08:12:14Z</time>
      </trkpt>
      <trkpt lat="47.66815" lon="6.07958">
        <ele>266.77</ele>
        <time>2019-05-22T08:12:16Z</time>
      </trkpt>
      <trkpt lat="47.66812" lon="6.07953">
        <ele>266.39</ele>
        <time>2019-05-22T08:12:18Z</time>
      </trkpt>
      <trkpt lat="47.66808" lon="6.07946">
        <ele>266.03</ele>
        <time>2019-05-22T08:12:20Z</time>
      </trkpt>
      <trkpt lat="47.66804" lon="6.07938">
        <ele>265.67</ele>
        <time>2019-05-22T08:12:22Z</time>
      </trkpt>
      <trkpt lat="47.66801" lon="6.0793">
        <ele>264.21</ele>
        <time>2019-05-22T08:12:24Z</time>
      </trkpt>
      <trkpt lat="47.66797" lon="6.07922">
        <ele>261.54</ele>
        <time>2019-05-22T08:12:26Z</time>
      </trkpt>
      <trkpt lat="47.66792" lon="6.07913">
        <ele>259.56</ele>
        <time>2019-05-22T08:12:28Z</time>
      </trkpt>
      <trkpt lat="47.66788" lon="6.07904">
        <ele>258.17</ele>
        <time>2019-05-22T08:12:30Z</time>
      </trkpt>
      <trkpt lat="47.66783" lon="6.07894">
        <ele>257.19</ele>
        <time>2019-05-22T08:12:32Z</time>
      </trkpt>
      <trkpt lat="47.66777" lon="6.07884">
        <ele>256.82</ele>
        <time>2019-05-22T08:12:33Z</time>
      </trkpt>
      <trkpt lat="47.66771" lon="6.07875">
        <ele>256.25</ele>
        <time>2019-05-22T08:12:35Z</time>
      </trkpt>
      <trkpt lat="47.66766" lon="6.07865">
        <ele>255.83</ele>
        <time>2019-05-22T08:12:37Z</time>
      </trkpt>
      <trkpt lat="47.66761" lon="6.07855">
        <ele>255.51</ele>
        <time>2019-05-22T08:12:39Z</time>
      </trkpt>
      <trkpt lat="47.66755" lon="6.07847">
        <ele>255.26</ele>
        <time>2019-05-22T08:12:41Z</time>
      </trkpt>
      <trkpt lat="47.6675" lon="6.07838">
        <ele>255.06</ele>
        <time>2019-05-22T08:12:43Z</time>
      </trkpt>
      <trkpt lat="47.66745" lon="6.0783">
        <ele>254.9</ele>
        <time>2019-05-22T08:12:45Z</time>
      </trkpt>
      <trkpt lat="47.66739" lon="6.07822">
        <ele>254.78</ele>
        <time>2019-05-22T08:12:47Z</time>
      </trkpt>
      <trkpt lat="47.66733" lon="6.07814">
        <ele>254.69</ele>
        <time>2019-05-22T08:12:49Z</time>
      </trkpt>
      <trkpt lat="47.66728" lon="6.07804">
        <ele>254.61</ele>
        <time>2019-05-22T08:12:51Z</time>
      </trkpt>
      <trkpt lat="47.66723" lon="6.07796">
        <ele>254.54</ele>
        <time>2019-05-22T08:12:53Z</time>
      </trkpt>
      <trkpt lat="47.66717" lon="6.07787">
        <ele>254.48</ele>
        <time>2019-05-22T08:12:55Z</time>
      </trkpt>
      <trkpt lat="47.66712" lon="6.07779">
        <ele>254.42</ele>
        <time>2019-05-22T08:12:57Z</time>
      </trkpt>
      <trkpt lat="47.66706" lon="6.0777">
        <ele>254.38</ele>
        <time>2019-05-22T08:12:59Z</time>
      </trkpt>
      <trkpt lat="47.667" lon="6.07762">
        <ele>254.34</ele>
        <time>2019-05-22T08:13:01Z</time>
      </trkpt>
      <trkpt lat="47.66694" lon="6.07754">
        <ele>254.3</ele>
        <time>2019-05-22T08:13:03Z</time>
      </trkpt>
      <trkpt lat="47.66688" lon="6.07746">
        <ele>254.26</ele>
        <time>2019-05-22T08:13:05Z</time>
      </trkpt>
      <trkpt lat="47.66684" lon="6.07742">
        <ele>254.24</ele>
        <time>2019-05-22T08:13:06Z</time>
      </trkpt>
      <trkpt lat="47.6668" lon="6.07738">
        <ele>254.22</ele>
        <time>2019-05-22T08:13:07Z</time>
      </trkpt>
      <trkpt lat="47.66673" lon="6.07731">
        <ele>254.19</ele>
        <time>2019-05-22T08:13:09Z</time>
      </trkpt>
      <trkpt lat="47.66666" lon="6.07725">
        <ele>254.15</ele>
        <time>2019-05-22T08:13:11Z</time>
      </trkpt>
      <trkpt lat="47.66658" lon="6.07719">
        <ele>254.12</ele>
        <time>2019-05-22T08:13:13Z</time>
      </trkpt>
      <trkpt lat="47.66651" lon="6.07713">
        <ele>254.07</ele>
        <time>2019-05-22T08:13:15Z</time>
      </trkpt>
      <trkpt lat="47.66644" lon="6.07708">
        <ele>254.02</ele>
        <time>2019-05-22T08:13:17Z</time>
      </trkpt>
      <trkpt lat="47.66636" lon="6.07702">
        <ele>253.98</ele>
        <time>2019-05-22T08:13:19Z</time>
      </trkpt>
      <trkpt lat="47.66629" lon="6.07695">
        <ele>253.92</ele>
        <time>2019-05-22T08:13:21Z</time>
      </trkpt>
      <trkpt lat="47.66622" lon="6.07689">
        <ele>253.87</ele>
        <time>2019-05-22T08:13:23Z</time>
      </trkpt>
      <trkpt lat="47.66615" lon="6.07682">
        <ele>253.81</ele>
        <time>2019-05-22T08:13:25Z</time>
      </trkpt>
      <trkpt lat="47.66609" lon="6.07674">
        <ele>253.76</ele>
        <time>2019-05-22T08:13:27Z</time>
      </trkpt>
      <trkpt lat="47.66602" lon="6.07666">
        <ele>253.73</ele>
        <time>2019-05-22T08:13:29Z</time>
      </trkpt>
      <trkpt lat="47.66599" lon="6.07662">
        <ele>253.69</ele>
        <time>2019-05-22T08:13:30Z</time>
      </trkpt>
      <trkpt lat="47.66595" lon="6.07657">
        <ele>253.64</ele>
        <time>2019-05-22T08:13:31Z</time>
      </trkpt>
      <trkpt lat="47.66589" lon="6.07648">
        <ele>253.52</ele>
        <time>2019-05-22T08:13:33Z</time>
      </trkpt>
      <trkpt lat="47.66583" lon="6.07639">
        <ele>253.39</ele>
        <time>2019-05-22T08:13:35Z</time>
      </trkpt>
      <trkpt lat="47.66577" lon="6.07631">
        <ele>253.27</ele>
        <time>2019-05-22T08:13:37Z</time>
      </trkpt>
      <trkpt lat="47.66571" lon="6.07623">
        <ele>253.18</ele>
        <time>2019-05-22T08:13:39Z</time>
      </trkpt>
      <trkpt lat="47.66566" lon="6.07615">
        <ele>253.1</ele>
        <time>2019-05-22T08:13:41Z</time>
      </trkpt>
      <trkpt lat="47.6656" lon="6.07607">
        <ele>253.07</ele>
        <time>2019-05-22T08:13:43Z</time>
      </trkpt>
      <trkpt lat="47.66555" lon="6.076">
        <ele>253.07</ele>
        <time>2019-05-22T08:13:45Z</time>
      </trkpt>
      <trkpt lat="47.6655" lon="6.07593">
        <ele>253.06</ele>
        <time>2019-05-22T08:13:47Z</time>
      </trkpt>
      <trkpt lat="47.66546" lon="6.07587">
        <ele>253.05</ele>
        <time>2019-05-22T08:13:49Z</time>
      </trkpt>
      <trkpt lat="47.66541" lon="6.0758">
        <ele>253.04</ele>
        <time>2019-05-22T08:13:51Z</time>
      </trkpt>
      <trkpt lat="47.66537" lon="6.07574">
        <ele>253.03</ele>
        <time>2019-05-22T08:13:54Z</time>
      </trkpt>
      <trkpt lat="47.66534" lon="6.0757">
        <ele>253.02</ele>
        <time>2019-05-22T08:13:56Z</time>
      </trkpt>
      <trkpt lat="47.66528" lon="6.07564">
        <ele>253</ele>
        <time>2019-05-22T08:13:59Z</time>
      </trkpt>
      <trkpt lat="47.66524" lon="6.07559">
        <ele>253</ele>
        <time>2019-05-22T08:14:01Z</time>
      </trkpt>
      <trkpt lat="47.66519" lon="6.07554">
        <ele>252.98</ele>
        <time>2019-05-22T08:14:04Z</time>
      </trkpt>
      <trkpt lat="47.66513" lon="6.07549">
        <ele>252.97</ele>
        <time>2019-05-22T08:14:07Z</time>
      </trkpt>
      <trkpt lat="47.66509" lon="6.07545">
        <ele>252.97</ele>
        <time>2019-05-22T08:14:09Z</time>
      </trkpt>
      <trkpt lat="47.66503" lon="6.07541">
        <ele>252.96</ele>
        <time>2019-05-22T08:14:12Z</time>
      </trkpt>
      <trkpt lat="47.66498" lon="6.07537">
        <ele>252.96</ele>
        <time>2019-05-22T08:14:14Z</time>
      </trkpt>
      <trkpt lat="47.66494" lon="6.07535">
        <ele>252.96</ele>
        <time>2019-05-22T08:14:16Z</time>
      </trkpt>
      <trkpt lat="47.6649" lon="6.07531">
        <ele>252.96</ele>
        <time>2019-05-22T08:14:18Z</time>
      </trkpt>
      <trkpt lat="47.66486" lon="6.07528">
        <ele>252.96</ele>
        <time>2019-05-22T08:14:20Z</time>
      </trkpt>
      <trkpt lat="47.6648" lon="6.07525">
        <ele>252.96</ele>
        <time>2019-05-22T08:14:23Z</time>
      </trkpt>
      <trkpt lat="47.66475" lon="6.07521">
        <ele>252.96</ele>
        <time>2019-05-22T08:14:26Z</time>
      </trkpt>
      <trkpt lat="47.66471" lon="6.07517">
        <ele>252.97</ele>
        <time>2019-05-22T08:14:29Z</time>
      </trkpt>
      <trkpt lat="47.66467" lon="6.07512">
        <ele>252.98</ele>
        <time>2019-05-22T08:14:32Z</time>
      </trkpt>
      <trkpt lat="47.66463" lon="6.07507">
        <ele>253</ele>
        <time>2019-05-22T08:14:35Z</time>
      </trkpt>
      <trkpt lat="47.6646" lon="6.07502">
        <ele>253.02</ele>
        <time>2019-05-22T08:14:39Z</time>
      </trkpt>
      <trkpt lat="47.66456" lon="6.07497">
        <ele>253.05</ele>
        <time>2019-05-22T08:14:43Z</time>
      </trkpt>
      <trkpt lat="47.66453" lon="6.07491">
        <ele>253.09</ele>
        <time>2019-05-22T08:14:48Z</time>
      </trkpt>
      <trkpt lat="47.66451" lon="6.07485">
        <ele>253.12</ele>
        <time>2019-05-22T08:14:52Z</time>
      </trkpt>
      <trkpt lat="47.66448" lon="6.07478">
        <ele>253.16</ele>
        <time>2019-05-22T08:14:57Z</time>
      </trkpt>
      <trkpt lat="47.66446" lon="6.07471">
        <ele>253.2</ele>
        <time>2019-05-22T08:15:03Z</time>
      </trkpt>
      <trkpt lat="47.66443" lon="6.07465">
        <ele>253.22</ele>
        <time>2019-05-22T08:15:09Z</time>
      </trkpt>
      <trkpt lat="47.6644" lon="6.0746">
        <ele>253.22</ele>
        <time>2019-05-22T08:15:14Z</time>
      </trkpt>
      <trkpt lat="47.66437" lon="6.07454">
        <ele>253.2</ele>
        <time>2019-05-22T08:15:19Z</time>
      </trkpt>
      <trkpt lat="47.66433" lon="6.0745">
        <ele>253.18</ele>
        <time>2019-05-22T08:15:25Z</time>
      </trkpt>
      <trkpt lat="47.66428" lon="6.07448">
        <ele>253.17</ele>
        <time>2019-05-22T08:15:31Z</time>
      </trkpt>
      <trkpt lat="47.66423" lon="6.07447">
        <ele>253.17</ele>
        <time>2019-05-22T08:15:36Z</time>
      </trkpt>
      <trkpt lat="47.66418" lon="6.07447">
        <ele>253.19</ele>
        <time>2019-05-22T08:15:41Z</time>
      </trkpt>
      <trkpt lat="47.66412" lon="6.07446">
        <ele>253.23</ele>
        <time>2019-05-22T08:15:46Z</time>
      </trkpt>
      <trkpt lat="47.66407" lon="6.07445">
        <ele>253.28</ele>
        <time>2019-05-22T08:15:50Z</time>
      </trkpt>
      <trkpt lat="47.66403" lon="6.07444">
        <ele>253.35</ele>
        <time>2019-05-22T08:15:54Z</time>
      </trkpt>
      <trkpt lat="47.66398" lon="6.07445">
        <ele>253.43</ele>
        <time>2019-05-22T08:15:59Z</time>
      </trkpt>
      <trkpt lat="47.66393" lon="6.07445">
        <ele>253.52</ele>
        <time>2019-05-22T08:16:04Z</time>
      </trkpt>
      <trkpt lat="47.66388" lon="6.07445">
        <ele>253.6</ele>
        <time>2019-05-22T08:16:08Z</time>
      </trkpt>
      <trkpt lat="47.66382" lon="6.07445">
        <ele>253.69</ele>
        <time>2019-05-22T08:16:12Z</time>
      </trkpt>
      <trkpt lat="47.66378" lon="6.07445">
        <ele>253.76</ele>
        <time>2019-05-22T08:16:15Z</time>
      </trkpt>
      <trkpt lat="47.66372" lon="6.07446">
        <ele>253.86</ele>
        <time>2019-05-22T08:16:19Z</time>
      </trkpt>
      <trkpt lat="47.66366" lon="6.07446">
        <ele>253.96</ele>
        <time>2019-05-22T08:16:23Z</time>
      </trkpt>
      <trkpt lat="47.6636" lon="6.07447">
        <ele>254.07</ele>
        <time>2019-05-22T08:16:27Z</time>
      </trkpt>
      <trkpt lat="47.66354" lon="6.07449">
        <ele>254.19</ele>
        <time>2019-05-22T08:16:31Z</time>
      </trkpt>
      <trkpt lat="47.66349" lon="6.0745">
        <ele>254.27</ele>
        <time>2019-05-22T08:16:34Z</time>
      </trkpt>
      <trkpt lat="47.66344" lon="6.07451">
        <ele>254.36</ele>
        <time>2019-05-22T08:16:37Z</time>
      </trkpt>
      <trkpt lat="47.6634" lon="6.07452">
        <ele>254.45</ele>
        <time>2019-05-22T08:16:40Z</time>
      </trkpt>
      <trkpt lat="47.66335" lon="6.07453">
        <ele>254.54</ele>
        <time>2019-05-22T08:16:43Z</time>
      </trkpt>
      <trkpt lat="47.66329" lon="6.07454">
        <ele>254.65</ele>
        <time>2019-05-22T08:16:47Z</time>
      </trkpt>
      <trkpt lat="47.66325" lon="6.07455">
        <ele>254.74</ele>
        <time>2019-05-22T08:16:50Z</time>
      </trkpt>
      <trkpt lat="47.6632" lon="6.07456">
        <ele>254.87</ele>
        <time>2019-05-22T08:16:54Z</time>
      </trkpt>
      <trkpt lat="47.66315" lon="6.07457">
        <ele>254.99</ele>
        <time>2019-05-22T08:16:58Z</time>
      </trkpt>
      <trkpt lat="47.6631" lon="6.07457">
        <ele>255.11</ele>
        <time>2019-05-22T08:17:02Z</time>
      </trkpt>
      <trkpt lat="47.66304" lon="6.07458">
        <ele>255.23</ele>
        <time>2019-05-22T08:17:06Z</time>
      </trkpt>
      <trkpt lat="47.66299" lon="6.07459">
        <ele>255.32</ele>
        <time>2019-05-22T08:17:09Z</time>
      </trkpt>
      <trkpt lat="47.66294" lon="6.07459">
        <ele>255.41</ele>
        <time>2019-05-22T08:17:12Z</time>
      </trkpt>
      <trkpt lat="47.66288" lon="6.07459">
        <ele>255.5</ele>
        <time>2019-05-22T08:17:15Z</time>
      </trkpt>
      <trkpt lat="47.66281" lon="6.0746">
        <ele>255.59</ele>
        <time>2019-05-22T08:17:18Z</time>
      </trkpt>
      <trkpt lat="47.66275" lon="6.0746">
        <ele>255.68</ele>
        <time>2019-05-22T08:17:21Z</time>
      </trkpt>
      <trkpt lat="47.6627" lon="6.0746">
        <ele>255.74</ele>
        <time>2019-05-22T08:17:23Z</time>
      </trkpt>
      <trkpt lat="47.66265" lon="6.0746">
        <ele>255.8</ele>
        <time>2019-05-22T08:17:25Z</time>
      </trkpt>
      <trkpt lat="47.6626" lon="6.07459">
        <ele>255.86</ele>
        <time>2019-05-22T08:17:27Z</time>
      </trkpt>
      <trkpt lat="47.66254" lon="6.07458">
        <ele>255.92</ele>
        <time>2019-05-22T08:17:29Z</time>
      </trkpt>
      <trkpt lat="47.66248" lon="6.07457">
        <ele>255.98</ele>
        <time>2019-05-22T08:17:31Z</time>
      </trkpt>
      <trkpt lat="47.66242" lon="6.07456">
        <ele>256.04</ele>
        <time>2019-05-22T08:17:33Z</time>
      </trkpt>
      <trkpt lat="47.66235" lon="6.07454">
        <ele>256.33</ele>
        <time>2019-05-22T08:17:35Z</time>
      </trkpt>
      <trkpt lat="47.66229" lon="6.07452">
        <ele>256.71</ele>
        <time>2019-05-22T08:17:37Z</time>
      </trkpt>
      <trkpt lat="47.66221" lon="6.07449">
        <ele>257</ele>
        <time>2019-05-22T08:17:39Z</time>
      </trkpt>
      <trkpt lat="47.66214" lon="6.07447">
        <ele>257.2</ele>
        <time>2019-05-22T08:17:41Z</time>
      </trkpt>
      <trkpt lat="47.66206" lon="6.07444">
        <ele>257.33</ele>
        <time>2019-05-22T08:17:43Z</time>
      </trkpt>
      <trkpt lat="47.66198" lon="6.0744">
        <ele>257.38</ele>
        <time>2019-05-22T08:17:44Z</time>
      </trkpt>
      <trkpt lat="47.66191" lon="6.07437">
        <ele>257.44</ele>
        <time>2019-05-22T08:17:46Z</time>
      </trkpt>
      <trkpt lat="47.66186" lon="6.07434">
        <ele>257.45</ele>
        <time>2019-05-22T08:17:48Z</time>
      </trkpt>
      <trkpt lat="47.66182" lon="6.0743">
        <ele>257.46</ele>
        <time>2019-05-22T08:17:51Z</time>
      </trkpt>
      <trkpt lat="47.66179" lon="6.07425">
        <ele>257.52</ele>
        <time>2019-05-22T08:18:01Z</time>
      </trkpt>
      <trkpt lat="47.66182" lon="6.07422">
        <ele>257.78</ele>
        <time>2019-05-22T08:19:17Z</time>
      </trkpt>
      <trkpt lat="47.66179" lon="6.07427">
        <ele>258.28</ele>
        <time>2019-05-22T08:21:10Z</time>
      </trkpt>
      <trkpt lat="47.66175" lon="6.0743">
        <ele>258.34</ele>
        <time>2019-05-22T08:21:17Z</time>
      </trkpt>
      <trkpt lat="47.66169" lon="6.07429">
        <ele>258.37</ele>
        <time>2019-05-22T08:21:20Z</time>
      </trkpt>
      <trkpt lat="47.66164" lon="6.07427">
        <ele>258.39</ele>
        <time>2019-05-22T08:21:22Z</time>
      </trkpt>
      <trkpt lat="47.66159" lon="6.07426">
        <ele>258.41</ele>
        <time>2019-05-22T08:21:24Z</time>
      </trkpt>
      <trkpt lat="47.66153" lon="6.07424">
        <ele>258.43</ele>
        <time>2019-05-22T08:21:26Z</time>
      </trkpt>
      <trkpt lat="47.66148" lon="6.07424">
        <ele>258.45</ele>
        <time>2019-05-22T08:21:28Z</time>
      </trkpt>
      <trkpt lat="47.66142" lon="6.07424">
        <ele>258.47</ele>
        <time>2019-05-22T08:21:30Z</time>
      </trkpt>
      <trkpt lat="47.66137" lon="6.07423">
        <ele>258.49</ele>
        <time>2019-05-22T08:21:32Z</time>
      </trkpt>
      <trkpt lat="47.66132" lon="6.07422">
        <ele>258.51</ele>
        <time>2019-05-22T08:21:34Z</time>
      </trkpt>
      <trkpt lat="47.66125" lon="6.07422">
        <ele>258.53</ele>
        <time>2019-05-22T08:21:37Z</time>
      </trkpt>
      <trkpt lat="47.66119" lon="6.07422">
        <ele>258.56</ele>
        <time>2019-05-22T08:21:40Z</time>
      </trkpt>
      <trkpt lat="47.66114" lon="6.07422">
        <ele>258.58</ele>
        <time>2019-05-22T08:21:42Z</time>
      </trkpt>
      <trkpt lat="47.66109" lon="6.07423">
        <ele>258.59</ele>
        <time>2019-05-22T08:21:44Z</time>
      </trkpt>
      <trkpt lat="47.66104" lon="6.07423">
        <ele>258.61</ele>
        <time>2019-05-22T08:21:46Z</time>
      </trkpt>
      <trkpt lat="47.66098" lon="6.07424">
        <ele>258.63</ele>
        <time>2019-05-22T08:21:48Z</time>
      </trkpt>
      <trkpt lat="47.66093" lon="6.07424">
        <ele>258.64</ele>
        <time>2019-05-22T08:21:50Z</time>
      </trkpt>
      <trkpt lat="47.66087" lon="6.07424">
        <ele>258.66</ele>
        <time>2019-05-22T08:21:52Z</time>
      </trkpt>
      <trkpt lat="47.66082" lon="6.07424">
        <ele>258.67</ele>
        <time>2019-05-22T08:21:54Z</time>
      </trkpt>
      <trkpt lat="47.66077" lon="6.07424">
        <ele>258.69</ele>
        <time>2019-05-22T08:21:56Z</time>
      </trkpt>
      <trkpt lat="47.66072" lon="6.07424">
        <ele>258.7</ele>
        <time>2019-05-22T08:21:58Z</time>
      </trkpt>
      <trkpt lat="47.66067" lon="6.07424">
        <ele>258.72</ele>
        <time>2019-05-22T08:22:00Z</time>
      </trkpt>
      <trkpt lat="47.66062" lon="6.07424">
        <ele>258.73</ele>
        <time>2019-05-22T08:22:02Z</time>
      </trkpt>
      <trkpt lat="47.66057" lon="6.07423">
        <ele>258.74</ele>
        <time>2019-05-22T08:22:04Z</time>
      </trkpt>
      <trkpt lat="47.66052" lon="6.07422">
        <ele>258.75</ele>
        <time>2019-05-22T08:22:06Z</time>
      </trkpt>
      <trkpt lat="47.66047" lon="6.07421">
        <ele>258.76</ele>
        <time>2019-05-22T08:22:08Z</time>
      </trkpt>
      <trkpt lat="47.66042" lon="6.0742">
        <ele>258.77</ele>
        <time>2019-05-22T08:22:10Z</time>
      </trkpt>
      <trkpt lat="47.66036" lon="6.07418">
        <ele>258.79</ele>
        <time>2019-05-22T08:22:13Z</time>
      </trkpt>
      <trkpt lat="47.66031" lon="6.07417">
        <ele>258.8</ele>
        <time>2019-05-22T08:22:15Z</time>
      </trkpt>
      <trkpt lat="47.66025" lon="6.07415">
        <ele>258.82</ele>
        <time>2019-05-22T08:22:18Z</time>
      </trkpt>
      <trkpt lat="47.66019" lon="6.07413">
        <ele>258.83</ele>
        <time>2019-05-22T08:22:21Z</time>
      </trkpt>
      <trkpt lat="47.66013" lon="6.07412">
        <ele>258.85</ele>
        <time>2019-05-22T08:22:24Z</time>
      </trkpt>
      <trkpt lat="47.66008" lon="6.0741">
        <ele>258.87</ele>
        <time>2019-05-22T08:22:27Z</time>
      </trkpt>
      <trkpt lat="47.66003" lon="6.0741">
        <ele>258.89</ele>
        <time>2019-05-22T08:22:30Z</time>
      </trkpt>
      <trkpt lat="47.65997" lon="6.0741">
        <ele>258.91</ele>
        <time>2019-05-22T08:22:33Z</time>
      </trkpt>
      <trkpt lat="47.65992" lon="6.0741">
        <ele>258.94</ele>
        <time>2019-05-22T08:22:36Z</time>
      </trkpt>
      <trkpt lat="47.65986" lon="6.07411">
        <ele>258.96</ele>
        <time>2019-05-22T08:22:39Z</time>
      </trkpt>
      <trkpt lat="47.6598" lon="6.07411">
        <ele>258.99</ele>
        <time>2019-05-22T08:22:42Z</time>
      </trkpt>
      <trkpt lat="47.65974" lon="6.07413">
        <ele>259.02</ele>
        <time>2019-05-22T08:22:45Z</time>
      </trkpt>
      <trkpt lat="47.65968" lon="6.07415">
        <ele>259.05</ele>
        <time>2019-05-22T08:22:48Z</time>
      </trkpt>
      <trkpt lat="47.65963" lon="6.07416">
        <ele>259.08</ele>
        <time>2019-05-22T08:22:51Z</time>
      </trkpt>
      <trkpt lat="47.65957" lon="6.07416">
        <ele>259.11</ele>
        <time>2019-05-22T08:22:54Z</time>
      </trkpt>
      <trkpt lat="47.65951" lon="6.07416">
        <ele>259.15</ele>
        <time>2019-05-22T08:22:57Z</time>
      </trkpt>
      <trkpt lat="47.65945" lon="6.07417">
        <ele>259.19</ele>
        <time>2019-05-22T08:23:00Z</time>
      </trkpt>
      <trkpt lat="47.65939" lon="6.07417">
        <ele>259.21</ele>
        <time>2019-05-22T08:23:02Z</time>
      </trkpt>
      <trkpt lat="47.65933" lon="6.07418">
        <ele>259.24</ele>
        <time>2019-05-22T08:23:04Z</time>
      </trkpt>
      <trkpt lat="47.65928" lon="6.07418">
        <ele>259.27</ele>
        <time>2019-05-22T08:23:06Z</time>
      </trkpt>
      <trkpt lat="47.65922" lon="6.07418">
        <ele>259.3</ele>
        <time>2019-05-22T08:23:08Z</time>
      </trkpt>
      <trkpt lat="47.65917" lon="6.07417">
        <ele>259.32</ele>
        <time>2019-05-22T08:23:10Z</time>
      </trkpt>
      <trkpt lat="47.65912" lon="6.07417">
        <ele>259.35</ele>
        <time>2019-05-22T08:23:12Z</time>
      </trkpt>
      <trkpt lat="47.65906" lon="6.07417">
        <ele>259.38</ele>
        <time>2019-05-22T08:23:14Z</time>
      </trkpt>
      <trkpt lat="47.65901" lon="6.07417">
        <ele>259.41</ele>
        <time>2019-05-22T08:23:16Z</time>
      </trkpt>
      <trkpt lat="47.65895" lon="6.07417">
        <ele>259.45</ele>
        <time>2019-05-22T08:23:18Z</time>
      </trkpt>
      <trkpt lat="47.65889" lon="6.07417">
        <ele>259.48</ele>
        <time>2019-05-22T08:23:20Z</time>
      </trkpt>
      <trkpt lat="47.65882" lon="6.07415">
        <ele>259.51</ele>
        <time>2019-05-22T08:23:22Z</time>
      </trkpt>
      <trkpt lat="47.65875" lon="6.07413">
        <ele>259.64</ele>
        <time>2019-05-22T08:23:23Z</time>
      </trkpt>
      <trkpt lat="47.65868" lon="6.07409">
        <ele>259.89</ele>
        <time>2019-05-22T08:23:25Z</time>
      </trkpt>
      <trkpt lat="47.6586" lon="6.07406">
        <ele>260.07</ele>
        <time>2019-05-22T08:23:27Z</time>
      </trkpt>
      <trkpt lat="47.65851" lon="6.07406">
        <ele>260.19</ele>
        <time>2019-05-22T08:23:29Z</time>
      </trkpt>
      <trkpt lat="47.65843" lon="6.07405">
        <ele>260.27</ele>
        <time>2019-05-22T08:23:31Z</time>
      </trkpt>
      <trkpt lat="47.65834" lon="6.07405">
        <ele>260.32</ele>
        <time>2019-05-22T08:23:33Z</time>
      </trkpt>
      <trkpt lat="47.65826" lon="6.07405">
        <ele>260.36</ele>
        <time>2019-05-22T08:23:35Z</time>
      </trkpt>
      <trkpt lat="47.65817" lon="6.07405">
        <ele>260.38</ele>
        <time>2019-05-22T08:23:37Z</time>
      </trkpt>
      <trkpt lat="47.65812" lon="6.07405">
        <ele>260.39</ele>
        <time>2019-05-22T08:23:38Z</time>
      </trkpt>
      <trkpt lat="47.65804" lon="6.07405">
        <ele>260.4</ele>
        <time>2019-05-22T08:23:40Z</time>
      </trkpt>
      <trkpt lat="47.65799" lon="6.07404">
        <ele>260.4</ele>
        <time>2019-05-22T08:23:41Z</time>
      </trkpt>
      <trkpt lat="47.65794" lon="6.07404">
        <ele>260.4</ele>
        <time>2019-05-22T08:23:42Z</time>
      </trkpt>
      <trkpt lat="47.65789" lon="6.07404">
        <ele>260.4</ele>
        <time>2019-05-22T08:23:43Z</time>
      </trkpt>
      <trkpt lat="47.65784" lon="6.07404">
        <ele>260.4</ele>
        <time>2019-05-22T08:23:44Z</time>
      </trkpt>
      <trkpt lat="47.65779" lon="6.07403">
        <ele>260.39</ele>
        <time>2019-05-22T08:23:45Z</time>
      </trkpt>
      <trkpt lat="47.65774" lon="6.07403">
        <ele>260.38</ele>
        <time>2019-05-22T08:23:46Z</time>
      </trkpt>
      <trkpt lat="47.65768" lon="6.07403">
        <ele>260.37</ele>
        <time>2019-05-22T08:23:47Z</time>
      </trkpt>
      <trkpt lat="47.65763" lon="6.07403">
        <ele>260.36</ele>
        <time>2019-05-22T08:23:48Z</time>
      </trkpt>
      <trkpt lat="47.65758" lon="6.07403">
        <ele>260.35</ele>
        <time>2019-05-22T08:23:49Z</time>
      </trkpt>
      <trkpt lat="47.65752" lon="6.07403">
        <ele>260.33</ele>
        <time>2019-05-22T08:23:50Z</time>
      </trkpt>
      <trkpt lat="47.65747" lon="6.07403">
        <ele>260.32</ele>
        <time>2019-05-22T08:23:51Z</time>
      </trkpt>
      <trkpt lat="47.65742" lon="6.07402">
        <ele>260.31</ele>
        <time>2019-05-22T08:23:52Z</time>
      </trkpt>
      <trkpt lat="47.65737" lon="6.07403">
        <ele>260.29</ele>
        <time>2019-05-22T08:23:53Z</time>
      </trkpt>
      <trkpt lat="47.65732" lon="6.07403">
        <ele>260.28</ele>
        <time>2019-05-22T08:23:54Z</time>
      </trkpt>
      <trkpt lat="47.65726" lon="6.07403">
        <ele>260.26</ele>
        <time>2019-05-22T08:23:55Z</time>
      </trkpt>
      <trkpt lat="47.65721" lon="6.07403">
        <ele>260.25</ele>
        <time>2019-05-22T08:23:56Z</time>
      </trkpt>
      <trkpt lat="47.65716" lon="6.07403">
        <ele>260.24</ele>
        <time>2019-05-22T08:23:57Z</time>
      </trkpt>
      <trkpt lat="47.65711" lon="6.07403">
        <ele>260.22</ele>
        <time>2019-05-22T08:23:58Z</time>
      </trkpt>
      <trkpt lat="47.65706" lon="6.07403">
        <ele>260.21</ele>
        <time>2019-05-22T08:23:59Z</time>
      </trkpt>
      <trkpt lat="47.65701" lon="6.07403">
        <ele>260.19</ele>
        <time>2019-05-22T08:24:00Z</time>
      </trkpt>
      <trkpt lat="47.65695" lon="6.07403">
        <ele>260.18</ele>
        <time>2019-05-22T08:24:01Z</time>
      </trkpt>
      <trkpt lat="47.65691" lon="6.07403">
        <ele>260.16</ele>
        <time>2019-05-22T08:24:02Z</time>
      </trkpt>
      <trkpt lat="47.65686" lon="6.07402">
        <ele>260.14</ele>
        <time>2019-05-22T08:24:03Z</time>
      </trkpt>
      <trkpt lat="47.65681" lon="6.07402">
        <ele>260.13</ele>
        <time>2019-05-22T08:24:04Z</time>
      </trkpt>
      <trkpt lat="47.65676" lon="6.07402">
        <ele>260.11</ele>
        <time>2019-05-22T08:24:05Z</time>
      </trkpt>
      <trkpt lat="47.65671" lon="6.07402">
        <ele>260.09</ele>
        <time>2019-05-22T08:24:06Z</time>
      </trkpt>
      <trkpt lat="47.65666" lon="6.07402">
        <ele>260.07</ele>
        <time>2019-05-22T08:24:07Z</time>
      </trkpt>
      <trkpt lat="47.65658" lon="6.07402">
        <ele>260.04</ele>
        <time>2019-05-22T08:24:09Z</time>
      </trkpt>
      <trkpt lat="47.6565" lon="6.07401">
        <ele>260.02</ele>
        <time>2019-05-22T08:24:11Z</time>
      </trkpt>
      <trkpt lat="47.65645" lon="6.07401">
        <ele>260.02</ele>
        <time>2019-05-22T08:24:13Z</time>
      </trkpt>
      <trkpt lat="47.65638" lon="6.07401">
        <ele>260.01</ele>
        <time>2019-05-22T08:24:16Z</time>
      </trkpt>
      <trkpt lat="47.65632" lon="6.074">
        <ele>260.01</ele>
        <time>2019-05-22T08:24:18Z</time>
      </trkpt>
      <trkpt lat="47.65625" lon="6.074">
        <ele>260.01</ele>
        <time>2019-05-22T08:24:20Z</time>
      </trkpt>
      <trkpt lat="47.6562" lon="6.07401">
        <ele>260.01</ele>
        <time>2019-05-22T08:24:22Z</time>
      </trkpt>
      <trkpt lat="47.65614" lon="6.07401">
        <ele>260.01</ele>
        <time>2019-05-22T08:24:24Z</time>
      </trkpt>
      <trkpt lat="47.65609" lon="6.07401">
        <ele>260.01</ele>
        <time>2019-05-22T08:24:26Z</time>
      </trkpt>
      <trkpt lat="47.65604" lon="6.074">
        <ele>260.02</ele>
        <time>2019-05-22T08:24:28Z</time>
      </trkpt>
      <trkpt lat="47.65599" lon="6.074">
        <ele>260.02</ele>
        <time>2019-05-22T08:24:30Z</time>
      </trkpt>
      <trkpt lat="47.65595" lon="6.074">
        <ele>260.02</ele>
        <time>2019-05-22T08:24:32Z</time>
      </trkpt>
      <trkpt lat="47.65588" lon="6.07399">
        <ele>260.03</ele>
        <time>2019-05-22T08:24:35Z</time>
      </trkpt>
      <trkpt lat="47.65582" lon="6.07398">
        <ele>260.04</ele>
        <time>2019-05-22T08:24:38Z</time>
      </trkpt>
      <trkpt lat="47.65577" lon="6.07398">
        <ele>260.05</ele>
        <time>2019-05-22T08:24:40Z</time>
      </trkpt>
      <trkpt lat="47.65571" lon="6.07397">
        <ele>260.07</ele>
        <time>2019-05-22T08:24:43Z</time>
      </trkpt>
      <trkpt lat="47.65566" lon="6.07396">
        <ele>260.08</ele>
        <time>2019-05-22T08:24:45Z</time>
      </trkpt>
      <trkpt lat="47.6556" lon="6.07395">
        <ele>260.1</ele>
        <time>2019-05-22T08:24:48Z</time>
      </trkpt>
      <trkpt lat="47.65554" lon="6.07394">
        <ele>260.12</ele>
        <time>2019-05-22T08:24:51Z</time>
      </trkpt>
      <trkpt lat="47.65548" lon="6.07394">
        <ele>260.14</ele>
        <time>2019-05-22T08:24:54Z</time>
      </trkpt>
      <trkpt lat="47.65542" lon="6.07394">
        <ele>260.16</ele>
        <time>2019-05-22T08:24:57Z</time>
      </trkpt>
      <trkpt lat="47.65536" lon="6.07392">
        <ele>260.17</ele>
        <time>2019-05-22T08:25:00Z</time>
      </trkpt>
      <trkpt lat="47.6553" lon="6.07391">
        <ele>260.19</ele>
        <time>2019-05-22T08:25:03Z</time>
      </trkpt>
      <trkpt lat="47.65525" lon="6.07389">
        <ele>260.2</ele>
        <time>2019-05-22T08:25:06Z</time>
      </trkpt>
      <trkpt lat="47.65519" lon="6.07387">
        <ele>260.21</ele>
        <time>2019-05-22T08:25:09Z</time>
      </trkpt>
      <trkpt lat="47.65513" lon="6.07386">
        <ele>260.23</ele>
        <time>2019-05-22T08:25:12Z</time>
      </trkpt>
      <trkpt lat="47.65507" lon="6.07384">
        <ele>260.24</ele>
        <time>2019-05-22T08:25:15Z</time>
      </trkpt>
      <trkpt lat="47.65501" lon="6.07383">
        <ele>260.26</ele>
        <time>2019-05-22T08:25:18Z</time>
      </trkpt>
      <trkpt lat="47.65494" lon="6.07381">
        <ele>260.27</ele>
        <time>2019-05-22T08:25:21Z</time>
      </trkpt>
      <trkpt lat="47.65489" lon="6.07381">
        <ele>260.28</ele>
        <time>2019-05-22T08:25:23Z</time>
      </trkpt>
      <trkpt lat="47.65484" lon="6.0738">
        <ele>260.29</ele>
        <time>2019-05-22T08:25:25Z</time>
      </trkpt>
      <trkpt lat="47.65479" lon="6.0738">
        <ele>260.3</ele>
        <time>2019-05-22T08:25:27Z</time>
      </trkpt>
      <trkpt lat="47.65474" lon="6.07379">
        <ele>260.32</ele>
        <time>2019-05-22T08:25:29Z</time>
      </trkpt>
      <trkpt lat="47.65467" lon="6.07378">
        <ele>260.33</ele>
        <time>2019-05-22T08:25:31Z</time>
      </trkpt>
      <trkpt lat="47.6546" lon="6.07377">
        <ele>260.35</ele>
        <time>2019-05-22T08:25:33Z</time>
      </trkpt>
      <trkpt lat="47.65453" lon="6.07375">
        <ele>260.42</ele>
        <time>2019-05-22T08:25:35Z</time>
      </trkpt>
      <trkpt lat="47.65446" lon="6.07374">
        <ele>260.55</ele>
        <time>2019-05-22T08:25:37Z</time>
      </trkpt>
      <trkpt lat="47.65437" lon="6.07372">
        <ele>260.65</ele>
        <time>2019-05-22T08:25:39Z</time>
      </trkpt>
      <trkpt lat="47.65432" lon="6.07372">
        <ele>260.68</ele>
        <time>2019-05-22T08:25:40Z</time>
      </trkpt>
      <trkpt lat="47.65428" lon="6.07371">
        <ele>260.71</ele>
        <time>2019-05-22T08:25:41Z</time>
      </trkpt>
      <trkpt lat="47.65418" lon="6.07367">
        <ele>260.73</ele>
        <time>2019-05-22T08:25:42Z</time>
      </trkpt>
      <trkpt lat="47.65414" lon="6.07364">
        <ele>260.74</ele>
        <time>2019-05-22T08:25:43Z</time>
      </trkpt>
      <trkpt lat="47.6541" lon="6.07361">
        <ele>260.75</ele>
        <time>2019-05-22T08:25:44Z</time>
      </trkpt>
      <trkpt lat="47.65403" lon="6.07352">
        <ele>260.77</ele>
        <time>2019-05-22T08:25:46Z</time>
      </trkpt>
      <trkpt lat="47.654" lon="6.07345">
        <ele>260.78</ele>
        <time>2019-05-22T08:25:47Z</time>
      </trkpt>
      <trkpt lat="47.65397" lon="6.07337">
        <ele>260.78</ele>
        <time>2019-05-22T08:25:48Z</time>
      </trkpt>
      <trkpt lat="47.65395" lon="6.07328">
        <ele>260.78</ele>
        <time>2019-05-22T08:25:49Z</time>
      </trkpt>
      <trkpt lat="47.65392" lon="6.0732">
        <ele>260.77</ele>
        <time>2019-05-22T08:25:50Z</time>
      </trkpt>
      <trkpt lat="47.6539" lon="6.07312">
        <ele>260.76</ele>
        <time>2019-05-22T08:25:51Z</time>
      </trkpt>
      <trkpt lat="47.65388" lon="6.07304">
        <ele>260.75</ele>
        <time>2019-05-22T08:25:52Z</time>
      </trkpt>
      <trkpt lat="47.65385" lon="6.07297">
        <ele>260.74</ele>
        <time>2019-05-22T08:25:53Z</time>
      </trkpt>
      <trkpt lat="47.65383" lon="6.07288">
        <ele>260.73</ele>
        <time>2019-05-22T08:25:54Z</time>
      </trkpt>
      <trkpt lat="47.6538" lon="6.0728">
        <ele>260.72</ele>
        <time>2019-05-22T08:25:55Z</time>
      </trkpt>
      <trkpt lat="47.65377" lon="6.07272">
        <ele>260.71</ele>
        <time>2019-05-22T08:25:56Z</time>
      </trkpt>
      <trkpt lat="47.65375" lon="6.07265">
        <ele>260.69</ele>
        <time>2019-05-22T08:25:57Z</time>
      </trkpt>
      <trkpt lat="47.65373" lon="6.07258">
        <ele>260.67</ele>
        <time>2019-05-22T08:25:58Z</time>
      </trkpt>
      <trkpt lat="47.65371" lon="6.07252">
        <ele>260.64</ele>
        <time>2019-05-22T08:25:59Z</time>
      </trkpt>
      <trkpt lat="47.65369" lon="6.07245">
        <ele>260.61</ele>
        <time>2019-05-22T08:26:00Z</time>
      </trkpt>
      <trkpt lat="47.65366" lon="6.07234">
        <ele>260.54</ele>
        <time>2019-05-22T08:26:02Z</time>
      </trkpt>
      <trkpt lat="47.65363" lon="6.07223">
        <ele>260.45</ele>
        <time>2019-05-22T08:26:04Z</time>
      </trkpt>
      <trkpt lat="47.65357" lon="6.07214">
        <ele>260.36</ele>
        <time>2019-05-22T08:26:06Z</time>
      </trkpt>
      <trkpt lat="47.65349" lon="6.07209">
        <ele>260.3</ele>
        <time>2019-05-22T08:26:08Z</time>
      </trkpt>
      <trkpt lat="47.65344" lon="6.07209">
        <ele>260.29</ele>
        <time>2019-05-22T08:26:10Z</time>
      </trkpt>
      <trkpt lat="47.65339" lon="6.0721">
        <ele>260.28</ele>
        <time>2019-05-22T08:26:12Z</time>
      </trkpt>
      <trkpt lat="47.65334" lon="6.07213">
        <ele>260.26</ele>
        <time>2019-05-22T08:26:14Z</time>
      </trkpt>
      <trkpt lat="47.65329" lon="6.07216">
        <ele>260.25</ele>
        <time>2019-05-22T08:26:16Z</time>
      </trkpt>
      <trkpt lat="47.65324" lon="6.07218">
        <ele>260.24</ele>
        <time>2019-05-22T08:26:18Z</time>
      </trkpt>
      <trkpt lat="47.6532" lon="6.0722">
        <ele>260.23</ele>
        <time>2019-05-22T08:26:20Z</time>
      </trkpt>
      <trkpt lat="47.65313" lon="6.07223">
        <ele>260.21</ele>
        <time>2019-05-22T08:26:23Z</time>
      </trkpt>
      <trkpt lat="47.65309" lon="6.07225">
        <ele>260.19</ele>
        <time>2019-05-22T08:26:25Z</time>
      </trkpt>
      <trkpt lat="47.65302" lon="6.07227">
        <ele>260.17</ele>
        <time>2019-05-22T08:26:27Z</time>
      </trkpt>
      <trkpt lat="47.65295" lon="6.07229">
        <ele>259.98</ele>
        <time>2019-05-22T08:26:29Z</time>
      </trkpt>
      <trkpt lat="47.65286" lon="6.0723">
        <ele>259.79</ele>
        <time>2019-05-22T08:26:31Z</time>
      </trkpt>
      <trkpt lat="47.65272" lon="6.07231">
        <ele>259.64</ele>
        <time>2019-05-22T08:26:33Z</time>
      </trkpt>
      <trkpt lat="47.65267" lon="6.07232">
        <ele>259.57</ele>
        <time>2019-05-22T08:26:34Z</time>
      </trkpt>
      <trkpt lat="47.65259" lon="6.07232">
        <ele>259.46</ele>
        <time>2019-05-22T08:26:36Z</time>
      </trkpt>
      <trkpt lat="47.65254" lon="6.07232">
        <ele>259.41</ele>
        <time>2019-05-22T08:26:37Z</time>
      </trkpt>
      <trkpt lat="47.65249" lon="6.07233">
        <ele>259.37</ele>
        <time>2019-05-22T08:26:38Z</time>
      </trkpt>
      <trkpt lat="47.65244" lon="6.07234">
        <ele>259.33</ele>
        <time>2019-05-22T08:26:39Z</time>
      </trkpt>
      <trkpt lat="47.65239" lon="6.07234">
        <ele>259.3</ele>
        <time>2019-05-22T08:26:40Z</time>
      </trkpt>
      <trkpt lat="47.65234" lon="6.07234">
        <ele>259.27</ele>
        <time>2019-05-22T08:26:41Z</time>
      </trkpt>
      <trkpt lat="47.6523" lon="6.07235">
        <ele>259.24</ele>
        <time>2019-05-22T08:26:42Z</time>
      </trkpt>
      <trkpt lat="47.65221" lon="6.07236">
        <ele>259.2</ele>
        <time>2019-05-22T08:26:44Z</time>
      </trkpt>
      <trkpt lat="47.65214" lon="6.07237">
        <ele>259.17</ele>
        <time>2019-05-22T08:26:46Z</time>
      </trkpt>
      <trkpt lat="47.65208" lon="6.07238">
        <ele>259.17</ele>
        <time>2019-05-22T08:26:48Z</time>
      </trkpt>
      <trkpt lat="47.65202" lon="6.07239">
        <ele>259.16</ele>
        <time>2019-05-22T08:26:50Z</time>
      </trkpt>
      <trkpt lat="47.65196" lon="6.0724">
        <ele>259.16</ele>
        <time>2019-05-22T08:26:52Z</time>
      </trkpt>
      <trkpt lat="47.65191" lon="6.0724">
        <ele>259.15</ele>
        <time>2019-05-22T08:26:54Z</time>
      </trkpt>
      <trkpt lat="47.65185" lon="6.07243">
        <ele>259.14</ele>
        <time>2019-05-22T08:26:57Z</time>
      </trkpt>
      <trkpt lat="47.6518" lon="6.07244">
        <ele>259.14</ele>
        <time>2019-05-22T08:26:59Z</time>
      </trkpt>
      <trkpt lat="47.65176" lon="6.07244">
        <ele>259.13</ele>
        <time>2019-05-22T08:27:01Z</time>
      </trkpt>
      <trkpt lat="47.65169" lon="6.07246">
        <ele>259.12</ele>
        <time>2019-05-22T08:27:04Z</time>
      </trkpt>
      <trkpt lat="47.65163" lon="6.07247">
        <ele>259.11</ele>
        <time>2019-05-22T08:27:07Z</time>
      </trkpt>
      <trkpt lat="47.65156" lon="6.07248">
        <ele>259.11</ele>
        <time>2019-05-22T08:27:10Z</time>
      </trkpt>
      <trkpt lat="47.6515" lon="6.0725">
        <ele>259.1</ele>
        <time>2019-05-22T08:27:13Z</time>
      </trkpt>
      <trkpt lat="47.65144" lon="6.07251">
        <ele>259.1</ele>
        <time>2019-05-22T08:27:16Z</time>
      </trkpt>
      <trkpt lat="47.65137" lon="6.07252">
        <ele>259.1</ele>
        <time>2019-05-22T08:27:19Z</time>
      </trkpt>
      <trkpt lat="47.65131" lon="6.07253">
        <ele>259.09</ele>
        <time>2019-05-22T08:27:22Z</time>
      </trkpt>
      <trkpt lat="47.65124" lon="6.07254">
        <ele>259.09</ele>
        <time>2019-05-22T08:27:25Z</time>
      </trkpt>
      <trkpt lat="47.65119" lon="6.07254">
        <ele>259.09</ele>
        <time>2019-05-22T08:27:27Z</time>
      </trkpt>
      <trkpt lat="47.65113" lon="6.07254">
        <ele>259.09</ele>
        <time>2019-05-22T08:27:30Z</time>
      </trkpt>
      <trkpt lat="47.65108" lon="6.07255">
        <ele>259.09</ele>
        <time>2019-05-22T08:27:32Z</time>
      </trkpt>
      <trkpt lat="47.65102" lon="6.07255">
        <ele>259.09</ele>
        <time>2019-05-22T08:27:34Z</time>
      </trkpt>
      <trkpt lat="47.65096" lon="6.07255">
        <ele>259.09</ele>
        <time>2019-05-22T08:27:36Z</time>
      </trkpt>
      <trkpt lat="47.65089" lon="6.07256">
        <ele>259.09</ele>
        <time>2019-05-22T08:27:38Z</time>
      </trkpt>
      <trkpt lat="47.65083" lon="6.07256">
        <ele>259.08</ele>
        <time>2019-05-22T08:27:40Z</time>
      </trkpt>
      <trkpt lat="47.65076" lon="6.07257">
        <ele>259.08</ele>
        <time>2019-05-22T08:27:42Z</time>
      </trkpt>
      <trkpt lat="47.65068" lon="6.07257">
        <ele>259.08</ele>
        <time>2019-05-22T08:27:44Z</time>
      </trkpt>
      <trkpt lat="47.65061" lon="6.07258">
        <ele>259.07</ele>
        <time>2019-05-22T08:27:46Z</time>
      </trkpt>
      <trkpt lat="47.65055" lon="6.07259">
        <ele>259.07</ele>
        <time>2019-05-22T08:27:48Z</time>
      </trkpt>
      <trkpt lat="47.65049" lon="6.07259">
        <ele>259.07</ele>
        <time>2019-05-22T08:27:50Z</time>
      </trkpt>
      <trkpt lat="47.65043" lon="6.0726">
        <ele>259.06</ele>
        <time>2019-05-22T08:27:52Z</time>
      </trkpt>
      <trkpt lat="47.65038" lon="6.07261">
        <ele>259.06</ele>
        <time>2019-05-22T08:27:54Z</time>
      </trkpt>
      <trkpt lat="47.65032" lon="6.07262">
        <ele>259.05</ele>
        <time>2019-05-22T08:27:56Z</time>
      </trkpt>
      <trkpt lat="47.65027" lon="6.07264">
        <ele>259.05</ele>
        <time>2019-05-22T08:27:58Z</time>
      </trkpt>
      <trkpt lat="47.65022" lon="6.07266">
        <ele>259.05</ele>
        <time>2019-05-22T08:28:00Z</time>
      </trkpt>
      <trkpt lat="47.65017" lon="6.07268">
        <ele>259.05</ele>
        <time>2019-05-22T08:28:02Z</time>
      </trkpt>
      <trkpt lat="47.65012" lon="6.0727">
        <ele>259.05</ele>
        <time>2019-05-22T08:28:04Z</time>
      </trkpt>
      <trkpt lat="47.65008" lon="6.07273">
        <ele>259.05</ele>
        <time>2019-05-22T08:28:06Z</time>
      </trkpt>
      <trkpt lat="47.65002" lon="6.07277">
        <ele>259.05</ele>
        <time>2019-05-22T08:28:09Z</time>
      </trkpt>
      <trkpt lat="47.64997" lon="6.07281">
        <ele>259.06</ele>
        <time>2019-05-22T08:28:12Z</time>
      </trkpt>
      <trkpt lat="47.64992" lon="6.07285">
        <ele>259.07</ele>
        <time>2019-05-22T08:28:15Z</time>
      </trkpt>
      <trkpt lat="47.64986" lon="6.0729">
        <ele>259.08</ele>
        <time>2019-05-22T08:28:18Z</time>
      </trkpt>
      <trkpt lat="47.64981" lon="6.07294">
        <ele>259.09</ele>
        <time>2019-05-22T08:28:22Z</time>
      </trkpt>
      <trkpt lat="47.64976" lon="6.07297">
        <ele>259.1</ele>
        <time>2019-05-22T08:28:24Z</time>
      </trkpt>
      <trkpt lat="47.64972" lon="6.073">
        <ele>259.1</ele>
        <time>2019-05-22T08:28:26Z</time>
      </trkpt>
      <trkpt lat="47.64966" lon="6.07303">
        <ele>259.12</ele>
        <time>2019-05-22T08:28:29Z</time>
      </trkpt>
      <trkpt lat="47.64961" lon="6.07305">
        <ele>259.13</ele>
        <time>2019-05-22T08:28:31Z</time>
      </trkpt>
      <trkpt lat="47.64955" lon="6.07306">
        <ele>259.15</ele>
        <time>2019-05-22T08:28:34Z</time>
      </trkpt>
      <trkpt lat="47.64948" lon="6.07305">
        <ele>259.16</ele>
        <time>2019-05-22T08:28:37Z</time>
      </trkpt>
      <trkpt lat="47.64943" lon="6.07303">
        <ele>259.17</ele>
        <time>2019-05-22T08:28:39Z</time>
      </trkpt>
      <trkpt lat="47.64936" lon="6.07299">
        <ele>259.18</ele>
        <time>2019-05-22T08:28:41Z</time>
      </trkpt>
      <trkpt lat="47.6493" lon="6.07294">
        <ele>259.19</ele>
        <time>2019-05-22T08:28:43Z</time>
      </trkpt>
      <trkpt lat="47.64924" lon="6.0729">
        <ele>259.2</ele>
        <time>2019-05-22T08:28:45Z</time>
      </trkpt>
      <trkpt lat="47.6492" lon="6.07285">
        <ele>259.2</ele>
        <time>2019-05-22T08:28:47Z</time>
      </trkpt>
      <trkpt lat="47.64916" lon="6.07281">
        <ele>259.21</ele>
        <time>2019-05-22T08:28:49Z</time>
      </trkpt>
      <trkpt lat="47.64911" lon="6.07277">
        <ele>259.22</ele>
        <time>2019-05-22T08:28:51Z</time>
      </trkpt>
      <trkpt lat="47.64908" lon="6.07272">
        <ele>259.23</ele>
        <time>2019-05-22T08:28:53Z</time>
      </trkpt>
      <trkpt lat="47.64904" lon="6.07269">
        <ele>259.23</ele>
        <time>2019-05-22T08:28:55Z</time>
      </trkpt>
      <trkpt lat="47.649" lon="6.07265">
        <ele>259.24</ele>
        <time>2019-05-22T08:28:57Z</time>
      </trkpt>
      <trkpt lat="47.64895" lon="6.07261">
        <ele>259.24</ele>
        <time>2019-05-22T08:28:59Z</time>
      </trkpt>
      <trkpt lat="47.6489" lon="6.07257">
        <ele>259.24</ele>
        <time>2019-05-22T08:29:01Z</time>
      </trkpt>
      <trkpt lat="47.64885" lon="6.07253">
        <ele>259.25</ele>
        <time>2019-05-22T08:29:03Z</time>
      </trkpt>
      <trkpt lat="47.64879" lon="6.07249">
        <ele>259.25</ele>
        <time>2019-05-22T08:29:05Z</time>
      </trkpt>
      <trkpt lat="47.64874" lon="6.07246">
        <ele>259.25</ele>
        <time>2019-05-22T08:29:07Z</time>
      </trkpt>
      <trkpt lat="47.64868" lon="6.07242">
        <ele>259.25</ele>
        <time>2019-05-22T08:29:09Z</time>
      </trkpt>
      <trkpt lat="47.64862" lon="6.07238">
        <ele>259.26</ele>
        <time>2019-05-22T08:29:11Z</time>
      </trkpt>
      <trkpt lat="47.64856" lon="6.07234">
        <ele>259.26</ele>
        <time>2019-05-22T08:29:13Z</time>
      </trkpt>
      <trkpt lat="47.6485" lon="6.0723">
        <ele>259.26</ele>
        <time>2019-05-22T08:29:15Z</time>
      </trkpt>
      <trkpt lat="47.64844" lon="6.07226">
        <ele>259.26</ele>
        <time>2019-05-22T08:29:17Z</time>
      </trkpt>
      <trkpt lat="47.64838" lon="6.07222">
        <ele>259.26</ele>
        <time>2019-05-22T08:29:19Z</time>
      </trkpt>
      <trkpt lat="47.64831" lon="6.07218">
        <ele>259.27</ele>
        <time>2019-05-22T08:29:21Z</time>
      </trkpt>
      <trkpt lat="47.64825" lon="6.07213">
        <ele>259.27</ele>
        <time>2019-05-22T08:29:23Z</time>
      </trkpt>
      <trkpt lat="47.64818" lon="6.07209">
        <ele>259.27</ele>
        <time>2019-05-22T08:29:25Z</time>
      </trkpt>
      <trkpt lat="47.64812" lon="6.07206">
        <ele>259.26</ele>
        <time>2019-05-22T08:29:27Z</time>
      </trkpt>
      <trkpt lat="47.64807" lon="6.07202">
        <ele>259.26</ele>
        <time>2019-05-22T08:29:29Z</time>
      </trkpt>
      <trkpt lat="47.64802" lon="6.07198">
        <ele>259.26</ele>
        <time>2019-05-22T08:29:31Z</time>
      </trkpt>
      <trkpt lat="47.64796" lon="6.07194">
        <ele>259.26</ele>
        <time>2019-05-22T08:29:33Z</time>
      </trkpt>
      <trkpt lat="47.64791" lon="6.07192">
        <ele>259.26</ele>
        <time>2019-05-22T08:29:35Z</time>
      </trkpt>
      <trkpt lat="47.64786" lon="6.07191">
        <ele>259.26</ele>
        <time>2019-05-22T08:29:37Z</time>
      </trkpt>
      <trkpt lat="47.64781" lon="6.0719">
        <ele>259.26</ele>
        <time>2019-05-22T08:29:39Z</time>
      </trkpt>
      <trkpt lat="47.64776" lon="6.07189">
        <ele>259.26</ele>
        <time>2019-05-22T08:29:41Z</time>
      </trkpt>
      <trkpt lat="47.64771" lon="6.07189">
        <ele>259.26</ele>
        <time>2019-05-22T08:29:43Z</time>
      </trkpt>
      <trkpt lat="47.64766" lon="6.07189">
        <ele>259.26</ele>
        <time>2019-05-22T08:29:45Z</time>
      </trkpt>
      <trkpt lat="47.64761" lon="6.07189">
        <ele>259.26</ele>
        <time>2019-05-22T08:29:47Z</time>
      </trkpt>
      <trkpt lat="47.64756" lon="6.07189">
        <ele>259.26</ele>
        <time>2019-05-22T08:29:49Z</time>
      </trkpt>
      <trkpt lat="47.64752" lon="6.0719">
        <ele>259.26</ele>
        <time>2019-05-22T08:29:51Z</time>
      </trkpt>
      <trkpt lat="47.64747" lon="6.07192">
        <ele>259.27</ele>
        <time>2019-05-22T08:29:53Z</time>
      </trkpt>
      <trkpt lat="47.64742" lon="6.07193">
        <ele>259.27</ele>
        <time>2019-05-22T08:29:55Z</time>
      </trkpt>
      <trkpt lat="47.64736" lon="6.07196">
        <ele>259.27</ele>
        <time>2019-05-22T08:29:58Z</time>
      </trkpt>
      <trkpt lat="47.6473" lon="6.07198">
        <ele>259.28</ele>
        <time>2019-05-22T08:30:01Z</time>
      </trkpt>
      <trkpt lat="47.64725" lon="6.07199">
        <ele>259.29</ele>
        <time>2019-05-22T08:30:04Z</time>
      </trkpt>
      <trkpt lat="47.64721" lon="6.07199">
        <ele>259.3</ele>
        <time>2019-05-22T08:30:07Z</time>
      </trkpt>
      <trkpt lat="47.64715" lon="6.072">
        <ele>259.31</ele>
        <time>2019-05-22T08:30:11Z</time>
      </trkpt>
      <trkpt lat="47.6471" lon="6.07203">
        <ele>259.33</ele>
        <time>2019-05-22T08:30:16Z</time>
      </trkpt>
      <trkpt lat="47.64706" lon="6.07204">
        <ele>259.35</ele>
        <time>2019-05-22T08:30:20Z</time>
      </trkpt>
      <trkpt lat="47.647" lon="6.07204">
        <ele>259.38</ele>
        <time>2019-05-22T08:30:25Z</time>
      </trkpt>
      <trkpt lat="47.64694" lon="6.07204">
        <ele>259.4</ele>
        <time>2019-05-22T08:30:29Z</time>
      </trkpt>
      <trkpt lat="47.64689" lon="6.07205">
        <ele>259.42</ele>
        <time>2019-05-22T08:30:33Z</time>
      </trkpt>
      <trkpt lat="47.64684" lon="6.07207">
        <ele>259.45</ele>
        <time>2019-05-22T08:30:37Z</time>
      </trkpt>
      <trkpt lat="47.64679" lon="6.07207">
        <ele>259.47</ele>
        <time>2019-05-22T08:30:40Z</time>
      </trkpt>
      <trkpt lat="47.64674" lon="6.07208">
        <ele>259.49</ele>
        <time>2019-05-22T08:30:43Z</time>
      </trkpt>
      <trkpt lat="47.6467" lon="6.07207">
        <ele>259.51</ele>
        <time>2019-05-22T08:30:46Z</time>
      </trkpt>
      <trkpt lat="47.64664" lon="6.07208">
        <ele>259.54</ele>
        <time>2019-05-22T08:30:49Z</time>
      </trkpt>
      <trkpt lat="47.64659" lon="6.07209">
        <ele>259.56</ele>
        <time>2019-05-22T08:30:52Z</time>
      </trkpt>
      <trkpt lat="47.64653" lon="6.07211">
        <ele>259.59</ele>
        <time>2019-05-22T08:30:55Z</time>
      </trkpt>
      <trkpt lat="47.64649" lon="6.07213">
        <ele>259.61</ele>
        <time>2019-05-22T08:30:58Z</time>
      </trkpt>
      <trkpt lat="47.64644" lon="6.07215">
        <ele>259.64</ele>
        <time>2019-05-22T08:31:01Z</time>
      </trkpt>
      <trkpt lat="47.64637" lon="6.07219">
        <ele>259.67</ele>
        <time>2019-05-22T08:31:04Z</time>
      </trkpt>
      <trkpt lat="47.64632" lon="6.07222">
        <ele>259.68</ele>
        <time>2019-05-22T08:31:06Z</time>
      </trkpt>
      <trkpt lat="47.64627" lon="6.07226">
        <ele>259.7</ele>
        <time>2019-05-22T08:31:08Z</time>
      </trkpt>
      <trkpt lat="47.64621" lon="6.0723">
        <ele>259.72</ele>
        <time>2019-05-22T08:31:10Z</time>
      </trkpt>
      <trkpt lat="47.64615" lon="6.07235">
        <ele>259.74</ele>
        <time>2019-05-22T08:31:12Z</time>
      </trkpt>
      <trkpt lat="47.64609" lon="6.07239">
        <ele>259.75</ele>
        <time>2019-05-22T08:31:14Z</time>
      </trkpt>
      <trkpt lat="47.64603" lon="6.07244">
        <ele>259.77</ele>
        <time>2019-05-22T08:31:16Z</time>
      </trkpt>
      <trkpt lat="47.64597" lon="6.07249">
        <ele>259.79</ele>
        <time>2019-05-22T08:31:18Z</time>
      </trkpt>
      <trkpt lat="47.64591" lon="6.07253">
        <ele>259.8</ele>
        <time>2019-05-22T08:31:20Z</time>
      </trkpt>
      <trkpt lat="47.64585" lon="6.07257">
        <ele>259.82</ele>
        <time>2019-05-22T08:31:22Z</time>
      </trkpt>
      <trkpt lat="47.64578" lon="6.07263">
        <ele>259.83</ele>
        <time>2019-05-22T08:31:24Z</time>
      </trkpt>
      <trkpt lat="47.64572" lon="6.07269">
        <ele>259.85</ele>
        <time>2019-05-22T08:31:26Z</time>
      </trkpt>
      <trkpt lat="47.64567" lon="6.07275">
        <ele>259.86</ele>
        <time>2019-05-22T08:31:28Z</time>
      </trkpt>
      <trkpt lat="47.64561" lon="6.07283">
        <ele>259.88</ele>
        <time>2019-05-22T08:31:30Z</time>
      </trkpt>
      <trkpt lat="47.64557" lon="6.07291">
        <ele>259.89</ele>
        <time>2019-05-22T08:31:32Z</time>
      </trkpt>
      <trkpt lat="47.64552" lon="6.07301">
        <ele>259.99</ele>
        <time>2019-05-22T08:31:34Z</time>
      </trkpt>
      <trkpt lat="47.64546" lon="6.0731">
        <ele>260.08</ele>
        <time>2019-05-22T08:31:36Z</time>
      </trkpt>
      <trkpt lat="47.6454" lon="6.07318">
        <ele>260.11</ele>
        <time>2019-05-22T08:31:37Z</time>
      </trkpt>
      <trkpt lat="47.64535" lon="6.07323">
        <ele>260.13</ele>
        <time>2019-05-22T08:31:39Z</time>
      </trkpt>
      <trkpt lat="47.64529" lon="6.07325">
        <ele>260.14</ele>
        <time>2019-05-22T08:31:42Z</time>
      </trkpt>
      <trkpt lat="47.64523" lon="6.07324">
        <ele>260.14</ele>
        <time>2019-05-22T08:31:44Z</time>
      </trkpt>
      <trkpt lat="47.64516" lon="6.07323">
        <ele>260.15</ele>
        <time>2019-05-22T08:31:46Z</time>
      </trkpt>
      <trkpt lat="47.6451" lon="6.07321">
        <ele>260.16</ele>
        <time>2019-05-22T08:31:48Z</time>
      </trkpt>
      <trkpt lat="47.64504" lon="6.07321">
        <ele>260.17</ele>
        <time>2019-05-22T08:31:50Z</time>
      </trkpt>
      <trkpt lat="47.64498" lon="6.0732">
        <ele>260.17</ele>
        <time>2019-05-22T08:31:52Z</time>
      </trkpt>
      <trkpt lat="47.64493" lon="6.0732">
        <ele>260.18</ele>
        <time>2019-05-22T08:31:54Z</time>
      </trkpt>
      <trkpt lat="47.64488" lon="6.0732">
        <ele>260.19</ele>
        <time>2019-05-22T08:31:56Z</time>
      </trkpt>
      <trkpt lat="47.64483" lon="6.0732">
        <ele>260.2</ele>
        <time>2019-05-22T08:31:58Z</time>
      </trkpt>
      <trkpt lat="47.64477" lon="6.07321">
        <ele>260.22</ele>
        <time>2019-05-22T08:32:01Z</time>
      </trkpt>
      <trkpt lat="47.64471" lon="6.07321">
        <ele>260.24</ele>
        <time>2019-05-22T08:32:04Z</time>
      </trkpt>
      <trkpt lat="47.64465" lon="6.07322">
        <ele>260.26</ele>
        <time>2019-05-22T08:32:07Z</time>
      </trkpt>
      <trkpt lat="47.64459" lon="6.07324">
        <ele>260.28</ele>
        <time>2019-05-22T08:32:10Z</time>
      </trkpt>
      <trkpt lat="47.64453" lon="6.07326">
        <ele>260.3</ele>
        <time>2019-05-22T08:32:13Z</time>
      </trkpt>
      <trkpt lat="47.64448" lon="6.07328">
        <ele>260.33</ele>
        <time>2019-05-22T08:32:16Z</time>
      </trkpt>
      <trkpt lat="47.64442" lon="6.0733">
        <ele>260.36</ele>
        <time>2019-05-22T08:32:20Z</time>
      </trkpt>
      <trkpt lat="47.64438" lon="6.07331">
        <ele>260.39</ele>
        <time>2019-05-22T08:32:23Z</time>
      </trkpt>
      <trkpt lat="47.64432" lon="6.07333">
        <ele>260.44</ele>
        <time>2019-05-22T08:32:27Z</time>
      </trkpt>
      <trkpt lat="47.64427" lon="6.07336">
        <ele>260.47</ele>
        <time>2019-05-22T08:32:30Z</time>
      </trkpt>
      <trkpt lat="47.64421" lon="6.07338">
        <ele>260.53</ele>
        <time>2019-05-22T08:32:34Z</time>
      </trkpt>
      <trkpt lat="47.64415" lon="6.07341">
        <ele>260.58</ele>
        <time>2019-05-22T08:32:38Z</time>
      </trkpt>
      <trkpt lat="47.64411" lon="6.07343">
        <ele>260.62</ele>
        <time>2019-05-22T08:32:41Z</time>
      </trkpt>
      <trkpt lat="47.64405" lon="6.07345">
        <ele>260.68</ele>
        <time>2019-05-22T08:32:45Z</time>
      </trkpt>
      <trkpt lat="47.644" lon="6.07346">
        <ele>260.73</ele>
        <time>2019-05-22T08:32:48Z</time>
      </trkpt>
      <trkpt lat="47.64395" lon="6.0735">
        <ele>260.79</ele>
        <time>2019-05-22T08:32:52Z</time>
      </trkpt>
      <trkpt lat="47.64391" lon="6.07352">
        <ele>260.84</ele>
        <time>2019-05-22T08:32:55Z</time>
      </trkpt>
      <trkpt lat="47.64386" lon="6.07353">
        <ele>260.91</ele>
        <time>2019-05-22T08:32:59Z</time>
      </trkpt>
      <trkpt lat="47.64381" lon="6.07354">
        <ele>260.98</ele>
        <time>2019-05-22T08:33:03Z</time>
      </trkpt>
      <trkpt lat="47.64376" lon="6.07357">
        <ele>261.06</ele>
        <time>2019-05-22T08:33:07Z</time>
      </trkpt>
      <trkpt lat="47.64372" lon="6.0736">
        <ele>261.11</ele>
        <time>2019-05-22T08:33:10Z</time>
      </trkpt>
      <trkpt lat="47.64367" lon="6.07361">
        <ele>261.18</ele>
        <time>2019-05-22T08:33:13Z</time>
      </trkpt>
      <trkpt lat="47.64361" lon="6.07363">
        <ele>261.26</ele>
        <time>2019-05-22T08:33:17Z</time>
      </trkpt>
      <trkpt lat="47.64356" lon="6.07363">
        <ele>261.35</ele>
        <time>2019-05-22T08:33:21Z</time>
      </trkpt>
      <trkpt lat="47.64351" lon="6.07363">
        <ele>261.45</ele>
        <time>2019-05-22T08:33:25Z</time>
      </trkpt>
      <trkpt lat="47.64346" lon="6.07365">
        <ele>261.54</ele>
        <time>2019-05-22T08:33:29Z</time>
      </trkpt>
      <trkpt lat="47.6434" lon="6.07367">
        <ele>261.64</ele>
        <time>2019-05-22T08:33:33Z</time>
      </trkpt>
      <trkpt lat="47.64335" lon="6.07368">
        <ele>261.74</ele>
        <time>2019-05-22T08:33:37Z</time>
      </trkpt>
      <trkpt lat="47.64329" lon="6.07368">
        <ele>261.84</ele>
        <time>2019-05-22T08:33:41Z</time>
      </trkpt>
      <trkpt lat="47.64324" lon="6.07369">
        <ele>261.94</ele>
        <time>2019-05-22T08:33:45Z</time>
      </trkpt>
      <trkpt lat="47.64318" lon="6.07369">
        <ele>262.05</ele>
        <time>2019-05-22T08:33:49Z</time>
      </trkpt>
      <trkpt lat="47.64311" lon="6.07368">
        <ele>262.16</ele>
        <time>2019-05-22T08:33:53Z</time>
      </trkpt>
      <trkpt lat="47.64306" lon="6.07367">
        <ele>262.24</ele>
        <time>2019-05-22T08:33:56Z</time>
      </trkpt>
      <trkpt lat="47.64301" lon="6.07365">
        <ele>262.32</ele>
        <time>2019-05-22T08:33:59Z</time>
      </trkpt>
      <trkpt lat="47.64296" lon="6.07362">
        <ele>262.41</ele>
        <time>2019-05-22T08:34:02Z</time>
      </trkpt>
      <trkpt lat="47.6429" lon="6.07359">
        <ele>262.5</ele>
        <time>2019-05-22T08:34:05Z</time>
      </trkpt>
      <trkpt lat="47.64285" lon="6.07357">
        <ele>262.59</ele>
        <time>2019-05-22T08:34:08Z</time>
      </trkpt>
      <trkpt lat="47.64281" lon="6.07354">
        <ele>262.68</ele>
        <time>2019-05-22T08:34:11Z</time>
      </trkpt>
      <trkpt lat="47.64275" lon="6.0735">
        <ele>262.81</ele>
        <time>2019-05-22T08:34:15Z</time>
      </trkpt>
      <trkpt lat="47.64271" lon="6.07348">
        <ele>262.92</ele>
        <time>2019-05-22T08:34:18Z</time>
      </trkpt>
      <trkpt lat="47.64267" lon="6.07345">
        <ele>263.02</ele>
        <time>2019-05-22T08:34:21Z</time>
      </trkpt>
      <trkpt lat="47.64262" lon="6.07342">
        <ele>263.12</ele>
        <time>2019-05-22T08:34:24Z</time>
      </trkpt>
      <trkpt lat="47.64257" lon="6.0734">
        <ele>263.18</ele>
        <time>2019-05-22T08:34:26Z</time>
      </trkpt>
      <trkpt lat="47.64252" lon="6.07338">
        <ele>263.25</ele>
        <time>2019-05-22T08:34:28Z</time>
      </trkpt>
      <trkpt lat="47.64246" lon="6.07335">
        <ele>263.32</ele>
        <time>2019-05-22T08:34:30Z</time>
      </trkpt>
      <trkpt lat="47.6424" lon="6.07333">
        <ele>263.39</ele>
        <time>2019-05-22T08:34:32Z</time>
      </trkpt>
      <trkpt lat="47.64234" lon="6.07331">
        <ele>263.46</ele>
        <time>2019-05-22T08:34:34Z</time>
      </trkpt>
      <trkpt lat="47.64227" lon="6.07329">
        <ele>263.53</ele>
        <time>2019-05-22T08:34:36Z</time>
      </trkpt>
      <trkpt lat="47.64221" lon="6.07327">
        <ele>263.6</ele>
        <time>2019-05-22T08:34:38Z</time>
      </trkpt>
      <trkpt lat="47.64215" lon="6.07328">
        <ele>263.67</ele>
        <time>2019-05-22T08:34:40Z</time>
      </trkpt>
      <trkpt lat="47.6421" lon="6.0733">
        <ele>263.74</ele>
        <time>2019-05-22T08:34:42Z</time>
      </trkpt>
      <trkpt lat="47.64205" lon="6.0733">
        <ele>264.34</ele>
        <time>2019-05-22T08:35:43Z</time>
      </trkpt>
      <trkpt lat="47.64208" lon="6.07324">
        <ele>265.59</ele>
        <time>2019-05-22T08:37:30Z</time>
      </trkpt>
      <trkpt lat="47.64213" lon="6.07321">
        <ele>265.99</ele>
        <time>2019-05-22T08:37:42Z</time>
      </trkpt>
      <trkpt lat="47.64218" lon="6.0732">
        <ele>266.21</ele>
        <time>2019-05-22T08:37:46Z</time>
      </trkpt>
      <trkpt lat="47.64223" lon="6.07323">
        <ele>266.38</ele>
        <time>2019-05-22T08:37:49Z</time>
      </trkpt>
      <trkpt lat="47.64228" lon="6.07325">
        <ele>266.48</ele>
        <time>2019-05-22T08:37:51Z</time>
      </trkpt>
      <trkpt lat="47.64234" lon="6.07328">
        <ele>266.59</ele>
        <time>2019-05-22T08:37:53Z</time>
      </trkpt>
      <trkpt lat="47.6424" lon="6.0733">
        <ele>266.74</ele>
        <time>2019-05-22T08:37:56Z</time>
      </trkpt>
      <trkpt lat="47.64246" lon="6.07332">
        <ele>266.88</ele>
        <time>2019-05-22T08:37:59Z</time>
      </trkpt>
      <trkpt lat="47.64252" lon="6.07333">
        <ele>267.02</ele>
        <time>2019-05-22T08:38:02Z</time>
      </trkpt>
      <trkpt lat="47.64258" lon="6.07331">
        <ele>267.16</ele>
        <time>2019-05-22T08:38:05Z</time>
      </trkpt>
      <trkpt lat="47.64265" lon="6.07328">
        <ele>267.29</ele>
        <time>2019-05-22T08:38:08Z</time>
      </trkpt>
      <trkpt lat="47.6427" lon="6.07323">
        <ele>267.41</ele>
        <time>2019-05-22T08:38:11Z</time>
      </trkpt>
      <trkpt lat="47.64274" lon="6.07317">
        <ele>267.5</ele>
        <time>2019-05-22T08:38:13Z</time>
      </trkpt>
      <trkpt lat="47.64279" lon="6.07309">
        <ele>268.11</ele>
        <time>2019-05-22T08:38:15Z</time>
      </trkpt>
      <trkpt lat="47.64285" lon="6.07299">
        <ele>268.63</ele>
        <time>2019-05-22T08:38:17Z</time>
      </trkpt>
      <trkpt lat="47.64289" lon="6.07294">
        <ele>268.83</ele>
        <time>2019-05-22T08:38:18Z</time>
      </trkpt>
      <trkpt lat="47.64293" lon="6.0729">
        <ele>268.98</ele>
        <time>2019-05-22T08:38:19Z</time>
      </trkpt>
      <trkpt lat="47.64301" lon="6.07279">
        <ele>269.11</ele>
        <time>2019-05-22T08:38:20Z</time>
      </trkpt>
      <trkpt lat="47.64305" lon="6.07272">
        <ele>269.22</ele>
        <time>2019-05-22T08:38:21Z</time>
      </trkpt>
      <trkpt lat="47.64309" lon="6.07266">
        <ele>269.3</ele>
        <time>2019-05-22T08:38:22Z</time>
      </trkpt>
      <trkpt lat="47.64312" lon="6.0726">
        <ele>269.37</ele>
        <time>2019-05-22T08:38:23Z</time>
      </trkpt>
      <trkpt lat="47.64316" lon="6.07254">
        <ele>269.43</ele>
        <time>2019-05-22T08:38:24Z</time>
      </trkpt>
      <trkpt lat="47.64319" lon="6.07247">
        <ele>269.48</ele>
        <time>2019-05-22T08:38:25Z</time>
      </trkpt>
      <trkpt lat="47.64322" lon="6.07241">
        <ele>269.53</ele>
        <time>2019-05-22T08:38:26Z</time>
      </trkpt>
      <trkpt lat="47.64326" lon="6.07236">
        <ele>269.56</ele>
        <time>2019-05-22T08:38:27Z</time>
      </trkpt>
      <trkpt lat="47.64329" lon="6.0723">
        <ele>269.6</ele>
        <time>2019-05-22T08:38:28Z</time>
      </trkpt>
      <trkpt lat="47.64332" lon="6.07225">
        <ele>269.62</ele>
        <time>2019-05-22T08:38:29Z</time>
      </trkpt>
      <trkpt lat="47.64336" lon="6.07219">
        <ele>269.65</ele>
        <time>2019-05-22T08:38:30Z</time>
      </trkpt>
      <trkpt lat="47.64339" lon="6.07212">
        <ele>269.67</ele>
        <time>2019-05-22T08:38:31Z</time>
      </trkpt>
      <trkpt lat="47.64342" lon="6.07205">
        <ele>269.69</ele>
        <time>2019-05-22T08:38:32Z</time>
      </trkpt>
      <trkpt lat="47.64345" lon="6.07198">
        <ele>269.71</ele>
        <time>2019-05-22T08:38:33Z</time>
      </trkpt>
      <trkpt lat="47.64349" lon="6.07192">
        <ele>269.73</ele>
        <time>2019-05-22T08:38:34Z</time>
      </trkpt>
      <trkpt lat="47.64353" lon="6.07187">
        <ele>269.75</ele>
        <time>2019-05-22T08:38:35Z</time>
      </trkpt>
      <trkpt lat="47.64358" lon="6.0718">
        <ele>269.77</ele>
        <time>2019-05-22T08:38:36Z</time>
      </trkpt>
      <trkpt lat="47.64362" lon="6.07173">
        <ele>269.79</ele>
        <time>2019-05-22T08:38:37Z</time>
      </trkpt>
      <trkpt lat="47.64366" lon="6.07167">
        <ele>269.81</ele>
        <time>2019-05-22T08:38:38Z</time>
      </trkpt>
      <trkpt lat="47.6437" lon="6.0716">
        <ele>269.83</ele>
        <time>2019-05-22T08:38:39Z</time>
      </trkpt>
      <trkpt lat="47.64374" lon="6.07153">
        <ele>269.85</ele>
        <time>2019-05-22T08:38:40Z</time>
      </trkpt>
      <trkpt lat="47.64379" lon="6.07146">
        <ele>269.86</ele>
        <time>2019-05-22T08:38:41Z</time>
      </trkpt>
      <trkpt lat="47.64383" lon="6.07138">
        <ele>269.87</ele>
        <time>2019-05-22T08:38:42Z</time>
      </trkpt>
      <trkpt lat="47.64387" lon="6.0713">
        <ele>269.88</ele>
        <time>2019-05-22T08:38:43Z</time>
      </trkpt>
      <trkpt lat="47.64392" lon="6.07123">
        <ele>269.88</ele>
        <time>2019-05-22T08:38:44Z</time>
      </trkpt>
      <trkpt lat="47.64396" lon="6.07115">
        <ele>269.87</ele>
        <time>2019-05-22T08:38:45Z</time>
      </trkpt>
      <trkpt lat="47.64399" lon="6.07108">
        <ele>269.85</ele>
        <time>2019-05-22T08:38:46Z</time>
      </trkpt>
      <trkpt lat="47.64403" lon="6.07101">
        <ele>269.83</ele>
        <time>2019-05-22T08:38:47Z</time>
      </trkpt>
      <trkpt lat="47.64407" lon="6.07095">
        <ele>269.8</ele>
        <time>2019-05-22T08:38:48Z</time>
      </trkpt>
      <trkpt lat="47.6441" lon="6.07089">
        <ele>269.75</ele>
        <time>2019-05-22T08:38:49Z</time>
      </trkpt>
      <trkpt lat="47.64413" lon="6.07077">
        <ele>269.66</ele>
        <time>2019-05-22T08:38:51Z</time>
      </trkpt>
      <trkpt lat="47.6441" lon="6.07067">
        <ele>269.5</ele>
        <time>2019-05-22T08:38:53Z</time>
      </trkpt>
      <trkpt lat="47.64404" lon="6.07057">
        <ele>269.44</ele>
        <time>2019-05-22T08:38:55Z</time>
      </trkpt>
      <trkpt lat="47.644" lon="6.07053">
        <ele>269.47</ele>
        <time>2019-05-22T08:38:56Z</time>
      </trkpt>
      <trkpt lat="47.64397" lon="6.07048">
        <ele>269.54</ele>
        <time>2019-05-22T08:38:57Z</time>
      </trkpt>
      <trkpt lat="47.6439" lon="6.07039">
        <ele>269.71</ele>
        <time>2019-05-22T08:38:59Z</time>
      </trkpt>
      <trkpt lat="47.64385" lon="6.07031">
        <ele>269.88</ele>
        <time>2019-05-22T08:39:01Z</time>
      </trkpt>
      <trkpt lat="47.64379" lon="6.07022">
        <ele>269.99</ele>
        <time>2019-05-22T08:39:03Z</time>
      </trkpt>
      <trkpt lat="47.64375" lon="6.07016">
        <ele>270.03</ele>
        <time>2019-05-22T08:39:05Z</time>
      </trkpt>
      <trkpt lat="47.64372" lon="6.0701">
        <ele>270.07</ele>
        <time>2019-05-22T08:39:07Z</time>
      </trkpt>
      <trkpt lat="47.64368" lon="6.07005">
        <ele>270.12</ele>
        <time>2019-05-22T08:39:09Z</time>
      </trkpt>
      <trkpt lat="47.64364" lon="6.06998">
        <ele>270.16</ele>
        <time>2019-05-22T08:39:11Z</time>
      </trkpt>
      <trkpt lat="47.64359" lon="6.06991">
        <ele>270.21</ele>
        <time>2019-05-22T08:39:13Z</time>
      </trkpt>
      <trkpt lat="47.64353" lon="6.06983">
        <ele>270.25</ele>
        <time>2019-05-22T08:39:15Z</time>
      </trkpt>
      <trkpt lat="47.64349" lon="6.06976">
        <ele>270.3</ele>
        <time>2019-05-22T08:39:17Z</time>
      </trkpt>
      <trkpt lat="47.64344" lon="6.06971">
        <ele>270.33</ele>
        <time>2019-05-22T08:39:18Z</time>
      </trkpt>
      <trkpt lat="47.64339" lon="6.06964">
        <ele>270.37</ele>
        <time>2019-05-22T08:39:20Z</time>
      </trkpt>
      <trkpt lat="47.64333" lon="6.06956">
        <ele>270.41</ele>
        <time>2019-05-22T08:39:22Z</time>
      </trkpt>
      <trkpt lat="47.64328" lon="6.06948">
        <ele>270.45</ele>
        <time>2019-05-22T08:39:24Z</time>
      </trkpt>
      <trkpt lat="47.64323" lon="6.0694">
        <ele>270.49</ele>
        <time>2019-05-22T08:39:26Z</time>
      </trkpt>
      <trkpt lat="47.64319" lon="6.06935">
        <ele>270.53</ele>
        <time>2019-05-22T08:39:28Z</time>
      </trkpt>
      <trkpt lat="47.64315" lon="6.06928">
        <ele>270.57</ele>
        <time>2019-05-22T08:39:31Z</time>
      </trkpt>
      <trkpt lat="47.64311" lon="6.06921">
        <ele>270.58</ele>
        <time>2019-05-22T08:39:34Z</time>
      </trkpt>
      <trkpt lat="47.64307" lon="6.06915">
        <ele>270.59</ele>
        <time>2019-05-22T08:39:37Z</time>
      </trkpt>
      <trkpt lat="47.64303" lon="6.06909">
        <ele>270.58</ele>
        <time>2019-05-22T08:39:40Z</time>
      </trkpt>
      <trkpt lat="47.64299" lon="6.06902">
        <ele>270.56</ele>
        <time>2019-05-22T08:39:43Z</time>
      </trkpt>
      <trkpt lat="47.64295" lon="6.06897">
        <ele>270.53</ele>
        <time>2019-05-22T08:39:46Z</time>
      </trkpt>
      <trkpt lat="47.64291" lon="6.06891">
        <ele>270.48</ele>
        <time>2019-05-22T08:39:50Z</time>
      </trkpt>
      <trkpt lat="47.64287" lon="6.06886">
        <ele>270.43</ele>
        <time>2019-05-22T08:39:53Z</time>
      </trkpt>
      <trkpt lat="47.64284" lon="6.06881">
        <ele>270.39</ele>
        <time>2019-05-22T08:39:56Z</time>
      </trkpt>
      <trkpt lat="47.6428" lon="6.06877">
        <ele>270.34</ele>
        <time>2019-05-22T08:39:59Z</time>
      </trkpt>
      <trkpt lat="47.64277" lon="6.06871">
        <ele>270.27</ele>
        <time>2019-05-22T08:40:03Z</time>
      </trkpt>
      <trkpt lat="47.64273" lon="6.06866">
        <ele>270.2</ele>
        <time>2019-05-22T08:40:07Z</time>
      </trkpt>
      <trkpt lat="47.6427" lon="6.0686">
        <ele>270.13</ele>
        <time>2019-05-22T08:40:11Z</time>
      </trkpt>
      <trkpt lat="47.64266" lon="6.06856">
        <ele>270.05</ele>
        <time>2019-05-22T08:40:15Z</time>
      </trkpt>
      <trkpt lat="47.64263" lon="6.0685">
        <ele>269.97</ele>
        <time>2019-05-22T08:40:19Z</time>
      </trkpt>
      <trkpt lat="47.6426" lon="6.06844">
        <ele>269.88</ele>
        <time>2019-05-22T08:40:23Z</time>
      </trkpt>
      <trkpt lat="47.64256" lon="6.06839">
        <ele>269.82</ele>
        <time>2019-05-22T08:40:26Z</time>
      </trkpt>
      <trkpt lat="47.64253" lon="6.06834">
        <ele>269.76</ele>
        <time>2019-05-22T08:40:29Z</time>
      </trkpt>
      <trkpt lat="47.64249" lon="6.06829">
        <ele>269.7</ele>
        <time>2019-05-22T08:40:32Z</time>
      </trkpt>
      <trkpt lat="47.64246" lon="6.06823">
        <ele>269.64</ele>
        <time>2019-05-22T08:40:35Z</time>
      </trkpt>
      <trkpt lat="47.64242" lon="6.06817">
        <ele>269.58</ele>
        <time>2019-05-22T08:40:38Z</time>
      </trkpt>
      <trkpt lat="47.64239" lon="6.0681">
        <ele>269.52</ele>
        <time>2019-05-22T08:40:41Z</time>
      </trkpt>
      <trkpt lat="47.64235" lon="6.06806">
        <ele>269.47</ele>
        <time>2019-05-22T08:40:44Z</time>
      </trkpt>
      <trkpt lat="47.6423" lon="6.068">
        <ele>269.41</ele>
        <time>2019-05-22T08:40:47Z</time>
      </trkpt>
      <trkpt lat="47.64226" lon="6.06793">
        <ele>269.36</ele>
        <time>2019-05-22T08:40:50Z</time>
      </trkpt>
      <trkpt lat="47.64222" lon="6.06786">
        <ele>269.31</ele>
        <time>2019-05-22T08:40:53Z</time>
      </trkpt>
      <trkpt lat="47.64217" lon="6.06779">
        <ele>269.26</ele>
        <time>2019-05-22T08:40:56Z</time>
      </trkpt>
      <trkpt lat="47.64214" lon="6.06774">
        <ele>269.22</ele>
        <time>2019-05-22T08:40:58Z</time>
      </trkpt>
      <trkpt lat="47.64211" lon="6.06769">
        <ele>269.18</ele>
        <time>2019-05-22T08:41:00Z</time>
      </trkpt>
      <trkpt lat="47.64207" lon="6.06761">
        <ele>269.13</ele>
        <time>2019-05-22T08:41:03Z</time>
      </trkpt>
      <trkpt lat="47.64203" lon="6.06754">
        <ele>269.08</ele>
        <time>2019-05-22T08:41:06Z</time>
      </trkpt>
      <trkpt lat="47.64199" lon="6.06747">
        <ele>269.03</ele>
        <time>2019-05-22T08:41:09Z</time>
      </trkpt>
      <trkpt lat="47.64194" lon="6.06739">
        <ele>268.98</ele>
        <time>2019-05-22T08:41:12Z</time>
      </trkpt>
      <trkpt lat="47.64191" lon="6.06734">
        <ele>268.95</ele>
        <time>2019-05-22T08:41:14Z</time>
      </trkpt>
      <trkpt lat="47.64187" lon="6.06727">
        <ele>268.9</ele>
        <time>2019-05-22T08:41:17Z</time>
      </trkpt>
      <trkpt lat="47.64183" lon="6.0672">
        <ele>268.86</ele>
        <time>2019-05-22T08:41:20Z</time>
      </trkpt>
      <trkpt lat="47.64181" lon="6.06713">
        <ele>268.82</ele>
        <time>2019-05-22T08:41:23Z</time>
      </trkpt>
      <trkpt lat="47.64177" lon="6.06705">
        <ele>268.78</ele>
        <time>2019-05-22T08:41:26Z</time>
      </trkpt>
      <trkpt lat="47.64174" lon="6.06699">
        <ele>268.75</ele>
        <time>2019-05-22T08:41:28Z</time>
      </trkpt>
      <trkpt lat="47.6417" lon="6.06694">
        <ele>268.73</ele>
        <time>2019-05-22T08:41:30Z</time>
      </trkpt>
      <trkpt lat="47.64167" lon="6.06688">
        <ele>268.71</ele>
        <time>2019-05-22T08:41:32Z</time>
      </trkpt>
      <trkpt lat="47.64164" lon="6.06682">
        <ele>268.69</ele>
        <time>2019-05-22T08:41:34Z</time>
      </trkpt>
      <trkpt lat="47.6416" lon="6.06676">
        <ele>268.66</ele>
        <time>2019-05-22T08:41:37Z</time>
      </trkpt>
      <trkpt lat="47.64156" lon="6.0667">
        <ele>268.64</ele>
        <time>2019-05-22T08:41:40Z</time>
      </trkpt>
      <trkpt lat="47.64152" lon="6.06664">
        <ele>268.62</ele>
        <time>2019-05-22T08:41:43Z</time>
      </trkpt>
      <trkpt lat="47.64148" lon="6.06658">
        <ele>268.6</ele>
        <time>2019-05-22T08:41:46Z</time>
      </trkpt>
      <trkpt lat="47.64145" lon="6.06652">
        <ele>268.6</ele>
        <time>2019-05-22T08:41:49Z</time>
      </trkpt>
      <trkpt lat="47.64141" lon="6.06647">
        <ele>268.59</ele>
        <time>2019-05-22T08:41:52Z</time>
      </trkpt>
      <trkpt lat="47.64137" lon="6.06641">
        <ele>268.6</ele>
        <time>2019-05-22T08:41:55Z</time>
      </trkpt>
      <trkpt lat="47.64133" lon="6.06633">
        <ele>268.6</ele>
        <time>2019-05-22T08:41:58Z</time>
      </trkpt>
      <trkpt lat="47.6413" lon="6.06627">
        <ele>268.61</ele>
        <time>2019-05-22T08:42:00Z</time>
      </trkpt>
      <trkpt lat="47.64126" lon="6.06621">
        <ele>268.62</ele>
        <time>2019-05-22T08:42:02Z</time>
      </trkpt>
      <trkpt lat="47.64122" lon="6.06614">
        <ele>268.64</ele>
        <time>2019-05-22T08:42:05Z</time>
      </trkpt>
      <trkpt lat="47.64119" lon="6.06609">
        <ele>268.66</ele>
        <time>2019-05-22T08:42:08Z</time>
      </trkpt>
      <trkpt lat="47.64115" lon="6.06603">
        <ele>268.69</ele>
        <time>2019-05-22T08:42:11Z</time>
      </trkpt>
      <trkpt lat="47.64112" lon="6.06597">
        <ele>268.72</ele>
        <time>2019-05-22T08:42:14Z</time>
      </trkpt>
      <trkpt lat="47.64108" lon="6.06592">
        <ele>268.77</ele>
        <time>2019-05-22T08:42:18Z</time>
      </trkpt>
      <trkpt lat="47.64104" lon="6.06586">
        <ele>268.83</ele>
        <time>2019-05-22T08:42:22Z</time>
      </trkpt>
      <trkpt lat="47.641" lon="6.06581">
        <ele>268.86</ele>
        <time>2019-05-22T08:42:24Z</time>
      </trkpt>
      <trkpt lat="47.64097" lon="6.06577">
        <ele>268.89</ele>
        <time>2019-05-22T08:42:26Z</time>
      </trkpt>
      <trkpt lat="47.64093" lon="6.06572">
        <ele>269.02</ele>
        <time>2019-05-22T08:42:47Z</time>
      </trkpt>
      <trkpt lat="47.64088" lon="6.06568">
        <ele>269.09</ele>
        <time>2019-05-22T08:42:50Z</time>
      </trkpt>
      <trkpt lat="47.64083" lon="6.06565">
        <ele>269.14</ele>
        <time>2019-05-22T08:42:52Z</time>
      </trkpt>
      <trkpt lat="47.64078" lon="6.06563">
        <ele>269.19</ele>
        <time>2019-05-22T08:42:54Z</time>
      </trkpt>
      <trkpt lat="47.64071" lon="6.06562">
        <ele>269.28</ele>
        <time>2019-05-22T08:42:57Z</time>
      </trkpt>
      <trkpt lat="47.64066" lon="6.0656">
        <ele>269.37</ele>
        <time>2019-05-22T08:43:00Z</time>
      </trkpt>
      <trkpt lat="47.6406" lon="6.06559">
        <ele>269.48</ele>
        <time>2019-05-22T08:43:03Z</time>
      </trkpt>
      <trkpt lat="47.64053" lon="6.06557">
        <ele>269.59</ele>
        <time>2019-05-22T08:43:06Z</time>
      </trkpt>
      <trkpt lat="47.64048" lon="6.06555">
        <ele>269.67</ele>
        <time>2019-05-22T08:43:08Z</time>
      </trkpt>
      <trkpt lat="47.64043" lon="6.06553">
        <ele>269.78</ele>
        <time>2019-05-22T08:43:11Z</time>
      </trkpt>
      <trkpt lat="47.64038" lon="6.06551">
        <ele>269.9</ele>
        <time>2019-05-22T08:43:14Z</time>
      </trkpt>
      <trkpt lat="47.64034" lon="6.06545">
        <ele>270.15</ele>
        <time>2019-05-22T08:43:20Z</time>
      </trkpt>
      <trkpt lat="47.64034" lon="6.06537">
        <ele>270.28</ele>
        <time>2019-05-22T08:43:23Z</time>
      </trkpt>
      <trkpt lat="47.64037" lon="6.06528">
        <ele>270.4</ele>
        <time>2019-05-22T08:43:26Z</time>
      </trkpt>
      <trkpt lat="47.6404" lon="6.06522">
        <ele>270.48</ele>
        <time>2019-05-22T08:43:28Z</time>
      </trkpt>
      <trkpt lat="47.64043" lon="6.06515">
        <ele>270.56</ele>
        <time>2019-05-22T08:43:30Z</time>
      </trkpt>
      <trkpt lat="47.64046" lon="6.06508">
        <ele>270.64</ele>
        <time>2019-05-22T08:43:32Z</time>
      </trkpt>
      <trkpt lat="47.6405" lon="6.06501">
        <ele>270.72</ele>
        <time>2019-05-22T08:43:34Z</time>
      </trkpt>
      <trkpt lat="47.64056" lon="6.06493">
        <ele>270.8</ele>
        <time>2019-05-22T08:43:36Z</time>
      </trkpt>
      <trkpt lat="47.64061" lon="6.06486">
        <ele>270.88</ele>
        <time>2019-05-22T08:43:38Z</time>
      </trkpt>
      <trkpt lat="47.64067" lon="6.06475">
        <ele>270.95</ele>
        <time>2019-05-22T08:43:40Z</time>
      </trkpt>
      <trkpt lat="47.64072" lon="6.06467">
        <ele>271.52</ele>
        <time>2019-05-22T08:43:42Z</time>
      </trkpt>
      <trkpt lat="47.64078" lon="6.06458">
        <ele>272.01</ele>
        <time>2019-05-22T08:43:44Z</time>
      </trkpt>
      <trkpt lat="47.64082" lon="6.06449">
        <ele>272.26</ele>
        <time>2019-05-22T08:43:46Z</time>
      </trkpt>
      <trkpt lat="47.64086" lon="6.06443">
        <ele>272.3</ele>
        <time>2019-05-22T08:43:48Z</time>
      </trkpt>
      <trkpt lat="47.64091" lon="6.06436">
        <ele>272.33</ele>
        <time>2019-05-22T08:43:50Z</time>
      </trkpt>
      <trkpt lat="47.64095" lon="6.06427">
        <ele>272.36</ele>
        <time>2019-05-22T08:43:52Z</time>
      </trkpt>
      <trkpt lat="47.64099" lon="6.06419">
        <ele>272.38</ele>
        <time>2019-05-22T08:43:54Z</time>
      </trkpt>
      <trkpt lat="47.64102" lon="6.06411">
        <ele>272.41</ele>
        <time>2019-05-22T08:43:56Z</time>
      </trkpt>
      <trkpt lat="47.64105" lon="6.06401">
        <ele>272.44</ele>
        <time>2019-05-22T08:43:58Z</time>
      </trkpt>
      <trkpt lat="47.64109" lon="6.06393">
        <ele>272.45</ele>
        <time>2019-05-22T08:43:59Z</time>
      </trkpt>
      <trkpt lat="47.64112" lon="6.06388">
        <ele>272.48</ele>
        <time>2019-05-22T08:44:01Z</time>
      </trkpt>
      <trkpt lat="47.64117" lon="6.06381">
        <ele>272.5</ele>
        <time>2019-05-22T08:44:03Z</time>
      </trkpt>
      <trkpt lat="47.6412" lon="6.06374">
        <ele>272.53</ele>
        <time>2019-05-22T08:44:05Z</time>
      </trkpt>
      <trkpt lat="47.64124" lon="6.06368">
        <ele>272.56</ele>
        <time>2019-05-22T08:44:07Z</time>
      </trkpt>
      <trkpt lat="47.64127" lon="6.06361">
        <ele>272.6</ele>
        <time>2019-05-22T08:44:09Z</time>
      </trkpt>
      <trkpt lat="47.6413" lon="6.06354">
        <ele>272.64</ele>
        <time>2019-05-22T08:44:11Z</time>
      </trkpt>
      <trkpt lat="47.64134" lon="6.06346">
        <ele>272.67</ele>
        <time>2019-05-22T08:44:13Z</time>
      </trkpt>
      <trkpt lat="47.64138" lon="6.06338">
        <ele>272.71</ele>
        <time>2019-05-22T08:44:15Z</time>
      </trkpt>
      <trkpt lat="47.64141" lon="6.0633">
        <ele>272.75</ele>
        <time>2019-05-22T08:44:17Z</time>
      </trkpt>
      <trkpt lat="47.64144" lon="6.06323">
        <ele>272.79</ele>
        <time>2019-05-22T08:44:19Z</time>
      </trkpt>
      <trkpt lat="47.64147" lon="6.06314">
        <ele>272.83</ele>
        <time>2019-05-22T08:44:21Z</time>
      </trkpt>
      <trkpt lat="47.64151" lon="6.06306">
        <ele>272.86</ele>
        <time>2019-05-22T08:44:23Z</time>
      </trkpt>
      <trkpt lat="47.64154" lon="6.06299">
        <ele>272.9</ele>
        <time>2019-05-22T08:44:25Z</time>
      </trkpt>
      <trkpt lat="47.64158" lon="6.0629">
        <ele>272.94</ele>
        <time>2019-05-22T08:44:27Z</time>
      </trkpt>
      <trkpt lat="47.64161" lon="6.06281">
        <ele>272.98</ele>
        <time>2019-05-22T08:44:29Z</time>
      </trkpt>
      <trkpt lat="47.64163" lon="6.06273">
        <ele>273.01</ele>
        <time>2019-05-22T08:44:31Z</time>
      </trkpt>
      <trkpt lat="47.64167" lon="6.06264">
        <ele>273.14</ele>
        <time>2019-05-22T08:44:32Z</time>
      </trkpt>
      <trkpt lat="47.64171" lon="6.06253">
        <ele>273.39</ele>
        <time>2019-05-22T08:44:34Z</time>
      </trkpt>
      <trkpt lat="47.64174" lon="6.06248">
        <ele>273.49</ele>
        <time>2019-05-22T08:44:35Z</time>
      </trkpt>
      <trkpt lat="47.64176" lon="6.06242">
        <ele>273.56</ele>
        <time>2019-05-22T08:44:36Z</time>
      </trkpt>
      <trkpt lat="47.64179" lon="6.06236">
        <ele>273.61</ele>
        <time>2019-05-22T08:44:37Z</time>
      </trkpt>
      <trkpt lat="47.64181" lon="6.06229">
        <ele>273.66</ele>
        <time>2019-05-22T08:44:38Z</time>
      </trkpt>
      <trkpt lat="47.64184" lon="6.06222">
        <ele>273.7</ele>
        <time>2019-05-22T08:44:39Z</time>
      </trkpt>
      <trkpt lat="47.64186" lon="6.06216">
        <ele>273.73</ele>
        <time>2019-05-22T08:44:40Z</time>
      </trkpt>
      <trkpt lat="47.64188" lon="6.06209">
        <ele>273.76</ele>
        <time>2019-05-22T08:44:41Z</time>
      </trkpt>
      <trkpt lat="47.6419" lon="6.06202">
        <ele>273.78</ele>
        <time>2019-05-22T08:44:42Z</time>
      </trkpt>
      <trkpt lat="47.64191" lon="6.06196">
        <ele>273.8</ele>
        <time>2019-05-22T08:44:43Z</time>
      </trkpt>
      <trkpt lat="47.64192" lon="6.06188">
        <ele>273.81</ele>
        <time>2019-05-22T08:44:44Z</time>
      </trkpt>
      <trkpt lat="47.64194" lon="6.06181">
        <ele>273.82</ele>
        <time>2019-05-22T08:44:45Z</time>
      </trkpt>
      <trkpt lat="47.64196" lon="6.06175">
        <ele>273.82</ele>
        <time>2019-05-22T08:44:46Z</time>
      </trkpt>
      <trkpt lat="47.642" lon="6.06164">
        <ele>273.82</ele>
        <time>2019-05-22T08:44:48Z</time>
      </trkpt>
      <trkpt lat="47.64201" lon="6.06156">
        <ele>273.82</ele>
        <time>2019-05-22T08:44:50Z</time>
      </trkpt>
      <trkpt lat="47.64202" lon="6.06149">
        <ele>273.82</ele>
        <time>2019-05-22T08:44:52Z</time>
      </trkpt>
      <trkpt lat="47.64203" lon="6.06142">
        <ele>273.81</ele>
        <time>2019-05-22T08:44:55Z</time>
      </trkpt>
      <trkpt lat="47.64205" lon="6.06137">
        <ele>273.81</ele>
        <time>2019-05-22T08:45:25Z</time>
      </trkpt>
      <trkpt lat="47.64207" lon="6.0613">
        <ele>273.94</ele>
        <time>2019-05-22T08:46:11Z</time>
      </trkpt>
      <trkpt lat="47.6421" lon="6.06123">
        <ele>273.96</ele>
        <time>2019-05-22T08:46:13Z</time>
      </trkpt>
      <trkpt lat="47.64215" lon="6.06114">
        <ele>274.16</ele>
        <time>2019-05-22T08:46:15Z</time>
      </trkpt>
      <trkpt lat="47.64219" lon="6.06103">
        <ele>274.25</ele>
        <time>2019-05-22T08:46:16Z</time>
      </trkpt>
      <trkpt lat="47.64221" lon="6.06096">
        <ele>274.33</ele>
        <time>2019-05-22T08:46:17Z</time>
      </trkpt>
      <trkpt lat="47.64223" lon="6.06089">
        <ele>274.41</ele>
        <time>2019-05-22T08:46:18Z</time>
      </trkpt>
      <trkpt lat="47.64226" lon="6.06081">
        <ele>274.47</ele>
        <time>2019-05-22T08:46:19Z</time>
      </trkpt>
      <trkpt lat="47.64228" lon="6.06074">
        <ele>274.53</ele>
        <time>2019-05-22T08:46:20Z</time>
      </trkpt>
      <trkpt lat="47.64231" lon="6.06066">
        <ele>274.58</ele>
        <time>2019-05-22T08:46:21Z</time>
      </trkpt>
      <trkpt lat="47.64235" lon="6.06058">
        <ele>274.64</ele>
        <time>2019-05-22T08:46:22Z</time>
      </trkpt>
      <trkpt lat="47.64238" lon="6.0605">
        <ele>274.69</ele>
        <time>2019-05-22T08:46:23Z</time>
      </trkpt>
      <trkpt lat="47.64241" lon="6.06042">
        <ele>274.73</ele>
        <time>2019-05-22T08:46:24Z</time>
      </trkpt>
      <trkpt lat="47.64244" lon="6.06033">
        <ele>274.77</ele>
        <time>2019-05-22T08:46:25Z</time>
      </trkpt>
      <trkpt lat="47.64246" lon="6.06023">
        <ele>274.79</ele>
        <time>2019-05-22T08:46:26Z</time>
      </trkpt>
      <trkpt lat="47.64248" lon="6.06013">
        <ele>274.8</ele>
        <time>2019-05-22T08:46:27Z</time>
      </trkpt>
      <trkpt lat="47.64251" lon="6.06003">
        <ele>274.8</ele>
        <time>2019-05-22T08:46:28Z</time>
      </trkpt>
      <trkpt lat="47.64253" lon="6.05993">
        <ele>274.78</ele>
        <time>2019-05-22T08:46:29Z</time>
      </trkpt>
      <trkpt lat="47.64255" lon="6.05982">
        <ele>274.74</ele>
        <time>2019-05-22T08:46:30Z</time>
      </trkpt>
      <trkpt lat="47.64257" lon="6.05972">
        <ele>274.69</ele>
        <time>2019-05-22T08:46:31Z</time>
      </trkpt>
      <trkpt lat="47.64258" lon="6.05961">
        <ele>274.64</ele>
        <time>2019-05-22T08:46:32Z</time>
      </trkpt>
      <trkpt lat="47.6426" lon="6.0595">
        <ele>274.57</ele>
        <time>2019-05-22T08:46:33Z</time>
      </trkpt>
      <trkpt lat="47.64261" lon="6.0594">
        <ele>274.51</ele>
        <time>2019-05-22T08:46:34Z</time>
      </trkpt>
      <trkpt lat="47.64262" lon="6.05929">
        <ele>274.44</ele>
        <time>2019-05-22T08:46:35Z</time>
      </trkpt>
      <trkpt lat="47.64264" lon="6.05919">
        <ele>274.36</ele>
        <time>2019-05-22T08:46:36Z</time>
      </trkpt>
      <trkpt lat="47.64266" lon="6.05909">
        <ele>274.29</ele>
        <time>2019-05-22T08:46:37Z</time>
      </trkpt>
      <trkpt lat="47.64266" lon="6.05899">
        <ele>274.23</ele>
        <time>2019-05-22T08:46:38Z</time>
      </trkpt>
      <trkpt lat="47.64267" lon="6.05888">
        <ele>274.16</ele>
        <time>2019-05-22T08:46:39Z</time>
      </trkpt>
      <trkpt lat="47.64268" lon="6.05878">
        <ele>274.11</ele>
        <time>2019-05-22T08:46:40Z</time>
      </trkpt>
      <trkpt lat="47.64269" lon="6.05867">
        <ele>274.06</ele>
        <time>2019-05-22T08:46:41Z</time>
      </trkpt>
      <trkpt lat="47.64269" lon="6.05857">
        <ele>274</ele>
        <time>2019-05-22T08:46:42Z</time>
      </trkpt>
      <trkpt lat="47.6427" lon="6.05847">
        <ele>273.93</ele>
        <time>2019-05-22T08:46:43Z</time>
      </trkpt>
      <trkpt lat="47.64269" lon="6.05838">
        <ele>273.85</ele>
        <time>2019-05-22T08:46:44Z</time>
      </trkpt>
      <trkpt lat="47.64269" lon="6.05827">
        <ele>273.77</ele>
        <time>2019-05-22T08:46:45Z</time>
      </trkpt>
      <trkpt lat="47.64269" lon="6.05817">
        <ele>273.67</ele>
        <time>2019-05-22T08:46:46Z</time>
      </trkpt>
      <trkpt lat="47.64269" lon="6.05807">
        <ele>273.55</ele>
        <time>2019-05-22T08:46:47Z</time>
      </trkpt>
      <trkpt lat="47.64268" lon="6.05796">
        <ele>273.44</ele>
        <time>2019-05-22T08:46:48Z</time>
      </trkpt>
      <trkpt lat="47.64268" lon="6.05786">
        <ele>273.32</ele>
        <time>2019-05-22T08:46:49Z</time>
      </trkpt>
      <trkpt lat="47.64268" lon="6.05775">
        <ele>273.2</ele>
        <time>2019-05-22T08:46:50Z</time>
      </trkpt>
      <trkpt lat="47.64268" lon="6.05764">
        <ele>273.06</ele>
        <time>2019-05-22T08:46:51Z</time>
      </trkpt>
      <trkpt lat="47.64267" lon="6.05753">
        <ele>272.91</ele>
        <time>2019-05-22T08:46:52Z</time>
      </trkpt>
      <trkpt lat="47.64267" lon="6.05741">
        <ele>272.75</ele>
        <time>2019-05-22T08:46:53Z</time>
      </trkpt>
      <trkpt lat="47.64267" lon="6.05729">
        <ele>272.59</ele>
        <time>2019-05-22T08:46:54Z</time>
      </trkpt>
      <trkpt lat="47.64267" lon="6.05718">
        <ele>272.42</ele>
        <time>2019-05-22T08:46:55Z</time>
      </trkpt>
      <trkpt lat="47.64267" lon="6.05706">
        <ele>272.24</ele>
        <time>2019-05-22T08:46:56Z</time>
      </trkpt>
      <trkpt lat="47.64268" lon="6.05694">
        <ele>272.07</ele>
        <time>2019-05-22T08:46:57Z</time>
      </trkpt>
      <trkpt lat="47.64268" lon="6.05682">
        <ele>271.9</ele>
        <time>2019-05-22T08:46:58Z</time>
      </trkpt>
      <trkpt lat="47.64269" lon="6.05669">
        <ele>271.74</ele>
        <time>2019-05-22T08:46:59Z</time>
      </trkpt>
      <trkpt lat="47.64269" lon="6.05657">
        <ele>271.6</ele>
        <time>2019-05-22T08:47:00Z</time>
      </trkpt>
      <trkpt lat="47.6427" lon="6.05645">
        <ele>271.47</ele>
        <time>2019-05-22T08:47:01Z</time>
      </trkpt>
      <trkpt lat="47.64271" lon="6.05633">
        <ele>271.32</ele>
        <time>2019-05-22T08:47:02Z</time>
      </trkpt>
      <trkpt lat="47.64272" lon="6.05621">
        <ele>271.16</ele>
        <time>2019-05-22T08:47:03Z</time>
      </trkpt>
      <trkpt lat="47.64272" lon="6.0561">
        <ele>271.01</ele>
        <time>2019-05-22T08:47:04Z</time>
      </trkpt>
      <trkpt lat="47.64272" lon="6.05599">
        <ele>270.85</ele>
        <time>2019-05-22T08:47:05Z</time>
      </trkpt>
      <trkpt lat="47.64273" lon="6.05588">
        <ele>270.67</ele>
        <time>2019-05-22T08:47:06Z</time>
      </trkpt>
      <trkpt lat="47.64274" lon="6.05577">
        <ele>270.47</ele>
        <time>2019-05-22T08:47:07Z</time>
      </trkpt>
      <trkpt lat="47.64275" lon="6.05567">
        <ele>270.28</ele>
        <time>2019-05-22T08:47:08Z</time>
      </trkpt>
      <trkpt lat="47.64276" lon="6.05556">
        <ele>270.09</ele>
        <time>2019-05-22T08:47:09Z</time>
      </trkpt>
      <trkpt lat="47.64277" lon="6.05546">
        <ele>269.9</ele>
        <time>2019-05-22T08:47:10Z</time>
      </trkpt>
      <trkpt lat="47.64278" lon="6.05536">
        <ele>269.72</ele>
        <time>2019-05-22T08:47:11Z</time>
      </trkpt>
      <trkpt lat="47.6428" lon="6.05526">
        <ele>269.55</ele>
        <time>2019-05-22T08:47:12Z</time>
      </trkpt>
      <trkpt lat="47.64281" lon="6.05516">
        <ele>269.38</ele>
        <time>2019-05-22T08:47:13Z</time>
      </trkpt>
      <trkpt lat="47.64282" lon="6.05506">
        <ele>269.19</ele>
        <time>2019-05-22T08:47:14Z</time>
      </trkpt>
      <trkpt lat="47.64283" lon="6.05496">
        <ele>268.97</ele>
        <time>2019-05-22T08:47:15Z</time>
      </trkpt>
      <trkpt lat="47.64285" lon="6.05486">
        <ele>268.76</ele>
        <time>2019-05-22T08:47:16Z</time>
      </trkpt>
      <trkpt lat="47.64286" lon="6.05476">
        <ele>268.56</ele>
        <time>2019-05-22T08:47:17Z</time>
      </trkpt>
      <trkpt lat="47.64287" lon="6.05466">
        <ele>268.35</ele>
        <time>2019-05-22T08:47:18Z</time>
      </trkpt>
      <trkpt lat="47.64289" lon="6.05455">
        <ele>268.16</ele>
        <time>2019-05-22T08:47:19Z</time>
      </trkpt>
      <trkpt lat="47.6429" lon="6.05445">
        <ele>267.96</ele>
        <time>2019-05-22T08:47:20Z</time>
      </trkpt>
      <trkpt lat="47.64292" lon="6.05434">
        <ele>267.78</ele>
        <time>2019-05-22T08:47:21Z</time>
      </trkpt>
      <trkpt lat="47.64293" lon="6.05423">
        <ele>267.57</ele>
        <time>2019-05-22T08:47:22Z</time>
      </trkpt>
      <trkpt lat="47.64294" lon="6.05412">
        <ele>267.36</ele>
        <time>2019-05-22T08:47:23Z</time>
      </trkpt>
      <trkpt lat="47.64295" lon="6.05401">
        <ele>267.14</ele>
        <time>2019-05-22T08:47:24Z</time>
      </trkpt>
      <trkpt lat="47.64297" lon="6.0539">
        <ele>266.93</ele>
        <time>2019-05-22T08:47:25Z</time>
      </trkpt>
      <trkpt lat="47.64298" lon="6.05378">
        <ele>266.72</ele>
        <time>2019-05-22T08:47:26Z</time>
      </trkpt>
      <trkpt lat="47.64299" lon="6.05367">
        <ele>266.56</ele>
        <time>2019-05-22T08:47:27Z</time>
      </trkpt>
      <trkpt lat="47.643" lon="6.05356">
        <ele>266.41</ele>
        <time>2019-05-22T08:47:28Z</time>
      </trkpt>
      <trkpt lat="47.64302" lon="6.05345">
        <ele>266.24</ele>
        <time>2019-05-22T08:47:29Z</time>
      </trkpt>
      <trkpt lat="47.64303" lon="6.05334">
        <ele>266.11</ele>
        <time>2019-05-22T08:47:30Z</time>
      </trkpt>
      <trkpt lat="47.64304" lon="6.05323">
        <ele>265.97</ele>
        <time>2019-05-22T08:47:31Z</time>
      </trkpt>
      <trkpt lat="47.64305" lon="6.05312">
        <ele>265.8</ele>
        <time>2019-05-22T08:47:32Z</time>
      </trkpt>
      <trkpt lat="47.64307" lon="6.05302">
        <ele>265.61</ele>
        <time>2019-05-22T08:47:33Z</time>
      </trkpt>
      <trkpt lat="47.64308" lon="6.05291">
        <ele>265.41</ele>
        <time>2019-05-22T08:47:34Z</time>
      </trkpt>
      <trkpt lat="47.64309" lon="6.05281">
        <ele>265.2</ele>
        <time>2019-05-22T08:47:35Z</time>
      </trkpt>
      <trkpt lat="47.6431" lon="6.0527">
        <ele>264.99</ele>
        <time>2019-05-22T08:47:36Z</time>
      </trkpt>
      <trkpt lat="47.64312" lon="6.05259">
        <ele>264.78</ele>
        <time>2019-05-22T08:47:37Z</time>
      </trkpt>
      <trkpt lat="47.64313" lon="6.05248">
        <ele>264.56</ele>
        <time>2019-05-22T08:47:38Z</time>
      </trkpt>
      <trkpt lat="47.64314" lon="6.05237">
        <ele>264.36</ele>
        <time>2019-05-22T08:47:39Z</time>
      </trkpt>
      <trkpt lat="47.64315" lon="6.05226">
        <ele>264.13</ele>
        <time>2019-05-22T08:47:40Z</time>
      </trkpt>
      <trkpt lat="47.64316" lon="6.05214">
        <ele>263.9</ele>
        <time>2019-05-22T08:47:41Z</time>
      </trkpt>
      <trkpt lat="47.64318" lon="6.05203">
        <ele>263.65</ele>
        <time>2019-05-22T08:47:42Z</time>
      </trkpt>
      <trkpt lat="47.64319" lon="6.05191">
        <ele>263.43</ele>
        <time>2019-05-22T08:47:43Z</time>
      </trkpt>
      <trkpt lat="47.6432" lon="6.05179">
        <ele>263.21</ele>
        <time>2019-05-22T08:47:44Z</time>
      </trkpt>
      <trkpt lat="47.64321" lon="6.05168">
        <ele>262.98</ele>
        <time>2019-05-22T08:47:45Z</time>
      </trkpt>
      <trkpt lat="47.64321" lon="6.05156">
        <ele>262.76</ele>
        <time>2019-05-22T08:47:46Z</time>
      </trkpt>
      <trkpt lat="47.64322" lon="6.05145">
        <ele>262.55</ele>
        <time>2019-05-22T08:47:47Z</time>
      </trkpt>
      <trkpt lat="47.64323" lon="6.05133">
        <ele>262.33</ele>
        <time>2019-05-22T08:47:48Z</time>
      </trkpt>
      <trkpt lat="47.64325" lon="6.05122">
        <ele>262.12</ele>
        <time>2019-05-22T08:47:49Z</time>
      </trkpt>
      <trkpt lat="47.64326" lon="6.05111">
        <ele>261.94</ele>
        <time>2019-05-22T08:47:50Z</time>
      </trkpt>
      <trkpt lat="47.64327" lon="6.05101">
        <ele>261.77</ele>
        <time>2019-05-22T08:47:51Z</time>
      </trkpt>
      <trkpt lat="47.64329" lon="6.0509">
        <ele>261.6</ele>
        <time>2019-05-22T08:47:52Z</time>
      </trkpt>
      <trkpt lat="47.64331" lon="6.0508">
        <ele>261.43</ele>
        <time>2019-05-22T08:47:53Z</time>
      </trkpt>
      <trkpt lat="47.64332" lon="6.05069">
        <ele>261.26</ele>
        <time>2019-05-22T08:47:54Z</time>
      </trkpt>
      <trkpt lat="47.64333" lon="6.05059">
        <ele>261.11</ele>
        <time>2019-05-22T08:47:55Z</time>
      </trkpt>
      <trkpt lat="47.64334" lon="6.05049">
        <ele>260.96</ele>
        <time>2019-05-22T08:47:56Z</time>
      </trkpt>
      <trkpt lat="47.64335" lon="6.05039">
        <ele>260.8</ele>
        <time>2019-05-22T08:47:57Z</time>
      </trkpt>
      <trkpt lat="47.64337" lon="6.05029">
        <ele>260.62</ele>
        <time>2019-05-22T08:47:58Z</time>
      </trkpt>
      <trkpt lat="47.64338" lon="6.05019">
        <ele>260.43</ele>
        <time>2019-05-22T08:47:59Z</time>
      </trkpt>
      <trkpt lat="47.64339" lon="6.05009">
        <ele>260.25</ele>
        <time>2019-05-22T08:48:00Z</time>
      </trkpt>
      <trkpt lat="47.6434" lon="6.04999">
        <ele>260.07</ele>
        <time>2019-05-22T08:48:01Z</time>
      </trkpt>
      <trkpt lat="47.64341" lon="6.0499">
        <ele>259.88</ele>
        <time>2019-05-22T08:48:02Z</time>
      </trkpt>
      <trkpt lat="47.64343" lon="6.0498">
        <ele>259.68</ele>
        <time>2019-05-22T08:48:03Z</time>
      </trkpt>
      <trkpt lat="47.64345" lon="6.0497">
        <ele>259.5</ele>
        <time>2019-05-22T08:48:04Z</time>
      </trkpt>
      <trkpt lat="47.64346" lon="6.04961">
        <ele>259.33</ele>
        <time>2019-05-22T08:48:05Z</time>
      </trkpt>
      <trkpt lat="47.64347" lon="6.04951">
        <ele>259.18</ele>
        <time>2019-05-22T08:48:06Z</time>
      </trkpt>
      <trkpt lat="47.64348" lon="6.04942">
        <ele>259.06</ele>
        <time>2019-05-22T08:48:07Z</time>
      </trkpt>
      <trkpt lat="47.6435" lon="6.04933">
        <ele>258.93</ele>
        <time>2019-05-22T08:48:08Z</time>
      </trkpt>
      <trkpt lat="47.64351" lon="6.04923">
        <ele>258.78</ele>
        <time>2019-05-22T08:48:09Z</time>
      </trkpt>
      <trkpt lat="47.64352" lon="6.04914">
        <ele>258.62</ele>
        <time>2019-05-22T08:48:10Z</time>
      </trkpt>
      <trkpt lat="47.64354" lon="6.04906">
        <ele>258.44</ele>
        <time>2019-05-22T08:48:11Z</time>
      </trkpt>
      <trkpt lat="47.64356" lon="6.04897">
        <ele>258.29</ele>
        <time>2019-05-22T08:48:12Z</time>
      </trkpt>
      <trkpt lat="47.64357" lon="6.04888">
        <ele>258.11</ele>
        <time>2019-05-22T08:48:13Z</time>
      </trkpt>
      <trkpt lat="47.64359" lon="6.04879">
        <ele>257.91</ele>
        <time>2019-05-22T08:48:14Z</time>
      </trkpt>
      <trkpt lat="47.6436" lon="6.0487">
        <ele>257.72</ele>
        <time>2019-05-22T08:48:15Z</time>
      </trkpt>
      <trkpt lat="47.64361" lon="6.04862">
        <ele>257.53</ele>
        <time>2019-05-22T08:48:16Z</time>
      </trkpt>
      <trkpt lat="47.64363" lon="6.04853">
        <ele>257.34</ele>
        <time>2019-05-22T08:48:17Z</time>
      </trkpt>
      <trkpt lat="47.64364" lon="6.04844">
        <ele>257.16</ele>
        <time>2019-05-22T08:48:18Z</time>
      </trkpt>
      <trkpt lat="47.64364" lon="6.04837">
        <ele>256.96</ele>
        <time>2019-05-22T08:48:19Z</time>
      </trkpt>
      <trkpt lat="47.64366" lon="6.04828">
        <ele>256.72</ele>
        <time>2019-05-22T08:48:20Z</time>
      </trkpt>
      <trkpt lat="47.64367" lon="6.0482">
        <ele>256.54</ele>
        <time>2019-05-22T08:48:21Z</time>
      </trkpt>
      <trkpt lat="47.64368" lon="6.04812">
        <ele>256.41</ele>
        <time>2019-05-22T08:48:22Z</time>
      </trkpt>
      <trkpt lat="47.64369" lon="6.04803">
        <ele>256.27</ele>
        <time>2019-05-22T08:48:23Z</time>
      </trkpt>
      <trkpt lat="47.6437" lon="6.04793">
        <ele>256.11</ele>
        <time>2019-05-22T08:48:24Z</time>
      </trkpt>
      <trkpt lat="47.64371" lon="6.04784">
        <ele>255.95</ele>
        <time>2019-05-22T08:48:25Z</time>
      </trkpt>
      <trkpt lat="47.64373" lon="6.04775">
        <ele>255.81</ele>
        <time>2019-05-22T08:48:26Z</time>
      </trkpt>
      <trkpt lat="47.64375" lon="6.04767">
        <ele>255.67</ele>
        <time>2019-05-22T08:48:27Z</time>
      </trkpt>
      <trkpt lat="47.64376" lon="6.04758">
        <ele>255.56</ele>
        <time>2019-05-22T08:48:28Z</time>
      </trkpt>
      <trkpt lat="47.64378" lon="6.0475">
        <ele>255.45</ele>
        <time>2019-05-22T08:48:29Z</time>
      </trkpt>
      <trkpt lat="47.64379" lon="6.04741">
        <ele>255.33</ele>
        <time>2019-05-22T08:48:30Z</time>
      </trkpt>
      <trkpt lat="47.64381" lon="6.04733">
        <ele>255.17</ele>
        <time>2019-05-22T08:48:31Z</time>
      </trkpt>
      <trkpt lat="47.64382" lon="6.04725">
        <ele>255</ele>
        <time>2019-05-22T08:48:32Z</time>
      </trkpt>
      <trkpt lat="47.64382" lon="6.04717">
        <ele>254.8</ele>
        <time>2019-05-22T08:48:33Z</time>
      </trkpt>
      <trkpt lat="47.64384" lon="6.04708">
        <ele>254.62</ele>
        <time>2019-05-22T08:48:34Z</time>
      </trkpt>
      <trkpt lat="47.64385" lon="6.047">
        <ele>254.45</ele>
        <time>2019-05-22T08:48:35Z</time>
      </trkpt>
      <trkpt lat="47.64386" lon="6.04691">
        <ele>254.34</ele>
        <time>2019-05-22T08:48:36Z</time>
      </trkpt>
      <trkpt lat="47.64387" lon="6.04684">
        <ele>254.24</ele>
        <time>2019-05-22T08:48:37Z</time>
      </trkpt>
      <trkpt lat="47.64388" lon="6.04677">
        <ele>254.14</ele>
        <time>2019-05-22T08:48:38Z</time>
      </trkpt>
      <trkpt lat="47.6439" lon="6.04664">
        <ele>253.9</ele>
        <time>2019-05-22T08:48:40Z</time>
      </trkpt>
      <trkpt lat="47.64392" lon="6.04653">
        <ele>253.67</ele>
        <time>2019-05-22T08:48:42Z</time>
      </trkpt>
      <trkpt lat="47.64394" lon="6.04642">
        <ele>253.31</ele>
        <time>2019-05-22T08:48:44Z</time>
      </trkpt>
      <trkpt lat="47.64397" lon="6.0463">
        <ele>252.84</ele>
        <time>2019-05-22T08:48:46Z</time>
      </trkpt>
      <trkpt lat="47.644" lon="6.04618">
        <ele>252.49</ele>
        <time>2019-05-22T08:48:48Z</time>
      </trkpt>
      <trkpt lat="47.64402" lon="6.04611">
        <ele>252.43</ele>
        <time>2019-05-22T08:48:49Z</time>
      </trkpt>
      <trkpt lat="47.64403" lon="6.04604">
        <ele>252.14</ele>
        <time>2019-05-22T08:48:50Z</time>
      </trkpt>
      <trkpt lat="47.64404" lon="6.04592">
        <ele>251.74</ele>
        <time>2019-05-22T08:48:52Z</time>
      </trkpt>
      <trkpt lat="47.64405" lon="6.04583">
        <ele>251.65</ele>
        <time>2019-05-22T08:48:54Z</time>
      </trkpt>
      <trkpt lat="47.64405" lon="6.04572">
        <ele>251.54</ele>
        <time>2019-05-22T08:48:57Z</time>
      </trkpt>
      <trkpt lat="47.64405" lon="6.04563">
        <ele>251.47</ele>
        <time>2019-05-22T08:48:59Z</time>
      </trkpt>
      <trkpt lat="47.64407" lon="6.04554">
        <ele>251.39</ele>
        <time>2019-05-22T08:49:01Z</time>
      </trkpt>
      <trkpt lat="47.64408" lon="6.04544">
        <ele>251.28</ele>
        <time>2019-05-22T08:49:03Z</time>
      </trkpt>
      <trkpt lat="47.64409" lon="6.04531">
        <ele>251.15</ele>
        <time>2019-05-22T08:49:05Z</time>
      </trkpt>
      <trkpt lat="47.6441" lon="6.04525">
        <ele>250.7</ele>
        <time>2019-05-22T08:49:06Z</time>
      </trkpt>
      <trkpt lat="47.64411" lon="6.04508">
        <ele>250.27</ele>
        <time>2019-05-22T08:49:07Z</time>
      </trkpt>
      <trkpt lat="47.64412" lon="6.04501">
        <ele>249.87</ele>
        <time>2019-05-22T08:49:08Z</time>
      </trkpt>
      <trkpt lat="47.64411" lon="6.04494">
        <ele>249.72</ele>
        <time>2019-05-22T08:49:09Z</time>
      </trkpt>
      <trkpt lat="47.64411" lon="6.04486">
        <ele>249.6</ele>
        <time>2019-05-22T08:49:11Z</time>
      </trkpt>
      <trkpt lat="47.64412" lon="6.04479">
        <ele>249.51</ele>
        <time>2019-05-22T08:49:13Z</time>
      </trkpt>
      <trkpt lat="47.64411" lon="6.0447">
        <ele>249.46</ele>
        <time>2019-05-22T08:49:14Z</time>
      </trkpt>
      <trkpt lat="47.64411" lon="6.04463">
        <ele>249.42</ele>
        <time>2019-05-22T08:49:15Z</time>
      </trkpt>
      <trkpt lat="47.6441" lon="6.04451">
        <ele>249.32</ele>
        <time>2019-05-22T08:49:17Z</time>
      </trkpt>
      <trkpt lat="47.64409" lon="6.04444">
        <ele>249.28</ele>
        <time>2019-05-22T08:49:18Z</time>
      </trkpt>
      <trkpt lat="47.64408" lon="6.04437">
        <ele>249.23</ele>
        <time>2019-05-22T08:49:19Z</time>
      </trkpt>
      <trkpt lat="47.64408" lon="6.0443">
        <ele>248.87</ele>
        <time>2019-05-22T08:49:20Z</time>
      </trkpt>
      <trkpt lat="47.64407" lon="6.04418">
        <ele>248.11</ele>
        <time>2019-05-22T08:49:22Z</time>
      </trkpt>
      <trkpt lat="47.64405" lon="6.04404">
        <ele>247.78</ele>
        <time>2019-05-22T08:49:23Z</time>
      </trkpt>
      <trkpt lat="47.64405" lon="6.04398">
        <ele>247.49</ele>
        <time>2019-05-22T08:49:24Z</time>
      </trkpt>
      <trkpt lat="47.64405" lon="6.04384">
        <ele>246.98</ele>
        <time>2019-05-22T08:49:26Z</time>
      </trkpt>
      <trkpt lat="47.64407" lon="6.04372">
        <ele>246.5</ele>
        <time>2019-05-22T08:49:28Z</time>
      </trkpt>
      <trkpt lat="47.64409" lon="6.0436">
        <ele>246.08</ele>
        <time>2019-05-22T08:49:30Z</time>
      </trkpt>
      <trkpt lat="47.6441" lon="6.04353">
        <ele>245.87</ele>
        <time>2019-05-22T08:49:31Z</time>
      </trkpt>
      <trkpt lat="47.64411" lon="6.04346">
        <ele>245.67</ele>
        <time>2019-05-22T08:49:32Z</time>
      </trkpt>
      <trkpt lat="47.64412" lon="6.04339">
        <ele>245.47</ele>
        <time>2019-05-22T08:49:33Z</time>
      </trkpt>
      <trkpt lat="47.64413" lon="6.04332">
        <ele>245.28</ele>
        <time>2019-05-22T08:49:34Z</time>
      </trkpt>
      <trkpt lat="47.64414" lon="6.04325">
        <ele>245.09</ele>
        <time>2019-05-22T08:49:35Z</time>
      </trkpt>
      <trkpt lat="47.64415" lon="6.04317">
        <ele>244.89</ele>
        <time>2019-05-22T08:49:36Z</time>
      </trkpt>
      <trkpt lat="47.64418" lon="6.04305">
        <ele>244.53</ele>
        <time>2019-05-22T08:49:38Z</time>
      </trkpt>
      <trkpt lat="47.64419" lon="6.04299">
        <ele>244.36</ele>
        <time>2019-05-22T08:49:39Z</time>
      </trkpt>
      <trkpt lat="47.64422" lon="6.04287">
        <ele>244.07</ele>
        <time>2019-05-22T08:49:41Z</time>
      </trkpt>
      <trkpt lat="47.64424" lon="6.04274">
        <ele>243.82</ele>
        <time>2019-05-22T08:49:43Z</time>
      </trkpt>
      <trkpt lat="47.64426" lon="6.04263">
        <ele>243.76</ele>
        <time>2019-05-22T08:49:45Z</time>
      </trkpt>
      <trkpt lat="47.64428" lon="6.04252">
        <ele>243.64</ele>
        <time>2019-05-22T08:49:47Z</time>
      </trkpt>
      <trkpt lat="47.64431" lon="6.04241">
        <ele>243.58</ele>
        <time>2019-05-22T08:49:49Z</time>
      </trkpt>
      <trkpt lat="47.64434" lon="6.0423">
        <ele>243.29</ele>
        <time>2019-05-22T08:49:51Z</time>
      </trkpt>
      <trkpt lat="47.64438" lon="6.04218">
        <ele>243.01</ele>
        <time>2019-05-22T08:49:53Z</time>
      </trkpt>
      <trkpt lat="47.6444" lon="6.04212">
        <ele>242.9</ele>
        <time>2019-05-22T08:49:54Z</time>
      </trkpt>
      <trkpt lat="47.64445" lon="6.04201">
        <ele>242.69</ele>
        <time>2019-05-22T08:49:56Z</time>
      </trkpt>
      <trkpt lat="47.64449" lon="6.0419">
        <ele>242.49</ele>
        <time>2019-05-22T08:49:58Z</time>
      </trkpt>
      <trkpt lat="47.64453" lon="6.04177">
        <ele>242.29</ele>
        <time>2019-05-22T08:50:00Z</time>
      </trkpt>
      <trkpt lat="47.64456" lon="6.04171">
        <ele>242.18</ele>
        <time>2019-05-22T08:50:01Z</time>
      </trkpt>
      <trkpt lat="47.6446" lon="6.04161">
        <ele>241.95</ele>
        <time>2019-05-22T08:50:03Z</time>
      </trkpt>
      <trkpt lat="47.64465" lon="6.04149">
        <ele>241.71</ele>
        <time>2019-05-22T08:50:05Z</time>
      </trkpt>
      <trkpt lat="47.64468" lon="6.04144">
        <ele>241.6</ele>
        <time>2019-05-22T08:50:06Z</time>
      </trkpt>
      <trkpt lat="47.64471" lon="6.04138">
        <ele>241.49</ele>
        <time>2019-05-22T08:50:07Z</time>
      </trkpt>
      <trkpt lat="47.64473" lon="6.04132">
        <ele>241.38</ele>
        <time>2019-05-22T08:50:08Z</time>
      </trkpt>
      <trkpt lat="47.64476" lon="6.04126">
        <ele>241.28</ele>
        <time>2019-05-22T08:50:09Z</time>
      </trkpt>
      <trkpt lat="47.64479" lon="6.0412">
        <ele>241.2</ele>
        <time>2019-05-22T08:50:10Z</time>
      </trkpt>
      <trkpt lat="47.64482" lon="6.04114">
        <ele>241.12</ele>
        <time>2019-05-22T08:50:11Z</time>
      </trkpt>
      <trkpt lat="47.64485" lon="6.04109">
        <ele>241.04</ele>
        <time>2019-05-22T08:50:12Z</time>
      </trkpt>
      <trkpt lat="47.64488" lon="6.04103">
        <ele>240.96</ele>
        <time>2019-05-22T08:50:13Z</time>
      </trkpt>
      <trkpt lat="47.64493" lon="6.04093">
        <ele>240.77</ele>
        <time>2019-05-22T08:50:15Z</time>
      </trkpt>
      <trkpt lat="47.64496" lon="6.04088">
        <ele>240.67</ele>
        <time>2019-05-22T08:50:16Z</time>
      </trkpt>
      <trkpt lat="47.64502" lon="6.04079">
        <ele>240.48</ele>
        <time>2019-05-22T08:50:18Z</time>
      </trkpt>
      <trkpt lat="47.64506" lon="6.04071">
        <ele>240.33</ele>
        <time>2019-05-22T08:50:20Z</time>
      </trkpt>
      <trkpt lat="47.64511" lon="6.04063">
        <ele>240.29</ele>
        <time>2019-05-22T08:50:22Z</time>
      </trkpt>
      <trkpt lat="47.64515" lon="6.04055">
        <ele>240.26</ele>
        <time>2019-05-22T08:50:24Z</time>
      </trkpt>
      <trkpt lat="47.64519" lon="6.04047">
        <ele>240.22</ele>
        <time>2019-05-22T08:50:26Z</time>
      </trkpt>
      <trkpt lat="47.64523" lon="6.04039">
        <ele>240.17</ele>
        <time>2019-05-22T08:50:28Z</time>
      </trkpt>
      <trkpt lat="47.64527" lon="6.04033">
        <ele>240.12</ele>
        <time>2019-05-22T08:50:30Z</time>
      </trkpt>
      <trkpt lat="47.64531" lon="6.04026">
        <ele>240.05</ele>
        <time>2019-05-22T08:50:33Z</time>
      </trkpt>
      <trkpt lat="47.64535" lon="6.04021">
        <ele>240</ele>
        <time>2019-05-22T08:50:35Z</time>
      </trkpt>
      <trkpt lat="47.64539" lon="6.04014">
        <ele>239.95</ele>
        <time>2019-05-22T08:50:37Z</time>
      </trkpt>
      <trkpt lat="47.64542" lon="6.04008">
        <ele>239.9</ele>
        <time>2019-05-22T08:50:39Z</time>
      </trkpt>
      <trkpt lat="47.64545" lon="6.04003">
        <ele>239.84</ele>
        <time>2019-05-22T08:50:41Z</time>
      </trkpt>
      <trkpt lat="47.64548" lon="6.03997">
        <ele>239.79</ele>
        <time>2019-05-22T08:50:43Z</time>
      </trkpt>
      <trkpt lat="47.64551" lon="6.03991">
        <ele>239.74</ele>
        <time>2019-05-22T08:50:45Z</time>
      </trkpt>
      <trkpt lat="47.64554" lon="6.03986">
        <ele>239.68</ele>
        <time>2019-05-22T08:50:47Z</time>
      </trkpt>
      <trkpt lat="47.64557" lon="6.03981">
        <ele>239.63</ele>
        <time>2019-05-22T08:50:49Z</time>
      </trkpt>
      <trkpt lat="47.64561" lon="6.03973">
        <ele>239.56</ele>
        <time>2019-05-22T08:50:52Z</time>
      </trkpt>
      <trkpt lat="47.64566" lon="6.03966">
        <ele>239.49</ele>
        <time>2019-05-22T08:50:55Z</time>
      </trkpt>
      <trkpt lat="47.64569" lon="6.0396">
        <ele>239.44</ele>
        <time>2019-05-22T08:50:57Z</time>
      </trkpt>
      <trkpt lat="47.64573" lon="6.03953">
        <ele>239.36</ele>
        <time>2019-05-22T08:51:00Z</time>
      </trkpt>
      <trkpt lat="47.64576" lon="6.03946">
        <ele>239.29</ele>
        <time>2019-05-22T08:51:03Z</time>
      </trkpt>
      <trkpt lat="47.64581" lon="6.0394">
        <ele>239.21</ele>
        <time>2019-05-22T08:51:06Z</time>
      </trkpt>
      <trkpt lat="47.64585" lon="6.03936">
        <ele>239.17</ele>
        <time>2019-05-22T08:51:08Z</time>
      </trkpt>
      <trkpt lat="47.64589" lon="6.03931">
        <ele>239.12</ele>
        <time>2019-05-22T08:51:10Z</time>
      </trkpt>
      <trkpt lat="47.64594" lon="6.03925">
        <ele>239.06</ele>
        <time>2019-05-22T08:51:13Z</time>
      </trkpt>
      <trkpt lat="47.64597" lon="6.03919">
        <ele>238.99</ele>
        <time>2019-05-22T08:51:16Z</time>
      </trkpt>
      <trkpt lat="47.64601" lon="6.03914">
        <ele>238.92</ele>
        <time>2019-05-22T08:51:19Z</time>
      </trkpt>
      <trkpt lat="47.64605" lon="6.03907">
        <ele>238.84</ele>
        <time>2019-05-22T08:51:22Z</time>
      </trkpt>
      <trkpt lat="47.64609" lon="6.039">
        <ele>238.78</ele>
        <time>2019-05-22T08:51:25Z</time>
      </trkpt>
      <trkpt lat="47.64612" lon="6.03895">
        <ele>238.73</ele>
        <time>2019-05-22T08:51:27Z</time>
      </trkpt>
      <trkpt lat="47.64616" lon="6.0389">
        <ele>238.69</ele>
        <time>2019-05-22T08:51:29Z</time>
      </trkpt>
      <trkpt lat="47.64619" lon="6.03885">
        <ele>238.65</ele>
        <time>2019-05-22T08:51:31Z</time>
      </trkpt>
      <trkpt lat="47.64623" lon="6.03879">
        <ele>238.61</ele>
        <time>2019-05-22T08:51:33Z</time>
      </trkpt>
      <trkpt lat="47.64628" lon="6.03873">
        <ele>238.57</ele>
        <time>2019-05-22T08:51:35Z</time>
      </trkpt>
      <trkpt lat="47.64634" lon="6.03866">
        <ele>238.41</ele>
        <time>2019-05-22T08:51:37Z</time>
      </trkpt>
      <trkpt lat="47.6464" lon="6.03859">
        <ele>238.33</ele>
        <time>2019-05-22T08:51:39Z</time>
      </trkpt>
      <trkpt lat="47.64644" lon="6.03854">
        <ele>238.31</ele>
        <time>2019-05-22T08:51:40Z</time>
      </trkpt>
      <trkpt lat="47.64651" lon="6.03845">
        <ele>238.28</ele>
        <time>2019-05-22T08:51:42Z</time>
      </trkpt>
      <trkpt lat="47.64657" lon="6.03837">
        <ele>238.25</ele>
        <time>2019-05-22T08:51:44Z</time>
      </trkpt>
      <trkpt lat="47.64662" lon="6.03829">
        <ele>238</ele>
        <time>2019-05-22T08:51:46Z</time>
      </trkpt>
      <trkpt lat="47.64669" lon="6.03821">
        <ele>237.76</ele>
        <time>2019-05-22T08:51:48Z</time>
      </trkpt>
      <trkpt lat="47.64675" lon="6.03813">
        <ele>237.56</ele>
        <time>2019-05-22T08:51:50Z</time>
      </trkpt>
      <trkpt lat="47.64681" lon="6.03804">
        <ele>237.5</ele>
        <time>2019-05-22T08:51:52Z</time>
      </trkpt>
      <trkpt lat="47.64687" lon="6.03797">
        <ele>237.48</ele>
        <time>2019-05-22T08:51:54Z</time>
      </trkpt>
      <trkpt lat="47.64691" lon="6.03791">
        <ele>237.46</ele>
        <time>2019-05-22T08:51:56Z</time>
      </trkpt>
      <trkpt lat="47.64696" lon="6.03786">
        <ele>237.43</ele>
        <time>2019-05-22T08:51:58Z</time>
      </trkpt>
      <trkpt lat="47.647" lon="6.0378">
        <ele>237.4</ele>
        <time>2019-05-22T08:52:00Z</time>
      </trkpt>
      <trkpt lat="47.64704" lon="6.03774">
        <ele>237.37</ele>
        <time>2019-05-22T08:52:02Z</time>
      </trkpt>
      <trkpt lat="47.64709" lon="6.03767">
        <ele>237.34</ele>
        <time>2019-05-22T08:52:04Z</time>
      </trkpt>
      <trkpt lat="47.64714" lon="6.0376">
        <ele>237.31</ele>
        <time>2019-05-22T08:52:06Z</time>
      </trkpt>
      <trkpt lat="47.64719" lon="6.03755">
        <ele>237.27</ele>
        <time>2019-05-22T08:52:08Z</time>
      </trkpt>
      <trkpt lat="47.64723" lon="6.03749">
        <ele>237.23</ele>
        <time>2019-05-22T08:52:10Z</time>
      </trkpt>
      <trkpt lat="47.64725" lon="6.03742">
        <ele>237.19</ele>
        <time>2019-05-22T08:52:12Z</time>
      </trkpt>
      <trkpt lat="47.64728" lon="6.03734">
        <ele>237.15</ele>
        <time>2019-05-22T08:52:14Z</time>
      </trkpt>
      <trkpt lat="47.6473" lon="6.03727">
        <ele>237.1</ele>
        <time>2019-05-22T08:52:16Z</time>
      </trkpt>
      <trkpt lat="47.64732" lon="6.0372">
        <ele>237.05</ele>
        <time>2019-05-22T08:52:18Z</time>
      </trkpt>
      <trkpt lat="47.64733" lon="6.03714">
        <ele>237</ele>
        <time>2019-05-22T08:52:20Z</time>
      </trkpt>
      <trkpt lat="47.64733" lon="6.03707">
        <ele>236.92</ele>
        <time>2019-05-22T08:52:23Z</time>
      </trkpt>
      <trkpt lat="47.64729" lon="6.03701">
        <ele>236.65</ele>
        <time>2019-05-22T08:52:45Z</time>
      </trkpt>
      <trkpt lat="47.64727" lon="6.03695">
        <ele>236.49</ele>
        <time>2019-05-22T08:52:48Z</time>
      </trkpt>
      <trkpt lat="47.64725" lon="6.03688">
        <ele>236.08</ele>
        <time>2019-05-22T08:52:50Z</time>
      </trkpt>
      <trkpt lat="47.64721" lon="6.03678">
        <ele>235.34</ele>
        <time>2019-05-22T08:52:52Z</time>
      </trkpt>
      <trkpt lat="47.64719" lon="6.03671">
        <ele>235.05</ele>
        <time>2019-05-22T08:52:53Z</time>
      </trkpt>
      <trkpt lat="47.64716" lon="6.03664">
        <ele>234.8</ele>
        <time>2019-05-22T08:52:54Z</time>
      </trkpt>
      <trkpt lat="47.64714" lon="6.03657">
        <ele>234.59</ele>
        <time>2019-05-22T08:52:55Z</time>
      </trkpt>
      <trkpt lat="47.64711" lon="6.03649">
        <ele>234.42</ele>
        <time>2019-05-22T08:52:56Z</time>
      </trkpt>
      <trkpt lat="47.64705" lon="6.03633">
        <ele>234.27</ele>
        <time>2019-05-22T08:52:57Z</time>
      </trkpt>
      <trkpt lat="47.64703" lon="6.03624">
        <ele>234.13</ele>
        <time>2019-05-22T08:52:58Z</time>
      </trkpt>
      <trkpt lat="47.647" lon="6.03616">
        <ele>234.01</ele>
        <time>2019-05-22T08:52:59Z</time>
      </trkpt>
      <trkpt lat="47.64697" lon="6.03608">
        <ele>233.89</ele>
        <time>2019-05-22T08:53:00Z</time>
      </trkpt>
      <trkpt lat="47.64694" lon="6.03599">
        <ele>233.78</ele>
        <time>2019-05-22T08:53:01Z</time>
      </trkpt>
      <trkpt lat="47.64691" lon="6.0359">
        <ele>233.69</ele>
        <time>2019-05-22T08:53:02Z</time>
      </trkpt>
      <trkpt lat="47.64688" lon="6.03582">
        <ele>233.6</ele>
        <time>2019-05-22T08:53:03Z</time>
      </trkpt>
      <trkpt lat="47.64685" lon="6.03573">
        <ele>233.51</ele>
        <time>2019-05-22T08:53:04Z</time>
      </trkpt>
      <trkpt lat="47.64682" lon="6.03565">
        <ele>233.43</ele>
        <time>2019-05-22T08:53:05Z</time>
      </trkpt>
      <trkpt lat="47.6468" lon="6.03556">
        <ele>233.35</ele>
        <time>2019-05-22T08:53:06Z</time>
      </trkpt>
      <trkpt lat="47.64677" lon="6.03548">
        <ele>233.23</ele>
        <time>2019-05-22T08:53:07Z</time>
      </trkpt>
      <trkpt lat="47.64674" lon="6.0354">
        <ele>233.11</ele>
        <time>2019-05-22T08:53:08Z</time>
      </trkpt>
      <trkpt lat="47.64672" lon="6.03533">
        <ele>233.01</ele>
        <time>2019-05-22T08:53:09Z</time>
      </trkpt>
      <trkpt lat="47.64669" lon="6.03525">
        <ele>232.91</ele>
        <time>2019-05-22T08:53:10Z</time>
      </trkpt>
      <trkpt lat="47.64666" lon="6.03518">
        <ele>232.83</ele>
        <time>2019-05-22T08:53:11Z</time>
      </trkpt>
      <trkpt lat="47.64664" lon="6.03512">
        <ele>232.78</ele>
        <time>2019-05-22T08:53:12Z</time>
      </trkpt>
      <trkpt lat="47.6466" lon="6.035">
        <ele>232.72</ele>
        <time>2019-05-22T08:53:14Z</time>
      </trkpt>
      <trkpt lat="47.64657" lon="6.03493">
        <ele>232.71</ele>
        <time>2019-05-22T08:53:16Z</time>
      </trkpt>
      <trkpt lat="47.64656" lon="6.03484">
        <ele>232.72</ele>
        <time>2019-05-22T08:53:19Z</time>
      </trkpt>
      <trkpt lat="47.64656" lon="6.03476">
        <ele>232.72</ele>
        <time>2019-05-22T08:53:21Z</time>
      </trkpt>
      <trkpt lat="47.64659" lon="6.03469">
        <ele>232.71</ele>
        <time>2019-05-22T08:53:23Z</time>
      </trkpt>
      <trkpt lat="47.64668" lon="6.03459">
        <ele>232.55</ele>
        <time>2019-05-22T08:53:25Z</time>
      </trkpt>
      <trkpt lat="47.64675" lon="6.03452">
        <ele>232.46</ele>
        <time>2019-05-22T08:53:27Z</time>
      </trkpt>
      <trkpt lat="47.64684" lon="6.03446">
        <ele>232.51</ele>
        <time>2019-05-22T08:53:29Z</time>
      </trkpt>
      <trkpt lat="47.64688" lon="6.03443">
        <ele>232.62</ele>
        <time>2019-05-22T08:53:30Z</time>
      </trkpt>
      <trkpt lat="47.64692" lon="6.03441">
        <ele>232.75</ele>
        <time>2019-05-22T08:53:31Z</time>
      </trkpt>
      <trkpt lat="47.64697" lon="6.03439">
        <ele>232.84</ele>
        <time>2019-05-22T08:53:32Z</time>
      </trkpt>
      <trkpt lat="47.64701" lon="6.03436">
        <ele>232.9</ele>
        <time>2019-05-22T08:53:33Z</time>
      </trkpt>
      <trkpt lat="47.64705" lon="6.03433">
        <ele>232.94</ele>
        <time>2019-05-22T08:53:34Z</time>
      </trkpt>
      <trkpt lat="47.64709" lon="6.0343">
        <ele>233</ele>
        <time>2019-05-22T08:53:35Z</time>
      </trkpt>
      <trkpt lat="47.64714" lon="6.03427">
        <ele>233.07</ele>
        <time>2019-05-22T08:53:36Z</time>
      </trkpt>
      <trkpt lat="47.64718" lon="6.03424">
        <ele>233.13</ele>
        <time>2019-05-22T08:53:37Z</time>
      </trkpt>
      <trkpt lat="47.64722" lon="6.03421">
        <ele>233.2</ele>
        <time>2019-05-22T08:53:38Z</time>
      </trkpt>
      <trkpt lat="47.64726" lon="6.03418">
        <ele>233.27</ele>
        <time>2019-05-22T08:53:39Z</time>
      </trkpt>
      <trkpt lat="47.6473" lon="6.03415">
        <ele>233.34</ele>
        <time>2019-05-22T08:53:40Z</time>
      </trkpt>
      <trkpt lat="47.64738" lon="6.03409">
        <ele>233.46</ele>
        <time>2019-05-22T08:53:42Z</time>
      </trkpt>
      <trkpt lat="47.64746" lon="6.03403">
        <ele>233.58</ele>
        <time>2019-05-22T08:53:44Z</time>
      </trkpt>
      <trkpt lat="47.64754" lon="6.03397">
        <ele>233.7</ele>
        <time>2019-05-22T08:53:46Z</time>
      </trkpt>
      <trkpt lat="47.64762" lon="6.03391">
        <ele>233.83</ele>
        <time>2019-05-22T08:53:48Z</time>
      </trkpt>
      <trkpt lat="47.6477" lon="6.03385">
        <ele>233.95</ele>
        <time>2019-05-22T08:53:50Z</time>
      </trkpt>
      <trkpt lat="47.64778" lon="6.0338">
        <ele>234</ele>
        <time>2019-05-22T08:53:52Z</time>
      </trkpt>
      <trkpt lat="47.64785" lon="6.03378">
        <ele>234.02</ele>
        <time>2019-05-22T08:53:54Z</time>
      </trkpt>
      <trkpt lat="47.64792" lon="6.03374">
        <ele>233.98</ele>
        <time>2019-05-22T08:53:56Z</time>
      </trkpt>
      <trkpt lat="47.648" lon="6.03369">
        <ele>233.93</ele>
        <time>2019-05-22T08:53:58Z</time>
      </trkpt>
      <trkpt lat="47.64808" lon="6.03364">
        <ele>233.83</ele>
        <time>2019-05-22T08:54:00Z</time>
      </trkpt>
      <trkpt lat="47.64813" lon="6.03361">
        <ele>233.75</ele>
        <time>2019-05-22T08:54:01Z</time>
      </trkpt>
      <trkpt lat="47.64818" lon="6.03358">
        <ele>233.69</ele>
        <time>2019-05-22T08:54:02Z</time>
      </trkpt>
      <trkpt lat="47.64823" lon="6.03355">
        <ele>233.63</ele>
        <time>2019-05-22T08:54:03Z</time>
      </trkpt>
      <trkpt lat="47.64829" lon="6.03353">
        <ele>233.52</ele>
        <time>2019-05-22T08:54:04Z</time>
      </trkpt>
      <trkpt lat="47.64834" lon="6.03351">
        <ele>233.41</ele>
        <time>2019-05-22T08:54:05Z</time>
      </trkpt>
      <trkpt lat="47.6484" lon="6.03348">
        <ele>233.31</ele>
        <time>2019-05-22T08:54:06Z</time>
      </trkpt>
      <trkpt lat="47.64845" lon="6.03346">
        <ele>233.2</ele>
        <time>2019-05-22T08:54:07Z</time>
      </trkpt>
      <trkpt lat="47.64851" lon="6.03343">
        <ele>233.08</ele>
        <time>2019-05-22T08:54:08Z</time>
      </trkpt>
      <trkpt lat="47.64857" lon="6.03341">
        <ele>232.97</ele>
        <time>2019-05-22T08:54:09Z</time>
      </trkpt>
      <trkpt lat="47.64862" lon="6.03338">
        <ele>232.87</ele>
        <time>2019-05-22T08:54:10Z</time>
      </trkpt>
      <trkpt lat="47.64868" lon="6.03335">
        <ele>232.77</ele>
        <time>2019-05-22T08:54:11Z</time>
      </trkpt>
      <trkpt lat="47.64873" lon="6.03333">
        <ele>232.68</ele>
        <time>2019-05-22T08:54:12Z</time>
      </trkpt>
      <trkpt lat="47.64878" lon="6.03329">
        <ele>232.6</ele>
        <time>2019-05-22T08:54:13Z</time>
      </trkpt>
      <trkpt lat="47.64882" lon="6.03326">
        <ele>232.51</ele>
        <time>2019-05-22T08:54:14Z</time>
      </trkpt>
      <trkpt lat="47.64887" lon="6.03324">
        <ele>232.41</ele>
        <time>2019-05-22T08:54:15Z</time>
      </trkpt>
      <trkpt lat="47.64891" lon="6.03321">
        <ele>232.32</ele>
        <time>2019-05-22T08:54:16Z</time>
      </trkpt>
      <trkpt lat="47.64895" lon="6.03319">
        <ele>232.23</ele>
        <time>2019-05-22T08:54:17Z</time>
      </trkpt>
      <trkpt lat="47.64904" lon="6.03315">
        <ele>232.03</ele>
        <time>2019-05-22T08:54:19Z</time>
      </trkpt>
      <trkpt lat="47.64912" lon="6.03311">
        <ele>231.83</ele>
        <time>2019-05-22T08:54:21Z</time>
      </trkpt>
      <trkpt lat="47.6492" lon="6.03307">
        <ele>231.53</ele>
        <time>2019-05-22T08:54:23Z</time>
      </trkpt>
      <trkpt lat="47.64929" lon="6.03302">
        <ele>231.09</ele>
        <time>2019-05-22T08:54:25Z</time>
      </trkpt>
      <trkpt lat="47.64933" lon="6.033">
        <ele>230.87</ele>
        <time>2019-05-22T08:54:26Z</time>
      </trkpt>
      <trkpt lat="47.64941" lon="6.03296">
        <ele>230.48</ele>
        <time>2019-05-22T08:54:28Z</time>
      </trkpt>
      <trkpt lat="47.64949" lon="6.03291">
        <ele>230.02</ele>
        <time>2019-05-22T08:54:30Z</time>
      </trkpt>
      <trkpt lat="47.64956" lon="6.03286">
        <ele>229.88</ele>
        <time>2019-05-22T08:54:32Z</time>
      </trkpt>
      <trkpt lat="47.6496" lon="6.03283">
        <ele>229.8</ele>
        <time>2019-05-22T08:54:34Z</time>
      </trkpt>
      <trkpt lat="47.64965" lon="6.03279">
        <ele>229.73</ele>
        <time>2019-05-22T08:54:36Z</time>
      </trkpt>
      <trkpt lat="47.6497" lon="6.03275">
        <ele>229.66</ele>
        <time>2019-05-22T08:54:38Z</time>
      </trkpt>
      <trkpt lat="47.64976" lon="6.03271">
        <ele>229.57</ele>
        <time>2019-05-22T08:54:40Z</time>
      </trkpt>
      <trkpt lat="47.64982" lon="6.03266">
        <ele>229.49</ele>
        <time>2019-05-22T08:54:42Z</time>
      </trkpt>
      <trkpt lat="47.64988" lon="6.03262">
        <ele>229.43</ele>
        <time>2019-05-22T08:54:44Z</time>
      </trkpt>
      <trkpt lat="47.64995" lon="6.03258">
        <ele>229.37</ele>
        <time>2019-05-22T08:54:46Z</time>
      </trkpt>
      <trkpt lat="47.65" lon="6.03255">
        <ele>229.31</ele>
        <time>2019-05-22T08:54:48Z</time>
      </trkpt>
      <trkpt lat="47.65005" lon="6.03251">
        <ele>229.23</ele>
        <time>2019-05-22T08:54:50Z</time>
      </trkpt>
      <trkpt lat="47.6501" lon="6.03248">
        <ele>229.14</ele>
        <time>2019-05-22T08:54:52Z</time>
      </trkpt>
      <trkpt lat="47.65015" lon="6.03244">
        <ele>228.98</ele>
        <time>2019-05-22T08:54:55Z</time>
      </trkpt>
      <trkpt lat="47.6502" lon="6.03241">
        <ele>228.85</ele>
        <time>2019-05-22T08:54:57Z</time>
      </trkpt>
      <trkpt lat="47.65025" lon="6.03236">
        <ele>228.73</ele>
        <time>2019-05-22T08:54:59Z</time>
      </trkpt>
      <trkpt lat="47.6503" lon="6.03231">
        <ele>228.61</ele>
        <time>2019-05-22T08:55:01Z</time>
      </trkpt>
      <trkpt lat="47.65035" lon="6.03222">
        <ele>228.51</ele>
        <time>2019-05-22T08:55:03Z</time>
      </trkpt>
      <trkpt lat="47.65038" lon="6.03216">
        <ele>228.41</ele>
        <time>2019-05-22T08:55:05Z</time>
      </trkpt>
      <trkpt lat="47.65041" lon="6.0321">
        <ele>228.32</ele>
        <time>2019-05-22T08:55:07Z</time>
      </trkpt>
      <trkpt lat="47.65044" lon="6.03205">
        <ele>228.22</ele>
        <time>2019-05-22T08:55:09Z</time>
      </trkpt>
      <trkpt lat="47.65047" lon="6.032">
        <ele>228.12</ele>
        <time>2019-05-22T08:55:11Z</time>
      </trkpt>
      <trkpt lat="47.6505" lon="6.03194">
        <ele>228.03</ele>
        <time>2019-05-22T08:55:13Z</time>
      </trkpt>
      <trkpt lat="47.65053" lon="6.03189">
        <ele>227.94</ele>
        <time>2019-05-22T08:55:15Z</time>
      </trkpt>
      <trkpt lat="47.65056" lon="6.03183">
        <ele>227.85</ele>
        <time>2019-05-22T08:55:17Z</time>
      </trkpt>
      <trkpt lat="47.65059" lon="6.03177">
        <ele>227.77</ele>
        <time>2019-05-22T08:55:19Z</time>
      </trkpt>
      <trkpt lat="47.65062" lon="6.03171">
        <ele>227.69</ele>
        <time>2019-05-22T08:55:21Z</time>
      </trkpt>
      <trkpt lat="47.65065" lon="6.03165">
        <ele>227.63</ele>
        <time>2019-05-22T08:55:23Z</time>
      </trkpt>
      <trkpt lat="47.65068" lon="6.03159">
        <ele>227.58</ele>
        <time>2019-05-22T08:55:25Z</time>
      </trkpt>
      <trkpt lat="47.65071" lon="6.03154">
        <ele>227.53</ele>
        <time>2019-05-22T08:55:27Z</time>
      </trkpt>
      <trkpt lat="47.65074" lon="6.03147">
        <ele>227.49</ele>
        <time>2019-05-22T08:55:29Z</time>
      </trkpt>
      <trkpt lat="47.65077" lon="6.03141">
        <ele>227.45</ele>
        <time>2019-05-22T08:55:31Z</time>
      </trkpt>
      <trkpt lat="47.6508" lon="6.03134">
        <ele>227.43</ele>
        <time>2019-05-22T08:55:33Z</time>
      </trkpt>
      <trkpt lat="47.65082" lon="6.03128">
        <ele>227.4</ele>
        <time>2019-05-22T08:55:35Z</time>
      </trkpt>
      <trkpt lat="47.65084" lon="6.03121">
        <ele>227.64</ele>
        <time>2019-05-22T08:56:23Z</time>
      </trkpt>
      <trkpt lat="47.65084" lon="6.03111">
        <ele>227.7</ele>
        <time>2019-05-22T08:56:26Z</time>
      </trkpt>
      <trkpt lat="47.65084" lon="6.03102">
        <ele>227.74</ele>
        <time>2019-05-22T08:56:28Z</time>
      </trkpt>
      <trkpt lat="47.65082" lon="6.03092">
        <ele>227.76</ele>
        <time>2019-05-22T08:56:30Z</time>
      </trkpt>
      <trkpt lat="47.65078" lon="6.03082">
        <ele>227.79</ele>
        <time>2019-05-22T08:56:32Z</time>
      </trkpt>
      <trkpt lat="47.65075" lon="6.03074">
        <ele>227.81</ele>
        <time>2019-05-22T08:56:34Z</time>
      </trkpt>
      <trkpt lat="47.65071" lon="6.03067">
        <ele>227.83</ele>
        <time>2019-05-22T08:56:36Z</time>
      </trkpt>
      <trkpt lat="47.65069" lon="6.03058">
        <ele>227.86</ele>
        <time>2019-05-22T08:56:38Z</time>
      </trkpt>
      <trkpt lat="47.65071" lon="6.03051">
        <ele>227.88</ele>
        <time>2019-05-22T08:56:40Z</time>
      </trkpt>
      <trkpt lat="47.65073" lon="6.03042">
        <ele>227.9</ele>
        <time>2019-05-22T08:56:42Z</time>
      </trkpt>
      <trkpt lat="47.65072" lon="6.03033">
        <ele>227.92</ele>
        <time>2019-05-22T08:56:44Z</time>
      </trkpt>
      <trkpt lat="47.65068" lon="6.03022">
        <ele>227.93</ele>
        <time>2019-05-22T08:56:46Z</time>
      </trkpt>
      <trkpt lat="47.65065" lon="6.03015">
        <ele>227.99</ele>
        <time>2019-05-22T08:56:47Z</time>
      </trkpt>
      <trkpt lat="47.65061" lon="6.03006">
        <ele>228.03</ele>
        <time>2019-05-22T08:56:49Z</time>
      </trkpt>
      <trkpt lat="47.65057" lon="6.02997">
        <ele>228.02</ele>
        <time>2019-05-22T08:56:51Z</time>
      </trkpt>
      <trkpt lat="47.65051" lon="6.02987">
        <ele>228</ele>
        <time>2019-05-22T08:56:53Z</time>
      </trkpt>
      <trkpt lat="47.65048" lon="6.02982">
        <ele>227.98</ele>
        <time>2019-05-22T08:56:54Z</time>
      </trkpt>
      <trkpt lat="47.65045" lon="6.02977">
        <ele>227.95</ele>
        <time>2019-05-22T08:56:55Z</time>
      </trkpt>
      <trkpt lat="47.65041" lon="6.02972">
        <ele>227.92</ele>
        <time>2019-05-22T08:56:56Z</time>
      </trkpt>
      <trkpt lat="47.65037" lon="6.02967">
        <ele>227.92</ele>
        <time>2019-05-22T08:56:57Z</time>
      </trkpt>
      <trkpt lat="47.65034" lon="6.02961">
        <ele>227.92</ele>
        <time>2019-05-22T08:56:58Z</time>
      </trkpt>
      <trkpt lat="47.65031" lon="6.02956">
        <ele>227.93</ele>
        <time>2019-05-22T08:56:59Z</time>
      </trkpt>
      <trkpt lat="47.65028" lon="6.02949">
        <ele>227.94</ele>
        <time>2019-05-22T08:57:00Z</time>
      </trkpt>
      <trkpt lat="47.65022" lon="6.02939">
        <ele>227.94</ele>
        <time>2019-05-22T08:57:02Z</time>
      </trkpt>
      <trkpt lat="47.6502" lon="6.02933">
        <ele>227.98</ele>
        <time>2019-05-22T08:57:03Z</time>
      </trkpt>
      <trkpt lat="47.65015" lon="6.02922">
        <ele>228.06</ele>
        <time>2019-05-22T08:57:05Z</time>
      </trkpt>
      <trkpt lat="47.65011" lon="6.0291">
        <ele>228.17</ele>
        <time>2019-05-22T08:57:07Z</time>
      </trkpt>
      <trkpt lat="47.65009" lon="6.02904">
        <ele>228.23</ele>
        <time>2019-05-22T08:57:08Z</time>
      </trkpt>
      <trkpt lat="47.65005" lon="6.02892">
        <ele>228.29</ele>
        <time>2019-05-22T08:57:10Z</time>
      </trkpt>
      <trkpt lat="47.65002" lon="6.02879">
        <ele>228.34</ele>
        <time>2019-05-22T08:57:12Z</time>
      </trkpt>
      <trkpt lat="47.65" lon="6.02867">
        <ele>228.4</ele>
        <time>2019-05-22T08:57:14Z</time>
      </trkpt>
      <trkpt lat="47.64998" lon="6.02854">
        <ele>228.48</ele>
        <time>2019-05-22T08:57:16Z</time>
      </trkpt>
      <trkpt lat="47.64995" lon="6.0284">
        <ele>228.51</ele>
        <time>2019-05-22T08:57:18Z</time>
      </trkpt>
      <trkpt lat="47.64994" lon="6.02834">
        <ele>228.54</ele>
        <time>2019-05-22T08:57:19Z</time>
      </trkpt>
      <trkpt lat="47.64992" lon="6.02821">
        <ele>228.57</ele>
        <time>2019-05-22T08:57:21Z</time>
      </trkpt>
      <trkpt lat="47.64992" lon="6.02814">
        <ele>228.58</ele>
        <time>2019-05-22T08:57:22Z</time>
      </trkpt>
      <trkpt lat="47.64991" lon="6.02806">
        <ele>228.59</ele>
        <time>2019-05-22T08:57:23Z</time>
      </trkpt>
      <trkpt lat="47.6499" lon="6.028">
        <ele>228.61</ele>
        <time>2019-05-22T08:57:24Z</time>
      </trkpt>
      <trkpt lat="47.64988" lon="6.02792">
        <ele>228.62</ele>
        <time>2019-05-22T08:57:25Z</time>
      </trkpt>
      <trkpt lat="47.64987" lon="6.02785">
        <ele>228.63</ele>
        <time>2019-05-22T08:57:26Z</time>
      </trkpt>
      <trkpt lat="47.64986" lon="6.02778">
        <ele>228.63</ele>
        <time>2019-05-22T08:57:27Z</time>
      </trkpt>
      <trkpt lat="47.64986" lon="6.02771">
        <ele>228.63</ele>
        <time>2019-05-22T08:57:28Z</time>
      </trkpt>
      <trkpt lat="47.64985" lon="6.02763">
        <ele>228.62</ele>
        <time>2019-05-22T08:57:29Z</time>
      </trkpt>
      <trkpt lat="47.64984" lon="6.02755">
        <ele>228.62</ele>
        <time>2019-05-22T08:57:30Z</time>
      </trkpt>
      <trkpt lat="47.64983" lon="6.02748">
        <ele>228.63</ele>
        <time>2019-05-22T08:57:31Z</time>
      </trkpt>
      <trkpt lat="47.64982" lon="6.02741">
        <ele>228.64</ele>
        <time>2019-05-22T08:57:32Z</time>
      </trkpt>
      <trkpt lat="47.64981" lon="6.02733">
        <ele>228.64</ele>
        <time>2019-05-22T08:57:33Z</time>
      </trkpt>
      <trkpt lat="47.6498" lon="6.02727">
        <ele>228.63</ele>
        <time>2019-05-22T08:57:34Z</time>
      </trkpt>
      <trkpt lat="47.64979" lon="6.0272">
        <ele>228.63</ele>
        <time>2019-05-22T08:57:35Z</time>
      </trkpt>
      <trkpt lat="47.64978" lon="6.02713">
        <ele>228.62</ele>
        <time>2019-05-22T08:57:36Z</time>
      </trkpt>
      <trkpt lat="47.64977" lon="6.02705">
        <ele>228.6</ele>
        <time>2019-05-22T08:57:37Z</time>
      </trkpt>
      <trkpt lat="47.64976" lon="6.02697">
        <ele>228.6</ele>
        <time>2019-05-22T08:57:38Z</time>
      </trkpt>
      <trkpt lat="47.64975" lon="6.0269">
        <ele>228.62</ele>
        <time>2019-05-22T08:57:39Z</time>
      </trkpt>
      <trkpt lat="47.64974" lon="6.02683">
        <ele>228.64</ele>
        <time>2019-05-22T08:57:40Z</time>
      </trkpt>
      <trkpt lat="47.64972" lon="6.0267">
        <ele>228.68</ele>
        <time>2019-05-22T08:57:42Z</time>
      </trkpt>
      <trkpt lat="47.64971" lon="6.02664">
        <ele>228.69</ele>
        <time>2019-05-22T08:57:43Z</time>
      </trkpt>
      <trkpt lat="47.64971" lon="6.02657">
        <ele>228.7</ele>
        <time>2019-05-22T08:57:44Z</time>
      </trkpt>
      <trkpt lat="47.6497" lon="6.02644">
        <ele>228.73</ele>
        <time>2019-05-22T08:57:46Z</time>
      </trkpt>
      <trkpt lat="47.64968" lon="6.02631">
        <ele>228.77</ele>
        <time>2019-05-22T08:57:48Z</time>
      </trkpt>
      <trkpt lat="47.64967" lon="6.02619">
        <ele>228.81</ele>
        <time>2019-05-22T08:57:50Z</time>
      </trkpt>
      <trkpt lat="47.64964" lon="6.02608">
        <ele>228.89</ele>
        <time>2019-05-22T08:57:52Z</time>
      </trkpt>
      <trkpt lat="47.64963" lon="6.02596">
        <ele>228.99</ele>
        <time>2019-05-22T08:57:54Z</time>
      </trkpt>
      <trkpt lat="47.64962" lon="6.02586">
        <ele>229.04</ele>
        <time>2019-05-22T08:57:56Z</time>
      </trkpt>
      <trkpt lat="47.64961" lon="6.02575">
        <ele>229.06</ele>
        <time>2019-05-22T08:57:58Z</time>
      </trkpt>
      <trkpt lat="47.6496" lon="6.02564">
        <ele>229.01</ele>
        <time>2019-05-22T08:58:00Z</time>
      </trkpt>
      <trkpt lat="47.64959" lon="6.02552">
        <ele>228.93</ele>
        <time>2019-05-22T08:58:02Z</time>
      </trkpt>
      <trkpt lat="47.64958" lon="6.02539">
        <ele>228.76</ele>
        <time>2019-05-22T08:58:04Z</time>
      </trkpt>
      <trkpt lat="47.64957" lon="6.02527">
        <ele>228.66</ele>
        <time>2019-05-22T08:58:06Z</time>
      </trkpt>
      <trkpt lat="47.64956" lon="6.02518">
        <ele>228.63</ele>
        <time>2019-05-22T08:58:08Z</time>
      </trkpt>
      <trkpt lat="47.64955" lon="6.02511">
        <ele>228.61</ele>
        <time>2019-05-22T08:58:10Z</time>
      </trkpt>
      <trkpt lat="47.64952" lon="6.02505">
        <ele>228.59</ele>
        <time>2019-05-22T08:58:12Z</time>
      </trkpt>
      <trkpt lat="47.64949" lon="6.02497">
        <ele>228.57</ele>
        <time>2019-05-22T08:58:15Z</time>
      </trkpt>
      <trkpt lat="47.64946" lon="6.0249">
        <ele>228.52</ele>
        <time>2019-05-22T08:58:18Z</time>
      </trkpt>
      <trkpt lat="47.64945" lon="6.02481">
        <ele>228.46</ele>
        <time>2019-05-22T08:58:21Z</time>
      </trkpt>
      <trkpt lat="47.64944" lon="6.02474">
        <ele>228.41</ele>
        <time>2019-05-22T08:58:23Z</time>
      </trkpt>
      <trkpt lat="47.64943" lon="6.02465">
        <ele>228.35</ele>
        <time>2019-05-22T08:58:25Z</time>
      </trkpt>
      <trkpt lat="47.64943" lon="6.02456">
        <ele>228.28</ele>
        <time>2019-05-22T08:58:27Z</time>
      </trkpt>
      <trkpt lat="47.64941" lon="6.02446">
        <ele>227.65</ele>
        <time>2019-05-22T08:58:29Z</time>
      </trkpt>
      <trkpt lat="47.64939" lon="6.02433">
        <ele>227.08</ele>
        <time>2019-05-22T08:58:31Z</time>
      </trkpt>
      <trkpt lat="47.64939" lon="6.0242">
        <ele>226.63</ele>
        <time>2019-05-22T08:58:33Z</time>
      </trkpt>
      <trkpt lat="47.64944" lon="6.02411">
        <ele>226.3</ele>
        <time>2019-05-22T08:58:35Z</time>
      </trkpt>
      <trkpt lat="47.64954" lon="6.02398">
        <ele>226.05</ele>
        <time>2019-05-22T08:58:37Z</time>
      </trkpt>
      <trkpt lat="47.64958" lon="6.02393">
        <ele>225.94</ele>
        <time>2019-05-22T08:58:38Z</time>
      </trkpt>
      <trkpt lat="47.64962" lon="6.02389">
        <ele>225.83</ele>
        <time>2019-05-22T08:58:39Z</time>
      </trkpt>
      <trkpt lat="47.64967" lon="6.02378">
        <ele>225.61</ele>
        <time>2019-05-22T08:58:40Z</time>
      </trkpt>
      <trkpt lat="47.64969" lon="6.02371">
        <ele>225.5</ele>
        <time>2019-05-22T08:58:41Z</time>
      </trkpt>
      <trkpt lat="47.64969" lon="6.02359">
        <ele>225.28</ele>
        <time>2019-05-22T08:58:43Z</time>
      </trkpt>
      <trkpt lat="47.64968" lon="6.02347">
        <ele>225.05</ele>
        <time>2019-05-22T08:58:45Z</time>
      </trkpt>
      <trkpt lat="47.64968" lon="6.02334">
        <ele>224.84</ele>
        <time>2019-05-22T08:58:47Z</time>
      </trkpt>
      <trkpt lat="47.64969" lon="6.02328">
        <ele>224.76</ele>
        <time>2019-05-22T08:58:48Z</time>
      </trkpt>
      <trkpt lat="47.64971" lon="6.02315">
        <ele>224.65</ele>
        <time>2019-05-22T08:58:50Z</time>
      </trkpt>
      <trkpt lat="47.64971" lon="6.02308">
        <ele>224.62</ele>
        <time>2019-05-22T08:58:51Z</time>
      </trkpt>
      <trkpt lat="47.64967" lon="6.02295">
        <ele>224.53</ele>
        <time>2019-05-22T08:58:53Z</time>
      </trkpt>
      <trkpt lat="47.64965" lon="6.02289">
        <ele>224.49</ele>
        <time>2019-05-22T08:58:54Z</time>
      </trkpt>
      <trkpt lat="47.64962" lon="6.02276">
        <ele>224.39</ele>
        <time>2019-05-22T08:58:56Z</time>
      </trkpt>
      <trkpt lat="47.6496" lon="6.02265">
        <ele>224.37</ele>
        <time>2019-05-22T08:58:58Z</time>
      </trkpt>
      <trkpt lat="47.64958" lon="6.02255">
        <ele>224.35</ele>
        <time>2019-05-22T08:59:00Z</time>
      </trkpt>
      <trkpt lat="47.64955" lon="6.02246">
        <ele>224.34</ele>
        <time>2019-05-22T08:59:02Z</time>
      </trkpt>
      <trkpt lat="47.64951" lon="6.02235">
        <ele>224.14</ele>
        <time>2019-05-22T08:59:04Z</time>
      </trkpt>
      <trkpt lat="47.64948" lon="6.02229">
        <ele>224.1</ele>
        <time>2019-05-22T08:59:05Z</time>
      </trkpt>
      <trkpt lat="47.64945" lon="6.02218">
        <ele>223.98</ele>
        <time>2019-05-22T08:59:07Z</time>
      </trkpt>
      <trkpt lat="47.64941" lon="6.02208">
        <ele>223.95</ele>
        <time>2019-05-22T08:59:09Z</time>
      </trkpt>
      <trkpt lat="47.64937" lon="6.02199">
        <ele>223.92</ele>
        <time>2019-05-22T08:59:12Z</time>
      </trkpt>
      <trkpt lat="47.64933" lon="6.02191">
        <ele>223.9</ele>
        <time>2019-05-22T08:59:14Z</time>
      </trkpt>
      <trkpt lat="47.6493" lon="6.02185">
        <ele>223.88</ele>
        <time>2019-05-22T08:59:16Z</time>
      </trkpt>
      <trkpt lat="47.64927" lon="6.02176">
        <ele>223.85</ele>
        <time>2019-05-22T08:59:19Z</time>
      </trkpt>
      <trkpt lat="47.64924" lon="6.0217">
        <ele>223.83</ele>
        <time>2019-05-22T08:59:21Z</time>
      </trkpt>
      <trkpt lat="47.64922" lon="6.02161">
        <ele>223.81</ele>
        <time>2019-05-22T08:59:23Z</time>
      </trkpt>
      <trkpt lat="47.6492" lon="6.02153">
        <ele>223.79</ele>
        <time>2019-05-22T08:59:25Z</time>
      </trkpt>
      <trkpt lat="47.64918" lon="6.02144">
        <ele>223.78</ele>
        <time>2019-05-22T08:59:27Z</time>
      </trkpt>
      <trkpt lat="47.64914" lon="6.02133">
        <ele>223.77</ele>
        <time>2019-05-22T08:59:29Z</time>
      </trkpt>
      <trkpt lat="47.64911" lon="6.02123">
        <ele>223.77</ele>
        <time>2019-05-22T08:59:31Z</time>
      </trkpt>
      <trkpt lat="47.64907" lon="6.02114">
        <ele>223.76</ele>
        <time>2019-05-22T08:59:33Z</time>
      </trkpt>
      <trkpt lat="47.64902" lon="6.02104">
        <ele>223.78</ele>
        <time>2019-05-22T08:59:35Z</time>
      </trkpt>
      <trkpt lat="47.64896" lon="6.02093">
        <ele>223.79</ele>
        <time>2019-05-22T08:59:37Z</time>
      </trkpt>
      <trkpt lat="47.64894" lon="6.02087">
        <ele>223.8</ele>
        <time>2019-05-22T08:59:38Z</time>
      </trkpt>
      <trkpt lat="47.64892" lon="6.02081">
        <ele>223.8</ele>
        <time>2019-05-22T08:59:39Z</time>
      </trkpt>
      <trkpt lat="47.64889" lon="6.02074">
        <ele>223.81</ele>
        <time>2019-05-22T08:59:40Z</time>
      </trkpt>
      <trkpt lat="47.64885" lon="6.02067">
        <ele>223.82</ele>
        <time>2019-05-22T08:59:42Z</time>
      </trkpt>
      <trkpt lat="47.6488" lon="6.02068">
        <ele>223.85</ele>
        <time>2019-05-22T08:59:45Z</time>
      </trkpt>
      <trkpt lat="47.6488" lon="6.02076">
        <ele>223.89</ele>
        <time>2019-05-22T08:59:49Z</time>
      </trkpt>
      <trkpt lat="47.64884" lon="6.02083">
        <ele>223.92</ele>
        <time>2019-05-22T08:59:52Z</time>
      </trkpt>
      <trkpt lat="47.64889" lon="6.02088">
        <ele>223.93</ele>
        <time>2019-05-22T08:59:54Z</time>
      </trkpt>
      <trkpt lat="47.64892" lon="6.02091">
        <ele>223.94</ele>
        <time>2019-05-22T08:59:56Z</time>
      </trkpt>
      <trkpt lat="47.64898" lon="6.02093">
        <ele>223.96</ele>
        <time>2019-05-22T08:59:59Z</time>
      </trkpt>
      <trkpt lat="47.64903" lon="6.02091">
        <ele>223.97</ele>
        <time>2019-05-22T09:00:01Z</time>
      </trkpt>
      <trkpt lat="47.64909" lon="6.02086">
        <ele>223.97</ele>
        <time>2019-05-22T09:00:03Z</time>
      </trkpt>
      <trkpt lat="47.64916" lon="6.0208">
        <ele>223.98</ele>
        <time>2019-05-22T09:00:05Z</time>
      </trkpt>
      <trkpt lat="47.64923" lon="6.02074">
        <ele>224</ele>
        <time>2019-05-22T09:00:07Z</time>
      </trkpt>
      <trkpt lat="47.64929" lon="6.02068">
        <ele>224.01</ele>
        <time>2019-05-22T09:00:09Z</time>
      </trkpt>
      <trkpt lat="47.64935" lon="6.02063">
        <ele>224.01</ele>
        <time>2019-05-22T09:00:11Z</time>
      </trkpt>
      <trkpt lat="47.64942" lon="6.02058">
        <ele>224.04</ele>
        <time>2019-05-22T09:00:13Z</time>
      </trkpt>
      <trkpt lat="47.64946" lon="6.02055">
        <ele>224.05</ele>
        <time>2019-05-22T09:00:14Z</time>
      </trkpt>
      <trkpt lat="47.64953" lon="6.0205">
        <ele>224.04</ele>
        <time>2019-05-22T09:00:16Z</time>
      </trkpt>
      <trkpt lat="47.64961" lon="6.02044">
        <ele>224</ele>
        <time>2019-05-22T09:00:18Z</time>
      </trkpt>
      <trkpt lat="47.64965" lon="6.0204">
        <ele>223.98</ele>
        <time>2019-05-22T09:00:19Z</time>
      </trkpt>
      <trkpt lat="47.64972" lon="6.02034">
        <ele>223.94</ele>
        <time>2019-05-22T09:00:20Z</time>
      </trkpt>
      <trkpt lat="47.64976" lon="6.02031">
        <ele>223.9</ele>
        <time>2019-05-22T09:00:21Z</time>
      </trkpt>
      <trkpt lat="47.64981" lon="6.02027">
        <ele>223.86</ele>
        <time>2019-05-22T09:00:22Z</time>
      </trkpt>
      <trkpt lat="47.64986" lon="6.02026">
        <ele>223.81</ele>
        <time>2019-05-22T09:00:23Z</time>
      </trkpt>
      <trkpt lat="47.64992" lon="6.02026">
        <ele>223.78</ele>
        <time>2019-05-22T09:00:24Z</time>
      </trkpt>
      <trkpt lat="47.64998" lon="6.02026">
        <ele>223.75</ele>
        <time>2019-05-22T09:00:25Z</time>
      </trkpt>
      <trkpt lat="47.65003" lon="6.02026">
        <ele>223.71</ele>
        <time>2019-05-22T09:00:26Z</time>
      </trkpt>
      <trkpt lat="47.65008" lon="6.02028">
        <ele>223.69</ele>
        <time>2019-05-22T09:00:27Z</time>
      </trkpt>
      <trkpt lat="47.65012" lon="6.02031">
        <ele>223.67</ele>
        <time>2019-05-22T09:00:28Z</time>
      </trkpt>
      <trkpt lat="47.65019" lon="6.02038">
        <ele>223.64</ele>
        <time>2019-05-22T09:00:30Z</time>
      </trkpt>
      <trkpt lat="47.65025" lon="6.02045">
        <ele>223.63</ele>
        <time>2019-05-22T09:00:32Z</time>
      </trkpt>
      <trkpt lat="47.65031" lon="6.02047">
        <ele>223.62</ele>
        <time>2019-05-22T09:00:34Z</time>
      </trkpt>
      <trkpt lat="47.65038" lon="6.0205">
        <ele>223.6</ele>
        <time>2019-05-22T09:00:36Z</time>
      </trkpt>
      <trkpt lat="47.65044" lon="6.02054">
        <ele>223.59</ele>
        <time>2019-05-22T09:00:38Z</time>
      </trkpt>
      <trkpt lat="47.6505" lon="6.02058">
        <ele>223.57</ele>
        <time>2019-05-22T09:00:40Z</time>
      </trkpt>
      <trkpt lat="47.65056" lon="6.0206">
        <ele>223.55</ele>
        <time>2019-05-22T09:00:42Z</time>
      </trkpt>
      <trkpt lat="47.65062" lon="6.02062">
        <ele>223.53</ele>
        <time>2019-05-22T09:00:44Z</time>
      </trkpt>
      <trkpt lat="47.65068" lon="6.02065">
        <ele>223.48</ele>
        <time>2019-05-22T09:00:47Z</time>
      </trkpt>
      <trkpt lat="47.65074" lon="6.02067">
        <ele>223.45</ele>
        <time>2019-05-22T09:00:49Z</time>
      </trkpt>
      <trkpt lat="47.6508" lon="6.02069">
        <ele>223.41</ele>
        <time>2019-05-22T09:00:51Z</time>
      </trkpt>
      <trkpt lat="47.65085" lon="6.02071">
        <ele>223.37</ele>
        <time>2019-05-22T09:00:53Z</time>
      </trkpt>
      <trkpt lat="47.6509" lon="6.02074">
        <ele>223.33</ele>
        <time>2019-05-22T09:00:55Z</time>
      </trkpt>
      <trkpt lat="47.65095" lon="6.02076">
        <ele>223.28</ele>
        <time>2019-05-22T09:00:57Z</time>
      </trkpt>
      <trkpt lat="47.651" lon="6.02078">
        <ele>223.23</ele>
        <time>2019-05-22T09:00:59Z</time>
      </trkpt>
      <trkpt lat="47.65106" lon="6.02081">
        <ele>223.18</ele>
        <time>2019-05-22T09:01:01Z</time>
      </trkpt>
      <trkpt lat="47.65112" lon="6.02083">
        <ele>223.13</ele>
        <time>2019-05-22T09:01:03Z</time>
      </trkpt>
      <trkpt lat="47.65118" lon="6.02086">
        <ele>223.08</ele>
        <time>2019-05-22T09:01:05Z</time>
      </trkpt>
      <trkpt lat="47.65124" lon="6.02088">
        <ele>223.02</ele>
        <time>2019-05-22T09:01:07Z</time>
      </trkpt>
      <trkpt lat="47.6513" lon="6.0209">
        <ele>222.96</ele>
        <time>2019-05-22T09:01:09Z</time>
      </trkpt>
      <trkpt lat="47.65136" lon="6.02092">
        <ele>222.9</ele>
        <time>2019-05-22T09:01:11Z</time>
      </trkpt>
      <trkpt lat="47.65142" lon="6.02094">
        <ele>222.84</ele>
        <time>2019-05-22T09:01:13Z</time>
      </trkpt>
      <trkpt lat="47.65148" lon="6.02097">
        <ele>222.79</ele>
        <time>2019-05-22T09:01:15Z</time>
      </trkpt>
      <trkpt lat="47.65155" lon="6.02099">
        <ele>222.73</ele>
        <time>2019-05-22T09:01:17Z</time>
      </trkpt>
      <trkpt lat="47.65162" lon="6.02101">
        <ele>222.67</ele>
        <time>2019-05-22T09:01:19Z</time>
      </trkpt>
      <trkpt lat="47.65168" lon="6.02103">
        <ele>222.61</ele>
        <time>2019-05-22T09:01:21Z</time>
      </trkpt>
      <trkpt lat="47.65174" lon="6.02105">
        <ele>222.55</ele>
        <time>2019-05-22T09:01:23Z</time>
      </trkpt>
      <trkpt lat="47.65181" lon="6.02106">
        <ele>222.49</ele>
        <time>2019-05-22T09:01:25Z</time>
      </trkpt>
      <trkpt lat="47.65188" lon="6.02107">
        <ele>222.42</ele>
        <time>2019-05-22T09:01:27Z</time>
      </trkpt>
      <trkpt lat="47.65195" lon="6.02108">
        <ele>222.36</ele>
        <time>2019-05-22T09:01:29Z</time>
      </trkpt>
      <trkpt lat="47.65202" lon="6.02109">
        <ele>222.09</ele>
        <time>2019-05-22T09:01:31Z</time>
      </trkpt>
      <trkpt lat="47.65209" lon="6.02109">
        <ele>221.75</ele>
        <time>2019-05-22T09:01:33Z</time>
      </trkpt>
      <trkpt lat="47.65216" lon="6.0211">
        <ele>221.68</ele>
        <time>2019-05-22T09:01:35Z</time>
      </trkpt>
      <trkpt lat="47.65223" lon="6.02111">
        <ele>221.63</ele>
        <time>2019-05-22T09:01:37Z</time>
      </trkpt>
      <trkpt lat="47.65231" lon="6.02111">
        <ele>221.58</ele>
        <time>2019-05-22T09:01:39Z</time>
      </trkpt>
      <trkpt lat="47.65238" lon="6.0211">
        <ele>221.54</ele>
        <time>2019-05-22T09:01:41Z</time>
      </trkpt>
      <trkpt lat="47.65244" lon="6.0211">
        <ele>221.49</ele>
        <time>2019-05-22T09:01:43Z</time>
      </trkpt>
      <trkpt lat="47.65252" lon="6.02109">
        <ele>221.44</ele>
        <time>2019-05-22T09:01:45Z</time>
      </trkpt>
      <trkpt lat="47.65259" lon="6.02108">
        <ele>221.4</ele>
        <time>2019-05-22T09:01:47Z</time>
      </trkpt>
      <trkpt lat="47.65265" lon="6.02106">
        <ele>221.35</ele>
        <time>2019-05-22T09:01:49Z</time>
      </trkpt>
      <trkpt lat="47.65273" lon="6.02104">
        <ele>221.31</ele>
        <time>2019-05-22T09:01:51Z</time>
      </trkpt>
      <trkpt lat="47.6528" lon="6.02103">
        <ele>221.26</ele>
        <time>2019-05-22T09:01:53Z</time>
      </trkpt>
      <trkpt lat="47.65287" lon="6.021">
        <ele>221.22</ele>
        <time>2019-05-22T09:01:55Z</time>
      </trkpt>
      <trkpt lat="47.65294" lon="6.02098">
        <ele>221.18</ele>
        <time>2019-05-22T09:01:57Z</time>
      </trkpt>
      <trkpt lat="47.65301" lon="6.02096">
        <ele>221.13</ele>
        <time>2019-05-22T09:01:59Z</time>
      </trkpt>
      <trkpt lat="47.65309" lon="6.02093">
        <ele>221.09</ele>
        <time>2019-05-22T09:02:01Z</time>
      </trkpt>
      <trkpt lat="47.65316" lon="6.0209">
        <ele>221.05</ele>
        <time>2019-05-22T09:02:03Z</time>
      </trkpt>
      <trkpt lat="47.65323" lon="6.02087">
        <ele>221.01</ele>
        <time>2019-05-22T09:02:05Z</time>
      </trkpt>
      <trkpt lat="47.65329" lon="6.02085">
        <ele>220.97</ele>
        <time>2019-05-22T09:02:07Z</time>
      </trkpt>
      <trkpt lat="47.65336" lon="6.02082">
        <ele>220.93</ele>
        <time>2019-05-22T09:02:09Z</time>
      </trkpt>
      <trkpt lat="47.65343" lon="6.02078">
        <ele>220.89</ele>
        <time>2019-05-22T09:02:11Z</time>
      </trkpt>
      <trkpt lat="47.6535" lon="6.02074">
        <ele>220.85</ele>
        <time>2019-05-22T09:02:13Z</time>
      </trkpt>
      <trkpt lat="47.65357" lon="6.0207">
        <ele>220.82</ele>
        <time>2019-05-22T09:02:15Z</time>
      </trkpt>
      <trkpt lat="47.65363" lon="6.02066">
        <ele>220.78</ele>
        <time>2019-05-22T09:02:17Z</time>
      </trkpt>
      <trkpt lat="47.6537" lon="6.02062">
        <ele>220.75</ele>
        <time>2019-05-22T09:02:19Z</time>
      </trkpt>
      <trkpt lat="47.65376" lon="6.02058">
        <ele>220.71</ele>
        <time>2019-05-22T09:02:21Z</time>
      </trkpt>
      <trkpt lat="47.65382" lon="6.02053">
        <ele>220.68</ele>
        <time>2019-05-22T09:02:23Z</time>
      </trkpt>
      <trkpt lat="47.65388" lon="6.02049">
        <ele>220.65</ele>
        <time>2019-05-22T09:02:25Z</time>
      </trkpt>
      <trkpt lat="47.65394" lon="6.02044">
        <ele>220.62</ele>
        <time>2019-05-22T09:02:27Z</time>
      </trkpt>
      <trkpt lat="47.65399" lon="6.02039">
        <ele>220.59</ele>
        <time>2019-05-22T09:02:29Z</time>
      </trkpt>
      <trkpt lat="47.65405" lon="6.02034">
        <ele>220.56</ele>
        <time>2019-05-22T09:02:31Z</time>
      </trkpt>
      <trkpt lat="47.65411" lon="6.02029">
        <ele>220.54</ele>
        <time>2019-05-22T09:02:33Z</time>
      </trkpt>
      <trkpt lat="47.65418" lon="6.02024">
        <ele>220.51</ele>
        <time>2019-05-22T09:02:35Z</time>
      </trkpt>
      <trkpt lat="47.65424" lon="6.02018">
        <ele>220.48</ele>
        <time>2019-05-22T09:02:37Z</time>
      </trkpt>
      <trkpt lat="47.6543" lon="6.02013">
        <ele>220.46</ele>
        <time>2019-05-22T09:02:39Z</time>
      </trkpt>
      <trkpt lat="47.65437" lon="6.02008">
        <ele>220.33</ele>
        <time>2019-05-22T09:02:41Z</time>
      </trkpt>
      <trkpt lat="47.65443" lon="6.02003">
        <ele>220.3</ele>
        <time>2019-05-22T09:02:43Z</time>
      </trkpt>
      <trkpt lat="47.65449" lon="6.01999">
        <ele>220.28</ele>
        <time>2019-05-22T09:02:45Z</time>
      </trkpt>
      <trkpt lat="47.65455" lon="6.01994">
        <ele>220.26</ele>
        <time>2019-05-22T09:02:47Z</time>
      </trkpt>
      <trkpt lat="47.65461" lon="6.01989">
        <ele>220.24</ele>
        <time>2019-05-22T09:02:49Z</time>
      </trkpt>
      <trkpt lat="47.65467" lon="6.01984">
        <ele>220.23</ele>
        <time>2019-05-22T09:02:51Z</time>
      </trkpt>
      <trkpt lat="47.65473" lon="6.01978">
        <ele>220.21</ele>
        <time>2019-05-22T09:02:53Z</time>
      </trkpt>
      <trkpt lat="47.65479" lon="6.01973">
        <ele>220.19</ele>
        <time>2019-05-22T09:02:55Z</time>
      </trkpt>
      <trkpt lat="47.65484" lon="6.01969">
        <ele>220.17</ele>
        <time>2019-05-22T09:02:57Z</time>
      </trkpt>
      <trkpt lat="47.6549" lon="6.01965">
        <ele>220.16</ele>
        <time>2019-05-22T09:02:59Z</time>
      </trkpt>
      <trkpt lat="47.65496" lon="6.01962">
        <ele>220.14</ele>
        <time>2019-05-22T09:03:01Z</time>
      </trkpt>
      <trkpt lat="47.65502" lon="6.01959">
        <ele>220.13</ele>
        <time>2019-05-22T09:03:03Z</time>
      </trkpt>
      <trkpt lat="47.65508" lon="6.01955">
        <ele>220.11</ele>
        <time>2019-05-22T09:03:05Z</time>
      </trkpt>
      <trkpt lat="47.65513" lon="6.0195">
        <ele>220.1</ele>
        <time>2019-05-22T09:03:07Z</time>
      </trkpt>
      <trkpt lat="47.65519" lon="6.01946">
        <ele>220.09</ele>
        <time>2019-05-22T09:03:09Z</time>
      </trkpt>
      <trkpt lat="47.65523" lon="6.0194">
        <ele>220.08</ele>
        <time>2019-05-22T09:03:11Z</time>
      </trkpt>
      <trkpt lat="47.65527" lon="6.01935">
        <ele>220.07</ele>
        <time>2019-05-22T09:03:13Z</time>
      </trkpt>
      <trkpt lat="47.65531" lon="6.01929">
        <ele>220.06</ele>
        <time>2019-05-22T09:03:15Z</time>
      </trkpt>
      <trkpt lat="47.65532" lon="6.0192">
        <ele>220.04</ele>
        <time>2019-05-22T09:03:18Z</time>
      </trkpt>
      <trkpt lat="47.6553" lon="6.01912">
        <ele>220.02</ele>
        <time>2019-05-22T09:03:21Z</time>
      </trkpt>
      <trkpt lat="47.65526" lon="6.01903">
        <ele>220.01</ele>
        <time>2019-05-22T09:03:24Z</time>
      </trkpt>
      <trkpt lat="47.65524" lon="6.01897">
        <ele>220</ele>
        <time>2019-05-22T09:03:26Z</time>
      </trkpt>
      <trkpt lat="47.65521" lon="6.01891">
        <ele>219.98</ele>
        <time>2019-05-22T09:03:28Z</time>
      </trkpt>
      <trkpt lat="47.65518" lon="6.01884">
        <ele>219.94</ele>
        <time>2019-05-22T09:03:30Z</time>
      </trkpt>
      <trkpt lat="47.65515" lon="6.01872">
        <ele>219.86</ele>
        <time>2019-05-22T09:03:32Z</time>
      </trkpt>
      <trkpt lat="47.65514" lon="6.01859">
        <ele>219.79</ele>
        <time>2019-05-22T09:03:34Z</time>
      </trkpt>
      <trkpt lat="47.65516" lon="6.01846">
        <ele>219.73</ele>
        <time>2019-05-22T09:03:36Z</time>
      </trkpt>
      <trkpt lat="47.65519" lon="6.0184">
        <ele>219.71</ele>
        <time>2019-05-22T09:03:37Z</time>
      </trkpt>
      <trkpt lat="47.65526" lon="6.0183">
        <ele>219.69</ele>
        <time>2019-05-22T09:03:38Z</time>
      </trkpt>
      <trkpt lat="47.6553" lon="6.01825">
        <ele>219.68</ele>
        <time>2019-05-22T09:03:39Z</time>
      </trkpt>
      <trkpt lat="47.65534" lon="6.01821">
        <ele>219.66</ele>
        <time>2019-05-22T09:03:40Z</time>
      </trkpt>
      <trkpt lat="47.6554" lon="6.01817">
        <ele>219.64</ele>
        <time>2019-05-22T09:03:41Z</time>
      </trkpt>
      <trkpt lat="47.65546" lon="6.01813">
        <ele>219.62</ele>
        <time>2019-05-22T09:03:42Z</time>
      </trkpt>
      <trkpt lat="47.65552" lon="6.01809">
        <ele>219.6</ele>
        <time>2019-05-22T09:03:43Z</time>
      </trkpt>
      <trkpt lat="47.65558" lon="6.01804">
        <ele>219.57</ele>
        <time>2019-05-22T09:03:44Z</time>
      </trkpt>
      <trkpt lat="47.65564" lon="6.018">
        <ele>219.54</ele>
        <time>2019-05-22T09:03:45Z</time>
      </trkpt>
      <trkpt lat="47.65568" lon="6.01794">
        <ele>219.51</ele>
        <time>2019-05-22T09:03:46Z</time>
      </trkpt>
      <trkpt lat="47.65573" lon="6.01788">
        <ele>219.49</ele>
        <time>2019-05-22T09:03:47Z</time>
      </trkpt>
      <trkpt lat="47.65577" lon="6.01782">
        <ele>219.47</ele>
        <time>2019-05-22T09:03:48Z</time>
      </trkpt>
      <trkpt lat="47.65581" lon="6.01775">
        <ele>219.46</ele>
        <time>2019-05-22T09:03:49Z</time>
      </trkpt>
      <trkpt lat="47.65585" lon="6.01769">
        <ele>219.46</ele>
        <time>2019-05-22T09:03:50Z</time>
      </trkpt>
      <trkpt lat="47.65588" lon="6.01763">
        <ele>219.47</ele>
        <time>2019-05-22T09:03:51Z</time>
      </trkpt>
      <trkpt lat="47.65591" lon="6.01757">
        <ele>219.48</ele>
        <time>2019-05-22T09:03:52Z</time>
      </trkpt>
      <trkpt lat="47.65594" lon="6.01752">
        <ele>219.5</ele>
        <time>2019-05-22T09:03:53Z</time>
      </trkpt>
      <trkpt lat="47.65599" lon="6.01742">
        <ele>219.54</ele>
        <time>2019-05-22T09:03:55Z</time>
      </trkpt>
      <trkpt lat="47.65604" lon="6.01733">
        <ele>219.63</ele>
        <time>2019-05-22T09:03:57Z</time>
      </trkpt>
      <trkpt lat="47.65609" lon="6.01725">
        <ele>219.66</ele>
        <time>2019-05-22T09:03:59Z</time>
      </trkpt>
      <trkpt lat="47.65615" lon="6.01716">
        <ele>219.65</ele>
        <time>2019-05-22T09:04:01Z</time>
      </trkpt>
      <trkpt lat="47.65621" lon="6.01709">
        <ele>219.67</ele>
        <time>2019-05-22T09:04:03Z</time>
      </trkpt>
      <trkpt lat="47.65628" lon="6.01701">
        <ele>219.67</ele>
        <time>2019-05-22T09:04:05Z</time>
      </trkpt>
      <trkpt lat="47.65635" lon="6.01695">
        <ele>219.66</ele>
        <time>2019-05-22T09:04:07Z</time>
      </trkpt>
      <trkpt lat="47.65643" lon="6.01691">
        <ele>219.65</ele>
        <time>2019-05-22T09:04:09Z</time>
      </trkpt>
      <trkpt lat="47.65649" lon="6.01685">
        <ele>219.65</ele>
        <time>2019-05-22T09:04:11Z</time>
      </trkpt>
      <trkpt lat="47.65654" lon="6.01681">
        <ele>219.64</ele>
        <time>2019-05-22T09:04:13Z</time>
      </trkpt>
      <trkpt lat="47.6566" lon="6.01687">
        <ele>219.63</ele>
        <time>2019-05-22T09:04:16Z</time>
      </trkpt>
      <trkpt lat="47.65665" lon="6.01695">
        <ele>219.63</ele>
        <time>2019-05-22T09:04:18Z</time>
      </trkpt>
      <trkpt lat="47.6567" lon="6.01701">
        <ele>219.62</ele>
        <time>2019-05-22T09:04:20Z</time>
      </trkpt>
      <trkpt lat="47.65677" lon="6.01703">
        <ele>219.62</ele>
        <time>2019-05-22T09:04:22Z</time>
      </trkpt>
      <trkpt lat="47.65684" lon="6.01702">
        <ele>219.61</ele>
        <time>2019-05-22T09:04:24Z</time>
      </trkpt>
      <trkpt lat="47.65692" lon="6.01698">
        <ele>219.6</ele>
        <time>2019-05-22T09:04:26Z</time>
      </trkpt>
      <trkpt lat="47.65698" lon="6.01694">
        <ele>219.59</ele>
        <time>2019-05-22T09:04:28Z</time>
      </trkpt>
      <trkpt lat="47.65705" lon="6.0169">
        <ele>219.57</ele>
        <time>2019-05-22T09:04:30Z</time>
      </trkpt>
      <trkpt lat="47.65711" lon="6.01687">
        <ele>219.56</ele>
        <time>2019-05-22T09:04:32Z</time>
      </trkpt>
      <trkpt lat="47.65717" lon="6.01683">
        <ele>219.55</ele>
        <time>2019-05-22T09:04:34Z</time>
      </trkpt>
      <trkpt lat="47.65723" lon="6.01679">
        <ele>219.54</ele>
        <time>2019-05-22T09:04:36Z</time>
      </trkpt>
      <trkpt lat="47.65729" lon="6.01676">
        <ele>219.53</ele>
        <time>2019-05-22T09:04:38Z</time>
      </trkpt>
      <trkpt lat="47.65735" lon="6.01672">
        <ele>219.51</ele>
        <time>2019-05-22T09:04:40Z</time>
      </trkpt>
      <trkpt lat="47.6574" lon="6.01669">
        <ele>219.5</ele>
        <time>2019-05-22T09:04:42Z</time>
      </trkpt>
      <trkpt lat="47.65745" lon="6.01666">
        <ele>219.49</ele>
        <time>2019-05-22T09:04:44Z</time>
      </trkpt>
      <trkpt lat="47.65751" lon="6.01662">
        <ele>219.47</ele>
        <time>2019-05-22T09:04:46Z</time>
      </trkpt>
      <trkpt lat="47.65756" lon="6.01657">
        <ele>219.46</ele>
        <time>2019-05-22T09:04:48Z</time>
      </trkpt>
      <trkpt lat="47.65762" lon="6.01652">
        <ele>219.44</ele>
        <time>2019-05-22T09:04:50Z</time>
      </trkpt>
      <trkpt lat="47.65767" lon="6.01647">
        <ele>219.42</ele>
        <time>2019-05-22T09:04:52Z</time>
      </trkpt>
      <trkpt lat="47.65772" lon="6.01643">
        <ele>219.4</ele>
        <time>2019-05-22T09:04:54Z</time>
      </trkpt>
      <trkpt lat="47.65778" lon="6.01638">
        <ele>219.38</ele>
        <time>2019-05-22T09:04:56Z</time>
      </trkpt>
      <trkpt lat="47.65784" lon="6.01633">
        <ele>219.37</ele>
        <time>2019-05-22T09:04:58Z</time>
      </trkpt>
      <trkpt lat="47.6579" lon="6.01628">
        <ele>219.35</ele>
        <time>2019-05-22T09:05:00Z</time>
      </trkpt>
      <trkpt lat="47.65795" lon="6.01623">
        <ele>219.34</ele>
        <time>2019-05-22T09:05:02Z</time>
      </trkpt>
      <trkpt lat="47.65801" lon="6.01618">
        <ele>219.32</ele>
        <time>2019-05-22T09:05:04Z</time>
      </trkpt>
      <trkpt lat="47.65808" lon="6.01613">
        <ele>219.31</ele>
        <time>2019-05-22T09:05:06Z</time>
      </trkpt>
      <trkpt lat="47.65815" lon="6.01607">
        <ele>219.26</ele>
        <time>2019-05-22T09:05:08Z</time>
      </trkpt>
      <trkpt lat="47.65822" lon="6.01602">
        <ele>219.26</ele>
        <time>2019-05-22T09:05:10Z</time>
      </trkpt>
      <trkpt lat="47.65829" lon="6.01596">
        <ele>219.26</ele>
        <time>2019-05-22T09:05:12Z</time>
      </trkpt>
      <trkpt lat="47.65836" lon="6.0159">
        <ele>219.31</ele>
        <time>2019-05-22T09:05:14Z</time>
      </trkpt>
      <trkpt lat="47.65843" lon="6.01584">
        <ele>219.33</ele>
        <time>2019-05-22T09:05:16Z</time>
      </trkpt>
      <trkpt lat="47.65849" lon="6.01579">
        <ele>219.35</ele>
        <time>2019-05-22T09:05:18Z</time>
      </trkpt>
      <trkpt lat="47.65855" lon="6.01575">
        <ele>219.37</ele>
        <time>2019-05-22T09:05:20Z</time>
      </trkpt>
      <trkpt lat="47.6586" lon="6.01571">
        <ele>219.39</ele>
        <time>2019-05-22T09:05:22Z</time>
      </trkpt>
      <trkpt lat="47.65866" lon="6.01567">
        <ele>219.42</ele>
        <time>2019-05-22T09:05:24Z</time>
      </trkpt>
      <trkpt lat="47.65872" lon="6.01563">
        <ele>219.44</ele>
        <time>2019-05-22T09:05:26Z</time>
      </trkpt>
      <trkpt lat="47.65879" lon="6.01559">
        <ele>219.46</ele>
        <time>2019-05-22T09:05:28Z</time>
      </trkpt>
      <trkpt lat="47.65886" lon="6.01556">
        <ele>219.48</ele>
        <time>2019-05-22T09:05:30Z</time>
      </trkpt>
      <trkpt lat="47.65894" lon="6.01551">
        <ele>219.51</ele>
        <time>2019-05-22T09:05:32Z</time>
      </trkpt>
      <trkpt lat="47.659" lon="6.01547">
        <ele>219.53</ele>
        <time>2019-05-22T09:05:34Z</time>
      </trkpt>
      <trkpt lat="47.65907" lon="6.01544">
        <ele>219.55</ele>
        <time>2019-05-22T09:05:36Z</time>
      </trkpt>
      <trkpt lat="47.65913" lon="6.01541">
        <ele>219.57</ele>
        <time>2019-05-22T09:05:38Z</time>
      </trkpt>
      <trkpt lat="47.65919" lon="6.01538">
        <ele>219.6</ele>
        <time>2019-05-22T09:05:40Z</time>
      </trkpt>
      <trkpt lat="47.65925" lon="6.01535">
        <ele>219.62</ele>
        <time>2019-05-22T09:05:42Z</time>
      </trkpt>
      <trkpt lat="47.65932" lon="6.01532">
        <ele>219.64</ele>
        <time>2019-05-22T09:05:44Z</time>
      </trkpt>
      <trkpt lat="47.65938" lon="6.0153">
        <ele>219.66</ele>
        <time>2019-05-22T09:05:46Z</time>
      </trkpt>
      <trkpt lat="47.65945" lon="6.01527">
        <ele>219.68</ele>
        <time>2019-05-22T09:05:48Z</time>
      </trkpt>
      <trkpt lat="47.65952" lon="6.01524">
        <ele>219.7</ele>
        <time>2019-05-22T09:05:50Z</time>
      </trkpt>
      <trkpt lat="47.65958" lon="6.01522">
        <ele>219.72</ele>
        <time>2019-05-22T09:05:52Z</time>
      </trkpt>
      <trkpt lat="47.65964" lon="6.01519">
        <ele>219.74</ele>
        <time>2019-05-22T09:05:54Z</time>
      </trkpt>
      <trkpt lat="47.65971" lon="6.01517">
        <ele>219.75</ele>
        <time>2019-05-22T09:05:56Z</time>
      </trkpt>
      <trkpt lat="47.65976" lon="6.01515">
        <ele>219.77</ele>
        <time>2019-05-22T09:05:58Z</time>
      </trkpt>
      <trkpt lat="47.65982" lon="6.01513">
        <ele>219.78</ele>
        <time>2019-05-22T09:06:00Z</time>
      </trkpt>
      <trkpt lat="47.65989" lon="6.01511">
        <ele>219.79</ele>
        <time>2019-05-22T09:06:02Z</time>
      </trkpt>
      <trkpt lat="47.65996" lon="6.01509">
        <ele>219.8</ele>
        <time>2019-05-22T09:06:04Z</time>
      </trkpt>
      <trkpt lat="47.66002" lon="6.01506">
        <ele>219.81</ele>
        <time>2019-05-22T09:06:06Z</time>
      </trkpt>
      <trkpt lat="47.66008" lon="6.01504">
        <ele>219.82</ele>
        <time>2019-05-22T09:06:08Z</time>
      </trkpt>
      <trkpt lat="47.66015" lon="6.01501">
        <ele>219.83</ele>
        <time>2019-05-22T09:06:10Z</time>
      </trkpt>
      <trkpt lat="47.66022" lon="6.01498">
        <ele>219.84</ele>
        <time>2019-05-22T09:06:12Z</time>
      </trkpt>
      <trkpt lat="47.6603" lon="6.01496">
        <ele>219.85</ele>
        <time>2019-05-22T09:06:14Z</time>
      </trkpt>
      <trkpt lat="47.66036" lon="6.01494">
        <ele>219.87</ele>
        <time>2019-05-22T09:06:16Z</time>
      </trkpt>
      <trkpt lat="47.66043" lon="6.01492">
        <ele>219.88</ele>
        <time>2019-05-22T09:06:18Z</time>
      </trkpt>
      <trkpt lat="47.6605" lon="6.0149">
        <ele>219.9</ele>
        <time>2019-05-22T09:06:20Z</time>
      </trkpt>
      <trkpt lat="47.66056" lon="6.01489">
        <ele>219.92</ele>
        <time>2019-05-22T09:06:22Z</time>
      </trkpt>
      <trkpt lat="47.66061" lon="6.01488">
        <ele>219.94</ele>
        <time>2019-05-22T09:06:24Z</time>
      </trkpt>
      <trkpt lat="47.66067" lon="6.01487">
        <ele>219.96</ele>
        <time>2019-05-22T09:06:26Z</time>
      </trkpt>
      <trkpt lat="47.66073" lon="6.01487">
        <ele>219.98</ele>
        <time>2019-05-22T09:06:28Z</time>
      </trkpt>
      <trkpt lat="47.66078" lon="6.01486">
        <ele>220.01</ele>
        <time>2019-05-22T09:06:30Z</time>
      </trkpt>
      <trkpt lat="47.66085" lon="6.01485">
        <ele>220.03</ele>
        <time>2019-05-22T09:06:32Z</time>
      </trkpt>
      <trkpt lat="47.66092" lon="6.01484">
        <ele>220.06</ele>
        <time>2019-05-22T09:06:34Z</time>
      </trkpt>
      <trkpt lat="47.66098" lon="6.01483">
        <ele>220.09</ele>
        <time>2019-05-22T09:06:36Z</time>
      </trkpt>
      <trkpt lat="47.66105" lon="6.01482">
        <ele>220.12</ele>
        <time>2019-05-22T09:06:38Z</time>
      </trkpt>
      <trkpt lat="47.66111" lon="6.01481">
        <ele>220.14</ele>
        <time>2019-05-22T09:06:40Z</time>
      </trkpt>
      <trkpt lat="47.66118" lon="6.0148">
        <ele>220.17</ele>
        <time>2019-05-22T09:06:42Z</time>
      </trkpt>
      <trkpt lat="47.66124" lon="6.01479">
        <ele>220.2</ele>
        <time>2019-05-22T09:06:44Z</time>
      </trkpt>
      <trkpt lat="47.6613" lon="6.01478">
        <ele>220.24</ele>
        <time>2019-05-22T09:06:46Z</time>
      </trkpt>
      <trkpt lat="47.66136" lon="6.01478">
        <ele>220.27</ele>
        <time>2019-05-22T09:06:48Z</time>
      </trkpt>
      <trkpt lat="47.66141" lon="6.01478">
        <ele>220.3</ele>
        <time>2019-05-22T09:06:50Z</time>
      </trkpt>
      <trkpt lat="47.66147" lon="6.01477">
        <ele>220.33</ele>
        <time>2019-05-22T09:06:52Z</time>
      </trkpt>
      <trkpt lat="47.66154" lon="6.01477">
        <ele>220.37</ele>
        <time>2019-05-22T09:06:54Z</time>
      </trkpt>
      <trkpt lat="47.6616" lon="6.01477">
        <ele>220.4</ele>
        <time>2019-05-22T09:06:56Z</time>
      </trkpt>
      <trkpt lat="47.66167" lon="6.01476">
        <ele>220.43</ele>
        <time>2019-05-22T09:06:58Z</time>
      </trkpt>
      <trkpt lat="47.66174" lon="6.01475">
        <ele>220.46</ele>
        <time>2019-05-22T09:07:00Z</time>
      </trkpt>
      <trkpt lat="47.66182" lon="6.01475">
        <ele>220.49</ele>
        <time>2019-05-22T09:07:02Z</time>
      </trkpt>
      <trkpt lat="47.66189" lon="6.01474">
        <ele>220.52</ele>
        <time>2019-05-22T09:07:04Z</time>
      </trkpt>
      <trkpt lat="47.66196" lon="6.01474">
        <ele>220.54</ele>
        <time>2019-05-22T09:07:06Z</time>
      </trkpt>
      <trkpt lat="47.66204" lon="6.01474">
        <ele>220.57</ele>
        <time>2019-05-22T09:07:08Z</time>
      </trkpt>
      <trkpt lat="47.66211" lon="6.01475">
        <ele>220.59</ele>
        <time>2019-05-22T09:07:10Z</time>
      </trkpt>
      <trkpt lat="47.66219" lon="6.01477">
        <ele>220.61</ele>
        <time>2019-05-22T09:07:12Z</time>
      </trkpt>
      <trkpt lat="47.66226" lon="6.01478">
        <ele>220.63</ele>
        <time>2019-05-22T09:07:14Z</time>
      </trkpt>
      <trkpt lat="47.66232" lon="6.0148">
        <ele>220.65</ele>
        <time>2019-05-22T09:07:16Z</time>
      </trkpt>
      <trkpt lat="47.66239" lon="6.01481">
        <ele>220.66</ele>
        <time>2019-05-22T09:07:18Z</time>
      </trkpt>
      <trkpt lat="47.66245" lon="6.01483">
        <ele>220.67</ele>
        <time>2019-05-22T09:07:20Z</time>
      </trkpt>
      <trkpt lat="47.66251" lon="6.01485">
        <ele>220.68</ele>
        <time>2019-05-22T09:07:22Z</time>
      </trkpt>
      <trkpt lat="47.66258" lon="6.01487">
        <ele>220.69</ele>
        <time>2019-05-22T09:07:24Z</time>
      </trkpt>
      <trkpt lat="47.66265" lon="6.01489">
        <ele>220.7</ele>
        <time>2019-05-22T09:07:26Z</time>
      </trkpt>
      <trkpt lat="47.6627" lon="6.0149">
        <ele>220.7</ele>
        <time>2019-05-22T09:07:28Z</time>
      </trkpt>
      <trkpt lat="47.66276" lon="6.01492">
        <ele>220.7</ele>
        <time>2019-05-22T09:07:30Z</time>
      </trkpt>
      <trkpt lat="47.66282" lon="6.01494">
        <ele>220.7</ele>
        <time>2019-05-22T09:07:32Z</time>
      </trkpt>
      <trkpt lat="47.66289" lon="6.01496">
        <ele>220.7</ele>
        <time>2019-05-22T09:07:34Z</time>
      </trkpt>
      <trkpt lat="47.66295" lon="6.01498">
        <ele>220.7</ele>
        <time>2019-05-22T09:07:36Z</time>
      </trkpt>
      <trkpt lat="47.663" lon="6.01499">
        <ele>220.7</ele>
        <time>2019-05-22T09:07:38Z</time>
      </trkpt>
      <trkpt lat="47.66306" lon="6.01502">
        <ele>220.69</ele>
        <time>2019-05-22T09:07:40Z</time>
      </trkpt>
      <trkpt lat="47.66312" lon="6.01505">
        <ele>220.69</ele>
        <time>2019-05-22T09:07:42Z</time>
      </trkpt>
      <trkpt lat="47.66317" lon="6.01508">
        <ele>220.68</ele>
        <time>2019-05-22T09:07:44Z</time>
      </trkpt>
      <trkpt lat="47.66322" lon="6.01511">
        <ele>220.67</ele>
        <time>2019-05-22T09:07:46Z</time>
      </trkpt>
      <trkpt lat="47.66328" lon="6.01514">
        <ele>220.65</ele>
        <time>2019-05-22T09:07:48Z</time>
      </trkpt>
      <trkpt lat="47.66334" lon="6.01517">
        <ele>220.64</ele>
        <time>2019-05-22T09:07:50Z</time>
      </trkpt>
      <trkpt lat="47.66339" lon="6.01521">
        <ele>220.62</ele>
        <time>2019-05-22T09:07:52Z</time>
      </trkpt>
      <trkpt lat="47.66345" lon="6.01524">
        <ele>220.6</ele>
        <time>2019-05-22T09:07:54Z</time>
      </trkpt>
      <trkpt lat="47.6635" lon="6.01528">
        <ele>220.58</ele>
        <time>2019-05-22T09:07:56Z</time>
      </trkpt>
      <trkpt lat="47.66356" lon="6.01532">
        <ele>220.56</ele>
        <time>2019-05-22T09:07:58Z</time>
      </trkpt>
      <trkpt lat="47.66362" lon="6.01535">
        <ele>220.54</ele>
        <time>2019-05-22T09:08:00Z</time>
      </trkpt>
      <trkpt lat="47.66368" lon="6.01538">
        <ele>220.51</ele>
        <time>2019-05-22T09:08:02Z</time>
      </trkpt>
      <trkpt lat="47.66373" lon="6.01541">
        <ele>220.49</ele>
        <time>2019-05-22T09:08:04Z</time>
      </trkpt>
      <trkpt lat="47.66379" lon="6.01544">
        <ele>220.46</ele>
        <time>2019-05-22T09:08:06Z</time>
      </trkpt>
      <trkpt lat="47.66385" lon="6.01548">
        <ele>220.44</ele>
        <time>2019-05-22T09:08:08Z</time>
      </trkpt>
      <trkpt lat="47.66392" lon="6.01552">
        <ele>220.42</ele>
        <time>2019-05-22T09:08:10Z</time>
      </trkpt>
      <trkpt lat="47.66397" lon="6.01556">
        <ele>220.39</ele>
        <time>2019-05-22T09:08:12Z</time>
      </trkpt>
      <trkpt lat="47.66404" lon="6.01559">
        <ele>220.37</ele>
        <time>2019-05-22T09:08:14Z</time>
      </trkpt>
      <trkpt lat="47.66409" lon="6.01563">
        <ele>220.35</ele>
        <time>2019-05-22T09:08:16Z</time>
      </trkpt>
      <trkpt lat="47.66415" lon="6.01567">
        <ele>220.33</ele>
        <time>2019-05-22T09:08:18Z</time>
      </trkpt>
      <trkpt lat="47.66422" lon="6.01571">
        <ele>220.31</ele>
        <time>2019-05-22T09:08:20Z</time>
      </trkpt>
      <trkpt lat="47.66427" lon="6.01575">
        <ele>220.29</ele>
        <time>2019-05-22T09:08:22Z</time>
      </trkpt>
      <trkpt lat="47.66433" lon="6.0158">
        <ele>220.27</ele>
        <time>2019-05-22T09:08:24Z</time>
      </trkpt>
      <trkpt lat="47.66438" lon="6.01584">
        <ele>220.25</ele>
        <time>2019-05-22T09:08:26Z</time>
      </trkpt>
      <trkpt lat="47.66444" lon="6.01588">
        <ele>220.23</ele>
        <time>2019-05-22T09:08:28Z</time>
      </trkpt>
      <trkpt lat="47.66449" lon="6.01592">
        <ele>220.22</ele>
        <time>2019-05-22T09:08:30Z</time>
      </trkpt>
      <trkpt lat="47.66454" lon="6.01597">
        <ele>220.2</ele>
        <time>2019-05-22T09:08:32Z</time>
      </trkpt>
      <trkpt lat="47.66459" lon="6.01601">
        <ele>220.19</ele>
        <time>2019-05-22T09:08:34Z</time>
      </trkpt>
      <trkpt lat="47.66465" lon="6.01605">
        <ele>220.17</ele>
        <time>2019-05-22T09:08:36Z</time>
      </trkpt>
      <trkpt lat="47.6647" lon="6.01609">
        <ele>220.16</ele>
        <time>2019-05-22T09:08:38Z</time>
      </trkpt>
      <trkpt lat="47.66476" lon="6.01614">
        <ele>220.14</ele>
        <time>2019-05-22T09:08:40Z</time>
      </trkpt>
      <trkpt lat="47.66481" lon="6.01618">
        <ele>220.13</ele>
        <time>2019-05-22T09:08:42Z</time>
      </trkpt>
      <trkpt lat="47.66487" lon="6.01623">
        <ele>220.11</ele>
        <time>2019-05-22T09:08:44Z</time>
      </trkpt>
      <trkpt lat="47.66492" lon="6.01628">
        <ele>220.1</ele>
        <time>2019-05-22T09:08:46Z</time>
      </trkpt>
      <trkpt lat="47.66497" lon="6.01632">
        <ele>220.08</ele>
        <time>2019-05-22T09:08:48Z</time>
      </trkpt>
      <trkpt lat="47.66503" lon="6.01638">
        <ele>220.07</ele>
        <time>2019-05-22T09:08:50Z</time>
      </trkpt>
      <trkpt lat="47.66509" lon="6.01644">
        <ele>220.06</ele>
        <time>2019-05-22T09:08:52Z</time>
      </trkpt>
      <trkpt lat="47.66515" lon="6.01649">
        <ele>220.04</ele>
        <time>2019-05-22T09:08:54Z</time>
      </trkpt>
      <trkpt lat="47.6652" lon="6.01655">
        <ele>220.03</ele>
        <time>2019-05-22T09:08:56Z</time>
      </trkpt>
      <trkpt lat="47.66525" lon="6.0166">
        <ele>220.02</ele>
        <time>2019-05-22T09:08:58Z</time>
      </trkpt>
      <trkpt lat="47.6653" lon="6.01666">
        <ele>220.01</ele>
        <time>2019-05-22T09:09:00Z</time>
      </trkpt>
      <trkpt lat="47.66536" lon="6.01671">
        <ele>220</ele>
        <time>2019-05-22T09:09:02Z</time>
      </trkpt>
      <trkpt lat="47.66541" lon="6.01677">
        <ele>219.98</ele>
        <time>2019-05-22T09:09:04Z</time>
      </trkpt>
      <trkpt lat="47.66546" lon="6.01683">
        <ele>219.96</ele>
        <time>2019-05-22T09:09:06Z</time>
      </trkpt>
      <trkpt lat="47.66552" lon="6.01689">
        <ele>219.95</ele>
        <time>2019-05-22T09:09:08Z</time>
      </trkpt>
      <trkpt lat="47.66557" lon="6.01694">
        <ele>219.93</ele>
        <time>2019-05-22T09:09:10Z</time>
      </trkpt>
      <trkpt lat="47.66563" lon="6.017">
        <ele>219.9</ele>
        <time>2019-05-22T09:09:12Z</time>
      </trkpt>
      <trkpt lat="47.66569" lon="6.01705">
        <ele>219.88</ele>
        <time>2019-05-22T09:09:14Z</time>
      </trkpt>
      <trkpt lat="47.66575" lon="6.01711">
        <ele>219.86</ele>
        <time>2019-05-22T09:09:16Z</time>
      </trkpt>
      <trkpt lat="47.66579" lon="6.01714">
        <ele>219.85</ele>
        <time>2019-05-22T09:09:17Z</time>
      </trkpt>
      <trkpt lat="47.66585" lon="6.0172">
        <ele>219.82</ele>
        <time>2019-05-22T09:09:19Z</time>
      </trkpt>
      <trkpt lat="47.66591" lon="6.01726">
        <ele>219.63</ele>
        <time>2019-05-22T09:09:21Z</time>
      </trkpt>
      <trkpt lat="47.66597" lon="6.01734">
        <ele>219.46</ele>
        <time>2019-05-22T09:09:23Z</time>
      </trkpt>
      <trkpt lat="47.66607" lon="6.01745">
        <ele>219.34</ele>
        <time>2019-05-22T09:09:25Z</time>
      </trkpt>
      <trkpt lat="47.66613" lon="6.01752">
        <ele>219.25</ele>
        <time>2019-05-22T09:09:27Z</time>
      </trkpt>
      <trkpt lat="47.66619" lon="6.0176">
        <ele>219.21</ele>
        <time>2019-05-22T09:09:29Z</time>
      </trkpt>
      <trkpt lat="47.66625" lon="6.01768">
        <ele>219.2</ele>
        <time>2019-05-22T09:09:31Z</time>
      </trkpt>
      <trkpt lat="47.66631" lon="6.01775">
        <ele>219.15</ele>
        <time>2019-05-22T09:09:33Z</time>
      </trkpt>
      <trkpt lat="47.66638" lon="6.01783">
        <ele>219.11</ele>
        <time>2019-05-22T09:09:35Z</time>
      </trkpt>
      <trkpt lat="47.66643" lon="6.01791">
        <ele>219.1</ele>
        <time>2019-05-22T09:09:37Z</time>
      </trkpt>
      <trkpt lat="47.66648" lon="6.01799">
        <ele>219.09</ele>
        <time>2019-05-22T09:09:39Z</time>
      </trkpt>
      <trkpt lat="47.66651" lon="6.0181">
        <ele>219.05</ele>
        <time>2019-05-22T09:09:41Z</time>
      </trkpt>
      <trkpt lat="47.66654" lon="6.01821">
        <ele>219.02</ele>
        <time>2019-05-22T09:09:43Z</time>
      </trkpt>
      <trkpt lat="47.66658" lon="6.01829">
        <ele>219</ele>
        <time>2019-05-22T09:09:45Z</time>
      </trkpt>
      <trkpt lat="47.66662" lon="6.01837">
        <ele>218.99</ele>
        <time>2019-05-22T09:09:47Z</time>
      </trkpt>
      <trkpt lat="47.66667" lon="6.01845">
        <ele>218.98</ele>
        <time>2019-05-22T09:09:49Z</time>
      </trkpt>
      <trkpt lat="47.66672" lon="6.01852">
        <ele>218.98</ele>
        <time>2019-05-22T09:09:51Z</time>
      </trkpt>
      <trkpt lat="47.66677" lon="6.01859">
        <ele>218.97</ele>
        <time>2019-05-22T09:09:53Z</time>
      </trkpt>
      <trkpt lat="47.6668" lon="6.01864">
        <ele>218.97</ele>
        <time>2019-05-22T09:09:55Z</time>
      </trkpt>
      <trkpt lat="47.66684" lon="6.01871">
        <ele>218.96</ele>
        <time>2019-05-22T09:09:57Z</time>
      </trkpt>
      <trkpt lat="47.66689" lon="6.01879">
        <ele>218.87</ele>
        <time>2019-05-22T09:09:59Z</time>
      </trkpt>
      <trkpt lat="47.66694" lon="6.01888">
        <ele>218.84</ele>
        <time>2019-05-22T09:10:01Z</time>
      </trkpt>
      <trkpt lat="47.667" lon="6.01898">
        <ele>218.81</ele>
        <time>2019-05-22T09:10:02Z</time>
      </trkpt>
      <trkpt lat="47.66703" lon="6.01902">
        <ele>218.77</ele>
        <time>2019-05-22T09:10:03Z</time>
      </trkpt>
      <trkpt lat="47.66706" lon="6.01908">
        <ele>218.73</ele>
        <time>2019-05-22T09:10:04Z</time>
      </trkpt>
      <trkpt lat="47.6671" lon="6.01918">
        <ele>218.68</ele>
        <time>2019-05-22T09:10:06Z</time>
      </trkpt>
      <trkpt lat="47.66715" lon="6.01929">
        <ele>218.62</ele>
        <time>2019-05-22T09:10:08Z</time>
      </trkpt>
      <trkpt lat="47.6672" lon="6.0194">
        <ele>218.57</ele>
        <time>2019-05-22T09:10:10Z</time>
      </trkpt>
      <trkpt lat="47.66723" lon="6.0195">
        <ele>218.55</ele>
        <time>2019-05-22T09:10:12Z</time>
      </trkpt>
      <trkpt lat="47.66726" lon="6.01959">
        <ele>218.54</ele>
        <time>2019-05-22T09:10:14Z</time>
      </trkpt>
      <trkpt lat="47.66729" lon="6.01969">
        <ele>218.53</ele>
        <time>2019-05-22T09:10:16Z</time>
      </trkpt>
      <trkpt lat="47.66732" lon="6.01979">
        <ele>218.52</ele>
        <time>2019-05-22T09:10:18Z</time>
      </trkpt>
      <trkpt lat="47.66735" lon="6.01988">
        <ele>218.51</ele>
        <time>2019-05-22T09:10:20Z</time>
      </trkpt>
      <trkpt lat="47.66736" lon="6.01996">
        <ele>218.5</ele>
        <time>2019-05-22T09:10:22Z</time>
      </trkpt>
      <trkpt lat="47.66738" lon="6.02004">
        <ele>218.48</ele>
        <time>2019-05-22T09:10:24Z</time>
      </trkpt>
      <trkpt lat="47.66741" lon="6.02014">
        <ele>218.46</ele>
        <time>2019-05-22T09:10:26Z</time>
      </trkpt>
      <trkpt lat="47.66743" lon="6.02025">
        <ele>218.43</ele>
        <time>2019-05-22T09:10:28Z</time>
      </trkpt>
      <trkpt lat="47.66746" lon="6.02037">
        <ele>218.41</ele>
        <time>2019-05-22T09:10:30Z</time>
      </trkpt>
      <trkpt lat="47.66748" lon="6.02046">
        <ele>218.38</ele>
        <time>2019-05-22T09:10:32Z</time>
      </trkpt>
      <trkpt lat="47.6675" lon="6.02055">
        <ele>218.35</ele>
        <time>2019-05-22T09:10:34Z</time>
      </trkpt>
      <trkpt lat="47.66752" lon="6.02065">
        <ele>218.32</ele>
        <time>2019-05-22T09:10:36Z</time>
      </trkpt>
      <trkpt lat="47.66755" lon="6.02075">
        <ele>218.29</ele>
        <time>2019-05-22T09:10:38Z</time>
      </trkpt>
      <trkpt lat="47.66757" lon="6.02085">
        <ele>218.27</ele>
        <time>2019-05-22T09:10:40Z</time>
      </trkpt>
      <trkpt lat="47.66759" lon="6.02095">
        <ele>218.24</ele>
        <time>2019-05-22T09:10:42Z</time>
      </trkpt>
      <trkpt lat="47.66761" lon="6.02104">
        <ele>218.21</ele>
        <time>2019-05-22T09:10:44Z</time>
      </trkpt>
      <trkpt lat="47.66763" lon="6.02113">
        <ele>218.18</ele>
        <time>2019-05-22T09:10:46Z</time>
      </trkpt>
      <trkpt lat="47.66766" lon="6.02122">
        <ele>218.15</ele>
        <time>2019-05-22T09:10:48Z</time>
      </trkpt>
      <trkpt lat="47.66768" lon="6.02132">
        <ele>218.12</ele>
        <time>2019-05-22T09:10:50Z</time>
      </trkpt>
      <trkpt lat="47.66771" lon="6.02142">
        <ele>218.09</ele>
        <time>2019-05-22T09:10:52Z</time>
      </trkpt>
      <trkpt lat="47.66774" lon="6.02153">
        <ele>218.06</ele>
        <time>2019-05-22T09:10:54Z</time>
      </trkpt>
      <trkpt lat="47.66776" lon="6.02164">
        <ele>218.03</ele>
        <time>2019-05-22T09:10:56Z</time>
      </trkpt>
      <trkpt lat="47.66778" lon="6.02174">
        <ele>218</ele>
        <time>2019-05-22T09:10:58Z</time>
      </trkpt>
      <trkpt lat="47.6678" lon="6.02183">
        <ele>217.96</ele>
        <time>2019-05-22T09:11:00Z</time>
      </trkpt>
      <trkpt lat="47.66782" lon="6.02194">
        <ele>217.93</ele>
        <time>2019-05-22T09:11:02Z</time>
      </trkpt>
      <trkpt lat="47.66784" lon="6.02204">
        <ele>217.89</ele>
        <time>2019-05-22T09:11:04Z</time>
      </trkpt>
      <trkpt lat="47.66786" lon="6.02214">
        <ele>217.86</ele>
        <time>2019-05-22T09:11:06Z</time>
      </trkpt>
      <trkpt lat="47.66789" lon="6.02224">
        <ele>217.83</ele>
        <time>2019-05-22T09:11:08Z</time>
      </trkpt>
      <trkpt lat="47.66792" lon="6.02235">
        <ele>217.8</ele>
        <time>2019-05-22T09:11:10Z</time>
      </trkpt>
      <trkpt lat="47.66794" lon="6.02244">
        <ele>217.76</ele>
        <time>2019-05-22T09:11:12Z</time>
      </trkpt>
      <trkpt lat="47.66797" lon="6.02256">
        <ele>217.73</ele>
        <time>2019-05-22T09:11:14Z</time>
      </trkpt>
      <trkpt lat="47.66799" lon="6.02265">
        <ele>217.7</ele>
        <time>2019-05-22T09:11:16Z</time>
      </trkpt>
      <trkpt lat="47.66802" lon="6.02274">
        <ele>217.67</ele>
        <time>2019-05-22T09:11:18Z</time>
      </trkpt>
      <trkpt lat="47.66805" lon="6.02284">
        <ele>217.64</ele>
        <time>2019-05-22T09:11:20Z</time>
      </trkpt>
      <trkpt lat="47.66808" lon="6.02293">
        <ele>217.61</ele>
        <time>2019-05-22T09:11:22Z</time>
      </trkpt>
      <trkpt lat="47.66812" lon="6.02304">
        <ele>217.58</ele>
        <time>2019-05-22T09:11:24Z</time>
      </trkpt>
      <trkpt lat="47.66815" lon="6.02311">
        <ele>217.55</ele>
        <time>2019-05-22T09:11:26Z</time>
      </trkpt>
      <trkpt lat="47.66819" lon="6.02321">
        <ele>217.52</ele>
        <time>2019-05-22T09:11:28Z</time>
      </trkpt>
      <trkpt lat="47.66822" lon="6.0233">
        <ele>217.48</ele>
        <time>2019-05-22T09:11:30Z</time>
      </trkpt>
      <trkpt lat="47.66826" lon="6.0234">
        <ele>217.45</ele>
        <time>2019-05-22T09:11:32Z</time>
      </trkpt>
      <trkpt lat="47.6683" lon="6.02349">
        <ele>217.42</ele>
        <time>2019-05-22T09:11:34Z</time>
      </trkpt>
      <trkpt lat="47.66834" lon="6.02357">
        <ele>217.39</ele>
        <time>2019-05-22T09:11:36Z</time>
      </trkpt>
      <trkpt lat="47.66839" lon="6.02365">
        <ele>217.36</ele>
        <time>2019-05-22T09:11:38Z</time>
      </trkpt>
      <trkpt lat="47.66843" lon="6.02373">
        <ele>217.33</ele>
        <time>2019-05-22T09:11:40Z</time>
      </trkpt>
      <trkpt lat="47.66848" lon="6.02382">
        <ele>217.31</ele>
        <time>2019-05-22T09:11:42Z</time>
      </trkpt>
      <trkpt lat="47.66853" lon="6.0239">
        <ele>217.28</ele>
        <time>2019-05-22T09:11:44Z</time>
      </trkpt>
      <trkpt lat="47.66857" lon="6.02399">
        <ele>217.25</ele>
        <time>2019-05-22T09:11:46Z</time>
      </trkpt>
      <trkpt lat="47.66861" lon="6.02408">
        <ele>217.23</ele>
        <time>2019-05-22T09:11:48Z</time>
      </trkpt>
      <trkpt lat="47.66865" lon="6.02416">
        <ele>217.21</ele>
        <time>2019-05-22T09:11:50Z</time>
      </trkpt>
      <trkpt lat="47.66868" lon="6.02423">
        <ele>217.18</ele>
        <time>2019-05-22T09:11:52Z</time>
      </trkpt>
      <trkpt lat="47.66872" lon="6.0243">
        <ele>217.16</ele>
        <time>2019-05-22T09:11:54Z</time>
      </trkpt>
      <trkpt lat="47.66876" lon="6.02438">
        <ele>217.14</ele>
        <time>2019-05-22T09:11:56Z</time>
      </trkpt>
      <trkpt lat="47.66881" lon="6.02446">
        <ele>217.13</ele>
        <time>2019-05-22T09:11:58Z</time>
      </trkpt>
      <trkpt lat="47.66887" lon="6.02454">
        <ele>217.11</ele>
        <time>2019-05-22T09:12:00Z</time>
      </trkpt>
      <trkpt lat="47.66892" lon="6.02463">
        <ele>217.09</ele>
        <time>2019-05-22T09:12:02Z</time>
      </trkpt>
      <trkpt lat="47.66897" lon="6.02471">
        <ele>217.03</ele>
        <time>2019-05-22T09:12:04Z</time>
      </trkpt>
      <trkpt lat="47.66902" lon="6.0248">
        <ele>216.92</ele>
        <time>2019-05-22T09:12:06Z</time>
      </trkpt>
      <trkpt lat="47.66911" lon="6.02494">
        <ele>216.84</ele>
        <time>2019-05-22T09:12:08Z</time>
      </trkpt>
      <trkpt lat="47.66917" lon="6.02504">
        <ele>216.8</ele>
        <time>2019-05-22T09:12:10Z</time>
      </trkpt>
      <trkpt lat="47.66922" lon="6.02513">
        <ele>216.79</ele>
        <time>2019-05-22T09:12:12Z</time>
      </trkpt>
      <trkpt lat="47.66928" lon="6.02521">
        <ele>216.8</ele>
        <time>2019-05-22T09:12:14Z</time>
      </trkpt>
      <trkpt lat="47.66933" lon="6.0253">
        <ele>216.82</ele>
        <time>2019-05-22T09:12:16Z</time>
      </trkpt>
      <trkpt lat="47.66939" lon="6.0254">
        <ele>216.84</ele>
        <time>2019-05-22T09:12:18Z</time>
      </trkpt>
      <trkpt lat="47.66944" lon="6.02549">
        <ele>216.85</ele>
        <time>2019-05-22T09:12:20Z</time>
      </trkpt>
      <trkpt lat="47.66949" lon="6.02559">
        <ele>216.85</ele>
        <time>2019-05-22T09:12:22Z</time>
      </trkpt>
      <trkpt lat="47.66954" lon="6.02568">
        <ele>216.85</ele>
        <time>2019-05-22T09:12:24Z</time>
      </trkpt>
      <trkpt lat="47.6696" lon="6.02578">
        <ele>216.86</ele>
        <time>2019-05-22T09:12:26Z</time>
      </trkpt>
      <trkpt lat="47.66965" lon="6.02587">
        <ele>216.87</ele>
        <time>2019-05-22T09:12:28Z</time>
      </trkpt>
      <trkpt lat="47.66971" lon="6.02596">
        <ele>216.88</ele>
        <time>2019-05-22T09:12:30Z</time>
      </trkpt>
      <trkpt lat="47.66977" lon="6.02605">
        <ele>216.89</ele>
        <time>2019-05-22T09:12:32Z</time>
      </trkpt>
      <trkpt lat="47.66982" lon="6.02613">
        <ele>216.89</ele>
        <time>2019-05-22T09:12:34Z</time>
      </trkpt>
      <trkpt lat="47.66987" lon="6.02621">
        <ele>216.9</ele>
        <time>2019-05-22T09:12:36Z</time>
      </trkpt>
      <trkpt lat="47.66992" lon="6.0263">
        <ele>216.9</ele>
        <time>2019-05-22T09:12:38Z</time>
      </trkpt>
      <trkpt lat="47.66999" lon="6.0264">
        <ele>216.9</ele>
        <time>2019-05-22T09:12:40Z</time>
      </trkpt>
      <trkpt lat="47.67005" lon="6.0265">
        <ele>216.9</ele>
        <time>2019-05-22T09:12:42Z</time>
      </trkpt>
      <trkpt lat="47.67008" lon="6.02655">
        <ele>216.9</ele>
        <time>2019-05-22T09:12:43Z</time>
      </trkpt>
      <trkpt lat="47.67011" lon="6.0266">
        <ele>216.89</ele>
        <time>2019-05-22T09:12:44Z</time>
      </trkpt>
      <trkpt lat="47.67014" lon="6.02666">
        <ele>216.89</ele>
        <time>2019-05-22T09:12:45Z</time>
      </trkpt>
      <trkpt lat="47.67021" lon="6.02674">
        <ele>216.89</ele>
        <time>2019-05-22T09:12:47Z</time>
      </trkpt>
      <trkpt lat="47.67024" lon="6.02679">
        <ele>216.9</ele>
        <time>2019-05-22T09:12:48Z</time>
      </trkpt>
      <trkpt lat="47.67028" lon="6.02683">
        <ele>216.91</ele>
        <time>2019-05-22T09:12:49Z</time>
      </trkpt>
      <trkpt lat="47.67035" lon="6.02692">
        <ele>216.92</ele>
        <time>2019-05-22T09:12:51Z</time>
      </trkpt>
      <trkpt lat="47.67038" lon="6.02696">
        <ele>216.93</ele>
        <time>2019-05-22T09:12:52Z</time>
      </trkpt>
      <trkpt lat="47.67042" lon="6.02701">
        <ele>216.94</ele>
        <time>2019-05-22T09:12:53Z</time>
      </trkpt>
      <trkpt lat="47.67046" lon="6.02705">
        <ele>216.95</ele>
        <time>2019-05-22T09:12:54Z</time>
      </trkpt>
      <trkpt lat="47.6705" lon="6.02709">
        <ele>216.96</ele>
        <time>2019-05-22T09:12:55Z</time>
      </trkpt>
      <trkpt lat="47.67054" lon="6.02714">
        <ele>216.97</ele>
        <time>2019-05-22T09:12:56Z</time>
      </trkpt>
      <trkpt lat="47.67057" lon="6.02718">
        <ele>216.98</ele>
        <time>2019-05-22T09:12:57Z</time>
      </trkpt>
      <trkpt lat="47.67061" lon="6.02722">
        <ele>216.99</ele>
        <time>2019-05-22T09:12:58Z</time>
      </trkpt>
      <trkpt lat="47.67065" lon="6.02726">
        <ele>217.01</ele>
        <time>2019-05-22T09:12:59Z</time>
      </trkpt>
      <trkpt lat="47.67069" lon="6.02731">
        <ele>217.02</ele>
        <time>2019-05-22T09:13:00Z</time>
      </trkpt>
      <trkpt lat="47.67074" lon="6.02735">
        <ele>217.04</ele>
        <time>2019-05-22T09:13:01Z</time>
      </trkpt>
      <trkpt lat="47.67077" lon="6.0274">
        <ele>217.06</ele>
        <time>2019-05-22T09:13:02Z</time>
      </trkpt>
      <trkpt lat="47.67081" lon="6.02745">
        <ele>217.08</ele>
        <time>2019-05-22T09:13:03Z</time>
      </trkpt>
      <trkpt lat="47.67085" lon="6.0275">
        <ele>217.09</ele>
        <time>2019-05-22T09:13:04Z</time>
      </trkpt>
      <trkpt lat="47.67089" lon="6.02755">
        <ele>217.11</ele>
        <time>2019-05-22T09:13:05Z</time>
      </trkpt>
      <trkpt lat="47.67093" lon="6.0276">
        <ele>217.13</ele>
        <time>2019-05-22T09:13:06Z</time>
      </trkpt>
      <trkpt lat="47.67097" lon="6.02765">
        <ele>217.15</ele>
        <time>2019-05-22T09:13:07Z</time>
      </trkpt>
      <trkpt lat="47.67101" lon="6.0277">
        <ele>217.17</ele>
        <time>2019-05-22T09:13:08Z</time>
      </trkpt>
      <trkpt lat="47.67105" lon="6.02775">
        <ele>217.19</ele>
        <time>2019-05-22T09:13:09Z</time>
      </trkpt>
      <trkpt lat="47.67108" lon="6.0278">
        <ele>217.21</ele>
        <time>2019-05-22T09:13:10Z</time>
      </trkpt>
      <trkpt lat="47.67113" lon="6.02786">
        <ele>217.23</ele>
        <time>2019-05-22T09:13:11Z</time>
      </trkpt>
      <trkpt lat="47.67117" lon="6.02791">
        <ele>217.25</ele>
        <time>2019-05-22T09:13:12Z</time>
      </trkpt>
      <trkpt lat="47.67121" lon="6.02796">
        <ele>217.27</ele>
        <time>2019-05-22T09:13:13Z</time>
      </trkpt>
      <trkpt lat="47.67125" lon="6.02802">
        <ele>217.29</ele>
        <time>2019-05-22T09:13:14Z</time>
      </trkpt>
      <trkpt lat="47.67129" lon="6.02807">
        <ele>217.31</ele>
        <time>2019-05-22T09:13:15Z</time>
      </trkpt>
      <trkpt lat="47.67132" lon="6.02812">
        <ele>217.33</ele>
        <time>2019-05-22T09:13:16Z</time>
      </trkpt>
      <trkpt lat="47.67136" lon="6.02817">
        <ele>217.35</ele>
        <time>2019-05-22T09:13:17Z</time>
      </trkpt>
      <trkpt lat="47.6714" lon="6.02823">
        <ele>217.36</ele>
        <time>2019-05-22T09:13:18Z</time>
      </trkpt>
      <trkpt lat="47.67143" lon="6.02829">
        <ele>217.38</ele>
        <time>2019-05-22T09:13:19Z</time>
      </trkpt>
      <trkpt lat="47.67147" lon="6.02835">
        <ele>217.4</ele>
        <time>2019-05-22T09:13:20Z</time>
      </trkpt>
      <trkpt lat="47.6715" lon="6.02841">
        <ele>217.41</ele>
        <time>2019-05-22T09:13:21Z</time>
      </trkpt>
      <trkpt lat="47.67154" lon="6.02848">
        <ele>217.42</ele>
        <time>2019-05-22T09:13:22Z</time>
      </trkpt>
      <trkpt lat="47.67157" lon="6.02855">
        <ele>217.43</ele>
        <time>2019-05-22T09:13:23Z</time>
      </trkpt>
      <trkpt lat="47.6716" lon="6.02861">
        <ele>217.43</ele>
        <time>2019-05-22T09:13:24Z</time>
      </trkpt>
      <trkpt lat="47.67163" lon="6.02868">
        <ele>217.44</ele>
        <time>2019-05-22T09:13:25Z</time>
      </trkpt>
      <trkpt lat="47.67166" lon="6.02874">
        <ele>217.44</ele>
        <time>2019-05-22T09:13:26Z</time>
      </trkpt>
      <trkpt lat="47.67169" lon="6.0288">
        <ele>217.44</ele>
        <time>2019-05-22T09:13:27Z</time>
      </trkpt>
      <trkpt lat="47.67171" lon="6.02887">
        <ele>217.44</ele>
        <time>2019-05-22T09:13:28Z</time>
      </trkpt>
      <trkpt lat="47.67174" lon="6.02894">
        <ele>217.44</ele>
        <time>2019-05-22T09:13:29Z</time>
      </trkpt>
      <trkpt lat="47.67176" lon="6.029">
        <ele>217.43</ele>
        <time>2019-05-22T09:13:30Z</time>
      </trkpt>
      <trkpt lat="47.67179" lon="6.02907">
        <ele>217.43</ele>
        <time>2019-05-22T09:13:31Z</time>
      </trkpt>
      <trkpt lat="47.67181" lon="6.02913">
        <ele>217.43</ele>
        <time>2019-05-22T09:13:32Z</time>
      </trkpt>
      <trkpt lat="47.67183" lon="6.02919">
        <ele>217.42</ele>
        <time>2019-05-22T09:13:33Z</time>
      </trkpt>
      <trkpt lat="47.67185" lon="6.02925">
        <ele>217.41</ele>
        <time>2019-05-22T09:13:34Z</time>
      </trkpt>
      <trkpt lat="47.67188" lon="6.02932">
        <ele>217.41</ele>
        <time>2019-05-22T09:13:35Z</time>
      </trkpt>
      <trkpt lat="47.6719" lon="6.02938">
        <ele>217.4</ele>
        <time>2019-05-22T09:13:36Z</time>
      </trkpt>
      <trkpt lat="47.67192" lon="6.02946">
        <ele>217.4</ele>
        <time>2019-05-22T09:13:37Z</time>
      </trkpt>
      <trkpt lat="47.67194" lon="6.02952">
        <ele>217.4</ele>
        <time>2019-05-22T09:13:38Z</time>
      </trkpt>
      <trkpt lat="47.67197" lon="6.0296">
        <ele>217.39</ele>
        <time>2019-05-22T09:13:39Z</time>
      </trkpt>
      <trkpt lat="47.67199" lon="6.02967">
        <ele>217.38</ele>
        <time>2019-05-22T09:13:40Z</time>
      </trkpt>
      <trkpt lat="47.672" lon="6.02975">
        <ele>217.37</ele>
        <time>2019-05-22T09:13:41Z</time>
      </trkpt>
      <trkpt lat="47.67202" lon="6.02983">
        <ele>217.36</ele>
        <time>2019-05-22T09:13:42Z</time>
      </trkpt>
      <trkpt lat="47.67203" lon="6.02991">
        <ele>217.35</ele>
        <time>2019-05-22T09:13:43Z</time>
      </trkpt>
      <trkpt lat="47.67205" lon="6.02999">
        <ele>217.34</ele>
        <time>2019-05-22T09:13:44Z</time>
      </trkpt>
      <trkpt lat="47.67206" lon="6.03008">
        <ele>217.33</ele>
        <time>2019-05-22T09:13:45Z</time>
      </trkpt>
      <trkpt lat="47.67207" lon="6.03016">
        <ele>217.32</ele>
        <time>2019-05-22T09:13:46Z</time>
      </trkpt>
      <trkpt lat="47.67209" lon="6.03024">
        <ele>217.31</ele>
        <time>2019-05-22T09:13:47Z</time>
      </trkpt>
      <trkpt lat="47.6721" lon="6.03033">
        <ele>217.3</ele>
        <time>2019-05-22T09:13:48Z</time>
      </trkpt>
      <trkpt lat="47.6721" lon="6.03042">
        <ele>217.28</ele>
        <time>2019-05-22T09:13:49Z</time>
      </trkpt>
      <trkpt lat="47.67211" lon="6.0305">
        <ele>217.27</ele>
        <time>2019-05-22T09:13:50Z</time>
      </trkpt>
      <trkpt lat="47.67212" lon="6.03058">
        <ele>217.25</ele>
        <time>2019-05-22T09:13:51Z</time>
      </trkpt>
      <trkpt lat="47.67213" lon="6.03066">
        <ele>217.24</ele>
        <time>2019-05-22T09:13:52Z</time>
      </trkpt>
      <trkpt lat="47.67214" lon="6.03074">
        <ele>217.22</ele>
        <time>2019-05-22T09:13:53Z</time>
      </trkpt>
      <trkpt lat="47.67214" lon="6.03082">
        <ele>217.2</ele>
        <time>2019-05-22T09:13:54Z</time>
      </trkpt>
      <trkpt lat="47.67215" lon="6.0309">
        <ele>217.19</ele>
        <time>2019-05-22T09:13:55Z</time>
      </trkpt>
      <trkpt lat="47.67216" lon="6.03098">
        <ele>217.17</ele>
        <time>2019-05-22T09:13:56Z</time>
      </trkpt>
      <trkpt lat="47.67216" lon="6.03106">
        <ele>217.15</ele>
        <time>2019-05-22T09:13:57Z</time>
      </trkpt>
      <trkpt lat="47.67217" lon="6.03114">
        <ele>217.13</ele>
        <time>2019-05-22T09:13:58Z</time>
      </trkpt>
      <trkpt lat="47.67218" lon="6.03122">
        <ele>217.11</ele>
        <time>2019-05-22T09:13:59Z</time>
      </trkpt>
      <trkpt lat="47.67219" lon="6.0313">
        <ele>217.1</ele>
        <time>2019-05-22T09:14:00Z</time>
      </trkpt>
      <trkpt lat="47.6722" lon="6.03138">
        <ele>217.08</ele>
        <time>2019-05-22T09:14:01Z</time>
      </trkpt>
      <trkpt lat="47.67221" lon="6.03146">
        <ele>217.06</ele>
        <time>2019-05-22T09:14:02Z</time>
      </trkpt>
      <trkpt lat="47.67222" lon="6.03153">
        <ele>217.05</ele>
        <time>2019-05-22T09:14:03Z</time>
      </trkpt>
      <trkpt lat="47.67223" lon="6.03161">
        <ele>217.04</ele>
        <time>2019-05-22T09:14:04Z</time>
      </trkpt>
      <trkpt lat="47.67224" lon="6.03169">
        <ele>217.02</ele>
        <time>2019-05-22T09:14:05Z</time>
      </trkpt>
      <trkpt lat="47.67224" lon="6.03178">
        <ele>217.01</ele>
        <time>2019-05-22T09:14:06Z</time>
      </trkpt>
      <trkpt lat="47.67225" lon="6.03186">
        <ele>216.99</ele>
        <time>2019-05-22T09:14:07Z</time>
      </trkpt>
      <trkpt lat="47.67226" lon="6.03194">
        <ele>216.98</ele>
        <time>2019-05-22T09:14:08Z</time>
      </trkpt>
      <trkpt lat="47.67227" lon="6.03202">
        <ele>216.96</ele>
        <time>2019-05-22T09:14:09Z</time>
      </trkpt>
      <trkpt lat="47.67227" lon="6.0321">
        <ele>216.95</ele>
        <time>2019-05-22T09:14:10Z</time>
      </trkpt>
      <trkpt lat="47.67229" lon="6.03219">
        <ele>216.94</ele>
        <time>2019-05-22T09:14:11Z</time>
      </trkpt>
      <trkpt lat="47.6723" lon="6.03227">
        <ele>216.93</ele>
        <time>2019-05-22T09:14:12Z</time>
      </trkpt>
      <trkpt lat="47.67231" lon="6.03235">
        <ele>216.91</ele>
        <time>2019-05-22T09:14:13Z</time>
      </trkpt>
      <trkpt lat="47.67232" lon="6.03243">
        <ele>216.9</ele>
        <time>2019-05-22T09:14:14Z</time>
      </trkpt>
      <trkpt lat="47.67233" lon="6.03251">
        <ele>216.89</ele>
        <time>2019-05-22T09:14:15Z</time>
      </trkpt>
      <trkpt lat="47.67235" lon="6.03259">
        <ele>216.87</ele>
        <time>2019-05-22T09:14:16Z</time>
      </trkpt>
      <trkpt lat="47.67237" lon="6.03267">
        <ele>216.86</ele>
        <time>2019-05-22T09:14:17Z</time>
      </trkpt>
      <trkpt lat="47.67238" lon="6.03274">
        <ele>216.84</ele>
        <time>2019-05-22T09:14:18Z</time>
      </trkpt>
      <trkpt lat="47.6724" lon="6.03281">
        <ele>216.83</ele>
        <time>2019-05-22T09:14:19Z</time>
      </trkpt>
      <trkpt lat="47.67242" lon="6.03288">
        <ele>216.82</ele>
        <time>2019-05-22T09:14:20Z</time>
      </trkpt>
      <trkpt lat="47.67245" lon="6.03296">
        <ele>216.81</ele>
        <time>2019-05-22T09:14:21Z</time>
      </trkpt>
      <trkpt lat="47.67247" lon="6.03303">
        <ele>216.8</ele>
        <time>2019-05-22T09:14:22Z</time>
      </trkpt>
      <trkpt lat="47.67249" lon="6.0331">
        <ele>216.78</ele>
        <time>2019-05-22T09:14:23Z</time>
      </trkpt>
      <trkpt lat="47.67251" lon="6.03317">
        <ele>216.77</ele>
        <time>2019-05-22T09:14:24Z</time>
      </trkpt>
      <trkpt lat="47.67254" lon="6.03325">
        <ele>216.76</ele>
        <time>2019-05-22T09:14:25Z</time>
      </trkpt>
      <trkpt lat="47.67256" lon="6.03333">
        <ele>216.74</ele>
        <time>2019-05-22T09:14:26Z</time>
      </trkpt>
      <trkpt lat="47.67258" lon="6.0334">
        <ele>216.73</ele>
        <time>2019-05-22T09:14:27Z</time>
      </trkpt>
      <trkpt lat="47.67261" lon="6.03348">
        <ele>216.72</ele>
        <time>2019-05-22T09:14:28Z</time>
      </trkpt>
      <trkpt lat="47.67263" lon="6.03356">
        <ele>216.71</ele>
        <time>2019-05-22T09:14:29Z</time>
      </trkpt>
      <trkpt lat="47.67266" lon="6.03363">
        <ele>216.69</ele>
        <time>2019-05-22T09:14:30Z</time>
      </trkpt>
      <trkpt lat="47.67268" lon="6.03371">
        <ele>216.68</ele>
        <time>2019-05-22T09:14:31Z</time>
      </trkpt>
      <trkpt lat="47.6727" lon="6.03378">
        <ele>216.66</ele>
        <time>2019-05-22T09:14:32Z</time>
      </trkpt>
      <trkpt lat="47.67273" lon="6.03386">
        <ele>216.65</ele>
        <time>2019-05-22T09:14:33Z</time>
      </trkpt>
      <trkpt lat="47.67275" lon="6.03393">
        <ele>216.64</ele>
        <time>2019-05-22T09:14:34Z</time>
      </trkpt>
      <trkpt lat="47.67276" lon="6.034">
        <ele>216.63</ele>
        <time>2019-05-22T09:14:35Z</time>
      </trkpt>
      <trkpt lat="47.67279" lon="6.03408">
        <ele>216.62</ele>
        <time>2019-05-22T09:14:36Z</time>
      </trkpt>
      <trkpt lat="47.67281" lon="6.03416">
        <ele>216.61</ele>
        <time>2019-05-22T09:14:37Z</time>
      </trkpt>
      <trkpt lat="47.67283" lon="6.03424">
        <ele>216.6</ele>
        <time>2019-05-22T09:14:38Z</time>
      </trkpt>
      <trkpt lat="47.67285" lon="6.03431">
        <ele>216.59</ele>
        <time>2019-05-22T09:14:39Z</time>
      </trkpt>
      <trkpt lat="47.67286" lon="6.03439">
        <ele>216.57</ele>
        <time>2019-05-22T09:14:40Z</time>
      </trkpt>
      <trkpt lat="47.67288" lon="6.03447">
        <ele>216.56</ele>
        <time>2019-05-22T09:14:41Z</time>
      </trkpt>
      <trkpt lat="47.6729" lon="6.03455">
        <ele>216.55</ele>
        <time>2019-05-22T09:14:42Z</time>
      </trkpt>
      <trkpt lat="47.67291" lon="6.03463">
        <ele>216.54</ele>
        <time>2019-05-22T09:14:43Z</time>
      </trkpt>
      <trkpt lat="47.67293" lon="6.03471">
        <ele>216.53</ele>
        <time>2019-05-22T09:14:44Z</time>
      </trkpt>
      <trkpt lat="47.67295" lon="6.03478">
        <ele>216.52</ele>
        <time>2019-05-22T09:14:45Z</time>
      </trkpt>
      <trkpt lat="47.67296" lon="6.03486">
        <ele>216.5</ele>
        <time>2019-05-22T09:14:46Z</time>
      </trkpt>
      <trkpt lat="47.67298" lon="6.03493">
        <ele>216.49</ele>
        <time>2019-05-22T09:14:47Z</time>
      </trkpt>
      <trkpt lat="47.67299" lon="6.03501">
        <ele>216.47</ele>
        <time>2019-05-22T09:14:48Z</time>
      </trkpt>
      <trkpt lat="47.67301" lon="6.03508">
        <ele>216.46</ele>
        <time>2019-05-22T09:14:49Z</time>
      </trkpt>
      <trkpt lat="47.67302" lon="6.03515">
        <ele>216.44</ele>
        <time>2019-05-22T09:14:50Z</time>
      </trkpt>
      <trkpt lat="47.67304" lon="6.03523">
        <ele>216.42</ele>
        <time>2019-05-22T09:14:51Z</time>
      </trkpt>
      <trkpt lat="47.67306" lon="6.0353">
        <ele>216.41</ele>
        <time>2019-05-22T09:14:52Z</time>
      </trkpt>
      <trkpt lat="47.67307" lon="6.03538">
        <ele>216.39</ele>
        <time>2019-05-22T09:14:53Z</time>
      </trkpt>
      <trkpt lat="47.67308" lon="6.03546">
        <ele>216.38</ele>
        <time>2019-05-22T09:14:54Z</time>
      </trkpt>
      <trkpt lat="47.67311" lon="6.03559">
        <ele>216.35</ele>
        <time>2019-05-22T09:14:56Z</time>
      </trkpt>
      <trkpt lat="47.67313" lon="6.03566">
        <ele>216.34</ele>
        <time>2019-05-22T09:14:57Z</time>
      </trkpt>
      <trkpt lat="47.67315" lon="6.03573">
        <ele>216.33</ele>
        <time>2019-05-22T09:14:58Z</time>
      </trkpt>
      <trkpt lat="47.67316" lon="6.0358">
        <ele>216.31</ele>
        <time>2019-05-22T09:14:59Z</time>
      </trkpt>
      <trkpt lat="47.67317" lon="6.03587">
        <ele>216.29</ele>
        <time>2019-05-22T09:15:00Z</time>
      </trkpt>
      <trkpt lat="47.67319" lon="6.03594">
        <ele>216.28</ele>
        <time>2019-05-22T09:15:01Z</time>
      </trkpt>
      <trkpt lat="47.6732" lon="6.03603">
        <ele>216.26</ele>
        <time>2019-05-22T09:15:02Z</time>
      </trkpt>
      <trkpt lat="47.67322" lon="6.0361">
        <ele>216.24</ele>
        <time>2019-05-22T09:15:03Z</time>
      </trkpt>
      <trkpt lat="47.67324" lon="6.03617">
        <ele>216.22</ele>
        <time>2019-05-22T09:15:04Z</time>
      </trkpt>
      <trkpt lat="47.67326" lon="6.03624">
        <ele>216.21</ele>
        <time>2019-05-22T09:15:05Z</time>
      </trkpt>
      <trkpt lat="47.67328" lon="6.03632">
        <ele>216.2</ele>
        <time>2019-05-22T09:15:06Z</time>
      </trkpt>
      <trkpt lat="47.6733" lon="6.0364">
        <ele>216.19</ele>
        <time>2019-05-22T09:15:07Z</time>
      </trkpt>
      <trkpt lat="47.67332" lon="6.03648">
        <ele>216.19</ele>
        <time>2019-05-22T09:15:08Z</time>
      </trkpt>
      <trkpt lat="47.67335" lon="6.03655">
        <ele>216.19</ele>
        <time>2019-05-22T09:15:09Z</time>
      </trkpt>
      <trkpt lat="47.67336" lon="6.03663">
        <ele>216.2</ele>
        <time>2019-05-22T09:15:10Z</time>
      </trkpt>
      <trkpt lat="47.67339" lon="6.0367">
        <ele>216.21</ele>
        <time>2019-05-22T09:15:11Z</time>
      </trkpt>
      <trkpt lat="47.67342" lon="6.03678">
        <ele>216.21</ele>
        <time>2019-05-22T09:15:12Z</time>
      </trkpt>
      <trkpt lat="47.67344" lon="6.03686">
        <ele>216.22</ele>
        <time>2019-05-22T09:15:13Z</time>
      </trkpt>
      <trkpt lat="47.67346" lon="6.03694">
        <ele>216.22</ele>
        <time>2019-05-22T09:15:14Z</time>
      </trkpt>
      <trkpt lat="47.67348" lon="6.03701">
        <ele>216.22</ele>
        <time>2019-05-22T09:15:15Z</time>
      </trkpt>
      <trkpt lat="47.67351" lon="6.03709">
        <ele>216.22</ele>
        <time>2019-05-22T09:15:16Z</time>
      </trkpt>
      <trkpt lat="47.67353" lon="6.03716">
        <ele>216.23</ele>
        <time>2019-05-22T09:15:17Z</time>
      </trkpt>
      <trkpt lat="47.67355" lon="6.03723">
        <ele>216.22</ele>
        <time>2019-05-22T09:15:18Z</time>
      </trkpt>
      <trkpt lat="47.67358" lon="6.03729">
        <ele>216.22</ele>
        <time>2019-05-22T09:15:19Z</time>
      </trkpt>
      <trkpt lat="47.67361" lon="6.03735">
        <ele>216.22</ele>
        <time>2019-05-22T09:15:20Z</time>
      </trkpt>
      <trkpt lat="47.67364" lon="6.03741">
        <ele>216.22</ele>
        <time>2019-05-22T09:15:21Z</time>
      </trkpt>
      <trkpt lat="47.67367" lon="6.03747">
        <ele>216.21</ele>
        <time>2019-05-22T09:15:22Z</time>
      </trkpt>
      <trkpt lat="47.67369" lon="6.03752">
        <ele>216.2</ele>
        <time>2019-05-22T09:15:23Z</time>
      </trkpt>
      <trkpt lat="47.67373" lon="6.03758">
        <ele>216.19</ele>
        <time>2019-05-22T09:15:24Z</time>
      </trkpt>
      <trkpt lat="47.67376" lon="6.03763">
        <ele>216.19</ele>
        <time>2019-05-22T09:15:25Z</time>
      </trkpt>
      <trkpt lat="47.67379" lon="6.03768">
        <ele>216.18</ele>
        <time>2019-05-22T09:15:26Z</time>
      </trkpt>
      <trkpt lat="47.67383" lon="6.03774">
        <ele>216.17</ele>
        <time>2019-05-22T09:15:27Z</time>
      </trkpt>
      <trkpt lat="47.67386" lon="6.0378">
        <ele>216.17</ele>
        <time>2019-05-22T09:15:28Z</time>
      </trkpt>
      <trkpt lat="47.67389" lon="6.03786">
        <ele>216.17</ele>
        <time>2019-05-22T09:15:29Z</time>
      </trkpt>
      <trkpt lat="47.67393" lon="6.03791">
        <ele>216.17</ele>
        <time>2019-05-22T09:15:30Z</time>
      </trkpt>
      <trkpt lat="47.67396" lon="6.03797">
        <ele>216.17</ele>
        <time>2019-05-22T09:15:31Z</time>
      </trkpt>
      <trkpt lat="47.674" lon="6.03803">
        <ele>216.17</ele>
        <time>2019-05-22T09:15:32Z</time>
      </trkpt>
      <trkpt lat="47.67403" lon="6.03808">
        <ele>216.18</ele>
        <time>2019-05-22T09:15:33Z</time>
      </trkpt>
      <trkpt lat="47.67407" lon="6.03813">
        <ele>216.18</ele>
        <time>2019-05-22T09:15:34Z</time>
      </trkpt>
      <trkpt lat="47.6741" lon="6.03819">
        <ele>216.19</ele>
        <time>2019-05-22T09:15:35Z</time>
      </trkpt>
      <trkpt lat="47.67414" lon="6.03824">
        <ele>216.19</ele>
        <time>2019-05-22T09:15:36Z</time>
      </trkpt>
      <trkpt lat="47.67418" lon="6.0383">
        <ele>216.19</ele>
        <time>2019-05-22T09:15:37Z</time>
      </trkpt>
      <trkpt lat="47.67421" lon="6.03836">
        <ele>216.19</ele>
        <time>2019-05-22T09:15:38Z</time>
      </trkpt>
      <trkpt lat="47.67425" lon="6.03842">
        <ele>216.19</ele>
        <time>2019-05-22T09:15:39Z</time>
      </trkpt>
      <trkpt lat="47.67428" lon="6.03847">
        <ele>216.19</ele>
        <time>2019-05-22T09:15:40Z</time>
      </trkpt>
      <trkpt lat="47.67431" lon="6.03853">
        <ele>216.19</ele>
        <time>2019-05-22T09:15:41Z</time>
      </trkpt>
      <trkpt lat="47.67435" lon="6.03859">
        <ele>216.19</ele>
        <time>2019-05-22T09:15:42Z</time>
      </trkpt>
      <trkpt lat="47.67439" lon="6.03865">
        <ele>216.2</ele>
        <time>2019-05-22T09:15:43Z</time>
      </trkpt>
      <trkpt lat="47.67442" lon="6.03871">
        <ele>216.2</ele>
        <time>2019-05-22T09:15:44Z</time>
      </trkpt>
      <trkpt lat="47.67446" lon="6.03878">
        <ele>216.2</ele>
        <time>2019-05-22T09:15:45Z</time>
      </trkpt>
      <trkpt lat="47.67451" lon="6.03884">
        <ele>216.21</ele>
        <time>2019-05-22T09:15:46Z</time>
      </trkpt>
      <trkpt lat="47.67456" lon="6.03891">
        <ele>216.21</ele>
        <time>2019-05-22T09:15:47Z</time>
      </trkpt>
      <trkpt lat="47.6746" lon="6.03897">
        <ele>216.22</ele>
        <time>2019-05-22T09:15:48Z</time>
      </trkpt>
      <trkpt lat="47.67464" lon="6.03902">
        <ele>216.23</ele>
        <time>2019-05-22T09:15:49Z</time>
      </trkpt>
      <trkpt lat="47.67467" lon="6.03908">
        <ele>216.23</ele>
        <time>2019-05-22T09:15:50Z</time>
      </trkpt>
      <trkpt lat="47.67471" lon="6.03913">
        <ele>216.24</ele>
        <time>2019-05-22T09:15:51Z</time>
      </trkpt>
      <trkpt lat="47.67475" lon="6.03919">
        <ele>216.24</ele>
        <time>2019-05-22T09:15:52Z</time>
      </trkpt>
      <trkpt lat="47.67479" lon="6.03924">
        <ele>216.25</ele>
        <time>2019-05-22T09:15:53Z</time>
      </trkpt>
      <trkpt lat="47.67482" lon="6.0393">
        <ele>216.25</ele>
        <time>2019-05-22T09:15:54Z</time>
      </trkpt>
      <trkpt lat="47.67486" lon="6.03936">
        <ele>216.26</ele>
        <time>2019-05-22T09:15:55Z</time>
      </trkpt>
      <trkpt lat="47.67489" lon="6.03942">
        <ele>216.26</ele>
        <time>2019-05-22T09:15:56Z</time>
      </trkpt>
      <trkpt lat="47.67492" lon="6.03948">
        <ele>216.26</ele>
        <time>2019-05-22T09:15:57Z</time>
      </trkpt>
      <trkpt lat="47.67496" lon="6.03954">
        <ele>216.25</ele>
        <time>2019-05-22T09:15:58Z</time>
      </trkpt>
      <trkpt lat="47.67499" lon="6.0396">
        <ele>216.25</ele>
        <time>2019-05-22T09:15:59Z</time>
      </trkpt>
      <trkpt lat="47.67503" lon="6.03966">
        <ele>216.25</ele>
        <time>2019-05-22T09:16:00Z</time>
      </trkpt>
      <trkpt lat="47.67507" lon="6.03972">
        <ele>216.25</ele>
        <time>2019-05-22T09:16:01Z</time>
      </trkpt>
      <trkpt lat="47.67511" lon="6.03978">
        <ele>216.25</ele>
        <time>2019-05-22T09:16:02Z</time>
      </trkpt>
      <trkpt lat="47.67515" lon="6.03983">
        <ele>216.25</ele>
        <time>2019-05-22T09:16:03Z</time>
      </trkpt>
      <trkpt lat="47.6752" lon="6.03987">
        <ele>216.25</ele>
        <time>2019-05-22T09:16:04Z</time>
      </trkpt>
      <trkpt lat="47.67525" lon="6.0399">
        <ele>216.25</ele>
        <time>2019-05-22T09:16:05Z</time>
      </trkpt>
      <trkpt lat="47.6753" lon="6.03993">
        <ele>216.24</ele>
        <time>2019-05-22T09:16:06Z</time>
      </trkpt>
      <trkpt lat="47.67535" lon="6.03993">
        <ele>216.24</ele>
        <time>2019-05-22T09:16:07Z</time>
      </trkpt>
      <trkpt lat="47.6754" lon="6.03992">
        <ele>216.25</ele>
        <time>2019-05-22T09:16:08Z</time>
      </trkpt>
      <trkpt lat="47.67545" lon="6.03991">
        <ele>216.25</ele>
        <time>2019-05-22T09:16:09Z</time>
      </trkpt>
      <trkpt lat="47.6755" lon="6.03989">
        <ele>216.26</ele>
        <time>2019-05-22T09:16:10Z</time>
      </trkpt>
      <trkpt lat="47.67554" lon="6.03987">
        <ele>216.26</ele>
        <time>2019-05-22T09:16:11Z</time>
      </trkpt>
      <trkpt lat="47.67562" lon="6.03984">
        <ele>216.28</ele>
        <time>2019-05-22T09:16:13Z</time>
      </trkpt>
      <trkpt lat="47.67569" lon="6.0398">
        <ele>216.3</ele>
        <time>2019-05-22T09:16:15Z</time>
      </trkpt>
      <trkpt lat="47.67576" lon="6.03975">
        <ele>216.31</ele>
        <time>2019-05-22T09:16:17Z</time>
      </trkpt>
      <trkpt lat="47.67581" lon="6.0397">
        <ele>216.31</ele>
        <time>2019-05-22T09:16:19Z</time>
      </trkpt>
      <trkpt lat="47.67585" lon="6.03964">
        <ele>216.32</ele>
        <time>2019-05-22T09:16:21Z</time>
      </trkpt>
      <trkpt lat="47.6759" lon="6.03958">
        <ele>216.32</ele>
        <time>2019-05-22T09:16:23Z</time>
      </trkpt>
      <trkpt lat="47.67595" lon="6.03954">
        <ele>216.33</ele>
        <time>2019-05-22T09:16:25Z</time>
      </trkpt>
      <trkpt lat="47.676" lon="6.03948">
        <ele>216.34</ele>
        <time>2019-05-22T09:16:28Z</time>
      </trkpt>
      <trkpt lat="47.67604" lon="6.03944">
        <ele>216.35</ele>
        <time>2019-05-22T09:16:30Z</time>
      </trkpt>
      <trkpt lat="47.67608" lon="6.03939">
        <ele>216.36</ele>
        <time>2019-05-22T09:16:32Z</time>
      </trkpt>
      <trkpt lat="47.67613" lon="6.03933">
        <ele>216.37</ele>
        <time>2019-05-22T09:16:34Z</time>
      </trkpt>
      <trkpt lat="47.67618" lon="6.03926">
        <ele>216.39</ele>
        <time>2019-05-22T09:16:36Z</time>
      </trkpt>
      <trkpt lat="47.67623" lon="6.03921">
        <ele>216.4</ele>
        <time>2019-05-22T09:16:38Z</time>
      </trkpt>
      <trkpt lat="47.67627" lon="6.03917">
        <ele>216.42</ele>
        <time>2019-05-22T09:16:40Z</time>
      </trkpt>
      <trkpt lat="47.67631" lon="6.03912">
        <ele>216.44</ele>
        <time>2019-05-22T09:16:42Z</time>
      </trkpt>
      <trkpt lat="47.67635" lon="6.03908">
        <ele>216.46</ele>
        <time>2019-05-22T09:16:44Z</time>
      </trkpt>
      <trkpt lat="47.6764" lon="6.03904">
        <ele>216.48</ele>
        <time>2019-05-22T09:16:46Z</time>
      </trkpt>
      <trkpt lat="47.67645" lon="6.03899">
        <ele>216.5</ele>
        <time>2019-05-22T09:16:48Z</time>
      </trkpt>
      <trkpt lat="47.67649" lon="6.03894">
        <ele>216.53</ele>
        <time>2019-05-22T09:16:50Z</time>
      </trkpt>
      <trkpt lat="47.67654" lon="6.03888">
        <ele>216.55</ele>
        <time>2019-05-22T09:16:52Z</time>
      </trkpt>
      <trkpt lat="47.6766" lon="6.03881">
        <ele>216.58</ele>
        <time>2019-05-22T09:16:54Z</time>
      </trkpt>
      <trkpt lat="47.67665" lon="6.03876">
        <ele>216.61</ele>
        <time>2019-05-22T09:16:56Z</time>
      </trkpt>
      <trkpt lat="47.67671" lon="6.0387">
        <ele>216.64</ele>
        <time>2019-05-22T09:16:58Z</time>
      </trkpt>
      <trkpt lat="47.67677" lon="6.03864">
        <ele>216.76</ele>
        <time>2019-05-22T09:17:00Z</time>
      </trkpt>
      <trkpt lat="47.67681" lon="6.0386">
        <ele>216.8</ele>
        <time>2019-05-22T09:17:01Z</time>
      </trkpt>
      <trkpt lat="47.67687" lon="6.03854">
        <ele>216.84</ele>
        <time>2019-05-22T09:17:03Z</time>
      </trkpt>
      <trkpt lat="47.67693" lon="6.03847">
        <ele>216.94</ele>
        <time>2019-05-22T09:17:05Z</time>
      </trkpt>
      <trkpt lat="47.67699" lon="6.03839">
        <ele>217.13</ele>
        <time>2019-05-22T09:17:07Z</time>
      </trkpt>
      <trkpt lat="47.67707" lon="6.03831">
        <ele>217.27</ele>
        <time>2019-05-22T09:17:09Z</time>
      </trkpt>
      <trkpt lat="47.67712" lon="6.03825">
        <ele>217.33</ele>
        <time>2019-05-22T09:17:10Z</time>
      </trkpt>
      <trkpt lat="47.6772" lon="6.03817">
        <ele>217.45</ele>
        <time>2019-05-22T09:17:12Z</time>
      </trkpt>
      <trkpt lat="47.67724" lon="6.03814">
        <ele>217.5</ele>
        <time>2019-05-22T09:17:13Z</time>
      </trkpt>
      <trkpt lat="47.67731" lon="6.03806">
        <ele>217.59</ele>
        <time>2019-05-22T09:17:15Z</time>
      </trkpt>
      <trkpt lat="47.67735" lon="6.03802">
        <ele>217.64</ele>
        <time>2019-05-22T09:17:16Z</time>
      </trkpt>
      <trkpt lat="47.67742" lon="6.03795">
        <ele>217.71</ele>
        <time>2019-05-22T09:17:18Z</time>
      </trkpt>
      <trkpt lat="47.67748" lon="6.03788">
        <ele>217.78</ele>
        <time>2019-05-22T09:17:20Z</time>
      </trkpt>
      <trkpt lat="47.67755" lon="6.03781">
        <ele>217.84</ele>
        <time>2019-05-22T09:17:22Z</time>
      </trkpt>
      <trkpt lat="47.67761" lon="6.03775">
        <ele>217.89</ele>
        <time>2019-05-22T09:17:24Z</time>
      </trkpt>
      <trkpt lat="47.67767" lon="6.03768">
        <ele>217.91</ele>
        <time>2019-05-22T09:17:26Z</time>
      </trkpt>
      <trkpt lat="47.67773" lon="6.03763">
        <ele>217.91</ele>
        <time>2019-05-22T09:17:28Z</time>
      </trkpt>
      <trkpt lat="47.6778" lon="6.03758">
        <ele>217.95</ele>
        <time>2019-05-22T09:17:30Z</time>
      </trkpt>
      <trkpt lat="47.67784" lon="6.03752">
        <ele>217.96</ele>
        <time>2019-05-22T09:17:32Z</time>
      </trkpt>
      <trkpt lat="47.67788" lon="6.03749">
        <ele>217.97</ele>
        <time>2019-05-22T09:17:34Z</time>
      </trkpt>
      <trkpt lat="47.67794" lon="6.03743">
        <ele>218.03</ele>
        <time>2019-05-22T09:17:36Z</time>
      </trkpt>
      <trkpt lat="47.678" lon="6.03737">
        <ele>218.07</ele>
        <time>2019-05-22T09:17:38Z</time>
      </trkpt>
      <trkpt lat="47.67808" lon="6.03731">
        <ele>218.08</ele>
        <time>2019-05-22T09:17:40Z</time>
      </trkpt>
      <trkpt lat="47.67814" lon="6.03727">
        <ele>218.09</ele>
        <time>2019-05-22T09:17:42Z</time>
      </trkpt>
      <trkpt lat="47.67819" lon="6.03722">
        <ele>218.1</ele>
        <time>2019-05-22T09:17:44Z</time>
      </trkpt>
      <trkpt lat="47.67824" lon="6.03719">
        <ele>218.11</ele>
        <time>2019-05-22T09:17:46Z</time>
      </trkpt>
      <trkpt lat="47.67829" lon="6.03715">
        <ele>218.12</ele>
        <time>2019-05-22T09:17:48Z</time>
      </trkpt>
      <trkpt lat="47.67836" lon="6.03712">
        <ele>218.13</ele>
        <time>2019-05-22T09:17:50Z</time>
      </trkpt>
      <trkpt lat="47.67841" lon="6.03708">
        <ele>218.14</ele>
        <time>2019-05-22T09:17:52Z</time>
      </trkpt>
      <trkpt lat="47.67848" lon="6.03702">
        <ele>218.15</ele>
        <time>2019-05-22T09:17:54Z</time>
      </trkpt>
      <trkpt lat="47.67854" lon="6.03698">
        <ele>218.17</ele>
        <time>2019-05-22T09:17:56Z</time>
      </trkpt>
      <trkpt lat="47.67861" lon="6.03693">
        <ele>218.18</ele>
        <time>2019-05-22T09:17:58Z</time>
      </trkpt>
      <trkpt lat="47.67868" lon="6.03689">
        <ele>218.29</ele>
        <time>2019-05-22T09:18:00Z</time>
      </trkpt>
      <trkpt lat="47.67872" lon="6.03686">
        <ele>218.34</ele>
        <time>2019-05-22T09:18:01Z</time>
      </trkpt>
      <trkpt lat="47.67879" lon="6.03683">
        <ele>218.37</ele>
        <time>2019-05-22T09:18:03Z</time>
      </trkpt>
      <trkpt lat="47.67885" lon="6.03679">
        <ele>218.38</ele>
        <time>2019-05-22T09:18:05Z</time>
      </trkpt>
      <trkpt lat="47.67891" lon="6.03676">
        <ele>218.4</ele>
        <time>2019-05-22T09:18:07Z</time>
      </trkpt>
      <trkpt lat="47.67897" lon="6.03672">
        <ele>218.41</ele>
        <time>2019-05-22T09:18:09Z</time>
      </trkpt>
      <trkpt lat="47.67903" lon="6.03669">
        <ele>218.42</ele>
        <time>2019-05-22T09:18:11Z</time>
      </trkpt>
      <trkpt lat="47.67908" lon="6.03666">
        <ele>218.44</ele>
        <time>2019-05-22T09:18:13Z</time>
      </trkpt>
      <trkpt lat="47.67913" lon="6.03662">
        <ele>218.45</ele>
        <time>2019-05-22T09:18:15Z</time>
      </trkpt>
      <trkpt lat="47.67919" lon="6.03658">
        <ele>218.46</ele>
        <time>2019-05-22T09:18:17Z</time>
      </trkpt>
      <trkpt lat="47.67925" lon="6.03653">
        <ele>218.47</ele>
        <time>2019-05-22T09:18:19Z</time>
      </trkpt>
      <trkpt lat="47.67932" lon="6.03649">
        <ele>218.48</ele>
        <time>2019-05-22T09:18:21Z</time>
      </trkpt>
      <trkpt lat="47.67939" lon="6.03646">
        <ele>218.49</ele>
        <time>2019-05-22T09:18:23Z</time>
      </trkpt>
      <trkpt lat="47.67944" lon="6.03643">
        <ele>218.5</ele>
        <time>2019-05-22T09:18:25Z</time>
      </trkpt>
      <trkpt lat="47.67951" lon="6.03639">
        <ele>218.51</ele>
        <time>2019-05-22T09:18:27Z</time>
      </trkpt>
      <trkpt lat="47.67957" lon="6.03635">
        <ele>218.52</ele>
        <time>2019-05-22T09:18:29Z</time>
      </trkpt>
      <trkpt lat="47.67964" lon="6.0363">
        <ele>218.53</ele>
        <time>2019-05-22T09:18:31Z</time>
      </trkpt>
      <trkpt lat="47.67972" lon="6.03625">
        <ele>218.58</ele>
        <time>2019-05-22T09:18:33Z</time>
      </trkpt>
      <trkpt lat="47.67979" lon="6.0362">
        <ele>218.6</ele>
        <time>2019-05-22T09:18:35Z</time>
      </trkpt>
      <trkpt lat="47.67986" lon="6.03615">
        <ele>218.65</ele>
        <time>2019-05-22T09:18:37Z</time>
      </trkpt>
      <trkpt lat="47.67992" lon="6.03611">
        <ele>218.74</ele>
        <time>2019-05-22T09:18:39Z</time>
      </trkpt>
      <trkpt lat="47.68" lon="6.03605">
        <ele>218.76</ele>
        <time>2019-05-22T09:18:41Z</time>
      </trkpt>
      <trkpt lat="47.68006" lon="6.036">
        <ele>218.77</ele>
        <time>2019-05-22T09:18:43Z</time>
      </trkpt>
      <trkpt lat="47.68013" lon="6.03595">
        <ele>218.78</ele>
        <time>2019-05-22T09:18:45Z</time>
      </trkpt>
      <trkpt lat="47.68019" lon="6.03591">
        <ele>218.79</ele>
        <time>2019-05-22T09:18:47Z</time>
      </trkpt>
      <trkpt lat="47.68025" lon="6.03585">
        <ele>218.79</ele>
        <time>2019-05-22T09:18:49Z</time>
      </trkpt>
      <trkpt lat="47.68031" lon="6.0358">
        <ele>218.8</ele>
        <time>2019-05-22T09:18:51Z</time>
      </trkpt>
      <trkpt lat="47.68037" lon="6.03575">
        <ele>218.82</ele>
        <time>2019-05-22T09:18:53Z</time>
      </trkpt>
      <trkpt lat="47.68043" lon="6.03573">
        <ele>218.86</ele>
        <time>2019-05-22T09:18:55Z</time>
      </trkpt>
      <trkpt lat="47.6805" lon="6.03573">
        <ele>218.92</ele>
        <time>2019-05-22T09:18:57Z</time>
      </trkpt>
      <trkpt lat="47.68057" lon="6.03573">
        <ele>218.93</ele>
        <time>2019-05-22T09:18:59Z</time>
      </trkpt>
      <trkpt lat="47.68064" lon="6.03574">
        <ele>218.94</ele>
        <time>2019-05-22T09:19:01Z</time>
      </trkpt>
      <trkpt lat="47.6807" lon="6.03574">
        <ele>218.95</ele>
        <time>2019-05-22T09:19:03Z</time>
      </trkpt>
      <trkpt lat="47.68077" lon="6.03576">
        <ele>218.96</ele>
        <time>2019-05-22T09:19:05Z</time>
      </trkpt>
      <trkpt lat="47.68084" lon="6.03577">
        <ele>218.96</ele>
        <time>2019-05-22T09:19:07Z</time>
      </trkpt>
      <trkpt lat="47.6809" lon="6.03579">
        <ele>219</ele>
        <time>2019-05-22T09:19:09Z</time>
      </trkpt>
      <trkpt lat="47.68097" lon="6.03581">
        <ele>219.01</ele>
        <time>2019-05-22T09:19:11Z</time>
      </trkpt>
      <trkpt lat="47.68104" lon="6.03582">
        <ele>219.02</ele>
        <time>2019-05-22T09:19:13Z</time>
      </trkpt>
      <trkpt lat="47.68112" lon="6.03585">
        <ele>219.03</ele>
        <time>2019-05-22T09:19:15Z</time>
      </trkpt>
      <trkpt lat="47.68118" lon="6.03586">
        <ele>219.03</ele>
        <time>2019-05-22T09:19:17Z</time>
      </trkpt>
      <trkpt lat="47.68124" lon="6.03587">
        <ele>219.04</ele>
        <time>2019-05-22T09:19:19Z</time>
      </trkpt>
      <trkpt lat="47.68131" lon="6.03587">
        <ele>219.04</ele>
        <time>2019-05-22T09:19:21Z</time>
      </trkpt>
      <trkpt lat="47.68138" lon="6.03586">
        <ele>219.05</ele>
        <time>2019-05-22T09:19:23Z</time>
      </trkpt>
      <trkpt lat="47.68145" lon="6.03584">
        <ele>219.05</ele>
        <time>2019-05-22T09:19:25Z</time>
      </trkpt>
      <trkpt lat="47.68153" lon="6.03582">
        <ele>219.05</ele>
        <time>2019-05-22T09:19:27Z</time>
      </trkpt>
      <trkpt lat="47.6816" lon="6.0358">
        <ele>219.05</ele>
        <time>2019-05-22T09:19:29Z</time>
      </trkpt>
      <trkpt lat="47.68167" lon="6.03578">
        <ele>219.06</ele>
        <time>2019-05-22T09:19:31Z</time>
      </trkpt>
      <trkpt lat="47.68174" lon="6.03576">
        <ele>219.06</ele>
        <time>2019-05-22T09:19:33Z</time>
      </trkpt>
      <trkpt lat="47.68181" lon="6.03575">
        <ele>219.06</ele>
        <time>2019-05-22T09:19:35Z</time>
      </trkpt>
      <trkpt lat="47.68187" lon="6.03574">
        <ele>219.07</ele>
        <time>2019-05-22T09:19:37Z</time>
      </trkpt>
      <trkpt lat="47.68194" lon="6.03573">
        <ele>219.07</ele>
        <time>2019-05-22T09:19:39Z</time>
      </trkpt>
      <trkpt lat="47.68201" lon="6.03572">
        <ele>219.07</ele>
        <time>2019-05-22T09:19:41Z</time>
      </trkpt>
      <trkpt lat="47.68207" lon="6.03571">
        <ele>219.08</ele>
        <time>2019-05-22T09:19:43Z</time>
      </trkpt>
      <trkpt lat="47.68214" lon="6.03571">
        <ele>219.08</ele>
        <time>2019-05-22T09:19:45Z</time>
      </trkpt>
      <trkpt lat="47.6822" lon="6.03571">
        <ele>219.08</ele>
        <time>2019-05-22T09:19:47Z</time>
      </trkpt>
      <trkpt lat="47.68226" lon="6.03571">
        <ele>219.09</ele>
        <time>2019-05-22T09:19:49Z</time>
      </trkpt>
      <trkpt lat="47.68232" lon="6.0357">
        <ele>219.09</ele>
        <time>2019-05-22T09:19:51Z</time>
      </trkpt>
      <trkpt lat="47.68239" lon="6.0357">
        <ele>219.09</ele>
        <time>2019-05-22T09:19:53Z</time>
      </trkpt>
      <trkpt lat="47.68246" lon="6.03571">
        <ele>219.1</ele>
        <time>2019-05-22T09:19:55Z</time>
      </trkpt>
      <trkpt lat="47.68252" lon="6.03572">
        <ele>219.1</ele>
        <time>2019-05-22T09:19:57Z</time>
      </trkpt>
      <trkpt lat="47.68259" lon="6.03573">
        <ele>219.11</ele>
        <time>2019-05-22T09:19:59Z</time>
      </trkpt>
      <trkpt lat="47.68265" lon="6.03574">
        <ele>219.11</ele>
        <time>2019-05-22T09:20:01Z</time>
      </trkpt>
      <trkpt lat="47.6827" lon="6.03574">
        <ele>219.11</ele>
        <time>2019-05-22T09:20:03Z</time>
      </trkpt>
      <trkpt lat="47.68276" lon="6.03575">
        <ele>219.11</ele>
        <time>2019-05-22T09:20:05Z</time>
      </trkpt>
      <trkpt lat="47.68283" lon="6.03576">
        <ele>219.11</ele>
        <time>2019-05-22T09:20:07Z</time>
      </trkpt>
      <trkpt lat="47.68289" lon="6.03578">
        <ele>219.11</ele>
        <time>2019-05-22T09:20:09Z</time>
      </trkpt>
      <trkpt lat="47.68296" lon="6.03579">
        <ele>219.11</ele>
        <time>2019-05-22T09:20:11Z</time>
      </trkpt>
      <trkpt lat="47.68302" lon="6.03581">
        <ele>219.11</ele>
        <time>2019-05-22T09:20:13Z</time>
      </trkpt>
      <trkpt lat="47.68308" lon="6.03582">
        <ele>219.11</ele>
        <time>2019-05-22T09:20:15Z</time>
      </trkpt>
      <trkpt lat="47.68314" lon="6.03583">
        <ele>219.11</ele>
        <time>2019-05-22T09:20:17Z</time>
      </trkpt>
      <trkpt lat="47.6832" lon="6.03585">
        <ele>219.11</ele>
        <time>2019-05-22T09:20:19Z</time>
      </trkpt>
      <trkpt lat="47.68327" lon="6.03587">
        <ele>219.11</ele>
        <time>2019-05-22T09:20:21Z</time>
      </trkpt>
      <trkpt lat="47.68333" lon="6.03589">
        <ele>219.1</ele>
        <time>2019-05-22T09:20:23Z</time>
      </trkpt>
      <trkpt lat="47.6834" lon="6.03591">
        <ele>219.1</ele>
        <time>2019-05-22T09:20:25Z</time>
      </trkpt>
      <trkpt lat="47.68347" lon="6.03593">
        <ele>219.09</ele>
        <time>2019-05-22T09:20:27Z</time>
      </trkpt>
      <trkpt lat="47.68354" lon="6.03595">
        <ele>219.09</ele>
        <time>2019-05-22T09:20:29Z</time>
      </trkpt>
      <trkpt lat="47.68361" lon="6.03597">
        <ele>219.09</ele>
        <time>2019-05-22T09:20:31Z</time>
      </trkpt>
      <trkpt lat="47.68367" lon="6.036">
        <ele>219.08</ele>
        <time>2019-05-22T09:20:33Z</time>
      </trkpt>
      <trkpt lat="47.68374" lon="6.03602">
        <ele>219.07</ele>
        <time>2019-05-22T09:20:35Z</time>
      </trkpt>
      <trkpt lat="47.6838" lon="6.03606">
        <ele>219.07</ele>
        <time>2019-05-22T09:20:37Z</time>
      </trkpt>
      <trkpt lat="47.68387" lon="6.03609">
        <ele>219.06</ele>
        <time>2019-05-22T09:20:39Z</time>
      </trkpt>
      <trkpt lat="47.68393" lon="6.03613">
        <ele>219.05</ele>
        <time>2019-05-22T09:20:41Z</time>
      </trkpt>
      <trkpt lat="47.684" lon="6.03616">
        <ele>219.05</ele>
        <time>2019-05-22T09:20:43Z</time>
      </trkpt>
      <trkpt lat="47.68406" lon="6.0362">
        <ele>219.04</ele>
        <time>2019-05-22T09:20:45Z</time>
      </trkpt>
      <trkpt lat="47.68413" lon="6.03623">
        <ele>219.03</ele>
        <time>2019-05-22T09:20:47Z</time>
      </trkpt>
      <trkpt lat="47.6842" lon="6.03627">
        <ele>219.02</ele>
        <time>2019-05-22T09:20:49Z</time>
      </trkpt>
      <trkpt lat="47.68426" lon="6.03628">
        <ele>219.01</ele>
        <time>2019-05-22T09:20:51Z</time>
      </trkpt>
      <trkpt lat="47.68433" lon="6.03628">
        <ele>219</ele>
        <time>2019-05-22T09:20:53Z</time>
      </trkpt>
      <trkpt lat="47.6844" lon="6.03626">
        <ele>218.99</ele>
        <time>2019-05-22T09:20:55Z</time>
      </trkpt>
      <trkpt lat="47.68448" lon="6.03624">
        <ele>218.98</ele>
        <time>2019-05-22T09:20:57Z</time>
      </trkpt>
      <trkpt lat="47.68454" lon="6.03622">
        <ele>218.97</ele>
        <time>2019-05-22T09:20:59Z</time>
      </trkpt>
      <trkpt lat="47.68459" lon="6.0362">
        <ele>218.96</ele>
        <time>2019-05-22T09:21:01Z</time>
      </trkpt>
      <trkpt lat="47.68464" lon="6.03618">
        <ele>218.96</ele>
        <time>2019-05-22T09:21:03Z</time>
      </trkpt>
      <trkpt lat="47.6847" lon="6.03618">
        <ele>218.95</ele>
        <time>2019-05-22T09:21:05Z</time>
      </trkpt>
      <trkpt lat="47.68475" lon="6.0362">
        <ele>218.95</ele>
        <time>2019-05-22T09:21:07Z</time>
      </trkpt>
      <trkpt lat="47.6848" lon="6.03622">
        <ele>218.94</ele>
        <time>2019-05-22T09:21:09Z</time>
      </trkpt>
      <trkpt lat="47.68485" lon="6.03624">
        <ele>218.94</ele>
        <time>2019-05-22T09:21:11Z</time>
      </trkpt>
      <trkpt lat="47.6849" lon="6.03627">
        <ele>218.94</ele>
        <time>2019-05-22T09:21:13Z</time>
      </trkpt>
      <trkpt lat="47.68496" lon="6.0363">
        <ele>218.94</ele>
        <time>2019-05-22T09:21:15Z</time>
      </trkpt>
      <trkpt lat="47.68501" lon="6.03632">
        <ele>218.94</ele>
        <time>2019-05-22T09:21:17Z</time>
      </trkpt>
      <trkpt lat="47.68506" lon="6.03634">
        <ele>218.94</ele>
        <time>2019-05-22T09:21:19Z</time>
      </trkpt>
      <trkpt lat="47.68511" lon="6.03637">
        <ele>218.94</ele>
        <time>2019-05-22T09:21:21Z</time>
      </trkpt>
      <trkpt lat="47.68517" lon="6.03639">
        <ele>218.95</ele>
        <time>2019-05-22T09:21:23Z</time>
      </trkpt>
      <trkpt lat="47.68523" lon="6.03642">
        <ele>218.95</ele>
        <time>2019-05-22T09:21:25Z</time>
      </trkpt>
      <trkpt lat="47.68529" lon="6.03644">
        <ele>218.96</ele>
        <time>2019-05-22T09:21:27Z</time>
      </trkpt>
      <trkpt lat="47.68535" lon="6.03647">
        <ele>218.97</ele>
        <time>2019-05-22T09:21:29Z</time>
      </trkpt>
      <trkpt lat="47.68542" lon="6.03649">
        <ele>218.97</ele>
        <time>2019-05-22T09:21:31Z</time>
      </trkpt>
      <trkpt lat="47.68549" lon="6.0365">
        <ele>218.98</ele>
        <time>2019-05-22T09:21:33Z</time>
      </trkpt>
      <trkpt lat="47.68557" lon="6.0365">
        <ele>218.99</ele>
        <time>2019-05-22T09:21:35Z</time>
      </trkpt>
      <trkpt lat="47.68564" lon="6.03651">
        <ele>219.03</ele>
        <time>2019-05-22T09:21:37Z</time>
      </trkpt>
      <trkpt lat="47.68572" lon="6.03652">
        <ele>219.04</ele>
        <time>2019-05-22T09:21:39Z</time>
      </trkpt>
      <trkpt lat="47.68579" lon="6.03651">
        <ele>219.05</ele>
        <time>2019-05-22T09:21:41Z</time>
      </trkpt>
      <trkpt lat="47.68586" lon="6.03648">
        <ele>219.06</ele>
        <time>2019-05-22T09:21:43Z</time>
      </trkpt>
      <trkpt lat="47.68591" lon="6.03643">
        <ele>219.07</ele>
        <time>2019-05-22T09:21:45Z</time>
      </trkpt>
      <trkpt lat="47.68596" lon="6.03639">
        <ele>219.09</ele>
        <time>2019-05-22T09:21:47Z</time>
      </trkpt>
      <trkpt lat="47.686" lon="6.03636">
        <ele>219.1</ele>
        <time>2019-05-22T09:21:49Z</time>
      </trkpt>
      <trkpt lat="47.68605" lon="6.03633">
        <ele>219.11</ele>
        <time>2019-05-22T09:21:51Z</time>
      </trkpt>
      <trkpt lat="47.6861" lon="6.0363">
        <ele>219.13</ele>
        <time>2019-05-22T09:21:53Z</time>
      </trkpt>
      <trkpt lat="47.68617" lon="6.03628">
        <ele>219.14</ele>
        <time>2019-05-22T09:21:55Z</time>
      </trkpt>
      <trkpt lat="47.68622" lon="6.03629">
        <ele>219.16</ele>
        <time>2019-05-22T09:21:57Z</time>
      </trkpt>
      <trkpt lat="47.68628" lon="6.0363">
        <ele>219.18</ele>
        <time>2019-05-22T09:21:59Z</time>
      </trkpt>
      <trkpt lat="47.68635" lon="6.03632">
        <ele>219.19</ele>
        <time>2019-05-22T09:22:01Z</time>
      </trkpt>
      <trkpt lat="47.68642" lon="6.03633">
        <ele>219.21</ele>
        <time>2019-05-22T09:22:03Z</time>
      </trkpt>
      <trkpt lat="47.68649" lon="6.03634">
        <ele>219.22</ele>
        <time>2019-05-22T09:22:05Z</time>
      </trkpt>
      <trkpt lat="47.68656" lon="6.03635">
        <ele>219.23</ele>
        <time>2019-05-22T09:22:07Z</time>
      </trkpt>
      <trkpt lat="47.68664" lon="6.03636">
        <ele>219.33</ele>
        <time>2019-05-22T09:22:09Z</time>
      </trkpt>
      <trkpt lat="47.68672" lon="6.03637">
        <ele>219.42</ele>
        <time>2019-05-22T09:22:11Z</time>
      </trkpt>
      <trkpt lat="47.68682" lon="6.03639">
        <ele>219.48</ele>
        <time>2019-05-22T09:22:13Z</time>
      </trkpt>
      <trkpt lat="47.68691" lon="6.0364">
        <ele>219.52</ele>
        <time>2019-05-22T09:22:15Z</time>
      </trkpt>
      <trkpt lat="47.68699" lon="6.03642">
        <ele>219.55</ele>
        <time>2019-05-22T09:22:17Z</time>
      </trkpt>
      <trkpt lat="47.68704" lon="6.03642">
        <ele>219.56</ele>
        <time>2019-05-22T09:22:18Z</time>
      </trkpt>
      <trkpt lat="47.68712" lon="6.03644">
        <ele>219.58</ele>
        <time>2019-05-22T09:22:20Z</time>
      </trkpt>
      <trkpt lat="47.6872" lon="6.03646">
        <ele>219.59</ele>
        <time>2019-05-22T09:22:22Z</time>
      </trkpt>
      <trkpt lat="47.68728" lon="6.03648">
        <ele>219.59</ele>
        <time>2019-05-22T09:22:24Z</time>
      </trkpt>
      <trkpt lat="47.68736" lon="6.03649">
        <ele>219.59</ele>
        <time>2019-05-22T09:22:26Z</time>
      </trkpt>
      <trkpt lat="47.68743" lon="6.0365">
        <ele>219.59</ele>
        <time>2019-05-22T09:22:28Z</time>
      </trkpt>
      <trkpt lat="47.6875" lon="6.03651">
        <ele>219.59</ele>
        <time>2019-05-22T09:22:30Z</time>
      </trkpt>
      <trkpt lat="47.68757" lon="6.03653">
        <ele>219.59</ele>
        <time>2019-05-22T09:22:32Z</time>
      </trkpt>
      <trkpt lat="47.68764" lon="6.03654">
        <ele>219.59</ele>
        <time>2019-05-22T09:22:34Z</time>
      </trkpt>
      <trkpt lat="47.68771" lon="6.03655">
        <ele>219.6</ele>
        <time>2019-05-22T09:22:36Z</time>
      </trkpt>
      <trkpt lat="47.68778" lon="6.03656">
        <ele>219.6</ele>
        <time>2019-05-22T09:22:38Z</time>
      </trkpt>
      <trkpt lat="47.68784" lon="6.03656">
        <ele>219.6</ele>
        <time>2019-05-22T09:22:40Z</time>
      </trkpt>
      <trkpt lat="47.68791" lon="6.03656">
        <ele>219.61</ele>
        <time>2019-05-22T09:22:42Z</time>
      </trkpt>
      <trkpt lat="47.68799" lon="6.03657">
        <ele>219.61</ele>
        <time>2019-05-22T09:22:44Z</time>
      </trkpt>
      <trkpt lat="47.68806" lon="6.03657">
        <ele>219.62</ele>
        <time>2019-05-22T09:22:46Z</time>
      </trkpt>
      <trkpt lat="47.68813" lon="6.03657">
        <ele>219.66</ele>
        <time>2019-05-22T09:22:48Z</time>
      </trkpt>
      <trkpt lat="47.6882" lon="6.03658">
        <ele>219.69</ele>
        <time>2019-05-22T09:22:49Z</time>
      </trkpt>
      <trkpt lat="47.68828" lon="6.03659">
        <ele>219.74</ele>
        <time>2019-05-22T09:22:51Z</time>
      </trkpt>
      <trkpt lat="47.68832" lon="6.03659">
        <ele>219.75</ele>
        <time>2019-05-22T09:22:52Z</time>
      </trkpt>
      <trkpt lat="47.68837" lon="6.0366">
        <ele>219.76</ele>
        <time>2019-05-22T09:22:53Z</time>
      </trkpt>
      <trkpt lat="47.68842" lon="6.0366">
        <ele>219.77</ele>
        <time>2019-05-22T09:22:54Z</time>
      </trkpt>
      <trkpt lat="47.68847" lon="6.0366">
        <ele>219.78</ele>
        <time>2019-05-22T09:22:55Z</time>
      </trkpt>
      <trkpt lat="47.68853" lon="6.0366">
        <ele>219.78</ele>
        <time>2019-05-22T09:22:56Z</time>
      </trkpt>
      <trkpt lat="47.68858" lon="6.03659">
        <ele>219.78</ele>
        <time>2019-05-22T09:22:57Z</time>
      </trkpt>
      <trkpt lat="47.68863" lon="6.03658">
        <ele>219.78</ele>
        <time>2019-05-22T09:22:58Z</time>
      </trkpt>
      <trkpt lat="47.68869" lon="6.03658">
        <ele>219.79</ele>
        <time>2019-05-22T09:22:59Z</time>
      </trkpt>
      <trkpt lat="47.68874" lon="6.03658">
        <ele>219.79</ele>
        <time>2019-05-22T09:23:00Z</time>
      </trkpt>
      <trkpt lat="47.68878" lon="6.03658">
        <ele>219.79</ele>
        <time>2019-05-22T09:23:01Z</time>
      </trkpt>
      <trkpt lat="47.68883" lon="6.03659">
        <ele>219.8</ele>
        <time>2019-05-22T09:23:02Z</time>
      </trkpt>
      <trkpt lat="47.68888" lon="6.0366">
        <ele>219.81</ele>
        <time>2019-05-22T09:23:03Z</time>
      </trkpt>
      <trkpt lat="47.68896" lon="6.03663">
        <ele>219.82</ele>
        <time>2019-05-22T09:23:05Z</time>
      </trkpt>
      <trkpt lat="47.68901" lon="6.03664">
        <ele>219.83</ele>
        <time>2019-05-22T09:23:06Z</time>
      </trkpt>
      <trkpt lat="47.68905" lon="6.03665">
        <ele>219.83</ele>
        <time>2019-05-22T09:23:07Z</time>
      </trkpt>
      <trkpt lat="47.6891" lon="6.03666">
        <ele>219.83</ele>
        <time>2019-05-22T09:23:08Z</time>
      </trkpt>
      <trkpt lat="47.68914" lon="6.03668">
        <ele>219.84</ele>
        <time>2019-05-22T09:23:09Z</time>
      </trkpt>
      <trkpt lat="47.68919" lon="6.0367">
        <ele>219.84</ele>
        <time>2019-05-22T09:23:10Z</time>
      </trkpt>
      <trkpt lat="47.68924" lon="6.03673">
        <ele>219.85</ele>
        <time>2019-05-22T09:23:11Z</time>
      </trkpt>
      <trkpt lat="47.68928" lon="6.03675">
        <ele>219.85</ele>
        <time>2019-05-22T09:23:12Z</time>
      </trkpt>
      <trkpt lat="47.68933" lon="6.03677">
        <ele>219.85</ele>
        <time>2019-05-22T09:23:13Z</time>
      </trkpt>
      <trkpt lat="47.68937" lon="6.0368">
        <ele>219.85</ele>
        <time>2019-05-22T09:23:14Z</time>
      </trkpt>
      <trkpt lat="47.68942" lon="6.03682">
        <ele>219.85</ele>
        <time>2019-05-22T09:23:15Z</time>
      </trkpt>
      <trkpt lat="47.68946" lon="6.03685">
        <ele>219.85</ele>
        <time>2019-05-22T09:23:16Z</time>
      </trkpt>
      <trkpt lat="47.6895" lon="6.03688">
        <ele>219.84</ele>
        <time>2019-05-22T09:23:17Z</time>
      </trkpt>
      <trkpt lat="47.68955" lon="6.03691">
        <ele>219.84</ele>
        <time>2019-05-22T09:23:18Z</time>
      </trkpt>
      <trkpt lat="47.68959" lon="6.03694">
        <ele>219.84</ele>
        <time>2019-05-22T09:23:19Z</time>
      </trkpt>
      <trkpt lat="47.68963" lon="6.03697">
        <ele>219.84</ele>
        <time>2019-05-22T09:23:20Z</time>
      </trkpt>
      <trkpt lat="47.68971" lon="6.03703">
        <ele>219.84</ele>
        <time>2019-05-22T09:23:22Z</time>
      </trkpt>
      <trkpt lat="47.68979" lon="6.03709">
        <ele>219.84</ele>
        <time>2019-05-22T09:23:24Z</time>
      </trkpt>
      <trkpt lat="47.68983" lon="6.03713">
        <ele>219.85</ele>
        <time>2019-05-22T09:23:25Z</time>
      </trkpt>
      <trkpt lat="47.68991" lon="6.03719">
        <ele>219.85</ele>
        <time>2019-05-22T09:23:27Z</time>
      </trkpt>
      <trkpt lat="47.68999" lon="6.03725">
        <ele>219.85</ele>
        <time>2019-05-22T09:23:29Z</time>
      </trkpt>
      <trkpt lat="47.69006" lon="6.03729">
        <ele>219.85</ele>
        <time>2019-05-22T09:23:31Z</time>
      </trkpt>
      <trkpt lat="47.69014" lon="6.03733">
        <ele>219.86</ele>
        <time>2019-05-22T09:23:33Z</time>
      </trkpt>
      <trkpt lat="47.69021" lon="6.03738">
        <ele>219.86</ele>
        <time>2019-05-22T09:23:35Z</time>
      </trkpt>
      <trkpt lat="47.69028" lon="6.03744">
        <ele>219.86</ele>
        <time>2019-05-22T09:23:37Z</time>
      </trkpt>
      <trkpt lat="47.69034" lon="6.0375">
        <ele>219.86</ele>
        <time>2019-05-22T09:23:39Z</time>
      </trkpt>
      <trkpt lat="47.6904" lon="6.03755">
        <ele>219.86</ele>
        <time>2019-05-22T09:23:41Z</time>
      </trkpt>
      <trkpt lat="47.69045" lon="6.03759">
        <ele>219.86</ele>
        <time>2019-05-22T09:23:43Z</time>
      </trkpt>
      <trkpt lat="47.69051" lon="6.03763">
        <ele>219.86</ele>
        <time>2019-05-22T09:23:45Z</time>
      </trkpt>
      <trkpt lat="47.69057" lon="6.03767">
        <ele>219.86</ele>
        <time>2019-05-22T09:23:48Z</time>
      </trkpt>
      <trkpt lat="47.69061" lon="6.0377">
        <ele>219.86</ele>
        <time>2019-05-22T09:23:50Z</time>
      </trkpt>
      <trkpt lat="47.69065" lon="6.03773">
        <ele>219.86</ele>
        <time>2019-05-22T09:23:52Z</time>
      </trkpt>
      <trkpt lat="47.6907" lon="6.03777">
        <ele>219.86</ele>
        <time>2019-05-22T09:23:55Z</time>
      </trkpt>
      <trkpt lat="47.69076" lon="6.0378">
        <ele>219.86</ele>
        <time>2019-05-22T09:23:59Z</time>
      </trkpt>
      <trkpt lat="47.6908" lon="6.03784">
        <ele>219.86</ele>
        <time>2019-05-22T09:24:03Z</time>
      </trkpt>
      <trkpt lat="47.69085" lon="6.03788">
        <ele>219.87</ele>
        <time>2019-05-22T09:24:08Z</time>
      </trkpt>
      <trkpt lat="47.69088" lon="6.03793">
        <ele>219.87</ele>
        <time>2019-05-22T09:24:11Z</time>
      </trkpt>
      <trkpt lat="47.6909" lon="6.038">
        <ele>219.88</ele>
        <time>2019-05-22T09:24:14Z</time>
      </trkpt>
      <trkpt lat="47.69089" lon="6.03808">
        <ele>219.89</ele>
        <time>2019-05-22T09:24:17Z</time>
      </trkpt>
      <trkpt lat="47.69087" lon="6.03817">
        <ele>219.9</ele>
        <time>2019-05-22T09:24:20Z</time>
      </trkpt>
      <trkpt lat="47.69084" lon="6.03824">
        <ele>219.91</ele>
        <time>2019-05-22T09:24:23Z</time>
      </trkpt>
      <trkpt lat="47.6908" lon="6.03832">
        <ele>219.92</ele>
        <time>2019-05-22T09:24:26Z</time>
      </trkpt>
      <trkpt lat="47.69078" lon="6.03838">
        <ele>219.93</ele>
        <time>2019-05-22T09:24:28Z</time>
      </trkpt>
      <trkpt lat="47.69075" lon="6.03845">
        <ele>219.94</ele>
        <time>2019-05-22T09:24:30Z</time>
      </trkpt>
      <trkpt lat="47.69071" lon="6.03854">
        <ele>219.95</ele>
        <time>2019-05-22T09:24:32Z</time>
      </trkpt>
      <trkpt lat="47.69067" lon="6.03864">
        <ele>219.97</ele>
        <time>2019-05-22T09:24:34Z</time>
      </trkpt>
      <trkpt lat="47.69063" lon="6.03874">
        <ele>219.98</ele>
        <time>2019-05-22T09:24:36Z</time>
      </trkpt>
      <trkpt lat="47.69059" lon="6.03883">
        <ele>219.99</ele>
        <time>2019-05-22T09:24:38Z</time>
      </trkpt>
      <trkpt lat="47.69055" lon="6.03893">
        <ele>220.01</ele>
        <time>2019-05-22T09:24:40Z</time>
      </trkpt>
      <trkpt lat="47.69051" lon="6.03902">
        <ele>220.02</ele>
        <time>2019-05-22T09:24:42Z</time>
      </trkpt>
      <trkpt lat="47.69048" lon="6.03911">
        <ele>220.09</ele>
        <time>2019-05-22T09:24:44Z</time>
      </trkpt>
      <trkpt lat="47.69044" lon="6.03921">
        <ele>220.22</ele>
        <time>2019-05-22T09:24:46Z</time>
      </trkpt>
      <trkpt lat="47.69041" lon="6.03928">
        <ele>220.27</ele>
        <time>2019-05-22T09:24:47Z</time>
      </trkpt>
      <trkpt lat="47.69037" lon="6.03939">
        <ele>220.32</ele>
        <time>2019-05-22T09:24:48Z</time>
      </trkpt>
      <trkpt lat="47.69034" lon="6.03945">
        <ele>220.35</ele>
        <time>2019-05-22T09:24:49Z</time>
      </trkpt>
      <trkpt lat="47.69031" lon="6.03952">
        <ele>220.39</ele>
        <time>2019-05-22T09:24:50Z</time>
      </trkpt>
      <trkpt lat="47.69028" lon="6.03959">
        <ele>220.42</ele>
        <time>2019-05-22T09:24:51Z</time>
      </trkpt>
      <trkpt lat="47.69026" lon="6.03966">
        <ele>220.45</ele>
        <time>2019-05-22T09:24:52Z</time>
      </trkpt>
      <trkpt lat="47.69023" lon="6.03973">
        <ele>220.47</ele>
        <time>2019-05-22T09:24:53Z</time>
      </trkpt>
      <trkpt lat="47.6902" lon="6.0398">
        <ele>220.49</ele>
        <time>2019-05-22T09:24:54Z</time>
      </trkpt>
      <trkpt lat="47.69017" lon="6.03988">
        <ele>220.52</ele>
        <time>2019-05-22T09:24:55Z</time>
      </trkpt>
      <trkpt lat="47.69014" lon="6.03996">
        <ele>220.54</ele>
        <time>2019-05-22T09:24:56Z</time>
      </trkpt>
      <trkpt lat="47.69011" lon="6.04003">
        <ele>220.56</ele>
        <time>2019-05-22T09:24:57Z</time>
      </trkpt>
      <trkpt lat="47.69008" lon="6.04011">
        <ele>220.58</ele>
        <time>2019-05-22T09:24:58Z</time>
      </trkpt>
      <trkpt lat="47.69005" lon="6.04018">
        <ele>220.6</ele>
        <time>2019-05-22T09:24:59Z</time>
      </trkpt>
      <trkpt lat="47.69002" lon="6.04026">
        <ele>220.61</ele>
        <time>2019-05-22T09:25:00Z</time>
      </trkpt>
      <trkpt lat="47.68998" lon="6.04033">
        <ele>220.63</ele>
        <time>2019-05-22T09:25:01Z</time>
      </trkpt>
      <trkpt lat="47.68995" lon="6.0404">
        <ele>220.65</ele>
        <time>2019-05-22T09:25:02Z</time>
      </trkpt>
      <trkpt lat="47.68992" lon="6.04048">
        <ele>220.67</ele>
        <time>2019-05-22T09:25:03Z</time>
      </trkpt>
      <trkpt lat="47.68989" lon="6.04055">
        <ele>220.69</ele>
        <time>2019-05-22T09:25:04Z</time>
      </trkpt>
      <trkpt lat="47.68986" lon="6.04063">
        <ele>220.71</ele>
        <time>2019-05-22T09:25:05Z</time>
      </trkpt>
      <trkpt lat="47.68983" lon="6.04071">
        <ele>220.73</ele>
        <time>2019-05-22T09:25:06Z</time>
      </trkpt>
      <trkpt lat="47.6898" lon="6.04078">
        <ele>220.75</ele>
        <time>2019-05-22T09:25:07Z</time>
      </trkpt>
      <trkpt lat="47.68977" lon="6.04085">
        <ele>220.77</ele>
        <time>2019-05-22T09:25:08Z</time>
      </trkpt>
      <trkpt lat="47.68974" lon="6.04092">
        <ele>220.79</ele>
        <time>2019-05-22T09:25:09Z</time>
      </trkpt>
      <trkpt lat="47.68971" lon="6.041">
        <ele>220.81</ele>
        <time>2019-05-22T09:25:10Z</time>
      </trkpt>
      <trkpt lat="47.68968" lon="6.04107">
        <ele>220.83</ele>
        <time>2019-05-22T09:25:11Z</time>
      </trkpt>
      <trkpt lat="47.68966" lon="6.04114">
        <ele>220.85</ele>
        <time>2019-05-22T09:25:12Z</time>
      </trkpt>
      <trkpt lat="47.68963" lon="6.0412">
        <ele>220.87</ele>
        <time>2019-05-22T09:25:13Z</time>
      </trkpt>
      <trkpt lat="47.68961" lon="6.04126">
        <ele>220.89</ele>
        <time>2019-05-22T09:25:14Z</time>
      </trkpt>
      <trkpt lat="47.68957" lon="6.04137">
        <ele>220.92</ele>
        <time>2019-05-22T09:25:16Z</time>
      </trkpt>
      <trkpt lat="47.68952" lon="6.04148">
        <ele>220.96</ele>
        <time>2019-05-22T09:25:18Z</time>
      </trkpt>
      <trkpt lat="47.6895" lon="6.04154">
        <ele>220.98</ele>
        <time>2019-05-22T09:25:19Z</time>
      </trkpt>
      <trkpt lat="47.68948" lon="6.0416">
        <ele>220.99</ele>
        <time>2019-05-22T09:25:20Z</time>
      </trkpt>
      <trkpt lat="47.68945" lon="6.04166">
        <ele>221.01</ele>
        <time>2019-05-22T09:25:21Z</time>
      </trkpt>
      <trkpt lat="47.6894" lon="6.04177">
        <ele>221.05</ele>
        <time>2019-05-22T09:25:23Z</time>
      </trkpt>
      <trkpt lat="47.68935" lon="6.04189">
        <ele>221.09</ele>
        <time>2019-05-22T09:25:25Z</time>
      </trkpt>
      <trkpt lat="47.6893" lon="6.042">
        <ele>221.15</ele>
        <time>2019-05-22T09:25:27Z</time>
      </trkpt>
      <trkpt lat="47.68926" lon="6.04211">
        <ele>221.21</ele>
        <time>2019-05-22T09:25:29Z</time>
      </trkpt>
      <trkpt lat="47.68924" lon="6.04217">
        <ele>221.24</ele>
        <time>2019-05-22T09:25:30Z</time>
      </trkpt>
      <trkpt lat="47.68919" lon="6.04227">
        <ele>221.28</ele>
        <time>2019-05-22T09:25:32Z</time>
      </trkpt>
      <trkpt lat="47.68915" lon="6.04237">
        <ele>221.29</ele>
        <time>2019-05-22T09:25:34Z</time>
      </trkpt>
      <trkpt lat="47.68912" lon="6.04245">
        <ele>221.3</ele>
        <time>2019-05-22T09:25:36Z</time>
      </trkpt>
      <trkpt lat="47.68908" lon="6.04252">
        <ele>221.31</ele>
        <time>2019-05-22T09:25:38Z</time>
      </trkpt>
      <trkpt lat="47.68901" lon="6.0425">
        <ele>221.38</ele>
        <time>2019-05-22T09:25:40Z</time>
      </trkpt>
      <trkpt lat="47.68896" lon="6.04247">
        <ele>221.45</ele>
        <time>2019-05-22T09:25:41Z</time>
      </trkpt>
      <trkpt lat="47.68891" lon="6.04244">
        <ele>221.51</ele>
        <time>2019-05-22T09:25:42Z</time>
      </trkpt>
      <trkpt lat="47.68886" lon="6.04242">
        <ele>221.58</ele>
        <time>2019-05-22T09:25:43Z</time>
      </trkpt>
      <trkpt lat="47.68881" lon="6.04239">
        <ele>221.66</ele>
        <time>2019-05-22T09:25:44Z</time>
      </trkpt>
      <trkpt lat="47.68874" lon="6.04237">
        <ele>221.73</ele>
        <time>2019-05-22T09:25:45Z</time>
      </trkpt>
      <trkpt lat="47.68867" lon="6.04234">
        <ele>221.79</ele>
        <time>2019-05-22T09:25:46Z</time>
      </trkpt>
      <trkpt lat="47.6886" lon="6.04233">
        <ele>221.85</ele>
        <time>2019-05-22T09:25:47Z</time>
      </trkpt>
      <trkpt lat="47.68852" lon="6.04232">
        <ele>221.91</ele>
        <time>2019-05-22T09:25:48Z</time>
      </trkpt>
      <trkpt lat="47.68845" lon="6.04234">
        <ele>221.96</ele>
        <time>2019-05-22T09:25:49Z</time>
      </trkpt>
      <trkpt lat="47.68838" lon="6.04236">
        <ele>222.01</ele>
        <time>2019-05-22T09:25:50Z</time>
      </trkpt>
      <trkpt lat="47.68832" lon="6.04238">
        <ele>222.07</ele>
        <time>2019-05-22T09:25:51Z</time>
      </trkpt>
      <trkpt lat="47.68825" lon="6.04238">
        <ele>222.12</ele>
        <time>2019-05-22T09:25:52Z</time>
      </trkpt>
      <trkpt lat="47.68819" lon="6.04239">
        <ele>222.15</ele>
        <time>2019-05-22T09:25:53Z</time>
      </trkpt>
      <trkpt lat="47.68813" lon="6.04239">
        <ele>222.19</ele>
        <time>2019-05-22T09:25:54Z</time>
      </trkpt>
      <trkpt lat="47.68807" lon="6.04238">
        <ele>222.24</ele>
        <time>2019-05-22T09:25:55Z</time>
      </trkpt>
      <trkpt lat="47.68801" lon="6.04236">
        <ele>222.3</ele>
        <time>2019-05-22T09:25:56Z</time>
      </trkpt>
      <trkpt lat="47.68795" lon="6.04233">
        <ele>222.35</ele>
        <time>2019-05-22T09:25:57Z</time>
      </trkpt>
      <trkpt lat="47.68789" lon="6.04231">
        <ele>222.38</ele>
        <time>2019-05-22T09:25:58Z</time>
      </trkpt>
      <trkpt lat="47.68784" lon="6.0423">
        <ele>222.44</ele>
        <time>2019-05-22T09:25:59Z</time>
      </trkpt>
      <trkpt lat="47.68778" lon="6.0423">
        <ele>222.51</ele>
        <time>2019-05-22T09:26:00Z</time>
      </trkpt>
      <trkpt lat="47.68773" lon="6.0423">
        <ele>222.59</ele>
        <time>2019-05-22T09:26:01Z</time>
      </trkpt>
      <trkpt lat="47.68768" lon="6.0423">
        <ele>222.67</ele>
        <time>2019-05-22T09:26:02Z</time>
      </trkpt>
      <trkpt lat="47.68763" lon="6.04229">
        <ele>222.74</ele>
        <time>2019-05-22T09:26:03Z</time>
      </trkpt>
      <trkpt lat="47.68759" lon="6.04229">
        <ele>222.79</ele>
        <time>2019-05-22T09:26:04Z</time>
      </trkpt>
      <trkpt lat="47.6875" lon="6.04229">
        <ele>222.88</ele>
        <time>2019-05-22T09:26:06Z</time>
      </trkpt>
      <trkpt lat="47.68745" lon="6.04229">
        <ele>222.95</ele>
        <time>2019-05-22T09:26:07Z</time>
      </trkpt>
      <trkpt lat="47.68736" lon="6.04228">
        <ele>223.16</ele>
        <time>2019-05-22T09:26:09Z</time>
      </trkpt>
      <trkpt lat="47.68731" lon="6.04228">
        <ele>223.25</ele>
        <time>2019-05-22T09:26:10Z</time>
      </trkpt>
      <trkpt lat="47.68726" lon="6.04227">
        <ele>223.33</ele>
        <time>2019-05-22T09:26:11Z</time>
      </trkpt>
      <trkpt lat="47.68722" lon="6.04226">
        <ele>223.39</ele>
        <time>2019-05-22T09:26:12Z</time>
      </trkpt>
      <trkpt lat="47.68717" lon="6.04226">
        <ele>223.44</ele>
        <time>2019-05-22T09:26:13Z</time>
      </trkpt>
      <trkpt lat="47.68712" lon="6.04225">
        <ele>223.46</ele>
        <time>2019-05-22T09:26:14Z</time>
      </trkpt>
      <trkpt lat="47.68707" lon="6.04224">
        <ele>223.48</ele>
        <time>2019-05-22T09:26:15Z</time>
      </trkpt>
      <trkpt lat="47.68702" lon="6.04223">
        <ele>223.5</ele>
        <time>2019-05-22T09:26:16Z</time>
      </trkpt>
      <trkpt lat="47.68697" lon="6.04222">
        <ele>223.54</ele>
        <time>2019-05-22T09:26:17Z</time>
      </trkpt>
      <trkpt lat="47.68691" lon="6.04221">
        <ele>223.63</ele>
        <time>2019-05-22T09:26:18Z</time>
      </trkpt>
      <trkpt lat="47.68686" lon="6.04219">
        <ele>223.76</ele>
        <time>2019-05-22T09:26:19Z</time>
      </trkpt>
      <trkpt lat="47.6868" lon="6.04218">
        <ele>223.93</ele>
        <time>2019-05-22T09:26:20Z</time>
      </trkpt>
      <trkpt lat="47.68675" lon="6.04216">
        <ele>224.1</ele>
        <time>2019-05-22T09:26:21Z</time>
      </trkpt>
      <trkpt lat="47.6867" lon="6.04215">
        <ele>224.25</ele>
        <time>2019-05-22T09:26:22Z</time>
      </trkpt>
      <trkpt lat="47.68665" lon="6.04213">
        <ele>224.38</ele>
        <time>2019-05-22T09:26:23Z</time>
      </trkpt>
      <trkpt lat="47.68661" lon="6.04212">
        <ele>224.46</ele>
        <time>2019-05-22T09:26:24Z</time>
      </trkpt>
      <trkpt lat="47.68652" lon="6.04209">
        <ele>224.57</ele>
        <time>2019-05-22T09:26:26Z</time>
      </trkpt>
      <trkpt lat="47.68647" lon="6.04208">
        <ele>224.6</ele>
        <time>2019-05-22T09:26:27Z</time>
      </trkpt>
      <trkpt lat="47.68643" lon="6.04207">
        <ele>224.62</ele>
        <time>2019-05-22T09:26:28Z</time>
      </trkpt>
      <trkpt lat="47.68638" lon="6.04205">
        <ele>224.66</ele>
        <time>2019-05-22T09:26:29Z</time>
      </trkpt>
      <trkpt lat="47.68633" lon="6.04204">
        <ele>224.7</ele>
        <time>2019-05-22T09:26:30Z</time>
      </trkpt>
      <trkpt lat="47.68629" lon="6.04202">
        <ele>224.73</ele>
        <time>2019-05-22T09:26:31Z</time>
      </trkpt>
      <trkpt lat="47.68624" lon="6.042">
        <ele>224.76</ele>
        <time>2019-05-22T09:26:32Z</time>
      </trkpt>
      <trkpt lat="47.68619" lon="6.04199">
        <ele>224.82</ele>
        <time>2019-05-22T09:26:33Z</time>
      </trkpt>
      <trkpt lat="47.68614" lon="6.04197">
        <ele>224.89</ele>
        <time>2019-05-22T09:26:34Z</time>
      </trkpt>
      <trkpt lat="47.6861" lon="6.04196">
        <ele>224.98</ele>
        <time>2019-05-22T09:26:35Z</time>
      </trkpt>
      <trkpt lat="47.68605" lon="6.04195">
        <ele>225.08</ele>
        <time>2019-05-22T09:26:36Z</time>
      </trkpt>
      <trkpt lat="47.686" lon="6.04194">
        <ele>225.15</ele>
        <time>2019-05-22T09:26:37Z</time>
      </trkpt>
      <trkpt lat="47.68595" lon="6.04192">
        <ele>225.22</ele>
        <time>2019-05-22T09:26:38Z</time>
      </trkpt>
      <trkpt lat="47.68591" lon="6.04192">
        <ele>225.29</ele>
        <time>2019-05-22T09:26:39Z</time>
      </trkpt>
      <trkpt lat="47.68586" lon="6.04191">
        <ele>225.35</ele>
        <time>2019-05-22T09:26:40Z</time>
      </trkpt>
      <trkpt lat="47.68577" lon="6.04188">
        <ele>225.48</ele>
        <time>2019-05-22T09:26:42Z</time>
      </trkpt>
      <trkpt lat="47.68572" lon="6.04186">
        <ele>225.53</ele>
        <time>2019-05-22T09:26:43Z</time>
      </trkpt>
      <trkpt lat="47.68567" lon="6.04185">
        <ele>225.55</ele>
        <time>2019-05-22T09:26:44Z</time>
      </trkpt>
      <trkpt lat="47.68562" lon="6.04183">
        <ele>225.58</ele>
        <time>2019-05-22T09:26:45Z</time>
      </trkpt>
      <trkpt lat="47.68558" lon="6.04182">
        <ele>225.6</ele>
        <time>2019-05-22T09:26:46Z</time>
      </trkpt>
      <trkpt lat="47.68553" lon="6.0418">
        <ele>225.64</ele>
        <time>2019-05-22T09:26:47Z</time>
      </trkpt>
      <trkpt lat="47.68549" lon="6.04179">
        <ele>225.69</ele>
        <time>2019-05-22T09:26:48Z</time>
      </trkpt>
      <trkpt lat="47.68544" lon="6.04178">
        <ele>225.74</ele>
        <time>2019-05-22T09:26:49Z</time>
      </trkpt>
      <trkpt lat="47.68539" lon="6.04177">
        <ele>225.8</ele>
        <time>2019-05-22T09:26:50Z</time>
      </trkpt>
      <trkpt lat="47.6853" lon="6.04174">
        <ele>225.89</ele>
        <time>2019-05-22T09:26:52Z</time>
      </trkpt>
      <trkpt lat="47.68526" lon="6.04173">
        <ele>225.91</ele>
        <time>2019-05-22T09:26:53Z</time>
      </trkpt>
      <trkpt lat="47.68522" lon="6.04172">
        <ele>225.93</ele>
        <time>2019-05-22T09:26:54Z</time>
      </trkpt>
      <trkpt lat="47.68517" lon="6.04171">
        <ele>225.96</ele>
        <time>2019-05-22T09:26:55Z</time>
      </trkpt>
      <trkpt lat="47.68512" lon="6.04171">
        <ele>225.98</ele>
        <time>2019-05-22T09:26:56Z</time>
      </trkpt>
      <trkpt lat="47.68504" lon="6.0417">
        <ele>226.05</ele>
        <time>2019-05-22T09:26:58Z</time>
      </trkpt>
      <trkpt lat="47.68499" lon="6.04169">
        <ele>226.08</ele>
        <time>2019-05-22T09:26:59Z</time>
      </trkpt>
      <trkpt lat="47.68495" lon="6.04169">
        <ele>226.13</ele>
        <time>2019-05-22T09:27:00Z</time>
      </trkpt>
      <trkpt lat="47.68487" lon="6.04168">
        <ele>226.26</ele>
        <time>2019-05-22T09:27:02Z</time>
      </trkpt>
      <trkpt lat="47.68478" lon="6.04167">
        <ele>226.39</ele>
        <time>2019-05-22T09:27:04Z</time>
      </trkpt>
      <trkpt lat="47.6847" lon="6.04168">
        <ele>226.54</ele>
        <time>2019-05-22T09:27:06Z</time>
      </trkpt>
      <trkpt lat="47.68462" lon="6.04167">
        <ele>226.68</ele>
        <time>2019-05-22T09:27:08Z</time>
      </trkpt>
      <trkpt lat="47.68454" lon="6.04166">
        <ele>226.82</ele>
        <time>2019-05-22T09:27:10Z</time>
      </trkpt>
      <trkpt lat="47.68445" lon="6.04165">
        <ele>226.97</ele>
        <time>2019-05-22T09:27:12Z</time>
      </trkpt>
      <trkpt lat="47.68436" lon="6.04164">
        <ele>227.1</ele>
        <time>2019-05-22T09:27:14Z</time>
      </trkpt>
      <trkpt lat="47.68428" lon="6.04164">
        <ele>227.2</ele>
        <time>2019-05-22T09:27:16Z</time>
      </trkpt>
      <trkpt lat="47.68419" lon="6.04163">
        <ele>227.3</ele>
        <time>2019-05-22T09:27:18Z</time>
      </trkpt>
      <trkpt lat="47.68411" lon="6.04163">
        <ele>227.38</ele>
        <time>2019-05-22T09:27:20Z</time>
      </trkpt>
      <trkpt lat="47.68403" lon="6.04161">
        <ele>227.42</ele>
        <time>2019-05-22T09:27:22Z</time>
      </trkpt>
      <trkpt lat="47.68395" lon="6.04161">
        <ele>227.47</ele>
        <time>2019-05-22T09:27:24Z</time>
      </trkpt>
      <trkpt lat="47.68387" lon="6.04161">
        <ele>227.49</ele>
        <time>2019-05-22T09:27:26Z</time>
      </trkpt>
      <trkpt lat="47.6838" lon="6.0416">
        <ele>227.51</ele>
        <time>2019-05-22T09:27:28Z</time>
      </trkpt>
      <trkpt lat="47.68373" lon="6.0416">
        <ele>227.51</ele>
        <time>2019-05-22T09:27:30Z</time>
      </trkpt>
      <trkpt lat="47.68367" lon="6.04159">
        <ele>227.52</ele>
        <time>2019-05-22T09:27:32Z</time>
      </trkpt>
      <trkpt lat="47.6836" lon="6.04161">
        <ele>227.52</ele>
        <time>2019-05-22T09:27:34Z</time>
      </trkpt>
      <trkpt lat="47.68354" lon="6.04168">
        <ele>227.58</ele>
        <time>2019-05-22T09:27:36Z</time>
      </trkpt>
      <trkpt lat="47.68351" lon="6.04176">
        <ele>227.59</ele>
        <time>2019-05-22T09:27:38Z</time>
      </trkpt>
      <trkpt lat="47.68352" lon="6.04186">
        <ele>227.59</ele>
        <time>2019-05-22T09:27:40Z</time>
      </trkpt>
      <trkpt lat="47.68352" lon="6.04197">
        <ele>227.6</ele>
        <time>2019-05-22T09:27:42Z</time>
      </trkpt>
      <trkpt lat="47.68352" lon="6.04209">
        <ele>227.6</ele>
        <time>2019-05-22T09:27:44Z</time>
      </trkpt>
      <trkpt lat="47.68354" lon="6.04217">
        <ele>227.61</ele>
        <time>2019-05-22T09:27:46Z</time>
      </trkpt>
      <trkpt lat="47.68357" lon="6.04224">
        <ele>227.61</ele>
        <time>2019-05-22T09:27:47Z</time>
      </trkpt>
      <trkpt lat="47.68363" lon="6.04232">
        <ele>227.66</ele>
        <time>2019-05-22T09:27:49Z</time>
      </trkpt>
      <trkpt lat="47.68367" lon="6.04242">
        <ele>227.72</ele>
        <time>2019-05-22T09:27:51Z</time>
      </trkpt>
      <trkpt lat="47.68373" lon="6.0425">
        <ele>227.77</ele>
        <time>2019-05-22T09:27:53Z</time>
      </trkpt>
      <trkpt lat="47.68381" lon="6.04254">
        <ele>227.79</ele>
        <time>2019-05-22T09:27:55Z</time>
      </trkpt>
      <trkpt lat="47.68388" lon="6.04259">
        <ele>227.8</ele>
        <time>2019-05-22T09:27:57Z</time>
      </trkpt>
      <trkpt lat="47.6839" lon="6.04267">
        <ele>227.8</ele>
        <time>2019-05-22T09:27:59Z</time>
      </trkpt>
      <trkpt lat="47.68391" lon="6.04275">
        <ele>227.81</ele>
        <time>2019-05-22T09:28:01Z</time>
      </trkpt>
      <trkpt lat="47.68391" lon="6.04284">
        <ele>227.83</ele>
        <time>2019-05-22T09:28:04Z</time>
      </trkpt>
      <trkpt lat="47.68391" lon="6.04293">
        <ele>227.84</ele>
        <time>2019-05-22T09:28:07Z</time>
      </trkpt>
      <trkpt lat="47.68391" lon="6.04299">
        <ele>227.85</ele>
        <time>2019-05-22T09:28:09Z</time>
      </trkpt>
      <trkpt lat="47.68391" lon="6.04307">
        <ele>227.87</ele>
        <time>2019-05-22T09:28:11Z</time>
      </trkpt>
      <trkpt lat="47.68392" lon="6.04316">
        <ele>227.89</ele>
        <time>2019-05-22T09:28:14Z</time>
      </trkpt>
      <trkpt lat="47.68392" lon="6.04323">
        <ele>227.91</ele>
        <time>2019-05-22T09:28:16Z</time>
      </trkpt>
      <trkpt lat="47.68392" lon="6.04333">
        <ele>227.94</ele>
        <time>2019-05-22T09:28:19Z</time>
      </trkpt>
      <trkpt lat="47.68392" lon="6.04343">
        <ele>227.98</ele>
        <time>2019-05-22T09:28:22Z</time>
      </trkpt>
      <trkpt lat="47.68392" lon="6.0435">
        <ele>228.01</ele>
        <time>2019-05-22T09:28:24Z</time>
      </trkpt>
      <trkpt lat="47.68392" lon="6.04357">
        <ele>228.03</ele>
        <time>2019-05-22T09:28:26Z</time>
      </trkpt>
      <trkpt lat="47.68392" lon="6.04367">
        <ele>228.08</ele>
        <time>2019-05-22T09:28:29Z</time>
      </trkpt>
      <trkpt lat="47.68392" lon="6.04374">
        <ele>228.11</ele>
        <time>2019-05-22T09:28:31Z</time>
      </trkpt>
      <trkpt lat="47.68392" lon="6.04381">
        <ele>228.14</ele>
        <time>2019-05-22T09:28:33Z</time>
      </trkpt>
      <trkpt lat="47.68392" lon="6.04388">
        <ele>228.18</ele>
        <time>2019-05-22T09:28:35Z</time>
      </trkpt>
      <trkpt lat="47.68392" lon="6.04395">
        <ele>228.22</ele>
        <time>2019-05-22T09:28:37Z</time>
      </trkpt>
      <trkpt lat="47.68393" lon="6.04403">
        <ele>228.26</ele>
        <time>2019-05-22T09:28:39Z</time>
      </trkpt>
      <trkpt lat="47.68393" lon="6.04412">
        <ele>228.3</ele>
        <time>2019-05-22T09:28:41Z</time>
      </trkpt>
      <trkpt lat="47.68394" lon="6.04423">
        <ele>228.34</ele>
        <time>2019-05-22T09:28:43Z</time>
      </trkpt>
      <trkpt lat="47.68396" lon="6.0443">
        <ele>228.38</ele>
        <time>2019-05-22T09:28:45Z</time>
      </trkpt>
      <trkpt lat="47.684" lon="6.04436">
        <ele>228.43</ele>
        <time>2019-05-22T09:28:47Z</time>
      </trkpt>
      <trkpt lat="47.68405" lon="6.04439">
        <ele>228.47</ele>
        <time>2019-05-22T09:28:49Z</time>
      </trkpt>
      <trkpt lat="47.68411" lon="6.04439">
        <ele>228.52</ele>
        <time>2019-05-22T09:28:51Z</time>
      </trkpt>
      <trkpt lat="47.68416" lon="6.04439">
        <ele>228.57</ele>
        <time>2019-05-22T09:28:53Z</time>
      </trkpt>
      <trkpt lat="47.68422" lon="6.04439">
        <ele>228.61</ele>
        <time>2019-05-22T09:28:55Z</time>
      </trkpt>
      <trkpt lat="47.68428" lon="6.04439">
        <ele>228.65</ele>
        <time>2019-05-22T09:28:57Z</time>
      </trkpt>
      <trkpt lat="47.68433" lon="6.04439">
        <ele>228.7</ele>
        <time>2019-05-22T09:28:59Z</time>
      </trkpt>
      <trkpt lat="47.68438" lon="6.04439">
        <ele>228.74</ele>
        <time>2019-05-22T09:29:01Z</time>
      </trkpt>
      <trkpt lat="47.68444" lon="6.04438">
        <ele>228.81</ele>
        <time>2019-05-22T09:29:04Z</time>
      </trkpt>
      <trkpt lat="47.6845" lon="6.04439">
        <ele>228.89</ele>
        <time>2019-05-22T09:29:07Z</time>
      </trkpt>
      <trkpt lat="47.68455" lon="6.04439">
        <ele>228.96</ele>
        <time>2019-05-22T09:29:10Z</time>
      </trkpt>
      <trkpt lat="47.68461" lon="6.04439">
        <ele>229.03</ele>
        <time>2019-05-22T09:29:13Z</time>
      </trkpt>
      <trkpt lat="47.68466" lon="6.04439">
        <ele>229.1</ele>
        <time>2019-05-22T09:29:16Z</time>
      </trkpt>
      <trkpt lat="47.68471" lon="6.04439">
        <ele>229.17</ele>
        <time>2019-05-22T09:29:19Z</time>
      </trkpt>
      <trkpt lat="47.68477" lon="6.04438">
        <ele>229.23</ele>
        <time>2019-05-22T09:29:22Z</time>
      </trkpt>
      <trkpt lat="47.68483" lon="6.04437">
        <ele>229.29</ele>
        <time>2019-05-22T09:29:25Z</time>
      </trkpt>
      <trkpt lat="47.68488" lon="6.04437">
        <ele>229.34</ele>
        <time>2019-05-22T09:29:28Z</time>
      </trkpt>
      <trkpt lat="47.68493" lon="6.04438">
        <ele>229.39</ele>
        <time>2019-05-22T09:29:31Z</time>
      </trkpt>
      <trkpt lat="47.68498" lon="6.04441">
        <ele>229.44</ele>
        <time>2019-05-22T09:29:34Z</time>
      </trkpt>
      <trkpt lat="47.68503" lon="6.04445">
        <ele>229.49</ele>
        <time>2019-05-22T09:29:37Z</time>
      </trkpt>
      <trkpt lat="47.68508" lon="6.04449">
        <ele>229.54</ele>
        <time>2019-05-22T09:29:40Z</time>
      </trkpt>
      <trkpt lat="47.68513" lon="6.04452">
        <ele>229.59</ele>
        <time>2019-05-22T09:29:43Z</time>
      </trkpt>
      <trkpt lat="47.68518" lon="6.04456">
        <ele>229.64</ele>
        <time>2019-05-22T09:29:46Z</time>
      </trkpt>
      <trkpt lat="47.68523" lon="6.0446">
        <ele>229.69</ele>
        <time>2019-05-22T09:29:49Z</time>
      </trkpt>
      <trkpt lat="47.68528" lon="6.04463">
        <ele>229.74</ele>
        <time>2019-05-22T09:29:52Z</time>
      </trkpt>
      <trkpt lat="47.68533" lon="6.04467">
        <ele>229.78</ele>
        <time>2019-05-22T09:29:55Z</time>
      </trkpt>
      <trkpt lat="47.68537" lon="6.0447">
        <ele>229.83</ele>
        <time>2019-05-22T09:29:58Z</time>
      </trkpt>
      <trkpt lat="47.68542" lon="6.04474">
        <ele>229.87</ele>
        <time>2019-05-22T09:30:01Z</time>
      </trkpt>
      <trkpt lat="47.68548" lon="6.04478">
        <ele>229.92</ele>
        <time>2019-05-22T09:30:04Z</time>
      </trkpt>
      <trkpt lat="47.68553" lon="6.04482">
        <ele>229.96</ele>
        <time>2019-05-22T09:30:07Z</time>
      </trkpt>
      <trkpt lat="47.68558" lon="6.04486">
        <ele>230</ele>
        <time>2019-05-22T09:30:10Z</time>
      </trkpt>
      <trkpt lat="47.68562" lon="6.0449">
        <ele>230.03</ele>
        <time>2019-05-22T09:30:13Z</time>
      </trkpt>
      <trkpt lat="47.68567" lon="6.04493">
        <ele>230.06</ele>
        <time>2019-05-22T09:30:16Z</time>
      </trkpt>
      <trkpt lat="47.68571" lon="6.04496">
        <ele>230.09</ele>
        <time>2019-05-22T09:30:19Z</time>
      </trkpt>
      <trkpt lat="47.68575" lon="6.045">
        <ele>230.12</ele>
        <time>2019-05-22T09:30:22Z</time>
      </trkpt>
      <trkpt lat="47.68579" lon="6.04503">
        <ele>230.15</ele>
        <time>2019-05-22T09:30:25Z</time>
      </trkpt>
      <trkpt lat="47.68584" lon="6.04507">
        <ele>230.18</ele>
        <time>2019-05-22T09:30:28Z</time>
      </trkpt>
      <trkpt lat="47.6859" lon="6.04511">
        <ele>230.21</ele>
        <time>2019-05-22T09:30:32Z</time>
      </trkpt>
      <trkpt lat="47.68595" lon="6.04515">
        <ele>230.25</ele>
        <time>2019-05-22T09:30:36Z</time>
      </trkpt>
      <trkpt lat="47.686" lon="6.04518">
        <ele>230.29</ele>
        <time>2019-05-22T09:30:40Z</time>
      </trkpt>
      <trkpt lat="47.68604" lon="6.04521">
        <ele>230.33</ele>
        <time>2019-05-22T09:30:43Z</time>
      </trkpt>
      <trkpt lat="47.68609" lon="6.04524">
        <ele>230.36</ele>
        <time>2019-05-22T09:30:46Z</time>
      </trkpt>
      <trkpt lat="47.68613" lon="6.04527">
        <ele>230.41</ele>
        <time>2019-05-22T09:30:49Z</time>
      </trkpt>
      <trkpt lat="47.68617" lon="6.04531">
        <ele>230.45</ele>
        <time>2019-05-22T09:30:52Z</time>
      </trkpt>
      <trkpt lat="47.68621" lon="6.04535">
        <ele>230.51</ele>
        <time>2019-05-22T09:30:56Z</time>
      </trkpt>
      <trkpt lat="47.68625" lon="6.04541">
        <ele>230.58</ele>
        <time>2019-05-22T09:31:00Z</time>
      </trkpt>
      <trkpt lat="47.68623" lon="6.04549">
        <ele>230.72</ele>
        <time>2019-05-22T09:31:07Z</time>
      </trkpt>
    </trkseg>
  </trk>
</gpx>